<?xml version="1.0" encoding="UTF-8" standalone="no" ?>
<gpx xmlns="http://www.topografix.com/GPX/1/1" xmlns:xsi="http://www.w3.org/2001/XMLSchema-instance" xsi:schemaLocation="http://www.topografix.com/GPX/1/1 http://www.topografix.com/GPX/1/1/gpx.xsd" version="1.1" creator="VisuGPX - https://www.visugpx.com">
  <metadata>
    <name>Marche de la gym de marsannay le merc 01 Mai 2019</name>
    <desc><![CDATA[circuit dans l'arrière pays de Fixin]]></desc>
  </metadata>
  <trk>
    <name><![CDATA[20190501144059-izmY9]]></name>
    <trkseg>
      <trkpt lat="47.24554" lon="4.96544">
        <ele>355.06646728516</ele>
        <time>2019-05-01T11:48:47 0200</time>
      </trkpt>
      <trkpt lat="47.24552" lon="4.96539">
        <ele>356.43807983398</ele>
        <time>2019-05-01T11:48:44 0200</time>
      </trkpt>
      <trkpt lat="47.24552" lon="4.96538">
        <ele>356.57604980469</ele>
        <time>2019-05-01T11:48:41 0200</time>
      </trkpt>
      <trkpt lat="47.24551" lon="4.96538">
        <ele>356.70761108398</ele>
        <time>2019-05-01T11:48:38 0200</time>
      </trkpt>
      <trkpt lat="47.24551" lon="4.96534">
        <ele>357.22393798828</ele>
        <time>2019-05-01T11:48:35 0200</time>
      </trkpt>
      <trkpt lat="47.2455" lon="4.9653">
        <ele>357.73327636719</ele>
        <time>2019-05-01T11:48:32 0200</time>
      </trkpt>
      <trkpt lat="47.2455" lon="4.96528">
        <ele>357.85131835938</ele>
        <time>2019-05-01T11:48:29 0200</time>
      </trkpt>
      <trkpt lat="47.24549" lon="4.96526">
        <ele>357.95819091797</ele>
        <time>2019-05-01T11:48:26 0200</time>
      </trkpt>
      <trkpt lat="47.24549" lon="4.96526">
        <ele>358.05676269531</ele>
        <time>2019-05-01T11:48:23 0200</time>
      </trkpt>
      <trkpt lat="47.24549" lon="4.96524">
        <ele>358.14273071289</ele>
        <time>2019-05-01T11:48:20 0200</time>
      </trkpt>
      <trkpt lat="47.24547" lon="4.96513">
        <ele>358.69924926758</ele>
        <time>2019-05-01T11:48:17 0200</time>
      </trkpt>
      <trkpt lat="47.24546" lon="4.9651">
        <ele>358.98880004883</ele>
        <time>2019-05-01T11:48:14 0200</time>
      </trkpt>
      <trkpt lat="47.24546" lon="4.96508">
        <ele>359.5231628418</ele>
        <time>2019-05-01T11:48:11 0200</time>
      </trkpt>
      <trkpt lat="47.24544" lon="4.965">
        <ele>359.99865722656</ele>
        <time>2019-05-01T11:48:08 0200</time>
      </trkpt>
      <trkpt lat="47.24542" lon="4.96492">
        <ele>360.60485839844</ele>
        <time>2019-05-01T11:48:05 0200</time>
      </trkpt>
      <trkpt lat="47.2454" lon="4.9649">
        <ele>361.0065612793</ele>
        <time>2019-05-01T11:48:02 0200</time>
      </trkpt>
      <trkpt lat="47.24537" lon="4.96485">
        <ele>361.25103759766</ele>
        <time>2019-05-01T11:47:59 0200</time>
      </trkpt>
      <trkpt lat="47.24535" lon="4.96482">
        <ele>361.35070800781</ele>
        <time>2019-05-01T11:47:56 0200</time>
      </trkpt>
      <trkpt lat="47.24533" lon="4.96481">
        <ele>361.37841796875</ele>
        <time>2019-05-01T11:47:53 0200</time>
      </trkpt>
      <trkpt lat="47.24532" lon="4.9648">
        <ele>361.33938598633</ele>
        <time>2019-05-01T11:47:50 0200</time>
      </trkpt>
      <trkpt lat="47.24531" lon="4.96479">
        <ele>361.25411987305</ele>
        <time>2019-05-01T11:47:47 0200</time>
      </trkpt>
      <trkpt lat="47.2453" lon="4.96479">
        <ele>361.15859985352</ele>
        <time>2019-05-01T11:47:44 0200</time>
      </trkpt>
      <trkpt lat="47.24528" lon="4.9648">
        <ele>361.07952880859</ele>
        <time>2019-05-01T11:47:41 0200</time>
      </trkpt>
      <trkpt lat="47.24524" lon="4.9648">
        <ele>361.04455566406</ele>
        <time>2019-05-01T11:47:38 0200</time>
      </trkpt>
      <trkpt lat="47.24525" lon="4.96486">
        <ele>361.06753540039</ele>
        <time>2019-05-01T11:47:35 0200</time>
      </trkpt>
      <trkpt lat="47.24523" lon="4.96489">
        <ele>361.06332397461</ele>
        <time>2019-05-01T11:47:32 0200</time>
      </trkpt>
      <trkpt lat="47.24521" lon="4.96492">
        <ele>361.01470947266</ele>
        <time>2019-05-01T11:47:29 0200</time>
      </trkpt>
      <trkpt lat="47.2452" lon="4.96498">
        <ele>360.91094970703</ele>
        <time>2019-05-01T11:47:26 0200</time>
      </trkpt>
      <trkpt lat="47.24517" lon="4.96499">
        <ele>360.74520874023</ele>
        <time>2019-05-01T11:47:23 0200</time>
      </trkpt>
      <trkpt lat="47.24514" lon="4.965">
        <ele>360.63906860352</ele>
        <time>2019-05-01T11:47:20 0200</time>
      </trkpt>
      <trkpt lat="47.24508" lon="4.96499">
        <ele>360.58209228516</ele>
        <time>2019-05-01T11:47:17 0200</time>
      </trkpt>
      <trkpt lat="47.24505" lon="4.96499">
        <ele>360.59469604492</ele>
        <time>2019-05-01T11:47:14 0200</time>
      </trkpt>
      <trkpt lat="47.24505" lon="4.96501">
        <ele>360.64691162109</ele>
        <time>2019-05-01T11:47:11 0200</time>
      </trkpt>
      <trkpt lat="47.24506" lon="4.96503">
        <ele>360.66625976562</ele>
        <time>2019-05-01T11:47:08 0200</time>
      </trkpt>
      <trkpt lat="47.24503" lon="4.96504">
        <ele>360.64910888672</ele>
        <time>2019-05-01T11:47:05 0200</time>
      </trkpt>
      <trkpt lat="47.24499" lon="4.96506">
        <ele>360.60879516602</ele>
        <time>2019-05-01T11:47:02 0200</time>
      </trkpt>
      <trkpt lat="47.24497" lon="4.96509">
        <ele>360.5905456543</ele>
        <time>2019-05-01T11:46:59 0200</time>
      </trkpt>
      <trkpt lat="47.24494" lon="4.96512">
        <ele>360.62829589844</ele>
        <time>2019-05-01T11:46:56 0200</time>
      </trkpt>
      <trkpt lat="47.2449" lon="4.96514">
        <ele>360.70574951172</ele>
        <time>2019-05-01T11:46:53 0200</time>
      </trkpt>
      <trkpt lat="47.24486" lon="4.96515">
        <ele>360.85269165039</ele>
        <time>2019-05-01T11:46:50 0200</time>
      </trkpt>
      <trkpt lat="47.24485" lon="4.96516">
        <ele>360.94390869141</ele>
        <time>2019-05-01T11:46:47 0200</time>
      </trkpt>
      <trkpt lat="47.24478" lon="4.96517">
        <ele>361.08639526367</ele>
        <time>2019-05-01T11:46:44 0200</time>
      </trkpt>
      <trkpt lat="47.2447" lon="4.9652">
        <ele>361.28137207031</ele>
        <time>2019-05-01T11:46:41 0200</time>
      </trkpt>
      <trkpt lat="47.24466" lon="4.96521">
        <ele>361.41647338867</ele>
        <time>2019-05-01T11:46:38 0200</time>
      </trkpt>
      <trkpt lat="47.24465" lon="4.96521">
        <ele>361.44119262695</ele>
        <time>2019-05-01T11:46:35 0200</time>
      </trkpt>
      <trkpt lat="47.24458" lon="4.96523">
        <ele>361.60690307617</ele>
        <time>2019-05-01T11:46:32 0200</time>
      </trkpt>
      <trkpt lat="47.24453" lon="4.96525">
        <ele>361.90646362305</ele>
        <time>2019-05-01T11:46:29 0200</time>
      </trkpt>
      <trkpt lat="47.24452" lon="4.96526">
        <ele>362.04266357422</ele>
        <time>2019-05-01T11:46:26 0200</time>
      </trkpt>
      <trkpt lat="47.24451" lon="4.96526">
        <ele>362.07409667969</ele>
        <time>2019-05-01T11:46:23 0200</time>
      </trkpt>
      <trkpt lat="47.2445" lon="4.96526">
        <ele>362.1071472168</ele>
        <time>2019-05-01T11:46:20 0200</time>
      </trkpt>
      <trkpt lat="47.2445" lon="4.96526">
        <ele>362.13845825195</ele>
        <time>2019-05-01T11:46:17 0200</time>
      </trkpt>
      <trkpt lat="47.24449" lon="4.96526">
        <ele>362.16714477539</ele>
        <time>2019-05-01T11:46:14 0200</time>
      </trkpt>
      <trkpt lat="47.24448" lon="4.96526">
        <ele>362.19500732422</ele>
        <time>2019-05-01T11:46:11 0200</time>
      </trkpt>
      <trkpt lat="47.24448" lon="4.96526">
        <ele>362.22561645508</ele>
        <time>2019-05-01T11:46:08 0200</time>
      </trkpt>
      <trkpt lat="47.24447" lon="4.96526">
        <ele>362.25601196289</ele>
        <time>2019-05-01T11:46:05 0200</time>
      </trkpt>
      <trkpt lat="47.24446" lon="4.96525">
        <ele>362.37240600586</ele>
        <time>2019-05-01T11:46:02 0200</time>
      </trkpt>
      <trkpt lat="47.24443" lon="4.96525">
        <ele>362.67956542969</ele>
        <time>2019-05-01T11:45:59 0200</time>
      </trkpt>
      <trkpt lat="47.24438" lon="4.96522">
        <ele>363.00268554688</ele>
        <time>2019-05-01T11:45:56 0200</time>
      </trkpt>
      <trkpt lat="47.24435" lon="4.96521">
        <ele>363.32723999023</ele>
        <time>2019-05-01T11:45:53 0200</time>
      </trkpt>
      <trkpt lat="47.24432" lon="4.96518">
        <ele>363.56311035156</ele>
        <time>2019-05-01T11:45:50 0200</time>
      </trkpt>
      <trkpt lat="47.24428" lon="4.96517">
        <ele>363.65731811523</ele>
        <time>2019-05-01T11:45:47 0200</time>
      </trkpt>
      <trkpt lat="47.24425" lon="4.96516">
        <ele>363.72555541992</ele>
        <time>2019-05-01T11:45:44 0200</time>
      </trkpt>
      <trkpt lat="47.24421" lon="4.96515">
        <ele>363.82659912109</ele>
        <time>2019-05-01T11:45:41 0200</time>
      </trkpt>
      <trkpt lat="47.24418" lon="4.96514">
        <ele>364.0090637207</ele>
        <time>2019-05-01T11:45:38 0200</time>
      </trkpt>
      <trkpt lat="47.24417" lon="4.96515">
        <ele>364.20849609375</ele>
        <time>2019-05-01T11:45:35 0200</time>
      </trkpt>
      <trkpt lat="47.24416" lon="4.96516">
        <ele>364.41625976562</ele>
        <time>2019-05-01T11:45:32 0200</time>
      </trkpt>
      <trkpt lat="47.24414" lon="4.96515">
        <ele>364.61990356445</ele>
        <time>2019-05-01T11:45:29 0200</time>
      </trkpt>
      <trkpt lat="47.24411" lon="4.96513">
        <ele>364.78778076172</ele>
        <time>2019-05-01T11:45:26 0200</time>
      </trkpt>
      <trkpt lat="47.24408" lon="4.96508">
        <ele>364.88369750977</ele>
        <time>2019-05-01T11:45:23 0200</time>
      </trkpt>
      <trkpt lat="47.24404" lon="4.96504">
        <ele>364.94143676758</ele>
        <time>2019-05-01T11:45:20 0200</time>
      </trkpt>
      <trkpt lat="47.24401" lon="4.96501">
        <ele>364.99111938477</ele>
        <time>2019-05-01T11:45:17 0200</time>
      </trkpt>
      <trkpt lat="47.24398" lon="4.96497">
        <ele>365.0237121582</ele>
        <time>2019-05-01T11:45:14 0200</time>
      </trkpt>
      <trkpt lat="47.24396" lon="4.96492">
        <ele>365.06408691406</ele>
        <time>2019-05-01T11:45:11 0200</time>
      </trkpt>
      <trkpt lat="47.24393" lon="4.9649">
        <ele>365.09954833984</ele>
        <time>2019-05-01T11:45:08 0200</time>
      </trkpt>
      <trkpt lat="47.24392" lon="4.96489">
        <ele>365.18731689453</ele>
        <time>2019-05-01T11:45:05 0200</time>
      </trkpt>
      <trkpt lat="47.2439" lon="4.96486">
        <ele>365.28527832031</ele>
        <time>2019-05-01T11:45:02 0200</time>
      </trkpt>
      <trkpt lat="47.24387" lon="4.96483">
        <ele>365.32431030273</ele>
        <time>2019-05-01T11:44:59 0200</time>
      </trkpt>
      <trkpt lat="47.24384" lon="4.96481">
        <ele>365.3125</ele>
        <time>2019-05-01T11:44:56 0200</time>
      </trkpt>
      <trkpt lat="47.24379" lon="4.96477">
        <ele>365.25619506836</ele>
        <time>2019-05-01T11:44:53 0200</time>
      </trkpt>
      <trkpt lat="47.24376" lon="4.96474">
        <ele>365.16854858398</ele>
        <time>2019-05-01T11:44:50 0200</time>
      </trkpt>
      <trkpt lat="47.24375" lon="4.96472">
        <ele>365.10589599609</ele>
        <time>2019-05-01T11:44:47 0200</time>
      </trkpt>
      <trkpt lat="47.24374" lon="4.9647">
        <ele>365.05368041992</ele>
        <time>2019-05-01T11:44:44 0200</time>
      </trkpt>
      <trkpt lat="47.24372" lon="4.96469">
        <ele>365.01458740234</ele>
        <time>2019-05-01T11:44:41 0200</time>
      </trkpt>
      <trkpt lat="47.2437" lon="4.96467">
        <ele>365.02581787109</ele>
        <time>2019-05-01T11:44:38 0200</time>
      </trkpt>
      <trkpt lat="47.24369" lon="4.96464">
        <ele>365.05328369141</ele>
        <time>2019-05-01T11:44:35 0200</time>
      </trkpt>
      <trkpt lat="47.24366" lon="4.96461">
        <ele>365.00039672852</ele>
        <time>2019-05-01T11:44:32 0200</time>
      </trkpt>
      <trkpt lat="47.24365" lon="4.96458">
        <ele>364.91772460938</ele>
        <time>2019-05-01T11:44:29 0200</time>
      </trkpt>
      <trkpt lat="47.24363" lon="4.96456">
        <ele>364.82888793945</ele>
        <time>2019-05-01T11:44:26 0200</time>
      </trkpt>
      <trkpt lat="47.24361" lon="4.96453">
        <ele>364.71807861328</ele>
        <time>2019-05-01T11:44:23 0200</time>
      </trkpt>
      <trkpt lat="47.24359" lon="4.9645">
        <ele>364.64883422852</ele>
        <time>2019-05-01T11:44:20 0200</time>
      </trkpt>
      <trkpt lat="47.24359" lon="4.96451">
        <ele>364.62881469727</ele>
        <time>2019-05-01T11:44:17 0200</time>
      </trkpt>
      <trkpt lat="47.24359" lon="4.96451">
        <ele>364.62261962891</ele>
        <time>2019-05-01T11:44:14 0200</time>
      </trkpt>
      <trkpt lat="47.24359" lon="4.96451">
        <ele>364.61306762695</ele>
        <time>2019-05-01T11:44:11 0200</time>
      </trkpt>
      <trkpt lat="47.24359" lon="4.96451">
        <ele>364.59866333008</ele>
        <time>2019-05-01T11:44:08 0200</time>
      </trkpt>
      <trkpt lat="47.24359" lon="4.96451">
        <ele>364.58044433594</ele>
        <time>2019-05-01T11:44:05 0200</time>
      </trkpt>
      <trkpt lat="47.24358" lon="4.96451">
        <ele>364.55798339844</ele>
        <time>2019-05-01T11:44:02 0200</time>
      </trkpt>
      <trkpt lat="47.24357" lon="4.9645">
        <ele>364.43811035156</ele>
        <time>2019-05-01T11:43:59 0200</time>
      </trkpt>
      <trkpt lat="47.24356" lon="4.96448">
        <ele>364.26181030273</ele>
        <time>2019-05-01T11:43:56 0200</time>
      </trkpt>
      <trkpt lat="47.24355" lon="4.96447">
        <ele>364.00482177734</ele>
        <time>2019-05-01T11:43:53 0200</time>
      </trkpt>
      <trkpt lat="47.24354" lon="4.96443">
        <ele>363.73822021484</ele>
        <time>2019-05-01T11:43:50 0200</time>
      </trkpt>
      <trkpt lat="47.24353" lon="4.96441">
        <ele>363.47094726562</ele>
        <time>2019-05-01T11:43:47 0200</time>
      </trkpt>
      <trkpt lat="47.24352" lon="4.9644">
        <ele>363.23883056641</ele>
        <time>2019-05-01T11:43:44 0200</time>
      </trkpt>
      <trkpt lat="47.24352" lon="4.96438">
        <ele>363.01998901367</ele>
        <time>2019-05-01T11:43:41 0200</time>
      </trkpt>
      <trkpt lat="47.24351" lon="4.96438">
        <ele>362.8078918457</ele>
        <time>2019-05-01T11:43:38 0200</time>
      </trkpt>
      <trkpt lat="47.2435" lon="4.96435">
        <ele>362.60876464844</ele>
        <time>2019-05-01T11:43:35 0200</time>
      </trkpt>
      <trkpt lat="47.24348" lon="4.96431">
        <ele>362.41973876953</ele>
        <time>2019-05-01T11:43:32 0200</time>
      </trkpt>
      <trkpt lat="47.24348" lon="4.96429">
        <ele>362.25756835938</ele>
        <time>2019-05-01T11:43:29 0200</time>
      </trkpt>
      <trkpt lat="47.24346" lon="4.96425">
        <ele>362.09982299805</ele>
        <time>2019-05-01T11:43:26 0200</time>
      </trkpt>
      <trkpt lat="47.24345" lon="4.96422">
        <ele>361.93011474609</ele>
        <time>2019-05-01T11:43:23 0200</time>
      </trkpt>
      <trkpt lat="47.24344" lon="4.9642">
        <ele>361.77319335938</ele>
        <time>2019-05-01T11:43:20 0200</time>
      </trkpt>
      <trkpt lat="47.24343" lon="4.96419">
        <ele>361.64904785156</ele>
        <time>2019-05-01T11:43:17 0200</time>
      </trkpt>
      <trkpt lat="47.24341" lon="4.96415">
        <ele>361.52322387695</ele>
        <time>2019-05-01T11:43:14 0200</time>
      </trkpt>
      <trkpt lat="47.2434" lon="4.96411">
        <ele>361.38897705078</ele>
        <time>2019-05-01T11:43:11 0200</time>
      </trkpt>
      <trkpt lat="47.24339" lon="4.96409">
        <ele>361.27154541016</ele>
        <time>2019-05-01T11:43:08 0200</time>
      </trkpt>
      <trkpt lat="47.24337" lon="4.96406">
        <ele>361.16653442383</ele>
        <time>2019-05-01T11:43:05 0200</time>
      </trkpt>
      <trkpt lat="47.24336" lon="4.96404">
        <ele>361.07595825195</ele>
        <time>2019-05-01T11:43:02 0200</time>
      </trkpt>
      <trkpt lat="47.24334" lon="4.96401">
        <ele>361.02581787109</ele>
        <time>2019-05-01T11:42:59 0200</time>
      </trkpt>
      <trkpt lat="47.24333" lon="4.96399">
        <ele>361.00399780273</ele>
        <time>2019-05-01T11:42:56 0200</time>
      </trkpt>
      <trkpt lat="47.24333" lon="4.96399">
        <ele>361.00106811523</ele>
        <time>2019-05-01T11:42:53 0200</time>
      </trkpt>
      <trkpt lat="47.24333" lon="4.96399">
        <ele>361.00784301758</ele>
        <time>2019-05-01T11:42:50 0200</time>
      </trkpt>
      <trkpt lat="47.24332" lon="4.96397">
        <ele>361.10949707031</ele>
        <time>2019-05-01T11:42:47 0200</time>
      </trkpt>
      <trkpt lat="47.24331" lon="4.96397">
        <ele>361.32992553711</ele>
        <time>2019-05-01T11:42:44 0200</time>
      </trkpt>
      <trkpt lat="47.2433" lon="4.96395">
        <ele>361.61547851562</ele>
        <time>2019-05-01T11:42:41 0200</time>
      </trkpt>
      <trkpt lat="47.24329" lon="4.96392">
        <ele>361.95086669922</ele>
        <time>2019-05-01T11:42:38 0200</time>
      </trkpt>
      <trkpt lat="47.24329" lon="4.96392">
        <ele>362.31976318359</ele>
        <time>2019-05-01T11:42:35 0200</time>
      </trkpt>
      <trkpt lat="47.24329" lon="4.96391">
        <ele>362.70413208008</ele>
        <time>2019-05-01T11:42:32 0200</time>
      </trkpt>
      <trkpt lat="47.24329" lon="4.96391">
        <ele>363.10861206055</ele>
        <time>2019-05-01T11:42:29 0200</time>
      </trkpt>
      <trkpt lat="47.24328" lon="4.96391">
        <ele>363.47146606445</ele>
        <time>2019-05-01T11:42:26 0200</time>
      </trkpt>
      <trkpt lat="47.24328" lon="4.96391">
        <ele>363.62350463867</ele>
        <time>2019-05-01T11:42:23 0200</time>
      </trkpt>
      <trkpt lat="47.24327" lon="4.9639">
        <ele>363.66156005859</ele>
        <time>2019-05-01T11:42:20 0200</time>
      </trkpt>
      <trkpt lat="47.24326" lon="4.96389">
        <ele>363.94491577148</ele>
        <time>2019-05-01T11:42:17 0200</time>
      </trkpt>
      <trkpt lat="47.24326" lon="4.96389">
        <ele>363.98175048828</ele>
        <time>2019-05-01T11:42:14 0200</time>
      </trkpt>
      <trkpt lat="47.24326" lon="4.96389">
        <ele>364.01867675781</ele>
        <time>2019-05-01T11:42:11 0200</time>
      </trkpt>
      <trkpt lat="47.24326" lon="4.96389">
        <ele>364.06393432617</ele>
        <time>2019-05-01T11:42:08 0200</time>
      </trkpt>
      <trkpt lat="47.24326" lon="4.96389">
        <ele>364.10369873047</ele>
        <time>2019-05-01T11:42:05 0200</time>
      </trkpt>
      <trkpt lat="47.24326" lon="4.96389">
        <ele>364.13726806641</ele>
        <time>2019-05-01T11:42:02 0200</time>
      </trkpt>
      <trkpt lat="47.24326" lon="4.96389">
        <ele>364.1650390625</ele>
        <time>2019-05-01T11:42:00 0200</time>
      </trkpt>
      <trkpt lat="47.24326" lon="4.96389">
        <ele>364.19009399414</ele>
        <time>2019-05-01T11:41:57 0200</time>
      </trkpt>
      <trkpt lat="47.24326" lon="4.96389">
        <ele>364.21499633789</ele>
        <time>2019-05-01T11:41:54 0200</time>
      </trkpt>
      <trkpt lat="47.24326" lon="4.96389">
        <ele>364.24688720703</ele>
        <time>2019-05-01T11:41:51 0200</time>
      </trkpt>
      <trkpt lat="47.24325" lon="4.96389">
        <ele>364.29434204102</ele>
        <time>2019-05-01T11:41:48 0200</time>
      </trkpt>
      <trkpt lat="47.24325" lon="4.9639">
        <ele>364.36376953125</ele>
        <time>2019-05-01T11:41:45 0200</time>
      </trkpt>
      <trkpt lat="47.24325" lon="4.9639">
        <ele>364.45571899414</ele>
        <time>2019-05-01T11:41:42 0200</time>
      </trkpt>
      <trkpt lat="47.24326" lon="4.96392">
        <ele>364.55651855469</ele>
        <time>2019-05-01T11:41:39 0200</time>
      </trkpt>
      <trkpt lat="47.24326" lon="4.96392">
        <ele>364.95278930664</ele>
        <time>2019-05-01T11:41:36 0200</time>
      </trkpt>
      <trkpt lat="47.24326" lon="4.96392">
        <ele>365.05377197266</ele>
        <time>2019-05-01T11:41:33 0200</time>
      </trkpt>
      <trkpt lat="47.24326" lon="4.96392">
        <ele>365.15399169922</ele>
        <time>2019-05-01T11:41:30 0200</time>
      </trkpt>
      <trkpt lat="47.24326" lon="4.96391">
        <ele>365.2444152832</ele>
        <time>2019-05-01T11:41:27 0200</time>
      </trkpt>
      <trkpt lat="47.24326" lon="4.96391">
        <ele>365.32275390625</ele>
        <time>2019-05-01T11:41:24 0200</time>
      </trkpt>
      <trkpt lat="47.24326" lon="4.96391">
        <ele>365.39715576172</ele>
        <time>2019-05-01T11:41:21 0200</time>
      </trkpt>
      <trkpt lat="47.24326" lon="4.96391">
        <ele>365.46496582031</ele>
        <time>2019-05-01T11:41:18 0200</time>
      </trkpt>
      <trkpt lat="47.24326" lon="4.96391">
        <ele>365.52368164062</ele>
        <time>2019-05-01T11:41:15 0200</time>
      </trkpt>
      <trkpt lat="47.24326" lon="4.96391">
        <ele>365.57968139648</ele>
        <time>2019-05-01T11:41:12 0200</time>
      </trkpt>
      <trkpt lat="47.24326" lon="4.96391">
        <ele>365.64248657227</ele>
        <time>2019-05-01T11:41:09 0200</time>
      </trkpt>
      <trkpt lat="47.24326" lon="4.96391">
        <ele>365.70602416992</ele>
        <time>2019-05-01T11:41:06 0200</time>
      </trkpt>
      <trkpt lat="47.24326" lon="4.96391">
        <ele>365.77203369141</ele>
        <time>2019-05-01T11:41:03 0200</time>
      </trkpt>
      <trkpt lat="47.24326" lon="4.96391">
        <ele>365.83990478516</ele>
        <time>2019-05-01T11:41:00 0200</time>
      </trkpt>
      <trkpt lat="47.24326" lon="4.96391">
        <ele>365.90814208984</ele>
        <time>2019-05-01T11:40:57 0200</time>
      </trkpt>
      <trkpt lat="47.24326" lon="4.96391">
        <ele>365.97647094727</ele>
        <time>2019-05-01T11:40:54 0200</time>
      </trkpt>
      <trkpt lat="47.24326" lon="4.96391">
        <ele>366.04510498047</ele>
        <time>2019-05-01T11:40:51 0200</time>
      </trkpt>
      <trkpt lat="47.24325" lon="4.96391">
        <ele>366.11236572266</ele>
        <time>2019-05-01T11:40:48 0200</time>
      </trkpt>
      <trkpt lat="47.24325" lon="4.96391">
        <ele>366.17831420898</ele>
        <time>2019-05-01T11:40:45 0200</time>
      </trkpt>
      <trkpt lat="47.24325" lon="4.96391">
        <ele>366.24407958984</ele>
        <time>2019-05-01T11:40:42 0200</time>
      </trkpt>
      <trkpt lat="47.24325" lon="4.96391">
        <ele>366.31002807617</ele>
        <time>2019-05-01T11:40:39 0200</time>
      </trkpt>
      <trkpt lat="47.24325" lon="4.96391">
        <ele>366.37588500977</ele>
        <time>2019-05-01T11:40:36 0200</time>
      </trkpt>
      <trkpt lat="47.24325" lon="4.96391">
        <ele>366.4436340332</ele>
        <time>2019-05-01T11:40:33 0200</time>
      </trkpt>
      <trkpt lat="47.24325" lon="4.96391">
        <ele>366.51516723633</ele>
        <time>2019-05-01T11:40:30 0200</time>
      </trkpt>
      <trkpt lat="47.24325" lon="4.96391">
        <ele>366.5915222168</ele>
        <time>2019-05-01T11:40:27 0200</time>
      </trkpt>
      <trkpt lat="47.24325" lon="4.96391">
        <ele>366.67181396484</ele>
        <time>2019-05-01T11:40:24 0200</time>
      </trkpt>
      <trkpt lat="47.24325" lon="4.96391">
        <ele>366.75442504883</ele>
        <time>2019-05-01T11:40:21 0200</time>
      </trkpt>
      <trkpt lat="47.24325" lon="4.96391">
        <ele>366.83877563477</ele>
        <time>2019-05-01T11:40:18 0200</time>
      </trkpt>
      <trkpt lat="47.24325" lon="4.96391">
        <ele>366.92700195312</ele>
        <time>2019-05-01T11:40:15 0200</time>
      </trkpt>
      <trkpt lat="47.24325" lon="4.9639">
        <ele>367.01779174805</ele>
        <time>2019-05-01T11:40:12 0200</time>
      </trkpt>
      <trkpt lat="47.24325" lon="4.96391">
        <ele>367.11639404297</ele>
        <time>2019-05-01T11:40:09 0200</time>
      </trkpt>
      <trkpt lat="47.24325" lon="4.9639">
        <ele>367.22366333008</ele>
        <time>2019-05-01T11:40:06 0200</time>
      </trkpt>
      <trkpt lat="47.24325" lon="4.9639">
        <ele>367.33419799805</ele>
        <time>2019-05-01T11:40:03 0200</time>
      </trkpt>
      <trkpt lat="47.24325" lon="4.9639">
        <ele>367.44671630859</ele>
        <time>2019-05-01T11:40:00 0200</time>
      </trkpt>
      <trkpt lat="47.24325" lon="4.9639">
        <ele>367.56097412109</ele>
        <time>2019-05-01T11:39:57 0200</time>
      </trkpt>
      <trkpt lat="47.24324" lon="4.96389">
        <ele>367.67620849609</ele>
        <time>2019-05-01T11:39:54 0200</time>
      </trkpt>
      <trkpt lat="47.24324" lon="4.96389">
        <ele>367.78677368164</ele>
        <time>2019-05-01T11:39:51 0200</time>
      </trkpt>
      <trkpt lat="47.24324" lon="4.96388">
        <ele>367.89617919922</ele>
        <time>2019-05-01T11:39:48 0200</time>
      </trkpt>
      <trkpt lat="47.24324" lon="4.96388">
        <ele>368.00964355469</ele>
        <time>2019-05-01T11:39:45 0200</time>
      </trkpt>
      <trkpt lat="47.24324" lon="4.96388">
        <ele>368.12719726562</ele>
        <time>2019-05-01T11:39:42 0200</time>
      </trkpt>
      <trkpt lat="47.24324" lon="4.96388">
        <ele>368.24349975586</ele>
        <time>2019-05-01T11:39:39 0200</time>
      </trkpt>
      <trkpt lat="47.24324" lon="4.96388">
        <ele>368.35012817383</ele>
        <time>2019-05-01T11:39:36 0200</time>
      </trkpt>
      <trkpt lat="47.24323" lon="4.96387">
        <ele>368.44903564453</ele>
        <time>2019-05-01T11:39:33 0200</time>
      </trkpt>
      <trkpt lat="47.24322" lon="4.96387">
        <ele>368.85299682617</ele>
        <time>2019-05-01T11:39:30 0200</time>
      </trkpt>
      <trkpt lat="47.2432" lon="4.96384">
        <ele>369.92221069336</ele>
        <time>2019-05-01T11:39:27 0200</time>
      </trkpt>
      <trkpt lat="47.24319" lon="4.96381">
        <ele>370.97100830078</ele>
        <time>2019-05-01T11:39:24 0200</time>
      </trkpt>
      <trkpt lat="47.24318" lon="4.9638">
        <ele>371.0673828125</ele>
        <time>2019-05-01T11:39:21 0200</time>
      </trkpt>
      <trkpt lat="47.24318" lon="4.9638">
        <ele>371.16000366211</ele>
        <time>2019-05-01T11:39:18 0200</time>
      </trkpt>
      <trkpt lat="47.24318" lon="4.9638">
        <ele>371.25048828125</ele>
        <time>2019-05-01T11:39:15 0200</time>
      </trkpt>
      <trkpt lat="47.24317" lon="4.9638">
        <ele>371.34197998047</ele>
        <time>2019-05-01T11:39:12 0200</time>
      </trkpt>
      <trkpt lat="47.24317" lon="4.9638">
        <ele>371.43090820312</ele>
        <time>2019-05-01T11:39:09 0200</time>
      </trkpt>
      <trkpt lat="47.24317" lon="4.9638">
        <ele>371.51583862305</ele>
        <time>2019-05-01T11:39:06 0200</time>
      </trkpt>
      <trkpt lat="47.24317" lon="4.9638">
        <ele>371.60021972656</ele>
        <time>2019-05-01T11:39:03 0200</time>
      </trkpt>
      <trkpt lat="47.24317" lon="4.9638">
        <ele>371.68246459961</ele>
        <time>2019-05-01T11:39:00 0200</time>
      </trkpt>
      <trkpt lat="47.24316" lon="4.96379">
        <ele>371.74887084961</ele>
        <time>2019-05-01T11:38:57 0200</time>
      </trkpt>
      <trkpt lat="47.24312" lon="4.96374">
        <ele>371.84820556641</ele>
        <time>2019-05-01T11:38:54 0200</time>
      </trkpt>
      <trkpt lat="47.24311" lon="4.96372">
        <ele>372.07952880859</ele>
        <time>2019-05-01T11:38:51 0200</time>
      </trkpt>
      <trkpt lat="47.24311" lon="4.96372">
        <ele>372.11499023438</ele>
        <time>2019-05-01T11:38:48 0200</time>
      </trkpt>
      <trkpt lat="47.24311" lon="4.96371">
        <ele>372.24996948242</ele>
        <time>2019-05-01T11:38:45 0200</time>
      </trkpt>
      <trkpt lat="47.24311" lon="4.96371">
        <ele>372.28186035156</ele>
        <time>2019-05-01T11:38:42 0200</time>
      </trkpt>
      <trkpt lat="47.24311" lon="4.96371">
        <ele>372.30725097656</ele>
        <time>2019-05-01T11:38:39 0200</time>
      </trkpt>
      <trkpt lat="47.24311" lon="4.96371">
        <ele>372.38583374023</ele>
        <time>2019-05-01T11:38:36 0200</time>
      </trkpt>
      <trkpt lat="47.2431" lon="4.96371">
        <ele>372.38067626953</ele>
        <time>2019-05-01T11:38:33 0200</time>
      </trkpt>
      <trkpt lat="47.2431" lon="4.9637">
        <ele>372.36468505859</ele>
        <time>2019-05-01T11:38:30 0200</time>
      </trkpt>
      <trkpt lat="47.2431" lon="4.9637">
        <ele>372.34982299805</ele>
        <time>2019-05-01T11:38:27 0200</time>
      </trkpt>
      <trkpt lat="47.2431" lon="4.9637">
        <ele>372.34387207031</ele>
        <time>2019-05-01T11:38:24 0200</time>
      </trkpt>
      <trkpt lat="47.24309" lon="4.9637">
        <ele>372.33135986328</ele>
        <time>2019-05-01T11:38:21 0200</time>
      </trkpt>
      <trkpt lat="47.24309" lon="4.9637">
        <ele>372.30862426758</ele>
        <time>2019-05-01T11:38:18 0200</time>
      </trkpt>
      <trkpt lat="47.24308" lon="4.96368">
        <ele>372.24227905273</ele>
        <time>2019-05-01T11:38:15 0200</time>
      </trkpt>
      <trkpt lat="47.24308" lon="4.96368">
        <ele>372.1647644043</ele>
        <time>2019-05-01T11:38:12 0200</time>
      </trkpt>
      <trkpt lat="47.24308" lon="4.96368">
        <ele>372.11016845703</ele>
        <time>2019-05-01T11:38:09 0200</time>
      </trkpt>
      <trkpt lat="47.24308" lon="4.96369">
        <ele>372.06384277344</ele>
        <time>2019-05-01T11:38:06 0200</time>
      </trkpt>
      <trkpt lat="47.24308" lon="4.96369">
        <ele>372.06823730469</ele>
        <time>2019-05-01T11:38:03 0200</time>
      </trkpt>
      <trkpt lat="47.24308" lon="4.96369">
        <ele>372.08535766602</ele>
        <time>2019-05-01T11:38:00 0200</time>
      </trkpt>
      <trkpt lat="47.24308" lon="4.96369">
        <ele>372.11172485352</ele>
        <time>2019-05-01T11:37:57 0200</time>
      </trkpt>
      <trkpt lat="47.24308" lon="4.96369">
        <ele>372.16241455078</ele>
        <time>2019-05-01T11:37:54 0200</time>
      </trkpt>
      <trkpt lat="47.24308" lon="4.96369">
        <ele>372.22055053711</ele>
        <time>2019-05-01T11:37:51 0200</time>
      </trkpt>
      <trkpt lat="47.24307" lon="4.96367">
        <ele>372.50476074219</ele>
        <time>2019-05-01T11:37:48 0200</time>
      </trkpt>
      <trkpt lat="47.24305" lon="4.96362">
        <ele>372.80505371094</ele>
        <time>2019-05-01T11:37:45 0200</time>
      </trkpt>
      <trkpt lat="47.24304" lon="4.9636">
        <ele>373.05419921875</ele>
        <time>2019-05-01T11:37:42 0200</time>
      </trkpt>
      <trkpt lat="47.24302" lon="4.96355">
        <ele>373.24826049805</ele>
        <time>2019-05-01T11:37:39 0200</time>
      </trkpt>
      <trkpt lat="47.24301" lon="4.96351">
        <ele>373.38705444336</ele>
        <time>2019-05-01T11:37:36 0200</time>
      </trkpt>
      <trkpt lat="47.24301" lon="4.9635">
        <ele>373.61749267578</ele>
        <time>2019-05-01T11:37:33 0200</time>
      </trkpt>
      <trkpt lat="47.24299" lon="4.96348">
        <ele>373.78817749023</ele>
        <time>2019-05-01T11:37:30 0200</time>
      </trkpt>
      <trkpt lat="47.24298" lon="4.96345">
        <ele>373.91360473633</ele>
        <time>2019-05-01T11:37:27 0200</time>
      </trkpt>
      <trkpt lat="47.24296" lon="4.96341">
        <ele>374.06283569336</ele>
        <time>2019-05-01T11:37:24 0200</time>
      </trkpt>
      <trkpt lat="47.24293" lon="4.96335">
        <ele>374.20022583008</ele>
        <time>2019-05-01T11:37:21 0200</time>
      </trkpt>
      <trkpt lat="47.24291" lon="4.96331">
        <ele>374.30560302734</ele>
        <time>2019-05-01T11:37:18 0200</time>
      </trkpt>
      <trkpt lat="47.24289" lon="4.96328">
        <ele>374.30657958984</ele>
        <time>2019-05-01T11:37:15 0200</time>
      </trkpt>
      <trkpt lat="47.24288" lon="4.96327">
        <ele>374.40072631836</ele>
        <time>2019-05-01T11:37:12 0200</time>
      </trkpt>
      <trkpt lat="47.24287" lon="4.96326">
        <ele>374.62582397461</ele>
        <time>2019-05-01T11:37:09 0200</time>
      </trkpt>
      <trkpt lat="47.24286" lon="4.96324">
        <ele>374.86911010742</ele>
        <time>2019-05-01T11:37:06 0200</time>
      </trkpt>
      <trkpt lat="47.24286" lon="4.96323">
        <ele>375.21981811523</ele>
        <time>2019-05-01T11:37:03 0200</time>
      </trkpt>
      <trkpt lat="47.24284" lon="4.96319">
        <ele>375.63537597656</ele>
        <time>2019-05-01T11:37:00 0200</time>
      </trkpt>
      <trkpt lat="47.24282" lon="4.96317">
        <ele>376.06503295898</ele>
        <time>2019-05-01T11:36:57 0200</time>
      </trkpt>
      <trkpt lat="47.24282" lon="4.96316">
        <ele>376.50729370117</ele>
        <time>2019-05-01T11:36:54 0200</time>
      </trkpt>
      <trkpt lat="47.24281" lon="4.9631">
        <ele>376.97564697266</ele>
        <time>2019-05-01T11:36:51 0200</time>
      </trkpt>
      <trkpt lat="47.2428" lon="4.96308">
        <ele>377.40274047852</ele>
        <time>2019-05-01T11:36:48 0200</time>
      </trkpt>
      <trkpt lat="47.24279" lon="4.96304">
        <ele>377.77719116211</ele>
        <time>2019-05-01T11:36:45 0200</time>
      </trkpt>
      <trkpt lat="47.24277" lon="4.96299">
        <ele>378.203125</ele>
        <time>2019-05-01T11:36:42 0200</time>
      </trkpt>
      <trkpt lat="47.24276" lon="4.96296">
        <ele>378.63363647461</ele>
        <time>2019-05-01T11:36:39 0200</time>
      </trkpt>
      <trkpt lat="47.24275" lon="4.96294">
        <ele>379.22601318359</ele>
        <time>2019-05-01T11:36:36 0200</time>
      </trkpt>
      <trkpt lat="47.24272" lon="4.96289">
        <ele>379.82077026367</ele>
        <time>2019-05-01T11:36:33 0200</time>
      </trkpt>
      <trkpt lat="47.24271" lon="4.96285">
        <ele>380.10198974609</ele>
        <time>2019-05-01T11:36:30 0200</time>
      </trkpt>
      <trkpt lat="47.24269" lon="4.96279">
        <ele>380.32342529297</ele>
        <time>2019-05-01T11:36:27 0200</time>
      </trkpt>
      <trkpt lat="47.24268" lon="4.96277">
        <ele>380.58834838867</ele>
        <time>2019-05-01T11:36:24 0200</time>
      </trkpt>
      <trkpt lat="47.24268" lon="4.96275">
        <ele>380.92855834961</ele>
        <time>2019-05-01T11:36:21 0200</time>
      </trkpt>
      <trkpt lat="47.24267" lon="4.96271">
        <ele>381.24475097656</ele>
        <time>2019-05-01T11:36:18 0200</time>
      </trkpt>
      <trkpt lat="47.24266" lon="4.96268">
        <ele>381.46527099609</ele>
        <time>2019-05-01T11:36:15 0200</time>
      </trkpt>
      <trkpt lat="47.24265" lon="4.96265">
        <ele>381.72622680664</ele>
        <time>2019-05-01T11:36:12 0200</time>
      </trkpt>
      <trkpt lat="47.24265" lon="4.96262">
        <ele>382.07821655273</ele>
        <time>2019-05-01T11:36:09 0200</time>
      </trkpt>
      <trkpt lat="47.24265" lon="4.96259">
        <ele>382.50338745117</ele>
        <time>2019-05-01T11:36:06 0200</time>
      </trkpt>
      <trkpt lat="47.24265" lon="4.96259">
        <ele>382.99545288086</ele>
        <time>2019-05-01T11:36:03 0200</time>
      </trkpt>
      <trkpt lat="47.24264" lon="4.96257">
        <ele>383.41986083984</ele>
        <time>2019-05-01T11:36:00 0200</time>
      </trkpt>
      <trkpt lat="47.24263" lon="4.96252">
        <ele>384.07403564453</ele>
        <time>2019-05-01T11:35:57 0200</time>
      </trkpt>
      <trkpt lat="47.24263" lon="4.96248">
        <ele>384.71453857422</ele>
        <time>2019-05-01T11:35:54 0200</time>
      </trkpt>
      <trkpt lat="47.24263" lon="4.96244">
        <ele>385.34756469727</ele>
        <time>2019-05-01T11:35:51 0200</time>
      </trkpt>
      <trkpt lat="47.24263" lon="4.96241">
        <ele>385.9758605957</ele>
        <time>2019-05-01T11:35:48 0200</time>
      </trkpt>
      <trkpt lat="47.24263" lon="4.96236">
        <ele>386.57135009766</ele>
        <time>2019-05-01T11:35:45 0200</time>
      </trkpt>
      <trkpt lat="47.24263" lon="4.96227">
        <ele>387.10229492188</ele>
        <time>2019-05-01T11:35:42 0200</time>
      </trkpt>
      <trkpt lat="47.24263" lon="4.96224">
        <ele>387.53042602539</ele>
        <time>2019-05-01T11:35:39 0200</time>
      </trkpt>
      <trkpt lat="47.24262" lon="4.9622">
        <ele>387.98461914062</ele>
        <time>2019-05-01T11:35:36 0200</time>
      </trkpt>
      <trkpt lat="47.24262" lon="4.96214">
        <ele>388.34381103516</ele>
        <time>2019-05-01T11:35:33 0200</time>
      </trkpt>
      <trkpt lat="47.24262" lon="4.9621">
        <ele>388.63299560547</ele>
        <time>2019-05-01T11:35:30 0200</time>
      </trkpt>
      <trkpt lat="47.24261" lon="4.96207">
        <ele>388.90472412109</ele>
        <time>2019-05-01T11:35:27 0200</time>
      </trkpt>
      <trkpt lat="47.2426" lon="4.96203">
        <ele>389.09033203125</ele>
        <time>2019-05-01T11:35:24 0200</time>
      </trkpt>
      <trkpt lat="47.2426" lon="4.96202">
        <ele>389.29849243164</ele>
        <time>2019-05-01T11:35:21 0200</time>
      </trkpt>
      <trkpt lat="47.24259" lon="4.96195">
        <ele>389.54956054688</ele>
        <time>2019-05-01T11:35:18 0200</time>
      </trkpt>
      <trkpt lat="47.24259" lon="4.96193">
        <ele>389.734375</ele>
        <time>2019-05-01T11:35:15 0200</time>
      </trkpt>
      <trkpt lat="47.24259" lon="4.96192">
        <ele>389.84396362305</ele>
        <time>2019-05-01T11:35:12 0200</time>
      </trkpt>
      <trkpt lat="47.24259" lon="4.96189">
        <ele>390.15151977539</ele>
        <time>2019-05-01T11:35:09 0200</time>
      </trkpt>
      <trkpt lat="47.2426" lon="4.96185">
        <ele>390.43072509766</ele>
        <time>2019-05-01T11:35:06 0200</time>
      </trkpt>
      <trkpt lat="47.24259" lon="4.96181">
        <ele>390.65615844727</ele>
        <time>2019-05-01T11:35:03 0200</time>
      </trkpt>
      <trkpt lat="47.24259" lon="4.96178">
        <ele>390.87902832031</ele>
        <time>2019-05-01T11:35:00 0200</time>
      </trkpt>
      <trkpt lat="47.24259" lon="4.96173">
        <ele>391.09027099609</ele>
        <time>2019-05-01T11:34:57 0200</time>
      </trkpt>
      <trkpt lat="47.24258" lon="4.96169">
        <ele>391.35638427734</ele>
        <time>2019-05-01T11:34:54 0200</time>
      </trkpt>
      <trkpt lat="47.24258" lon="4.96166">
        <ele>391.64547729492</ele>
        <time>2019-05-01T11:34:51 0200</time>
      </trkpt>
      <trkpt lat="47.24258" lon="4.96164">
        <ele>391.97946166992</ele>
        <time>2019-05-01T11:34:48 0200</time>
      </trkpt>
      <trkpt lat="47.24258" lon="4.96161">
        <ele>392.18530273438</ele>
        <time>2019-05-01T11:34:45 0200</time>
      </trkpt>
      <trkpt lat="47.24258" lon="4.96157">
        <ele>392.5087890625</ele>
        <time>2019-05-01T11:34:42 0200</time>
      </trkpt>
      <trkpt lat="47.24259" lon="4.96154">
        <ele>392.75985717773</ele>
        <time>2019-05-01T11:34:39 0200</time>
      </trkpt>
      <trkpt lat="47.24259" lon="4.96151">
        <ele>392.9836730957</ele>
        <time>2019-05-01T11:34:36 0200</time>
      </trkpt>
      <trkpt lat="47.2426" lon="4.96147">
        <ele>393.20559692383</ele>
        <time>2019-05-01T11:34:33 0200</time>
      </trkpt>
      <trkpt lat="47.2426" lon="4.96143">
        <ele>393.43087768555</ele>
        <time>2019-05-01T11:34:30 0200</time>
      </trkpt>
      <trkpt lat="47.24261" lon="4.96139">
        <ele>393.62600708008</ele>
        <time>2019-05-01T11:34:27 0200</time>
      </trkpt>
      <trkpt lat="47.24262" lon="4.96136">
        <ele>393.83331298828</ele>
        <time>2019-05-01T11:34:24 0200</time>
      </trkpt>
      <trkpt lat="47.24261" lon="4.96132">
        <ele>394.09457397461</ele>
        <time>2019-05-01T11:34:21 0200</time>
      </trkpt>
      <trkpt lat="47.24261" lon="4.9613">
        <ele>394.36660766602</ele>
        <time>2019-05-01T11:34:18 0200</time>
      </trkpt>
      <trkpt lat="47.24261" lon="4.96129">
        <ele>394.57421875</ele>
        <time>2019-05-01T11:34:15 0200</time>
      </trkpt>
      <trkpt lat="47.24261" lon="4.96126">
        <ele>394.88177490234</ele>
        <time>2019-05-01T11:34:12 0200</time>
      </trkpt>
      <trkpt lat="47.24261" lon="4.96124">
        <ele>395.20935058594</ele>
        <time>2019-05-01T11:34:09 0200</time>
      </trkpt>
      <trkpt lat="47.24261" lon="4.9612">
        <ele>395.60885620117</ele>
        <time>2019-05-01T11:34:06 0200</time>
      </trkpt>
      <trkpt lat="47.24261" lon="4.96114">
        <ele>396.04019165039</ele>
        <time>2019-05-01T11:34:03 0200</time>
      </trkpt>
      <trkpt lat="47.24262" lon="4.96111">
        <ele>396.40936279297</ele>
        <time>2019-05-01T11:34:00 0200</time>
      </trkpt>
      <trkpt lat="47.24263" lon="4.96107">
        <ele>396.70684814453</ele>
        <time>2019-05-01T11:33:57 0200</time>
      </trkpt>
      <trkpt lat="47.24263" lon="4.96105">
        <ele>397.07379150391</ele>
        <time>2019-05-01T11:33:54 0200</time>
      </trkpt>
      <trkpt lat="47.24263" lon="4.96103">
        <ele>397.505859375</ele>
        <time>2019-05-01T11:33:51 0200</time>
      </trkpt>
      <trkpt lat="47.24263" lon="4.961">
        <ele>397.99282836914</ele>
        <time>2019-05-01T11:33:48 0200</time>
      </trkpt>
      <trkpt lat="47.24264" lon="4.96098">
        <ele>398.51071166992</ele>
        <time>2019-05-01T11:33:45 0200</time>
      </trkpt>
      <trkpt lat="47.24265" lon="4.96093">
        <ele>399.06832885742</ele>
        <time>2019-05-01T11:33:42 0200</time>
      </trkpt>
      <trkpt lat="47.24265" lon="4.96089">
        <ele>399.54260253906</ele>
        <time>2019-05-01T11:33:39 0200</time>
      </trkpt>
      <trkpt lat="47.24266" lon="4.96083">
        <ele>399.94012451172</ele>
        <time>2019-05-01T11:33:36 0200</time>
      </trkpt>
      <trkpt lat="47.24266" lon="4.96081">
        <ele>400.25988769531</ele>
        <time>2019-05-01T11:33:33 0200</time>
      </trkpt>
      <trkpt lat="47.24267" lon="4.96079">
        <ele>400.60330200195</ele>
        <time>2019-05-01T11:33:30 0200</time>
      </trkpt>
      <trkpt lat="47.24268" lon="4.96076">
        <ele>400.95391845703</ele>
        <time>2019-05-01T11:33:27 0200</time>
      </trkpt>
      <trkpt lat="47.24269" lon="4.96073">
        <ele>401.32772827148</ele>
        <time>2019-05-01T11:33:24 0200</time>
      </trkpt>
      <trkpt lat="47.2427" lon="4.96067">
        <ele>401.63403320312</ele>
        <time>2019-05-01T11:33:21 0200</time>
      </trkpt>
      <trkpt lat="47.24271" lon="4.96065">
        <ele>401.85345458984</ele>
        <time>2019-05-01T11:33:18 0200</time>
      </trkpt>
      <trkpt lat="47.24271" lon="4.96064">
        <ele>402.19018554688</ele>
        <time>2019-05-01T11:33:15 0200</time>
      </trkpt>
      <trkpt lat="47.24271" lon="4.96063">
        <ele>402.65991210938</ele>
        <time>2019-05-01T11:33:12 0200</time>
      </trkpt>
      <trkpt lat="47.24272" lon="4.96059">
        <ele>403.2292175293</ele>
        <time>2019-05-01T11:33:09 0200</time>
      </trkpt>
      <trkpt lat="47.24275" lon="4.96054">
        <ele>403.65875244141</ele>
        <time>2019-05-01T11:33:06 0200</time>
      </trkpt>
      <trkpt lat="47.24277" lon="4.96049">
        <ele>403.92733764648</ele>
        <time>2019-05-01T11:33:03 0200</time>
      </trkpt>
      <trkpt lat="47.24278" lon="4.96047">
        <ele>404.16012573242</ele>
        <time>2019-05-01T11:33:00 0200</time>
      </trkpt>
      <trkpt lat="47.24278" lon="4.96044">
        <ele>404.44976806641</ele>
        <time>2019-05-01T11:32:57 0200</time>
      </trkpt>
      <trkpt lat="47.24279" lon="4.96042">
        <ele>404.75338745117</ele>
        <time>2019-05-01T11:32:54 0200</time>
      </trkpt>
      <trkpt lat="47.2428" lon="4.96037">
        <ele>405.05868530273</ele>
        <time>2019-05-01T11:32:51 0200</time>
      </trkpt>
      <trkpt lat="47.24281" lon="4.96035">
        <ele>405.33813476562</ele>
        <time>2019-05-01T11:32:48 0200</time>
      </trkpt>
      <trkpt lat="47.24281" lon="4.96031">
        <ele>405.62100219727</ele>
        <time>2019-05-01T11:32:45 0200</time>
      </trkpt>
      <trkpt lat="47.24282" lon="4.96028">
        <ele>405.77450561523</ele>
        <time>2019-05-01T11:32:42 0200</time>
      </trkpt>
      <trkpt lat="47.24283" lon="4.96023">
        <ele>405.87841796875</ele>
        <time>2019-05-01T11:32:39 0200</time>
      </trkpt>
      <trkpt lat="47.24284" lon="4.96018">
        <ele>405.88284301758</ele>
        <time>2019-05-01T11:32:36 0200</time>
      </trkpt>
      <trkpt lat="47.24285" lon="4.96015">
        <ele>405.84503173828</ele>
        <time>2019-05-01T11:32:33 0200</time>
      </trkpt>
      <trkpt lat="47.24286" lon="4.96012">
        <ele>405.80126953125</ele>
        <time>2019-05-01T11:32:30 0200</time>
      </trkpt>
      <trkpt lat="47.24286" lon="4.96009">
        <ele>405.64358520508</ele>
        <time>2019-05-01T11:32:27 0200</time>
      </trkpt>
      <trkpt lat="47.24287" lon="4.96008">
        <ele>405.55889892578</ele>
        <time>2019-05-01T11:32:24 0200</time>
      </trkpt>
      <trkpt lat="47.24287" lon="4.96009">
        <ele>405.63720703125</ele>
        <time>2019-05-01T11:32:21 0200</time>
      </trkpt>
      <trkpt lat="47.24285" lon="4.96007">
        <ele>406.05532836914</ele>
        <time>2019-05-01T11:32:18 0200</time>
      </trkpt>
      <trkpt lat="47.24286" lon="4.9601">
        <ele>406.51165771484</ele>
        <time>2019-05-01T11:32:15 0200</time>
      </trkpt>
      <trkpt lat="47.24287" lon="4.96011">
        <ele>406.57299804688</ele>
        <time>2019-05-01T11:32:12 0200</time>
      </trkpt>
      <trkpt lat="47.24287" lon="4.96011">
        <ele>406.62149047852</ele>
        <time>2019-05-01T11:32:09 0200</time>
      </trkpt>
      <trkpt lat="47.24287" lon="4.96012">
        <ele>406.66275024414</ele>
        <time>2019-05-01T11:32:06 0200</time>
      </trkpt>
      <trkpt lat="47.24287" lon="4.96012">
        <ele>406.6982421875</ele>
        <time>2019-05-01T11:32:03 0200</time>
      </trkpt>
      <trkpt lat="47.24287" lon="4.96012">
        <ele>406.74429321289</ele>
        <time>2019-05-01T11:32:00 0200</time>
      </trkpt>
      <trkpt lat="47.24286" lon="4.96012">
        <ele>406.79620361328</ele>
        <time>2019-05-01T11:31:57 0200</time>
      </trkpt>
      <trkpt lat="47.24286" lon="4.96012">
        <ele>406.84475708008</ele>
        <time>2019-05-01T11:31:54 0200</time>
      </trkpt>
      <trkpt lat="47.24286" lon="4.96012">
        <ele>406.89532470703</ele>
        <time>2019-05-01T11:31:51 0200</time>
      </trkpt>
      <trkpt lat="47.24286" lon="4.96012">
        <ele>406.95947265625</ele>
        <time>2019-05-01T11:31:48 0200</time>
      </trkpt>
      <trkpt lat="47.24286" lon="4.96013">
        <ele>407.02688598633</ele>
        <time>2019-05-01T11:31:45 0200</time>
      </trkpt>
      <trkpt lat="47.24286" lon="4.96013">
        <ele>407.08309936523</ele>
        <time>2019-05-01T11:31:42 0200</time>
      </trkpt>
      <trkpt lat="47.24286" lon="4.96013">
        <ele>407.11944580078</ele>
        <time>2019-05-01T11:31:39 0200</time>
      </trkpt>
      <trkpt lat="47.24285" lon="4.96011">
        <ele>407.32192993164</ele>
        <time>2019-05-01T11:31:36 0200</time>
      </trkpt>
      <trkpt lat="47.24283" lon="4.96007">
        <ele>407.71813964844</ele>
        <time>2019-05-01T11:31:33 0200</time>
      </trkpt>
      <trkpt lat="47.24283" lon="4.96008">
        <ele>408.02886962891</ele>
        <time>2019-05-01T11:31:30 0200</time>
      </trkpt>
      <trkpt lat="47.24284" lon="4.96008">
        <ele>408.07833862305</ele>
        <time>2019-05-01T11:31:27 0200</time>
      </trkpt>
      <trkpt lat="47.24284" lon="4.96008">
        <ele>408.14093017578</ele>
        <time>2019-05-01T11:31:24 0200</time>
      </trkpt>
      <trkpt lat="47.24284" lon="4.96008">
        <ele>408.208984375</ele>
        <time>2019-05-01T11:31:21 0200</time>
      </trkpt>
      <trkpt lat="47.24284" lon="4.96008">
        <ele>408.28924560547</ele>
        <time>2019-05-01T11:31:18 0200</time>
      </trkpt>
      <trkpt lat="47.24284" lon="4.96008">
        <ele>408.38021850586</ele>
        <time>2019-05-01T11:31:15 0200</time>
      </trkpt>
      <trkpt lat="47.24284" lon="4.96008">
        <ele>408.46691894531</ele>
        <time>2019-05-01T11:31:12 0200</time>
      </trkpt>
      <trkpt lat="47.24284" lon="4.96007">
        <ele>408.54751586914</ele>
        <time>2019-05-01T11:31:09 0200</time>
      </trkpt>
      <trkpt lat="47.24284" lon="4.96007">
        <ele>408.62426757812</ele>
        <time>2019-05-01T11:31:06 0200</time>
      </trkpt>
      <trkpt lat="47.24284" lon="4.96007">
        <ele>408.69866943359</ele>
        <time>2019-05-01T11:31:03 0200</time>
      </trkpt>
      <trkpt lat="47.24284" lon="4.96007">
        <ele>408.77258300781</ele>
        <time>2019-05-01T11:31:00 0200</time>
      </trkpt>
      <trkpt lat="47.24283" lon="4.96007">
        <ele>409.3225402832</ele>
        <time>2019-05-01T11:30:57 0200</time>
      </trkpt>
      <trkpt lat="47.24283" lon="4.96006">
        <ele>409.40255737305</ele>
        <time>2019-05-01T11:30:54 0200</time>
      </trkpt>
      <trkpt lat="47.24283" lon="4.96006">
        <ele>409.47985839844</ele>
        <time>2019-05-01T11:30:51 0200</time>
      </trkpt>
      <trkpt lat="47.24283" lon="4.96006">
        <ele>409.55178833008</ele>
        <time>2019-05-01T11:30:48 0200</time>
      </trkpt>
      <trkpt lat="47.24282" lon="4.96004">
        <ele>409.87066650391</ele>
        <time>2019-05-01T11:30:45 0200</time>
      </trkpt>
      <trkpt lat="47.24282" lon="4.96004">
        <ele>409.93313598633</ele>
        <time>2019-05-01T11:30:42 0200</time>
      </trkpt>
      <trkpt lat="47.24282" lon="4.96002">
        <ele>409.98904418945</ele>
        <time>2019-05-01T11:30:39 0200</time>
      </trkpt>
      <trkpt lat="47.24281" lon="4.95997">
        <ele>410.55178833008</ele>
        <time>2019-05-01T11:30:36 0200</time>
      </trkpt>
      <trkpt lat="47.24281" lon="4.95995">
        <ele>411.10305786133</ele>
        <time>2019-05-01T11:30:33 0200</time>
      </trkpt>
      <trkpt lat="47.24281" lon="4.95991">
        <ele>411.67926025391</ele>
        <time>2019-05-01T11:30:30 0200</time>
      </trkpt>
      <trkpt lat="47.24282" lon="4.95986">
        <ele>412.20788574219</ele>
        <time>2019-05-01T11:30:27 0200</time>
      </trkpt>
      <trkpt lat="47.24282" lon="4.95983">
        <ele>412.62048339844</ele>
        <time>2019-05-01T11:30:24 0200</time>
      </trkpt>
      <trkpt lat="47.24282" lon="4.95978">
        <ele>413.04681396484</ele>
        <time>2019-05-01T11:30:21 0200</time>
      </trkpt>
      <trkpt lat="47.24282" lon="4.95975">
        <ele>413.52816772461</ele>
        <time>2019-05-01T11:30:18 0200</time>
      </trkpt>
      <trkpt lat="47.24282" lon="4.95971">
        <ele>414.02743530273</ele>
        <time>2019-05-01T11:30:15 0200</time>
      </trkpt>
      <trkpt lat="47.24281" lon="4.95964">
        <ele>414.57986450195</ele>
        <time>2019-05-01T11:30:12 0200</time>
      </trkpt>
      <trkpt lat="47.2428" lon="4.95961">
        <ele>415.13876342773</ele>
        <time>2019-05-01T11:30:09 0200</time>
      </trkpt>
      <trkpt lat="47.24279" lon="4.95957">
        <ele>415.51702880859</ele>
        <time>2019-05-01T11:30:06 0200</time>
      </trkpt>
      <trkpt lat="47.24277" lon="4.95951">
        <ele>415.86148071289</ele>
        <time>2019-05-01T11:30:03 0200</time>
      </trkpt>
      <trkpt lat="47.24278" lon="4.95948">
        <ele>416.23089599609</ele>
        <time>2019-05-01T11:30:00 0200</time>
      </trkpt>
      <trkpt lat="47.24277" lon="4.95946">
        <ele>416.63702392578</ele>
        <time>2019-05-01T11:29:57 0200</time>
      </trkpt>
      <trkpt lat="47.24278" lon="4.95945">
        <ele>416.92770385742</ele>
        <time>2019-05-01T11:29:53 0200</time>
      </trkpt>
      <trkpt lat="47.24277" lon="4.9594">
        <ele>417.07196044922</ele>
        <time>2019-05-01T11:29:50 0200</time>
      </trkpt>
      <trkpt lat="47.24276" lon="4.95936">
        <ele>417.25723266602</ele>
        <time>2019-05-01T11:29:47 0200</time>
      </trkpt>
      <trkpt lat="47.24276" lon="4.95932">
        <ele>417.48114013672</ele>
        <time>2019-05-01T11:29:44 0200</time>
      </trkpt>
      <trkpt lat="47.24275" lon="4.95927">
        <ele>417.75701904297</ele>
        <time>2019-05-01T11:29:41 0200</time>
      </trkpt>
      <trkpt lat="47.24273" lon="4.95923">
        <ele>418.10311889648</ele>
        <time>2019-05-01T11:29:38 0200</time>
      </trkpt>
      <trkpt lat="47.24273" lon="4.9592">
        <ele>418.46905517578</ele>
        <time>2019-05-01T11:29:35 0200</time>
      </trkpt>
      <trkpt lat="47.24272" lon="4.95915">
        <ele>418.84796142578</ele>
        <time>2019-05-01T11:29:32 0200</time>
      </trkpt>
      <trkpt lat="47.24272" lon="4.9591">
        <ele>419.271484375</ele>
        <time>2019-05-01T11:29:29 0200</time>
      </trkpt>
      <trkpt lat="47.24272" lon="4.95908">
        <ele>419.73724365234</ele>
        <time>2019-05-01T11:29:26 0200</time>
      </trkpt>
      <trkpt lat="47.24271" lon="4.95903">
        <ele>420.22537231445</ele>
        <time>2019-05-01T11:29:23 0200</time>
      </trkpt>
      <trkpt lat="47.24271" lon="4.95901">
        <ele>420.69592285156</ele>
        <time>2019-05-01T11:29:20 0200</time>
      </trkpt>
      <trkpt lat="47.2427" lon="4.95895">
        <ele>421.08865356445</ele>
        <time>2019-05-01T11:29:17 0200</time>
      </trkpt>
      <trkpt lat="47.2427" lon="4.95893">
        <ele>421.50860595703</ele>
        <time>2019-05-01T11:29:14 0200</time>
      </trkpt>
      <trkpt lat="47.2427" lon="4.95892">
        <ele>422.00152587891</ele>
        <time>2019-05-01T11:29:11 0200</time>
      </trkpt>
      <trkpt lat="47.2427" lon="4.9589">
        <ele>422.55334472656</ele>
        <time>2019-05-01T11:29:08 0200</time>
      </trkpt>
      <trkpt lat="47.2427" lon="4.95888">
        <ele>422.99774169922</ele>
        <time>2019-05-01T11:29:05 0200</time>
      </trkpt>
      <trkpt lat="47.24268" lon="4.95884">
        <ele>423.38754272461</ele>
        <time>2019-05-01T11:29:02 0200</time>
      </trkpt>
      <trkpt lat="47.24266" lon="4.95874">
        <ele>423.65444946289</ele>
        <time>2019-05-01T11:28:59 0200</time>
      </trkpt>
      <trkpt lat="47.24265" lon="4.9587">
        <ele>423.88540649414</ele>
        <time>2019-05-01T11:28:56 0200</time>
      </trkpt>
      <trkpt lat="47.24265" lon="4.95865">
        <ele>424.06991577148</ele>
        <time>2019-05-01T11:28:53 0200</time>
      </trkpt>
      <trkpt lat="47.24265" lon="4.95864">
        <ele>424.35403442383</ele>
        <time>2019-05-01T11:28:50 0200</time>
      </trkpt>
      <trkpt lat="47.24264" lon="4.95859">
        <ele>424.66549682617</ele>
        <time>2019-05-01T11:28:47 0200</time>
      </trkpt>
      <trkpt lat="47.24264" lon="4.95856">
        <ele>424.93246459961</ele>
        <time>2019-05-01T11:28:44 0200</time>
      </trkpt>
      <trkpt lat="47.24264" lon="4.95851">
        <ele>425.17092895508</ele>
        <time>2019-05-01T11:28:41 0200</time>
      </trkpt>
      <trkpt lat="47.24264" lon="4.95848">
        <ele>425.49285888672</ele>
        <time>2019-05-01T11:28:38 0200</time>
      </trkpt>
      <trkpt lat="47.24264" lon="4.95846">
        <ele>425.88372802734</ele>
        <time>2019-05-01T11:28:35 0200</time>
      </trkpt>
      <trkpt lat="47.24263" lon="4.95843">
        <ele>426.15310668945</ele>
        <time>2019-05-01T11:28:32 0200</time>
      </trkpt>
      <trkpt lat="47.24263" lon="4.95841">
        <ele>426.37551879883</ele>
        <time>2019-05-01T11:28:29 0200</time>
      </trkpt>
      <trkpt lat="47.24263" lon="4.95838">
        <ele>426.63754272461</ele>
        <time>2019-05-01T11:28:26 0200</time>
      </trkpt>
      <trkpt lat="47.24262" lon="4.95834">
        <ele>426.90057373047</ele>
        <time>2019-05-01T11:28:23 0200</time>
      </trkpt>
      <trkpt lat="47.24262" lon="4.95833">
        <ele>427.18463134766</ele>
        <time>2019-05-01T11:28:20 0200</time>
      </trkpt>
      <trkpt lat="47.24261" lon="4.95829">
        <ele>427.49780273438</ele>
        <time>2019-05-01T11:28:17 0200</time>
      </trkpt>
      <trkpt lat="47.2426" lon="4.95825">
        <ele>427.82489013672</ele>
        <time>2019-05-01T11:28:14 0200</time>
      </trkpt>
      <trkpt lat="47.24259" lon="4.95821">
        <ele>428.1565246582</ele>
        <time>2019-05-01T11:28:11 0200</time>
      </trkpt>
      <trkpt lat="47.24259" lon="4.95818">
        <ele>428.49700927734</ele>
        <time>2019-05-01T11:28:08 0200</time>
      </trkpt>
      <trkpt lat="47.24259" lon="4.95814">
        <ele>428.87033081055</ele>
        <time>2019-05-01T11:28:05 0200</time>
      </trkpt>
      <trkpt lat="47.24259" lon="4.95811">
        <ele>429.30505371094</ele>
        <time>2019-05-01T11:28:02 0200</time>
      </trkpt>
      <trkpt lat="47.24259" lon="4.95807">
        <ele>429.70190429688</ele>
        <time>2019-05-01T11:27:59 0200</time>
      </trkpt>
      <trkpt lat="47.24259" lon="4.95801">
        <ele>430.00686645508</ele>
        <time>2019-05-01T11:27:56 0200</time>
      </trkpt>
      <trkpt lat="47.24259" lon="4.95798">
        <ele>430.22424316406</ele>
        <time>2019-05-01T11:27:53 0200</time>
      </trkpt>
      <trkpt lat="47.2426" lon="4.95794">
        <ele>430.44635009766</ele>
        <time>2019-05-01T11:27:50 0200</time>
      </trkpt>
      <trkpt lat="47.2426" lon="4.95791">
        <ele>430.67828369141</ele>
        <time>2019-05-01T11:27:47 0200</time>
      </trkpt>
      <trkpt lat="47.24261" lon="4.95786">
        <ele>430.96292114258</ele>
        <time>2019-05-01T11:27:44 0200</time>
      </trkpt>
      <trkpt lat="47.24261" lon="4.95784">
        <ele>431.23547363281</ele>
        <time>2019-05-01T11:27:41 0200</time>
      </trkpt>
      <trkpt lat="47.24262" lon="4.9578">
        <ele>431.47436523438</ele>
        <time>2019-05-01T11:27:38 0200</time>
      </trkpt>
      <trkpt lat="47.24262" lon="4.95775">
        <ele>431.64364624023</ele>
        <time>2019-05-01T11:27:35 0200</time>
      </trkpt>
      <trkpt lat="47.24262" lon="4.95773">
        <ele>431.77740478516</ele>
        <time>2019-05-01T11:27:32 0200</time>
      </trkpt>
      <trkpt lat="47.24263" lon="4.9577">
        <ele>431.94515991211</ele>
        <time>2019-05-01T11:27:29 0200</time>
      </trkpt>
      <trkpt lat="47.24264" lon="4.95768">
        <ele>432.20452880859</ele>
        <time>2019-05-01T11:27:26 0200</time>
      </trkpt>
      <trkpt lat="47.24264" lon="4.95763">
        <ele>432.41134643555</ele>
        <time>2019-05-01T11:27:23 0200</time>
      </trkpt>
      <trkpt lat="47.24265" lon="4.95761">
        <ele>432.54153442383</ele>
        <time>2019-05-01T11:27:20 0200</time>
      </trkpt>
      <trkpt lat="47.24266" lon="4.95756">
        <ele>432.70272827148</ele>
        <time>2019-05-01T11:27:17 0200</time>
      </trkpt>
      <trkpt lat="47.24267" lon="4.95752">
        <ele>432.86773681641</ele>
        <time>2019-05-01T11:27:14 0200</time>
      </trkpt>
      <trkpt lat="47.24266" lon="4.9575">
        <ele>432.97116088867</ele>
        <time>2019-05-01T11:27:11 0200</time>
      </trkpt>
      <trkpt lat="47.24267" lon="4.95748">
        <ele>433.11947631836</ele>
        <time>2019-05-01T11:27:08 0200</time>
      </trkpt>
      <trkpt lat="47.24267" lon="4.95745">
        <ele>433.27230834961</ele>
        <time>2019-05-01T11:27:05 0200</time>
      </trkpt>
      <trkpt lat="47.24269" lon="4.95742">
        <ele>433.46109008789</ele>
        <time>2019-05-01T11:27:02 0200</time>
      </trkpt>
      <trkpt lat="47.2427" lon="4.95739">
        <ele>433.72668457031</ele>
        <time>2019-05-01T11:26:59 0200</time>
      </trkpt>
      <trkpt lat="47.2427" lon="4.95736">
        <ele>434.07260131836</ele>
        <time>2019-05-01T11:26:56 0200</time>
      </trkpt>
      <trkpt lat="47.24269" lon="4.95732">
        <ele>434.37139892578</ele>
        <time>2019-05-01T11:26:53 0200</time>
      </trkpt>
      <trkpt lat="47.24272" lon="4.95726">
        <ele>434.6393737793</ele>
        <time>2019-05-01T11:26:50 0200</time>
      </trkpt>
      <trkpt lat="47.24273" lon="4.95723">
        <ele>434.85232543945</ele>
        <time>2019-05-01T11:26:47 0200</time>
      </trkpt>
      <trkpt lat="47.24276" lon="4.95718">
        <ele>435.09286499023</ele>
        <time>2019-05-01T11:26:44 0200</time>
      </trkpt>
      <trkpt lat="47.24276" lon="4.95714">
        <ele>435.30380249023</ele>
        <time>2019-05-01T11:26:41 0200</time>
      </trkpt>
      <trkpt lat="47.24276" lon="4.95711">
        <ele>435.48788452148</ele>
        <time>2019-05-01T11:26:38 0200</time>
      </trkpt>
      <trkpt lat="47.24276" lon="4.95708">
        <ele>435.68872070312</ele>
        <time>2019-05-01T11:26:35 0200</time>
      </trkpt>
      <trkpt lat="47.24276" lon="4.95707">
        <ele>435.92953491211</ele>
        <time>2019-05-01T11:26:32 0200</time>
      </trkpt>
      <trkpt lat="47.24277" lon="4.95705">
        <ele>436.21453857422</ele>
        <time>2019-05-01T11:26:29 0200</time>
      </trkpt>
      <trkpt lat="47.24278" lon="4.95702">
        <ele>436.47863769531</ele>
        <time>2019-05-01T11:26:26 0200</time>
      </trkpt>
      <trkpt lat="47.24279" lon="4.957">
        <ele>436.79959106445</ele>
        <time>2019-05-01T11:26:23 0200</time>
      </trkpt>
      <trkpt lat="47.2428" lon="4.95695">
        <ele>437.13806152344</ele>
        <time>2019-05-01T11:26:20 0200</time>
      </trkpt>
      <trkpt lat="47.24283" lon="4.9569">
        <ele>437.416015625</ele>
        <time>2019-05-01T11:26:17 0200</time>
      </trkpt>
      <trkpt lat="47.24284" lon="4.95684">
        <ele>437.56521606445</ele>
        <time>2019-05-01T11:26:14 0200</time>
      </trkpt>
      <trkpt lat="47.24284" lon="4.95681">
        <ele>437.59664916992</ele>
        <time>2019-05-01T11:26:11 0200</time>
      </trkpt>
      <trkpt lat="47.24285" lon="4.95677">
        <ele>437.64422607422</ele>
        <time>2019-05-01T11:26:08 0200</time>
      </trkpt>
      <trkpt lat="47.24285" lon="4.95675">
        <ele>437.70388793945</ele>
        <time>2019-05-01T11:26:05 0200</time>
      </trkpt>
      <trkpt lat="47.24286" lon="4.95673">
        <ele>437.81021118164</ele>
        <time>2019-05-01T11:26:02 0200</time>
      </trkpt>
      <trkpt lat="47.24287" lon="4.95669">
        <ele>437.90097045898</ele>
        <time>2019-05-01T11:25:59 0200</time>
      </trkpt>
      <trkpt lat="47.24289" lon="4.95666">
        <ele>438.01443481445</ele>
        <time>2019-05-01T11:25:56 0200</time>
      </trkpt>
      <trkpt lat="47.24291" lon="4.95664">
        <ele>438.20748901367</ele>
        <time>2019-05-01T11:25:53 0200</time>
      </trkpt>
      <trkpt lat="47.24293" lon="4.95661">
        <ele>438.45947265625</ele>
        <time>2019-05-01T11:25:50 0200</time>
      </trkpt>
      <trkpt lat="47.24294" lon="4.95659">
        <ele>438.75384521484</ele>
        <time>2019-05-01T11:25:47 0200</time>
      </trkpt>
      <trkpt lat="47.24295" lon="4.95655">
        <ele>439.09234619141</ele>
        <time>2019-05-01T11:25:44 0200</time>
      </trkpt>
      <trkpt lat="47.24298" lon="4.95652">
        <ele>439.43920898438</ele>
        <time>2019-05-01T11:25:41 0200</time>
      </trkpt>
      <trkpt lat="47.243" lon="4.95648">
        <ele>439.77801513672</ele>
        <time>2019-05-01T11:25:38 0200</time>
      </trkpt>
      <trkpt lat="47.24303" lon="4.95646">
        <ele>440.16329956055</ele>
        <time>2019-05-01T11:25:35 0200</time>
      </trkpt>
      <trkpt lat="47.24305" lon="4.95643">
        <ele>440.54028320312</ele>
        <time>2019-05-01T11:25:32 0200</time>
      </trkpt>
      <trkpt lat="47.24307" lon="4.9564">
        <ele>440.91534423828</ele>
        <time>2019-05-01T11:25:29 0200</time>
      </trkpt>
      <trkpt lat="47.2431" lon="4.95637">
        <ele>441.29345703125</ele>
        <time>2019-05-01T11:25:26 0200</time>
      </trkpt>
      <trkpt lat="47.24313" lon="4.95634">
        <ele>441.60244750977</ele>
        <time>2019-05-01T11:25:23 0200</time>
      </trkpt>
      <trkpt lat="47.24316" lon="4.9563">
        <ele>441.8154296875</ele>
        <time>2019-05-01T11:25:20 0200</time>
      </trkpt>
      <trkpt lat="47.24317" lon="4.95628">
        <ele>442.02014160156</ele>
        <time>2019-05-01T11:25:17 0200</time>
      </trkpt>
      <trkpt lat="47.24319" lon="4.95625">
        <ele>442.15698242188</ele>
        <time>2019-05-01T11:25:14 0200</time>
      </trkpt>
      <trkpt lat="47.24323" lon="4.95621">
        <ele>442.33453369141</ele>
        <time>2019-05-01T11:25:11 0200</time>
      </trkpt>
      <trkpt lat="47.24324" lon="4.9562">
        <ele>442.61557006836</ele>
        <time>2019-05-01T11:25:08 0200</time>
      </trkpt>
      <trkpt lat="47.24325" lon="4.95618">
        <ele>442.89404296875</ele>
        <time>2019-05-01T11:25:05 0200</time>
      </trkpt>
      <trkpt lat="47.24326" lon="4.95615">
        <ele>443.20394897461</ele>
        <time>2019-05-01T11:25:02 0200</time>
      </trkpt>
      <trkpt lat="47.24328" lon="4.95611">
        <ele>443.45724487305</ele>
        <time>2019-05-01T11:24:59 0200</time>
      </trkpt>
      <trkpt lat="47.2433" lon="4.95608">
        <ele>443.71408081055</ele>
        <time>2019-05-01T11:24:56 0200</time>
      </trkpt>
      <trkpt lat="47.24334" lon="4.95604">
        <ele>443.97674560547</ele>
        <time>2019-05-01T11:24:53 0200</time>
      </trkpt>
      <trkpt lat="47.24335" lon="4.95601">
        <ele>444.28790283203</ele>
        <time>2019-05-01T11:24:50 0200</time>
      </trkpt>
      <trkpt lat="47.24338" lon="4.95596">
        <ele>444.53900146484</ele>
        <time>2019-05-01T11:24:47 0200</time>
      </trkpt>
      <trkpt lat="47.24342" lon="4.95591">
        <ele>444.66525268555</ele>
        <time>2019-05-01T11:24:44 0200</time>
      </trkpt>
      <trkpt lat="47.24343" lon="4.95588">
        <ele>444.74594116211</ele>
        <time>2019-05-01T11:24:41 0200</time>
      </trkpt>
      <trkpt lat="47.24346" lon="4.95584">
        <ele>444.71856689453</ele>
        <time>2019-05-01T11:24:38 0200</time>
      </trkpt>
      <trkpt lat="47.24347" lon="4.9558">
        <ele>444.64376831055</ele>
        <time>2019-05-01T11:24:35 0200</time>
      </trkpt>
      <trkpt lat="47.24349" lon="4.95575">
        <ele>444.54721069336</ele>
        <time>2019-05-01T11:24:32 0200</time>
      </trkpt>
      <trkpt lat="47.24349" lon="4.95571">
        <ele>444.51721191406</ele>
        <time>2019-05-01T11:24:29 0200</time>
      </trkpt>
      <trkpt lat="47.24351" lon="4.95565">
        <ele>444.46139526367</ele>
        <time>2019-05-01T11:24:26 0200</time>
      </trkpt>
      <trkpt lat="47.24352" lon="4.9556">
        <ele>444.37448120117</ele>
        <time>2019-05-01T11:24:23 0200</time>
      </trkpt>
      <trkpt lat="47.24354" lon="4.95557">
        <ele>444.26306152344</ele>
        <time>2019-05-01T11:24:20 0200</time>
      </trkpt>
      <trkpt lat="47.24356" lon="4.95554">
        <ele>444.20013427734</ele>
        <time>2019-05-01T11:24:17 0200</time>
      </trkpt>
      <trkpt lat="47.24357" lon="4.9555">
        <ele>444.13613891602</ele>
        <time>2019-05-01T11:24:14 0200</time>
      </trkpt>
      <trkpt lat="47.24359" lon="4.95548">
        <ele>444.17324829102</ele>
        <time>2019-05-01T11:24:11 0200</time>
      </trkpt>
      <trkpt lat="47.24362" lon="4.95545">
        <ele>444.28799438477</ele>
        <time>2019-05-01T11:24:08 0200</time>
      </trkpt>
      <trkpt lat="47.24364" lon="4.95541">
        <ele>444.45468139648</ele>
        <time>2019-05-01T11:24:05 0200</time>
      </trkpt>
      <trkpt lat="47.24365" lon="4.95534">
        <ele>444.46258544922</ele>
        <time>2019-05-01T11:24:02 0200</time>
      </trkpt>
      <trkpt lat="47.24366" lon="4.95529">
        <ele>444.42636108398</ele>
        <time>2019-05-01T11:23:59 0200</time>
      </trkpt>
      <trkpt lat="47.24366" lon="4.95527">
        <ele>444.41537475586</ele>
        <time>2019-05-01T11:23:56 0200</time>
      </trkpt>
      <trkpt lat="47.24367" lon="4.95524">
        <ele>444.47903442383</ele>
        <time>2019-05-01T11:23:53 0200</time>
      </trkpt>
      <trkpt lat="47.24368" lon="4.95523">
        <ele>444.66021728516</ele>
        <time>2019-05-01T11:23:50 0200</time>
      </trkpt>
      <trkpt lat="47.24369" lon="4.95519">
        <ele>444.85180664062</ele>
        <time>2019-05-01T11:23:47 0200</time>
      </trkpt>
      <trkpt lat="47.24371" lon="4.95516">
        <ele>445.00939941406</ele>
        <time>2019-05-01T11:23:44 0200</time>
      </trkpt>
      <trkpt lat="47.24371" lon="4.95513">
        <ele>445.16293334961</ele>
        <time>2019-05-01T11:23:41 0200</time>
      </trkpt>
      <trkpt lat="47.24372" lon="4.95509">
        <ele>445.32040405273</ele>
        <time>2019-05-01T11:23:38 0200</time>
      </trkpt>
      <trkpt lat="47.24373" lon="4.95507">
        <ele>445.50424194336</ele>
        <time>2019-05-01T11:23:35 0200</time>
      </trkpt>
      <trkpt lat="47.24373" lon="4.95503">
        <ele>445.751953125</ele>
        <time>2019-05-01T11:23:32 0200</time>
      </trkpt>
      <trkpt lat="47.24373" lon="4.95498">
        <ele>445.99575805664</ele>
        <time>2019-05-01T11:23:29 0200</time>
      </trkpt>
      <trkpt lat="47.24374" lon="4.95495">
        <ele>446.22082519531</ele>
        <time>2019-05-01T11:23:26 0200</time>
      </trkpt>
      <trkpt lat="47.24375" lon="4.95492">
        <ele>446.47579956055</ele>
        <time>2019-05-01T11:23:23 0200</time>
      </trkpt>
      <trkpt lat="47.24376" lon="4.95486">
        <ele>446.74786376953</ele>
        <time>2019-05-01T11:23:20 0200</time>
      </trkpt>
      <trkpt lat="47.24376" lon="4.95482">
        <ele>447.04550170898</ele>
        <time>2019-05-01T11:23:17 0200</time>
      </trkpt>
      <trkpt lat="47.24377" lon="4.95478">
        <ele>447.40408325195</ele>
        <time>2019-05-01T11:23:14 0200</time>
      </trkpt>
      <trkpt lat="47.24378" lon="4.95473">
        <ele>447.80599975586</ele>
        <time>2019-05-01T11:23:11 0200</time>
      </trkpt>
      <trkpt lat="47.24379" lon="4.9547">
        <ele>448.20907592773</ele>
        <time>2019-05-01T11:23:08 0200</time>
      </trkpt>
      <trkpt lat="47.2438" lon="4.95466">
        <ele>448.66778564453</ele>
        <time>2019-05-01T11:23:05 0200</time>
      </trkpt>
      <trkpt lat="47.24381" lon="4.95462">
        <ele>449.11904907227</ele>
        <time>2019-05-01T11:23:02 0200</time>
      </trkpt>
      <trkpt lat="47.24382" lon="4.95459">
        <ele>449.57965087891</ele>
        <time>2019-05-01T11:22:59 0200</time>
      </trkpt>
      <trkpt lat="47.24382" lon="4.95454">
        <ele>449.9382019043</ele>
        <time>2019-05-01T11:22:56 0200</time>
      </trkpt>
      <trkpt lat="47.24382" lon="4.95449">
        <ele>450.24365234375</ele>
        <time>2019-05-01T11:22:53 0200</time>
      </trkpt>
      <trkpt lat="47.24383" lon="4.95442">
        <ele>450.52606201172</ele>
        <time>2019-05-01T11:22:50 0200</time>
      </trkpt>
      <trkpt lat="47.24384" lon="4.95438">
        <ele>450.80584716797</ele>
        <time>2019-05-01T11:22:47 0200</time>
      </trkpt>
      <trkpt lat="47.24386" lon="4.95433">
        <ele>451.15460205078</ele>
        <time>2019-05-01T11:22:44 0200</time>
      </trkpt>
      <trkpt lat="47.24389" lon="4.95429">
        <ele>451.53436279297</ele>
        <time>2019-05-01T11:22:41 0200</time>
      </trkpt>
      <trkpt lat="47.24389" lon="4.95424">
        <ele>451.80975341797</ele>
        <time>2019-05-01T11:22:38 0200</time>
      </trkpt>
      <trkpt lat="47.24392" lon="4.95418">
        <ele>451.99700927734</ele>
        <time>2019-05-01T11:22:35 0200</time>
      </trkpt>
      <trkpt lat="47.24394" lon="4.95413">
        <ele>452.03463745117</ele>
        <time>2019-05-01T11:22:32 0200</time>
      </trkpt>
      <trkpt lat="47.24396" lon="4.95406">
        <ele>451.95025634766</ele>
        <time>2019-05-01T11:22:29 0200</time>
      </trkpt>
      <trkpt lat="47.24401" lon="4.95396">
        <ele>451.66998291016</ele>
        <time>2019-05-01T11:22:26 0200</time>
      </trkpt>
      <trkpt lat="47.24404" lon="4.9539">
        <ele>451.18914794922</ele>
        <time>2019-05-01T11:22:23 0200</time>
      </trkpt>
      <trkpt lat="47.24405" lon="4.9539">
        <ele>450.84921264648</ele>
        <time>2019-05-01T11:22:20 0200</time>
      </trkpt>
      <trkpt lat="47.24407" lon="4.95385">
        <ele>450.8532409668</ele>
        <time>2019-05-01T11:22:17 0200</time>
      </trkpt>
      <trkpt lat="47.24412" lon="4.95379">
        <ele>451.17303466797</ele>
        <time>2019-05-01T11:22:14 0200</time>
      </trkpt>
      <trkpt lat="47.24414" lon="4.95376">
        <ele>451.52682495117</ele>
        <time>2019-05-01T11:22:11 0200</time>
      </trkpt>
      <trkpt lat="47.24414" lon="4.95372">
        <ele>451.84790039062</ele>
        <time>2019-05-01T11:22:08 0200</time>
      </trkpt>
      <trkpt lat="47.24413" lon="4.95371">
        <ele>452.1227722168</ele>
        <time>2019-05-01T11:22:05 0200</time>
      </trkpt>
      <trkpt lat="47.24411" lon="4.95367">
        <ele>452.28259277344</ele>
        <time>2019-05-01T11:22:02 0200</time>
      </trkpt>
      <trkpt lat="47.24413" lon="4.95363">
        <ele>452.40060424805</ele>
        <time>2019-05-01T11:21:59 0200</time>
      </trkpt>
      <trkpt lat="47.24413" lon="4.95359">
        <ele>452.41650390625</ele>
        <time>2019-05-01T11:21:56 0200</time>
      </trkpt>
      <trkpt lat="47.24413" lon="4.95355">
        <ele>452.48226928711</ele>
        <time>2019-05-01T11:21:53 0200</time>
      </trkpt>
      <trkpt lat="47.24415" lon="4.9535">
        <ele>452.59744262695</ele>
        <time>2019-05-01T11:21:50 0200</time>
      </trkpt>
      <trkpt lat="47.24416" lon="4.95348">
        <ele>452.71075439453</ele>
        <time>2019-05-01T11:21:47 0200</time>
      </trkpt>
      <trkpt lat="47.24418" lon="4.95344">
        <ele>452.75073242188</ele>
        <time>2019-05-01T11:21:44 0200</time>
      </trkpt>
      <trkpt lat="47.24419" lon="4.95339">
        <ele>452.64379882812</ele>
        <time>2019-05-01T11:21:41 0200</time>
      </trkpt>
      <trkpt lat="47.24423" lon="4.95333">
        <ele>452.27996826172</ele>
        <time>2019-05-01T11:21:38 0200</time>
      </trkpt>
      <trkpt lat="47.24427" lon="4.9533">
        <ele>451.81494140625</ele>
        <time>2019-05-01T11:21:35 0200</time>
      </trkpt>
      <trkpt lat="47.24429" lon="4.95329">
        <ele>451.41329956055</ele>
        <time>2019-05-01T11:21:32 0200</time>
      </trkpt>
      <trkpt lat="47.24433" lon="4.95326">
        <ele>451.033203125</ele>
        <time>2019-05-01T11:21:29 0200</time>
      </trkpt>
      <trkpt lat="47.2444" lon="4.95318">
        <ele>450.65914916992</ele>
        <time>2019-05-01T11:21:26 0200</time>
      </trkpt>
      <trkpt lat="47.24446" lon="4.95313">
        <ele>450.27465820312</ele>
        <time>2019-05-01T11:21:23 0200</time>
      </trkpt>
      <trkpt lat="47.24449" lon="4.95313">
        <ele>449.90979003906</ele>
        <time>2019-05-01T11:21:20 0200</time>
      </trkpt>
      <trkpt lat="47.2445" lon="4.95313">
        <ele>449.68231201172</ele>
        <time>2019-05-01T11:21:17 0200</time>
      </trkpt>
      <trkpt lat="47.24452" lon="4.95312">
        <ele>449.61450195312</ele>
        <time>2019-05-01T11:21:14 0200</time>
      </trkpt>
      <trkpt lat="47.24454" lon="4.95311">
        <ele>449.5758972168</ele>
        <time>2019-05-01T11:21:11 0200</time>
      </trkpt>
      <trkpt lat="47.24458" lon="4.9531">
        <ele>449.552734375</ele>
        <time>2019-05-01T11:21:08 0200</time>
      </trkpt>
      <trkpt lat="47.24462" lon="4.95307">
        <ele>449.52032470703</ele>
        <time>2019-05-01T11:21:05 0200</time>
      </trkpt>
      <trkpt lat="47.24462" lon="4.95307">
        <ele>449.50787353516</ele>
        <time>2019-05-01T11:21:02 0200</time>
      </trkpt>
      <trkpt lat="47.24464" lon="4.95306">
        <ele>449.55685424805</ele>
        <time>2019-05-01T11:20:59 0200</time>
      </trkpt>
      <trkpt lat="47.24466" lon="4.95303">
        <ele>449.51248168945</ele>
        <time>2019-05-01T11:20:56 0200</time>
      </trkpt>
      <trkpt lat="47.24467" lon="4.95298">
        <ele>449.36611938477</ele>
        <time>2019-05-01T11:20:53 0200</time>
      </trkpt>
      <trkpt lat="47.24468" lon="4.95293">
        <ele>449.04483032227</ele>
        <time>2019-05-01T11:20:50 0200</time>
      </trkpt>
      <trkpt lat="47.24472" lon="4.95289">
        <ele>448.62789916992</ele>
        <time>2019-05-01T11:20:47 0200</time>
      </trkpt>
      <trkpt lat="47.24479" lon="4.95281">
        <ele>448.48406982422</ele>
        <time>2019-05-01T11:20:44 0200</time>
      </trkpt>
      <trkpt lat="47.24482" lon="4.9528">
        <ele>448.65698242188</ele>
        <time>2019-05-01T11:20:41 0200</time>
      </trkpt>
      <trkpt lat="47.24485" lon="4.9528">
        <ele>448.93447875977</ele>
        <time>2019-05-01T11:20:38 0200</time>
      </trkpt>
      <trkpt lat="47.24489" lon="4.95277">
        <ele>449.26309204102</ele>
        <time>2019-05-01T11:20:35 0200</time>
      </trkpt>
      <trkpt lat="47.24494" lon="4.95278">
        <ele>449.53790283203</ele>
        <time>2019-05-01T11:20:32 0200</time>
      </trkpt>
      <trkpt lat="47.24497" lon="4.95277">
        <ele>449.76202392578</ele>
        <time>2019-05-01T11:20:29 0200</time>
      </trkpt>
      <trkpt lat="47.24499" lon="4.95276">
        <ele>450.00021362305</ele>
        <time>2019-05-01T11:20:26 0200</time>
      </trkpt>
      <trkpt lat="47.24502" lon="4.95277">
        <ele>450.29379272461</ele>
        <time>2019-05-01T11:20:23 0200</time>
      </trkpt>
      <trkpt lat="47.24504" lon="4.95277">
        <ele>450.71859741211</ele>
        <time>2019-05-01T11:20:20 0200</time>
      </trkpt>
      <trkpt lat="47.24505" lon="4.95277">
        <ele>450.91906738281</ele>
        <time>2019-05-01T11:20:17 0200</time>
      </trkpt>
      <trkpt lat="47.24506" lon="4.95277">
        <ele>450.96740722656</ele>
        <time>2019-05-01T11:20:14 0200</time>
      </trkpt>
      <trkpt lat="47.24509" lon="4.95276">
        <ele>451.34481811523</ele>
        <time>2019-05-01T11:20:11 0200</time>
      </trkpt>
      <trkpt lat="47.24515" lon="4.95275">
        <ele>451.68185424805</ele>
        <time>2019-05-01T11:20:08 0200</time>
      </trkpt>
      <trkpt lat="47.24515" lon="4.95275">
        <ele>451.931640625</ele>
        <time>2019-05-01T11:20:05 0200</time>
      </trkpt>
      <trkpt lat="47.24515" lon="4.95275">
        <ele>452.16033935547</ele>
        <time>2019-05-01T11:20:02 0200</time>
      </trkpt>
      <trkpt lat="47.24518" lon="4.95273">
        <ele>452.57080078125</ele>
        <time>2019-05-01T11:19:59 0200</time>
      </trkpt>
      <trkpt lat="47.24521" lon="4.95267">
        <ele>452.76541137695</ele>
        <time>2019-05-01T11:19:56 0200</time>
      </trkpt>
      <trkpt lat="47.24521" lon="4.95266">
        <ele>452.70999145508</ele>
        <time>2019-05-01T11:19:53 0200</time>
      </trkpt>
      <trkpt lat="47.24521" lon="4.95257">
        <ele>452.349609375</ele>
        <time>2019-05-01T11:19:50 0200</time>
      </trkpt>
      <trkpt lat="47.24522" lon="4.95253">
        <ele>451.94470214844</ele>
        <time>2019-05-01T11:19:47 0200</time>
      </trkpt>
      <trkpt lat="47.24522" lon="4.95248">
        <ele>451.63525390625</ele>
        <time>2019-05-01T11:19:44 0200</time>
      </trkpt>
      <trkpt lat="47.24521" lon="4.95246">
        <ele>451.45120239258</ele>
        <time>2019-05-01T11:19:41 0200</time>
      </trkpt>
      <trkpt lat="47.24524" lon="4.95239">
        <ele>451.28182983398</ele>
        <time>2019-05-01T11:19:38 0200</time>
      </trkpt>
      <trkpt lat="47.24528" lon="4.95234">
        <ele>450.98715209961</ele>
        <time>2019-05-01T11:19:35 0200</time>
      </trkpt>
      <trkpt lat="47.2453" lon="4.95234">
        <ele>450.96197509766</ele>
        <time>2019-05-01T11:19:32 0200</time>
      </trkpt>
      <trkpt lat="47.24531" lon="4.95234">
        <ele>450.93154907227</ele>
        <time>2019-05-01T11:19:29 0200</time>
      </trkpt>
      <trkpt lat="47.24531" lon="4.95234">
        <ele>450.90063476562</ele>
        <time>2019-05-01T11:19:26 0200</time>
      </trkpt>
      <trkpt lat="47.24539" lon="4.95236">
        <ele>450.61212158203</ele>
        <time>2019-05-01T11:19:23 0200</time>
      </trkpt>
      <trkpt lat="47.24547" lon="4.9524">
        <ele>450.07678222656</ele>
        <time>2019-05-01T11:19:20 0200</time>
      </trkpt>
      <trkpt lat="47.24549" lon="4.95244">
        <ele>449.48693847656</ele>
        <time>2019-05-01T11:19:17 0200</time>
      </trkpt>
      <trkpt lat="47.24551" lon="4.95244">
        <ele>448.95101928711</ele>
        <time>2019-05-01T11:19:14 0200</time>
      </trkpt>
      <trkpt lat="47.24552" lon="4.95245">
        <ele>448.53216552734</ele>
        <time>2019-05-01T11:19:11 0200</time>
      </trkpt>
      <trkpt lat="47.24553" lon="4.95247">
        <ele>448.25189208984</ele>
        <time>2019-05-01T11:19:08 0200</time>
      </trkpt>
      <trkpt lat="47.24555" lon="4.95248">
        <ele>448.16830444336</ele>
        <time>2019-05-01T11:19:05 0200</time>
      </trkpt>
      <trkpt lat="47.24555" lon="4.95248">
        <ele>448.06622314453</ele>
        <time>2019-05-01T11:19:02 0200</time>
      </trkpt>
      <trkpt lat="47.24555" lon="4.95248">
        <ele>448.00311279297</ele>
        <time>2019-05-01T11:18:59 0200</time>
      </trkpt>
      <trkpt lat="47.24555" lon="4.95248">
        <ele>447.99224853516</ele>
        <time>2019-05-01T11:18:56 0200</time>
      </trkpt>
      <trkpt lat="47.24557" lon="4.95249">
        <ele>447.97210693359</ele>
        <time>2019-05-01T11:18:53 0200</time>
      </trkpt>
      <trkpt lat="47.24557" lon="4.9525">
        <ele>447.77264404297</ele>
        <time>2019-05-01T11:18:50 0200</time>
      </trkpt>
      <trkpt lat="47.24561" lon="4.95254">
        <ele>447.69940185547</ele>
        <time>2019-05-01T11:18:47 0200</time>
      </trkpt>
      <trkpt lat="47.2456" lon="4.95257">
        <ele>447.67233276367</ele>
        <time>2019-05-01T11:18:44 0200</time>
      </trkpt>
      <trkpt lat="47.24559" lon="4.95258">
        <ele>447.74822998047</ele>
        <time>2019-05-01T11:18:41 0200</time>
      </trkpt>
      <trkpt lat="47.24559" lon="4.95258">
        <ele>447.75411987305</ele>
        <time>2019-05-01T11:18:38 0200</time>
      </trkpt>
      <trkpt lat="47.24562" lon="4.95259">
        <ele>447.74002075195</ele>
        <time>2019-05-01T11:18:35 0200</time>
      </trkpt>
      <trkpt lat="47.24566" lon="4.95259">
        <ele>447.61752319336</ele>
        <time>2019-05-01T11:18:32 0200</time>
      </trkpt>
      <trkpt lat="47.2457" lon="4.9526">
        <ele>447.53472900391</ele>
        <time>2019-05-01T11:18:29 0200</time>
      </trkpt>
      <trkpt lat="47.24572" lon="4.95259">
        <ele>447.62182617188</ele>
        <time>2019-05-01T11:18:26 0200</time>
      </trkpt>
      <trkpt lat="47.24575" lon="4.9526">
        <ele>447.80996704102</ele>
        <time>2019-05-01T11:18:23 0200</time>
      </trkpt>
      <trkpt lat="47.24578" lon="4.95259">
        <ele>448.01895141602</ele>
        <time>2019-05-01T11:18:20 0200</time>
      </trkpt>
      <trkpt lat="47.2458" lon="4.95261">
        <ele>448.18716430664</ele>
        <time>2019-05-01T11:18:17 0200</time>
      </trkpt>
      <trkpt lat="47.24586" lon="4.95262">
        <ele>448.23553466797</ele>
        <time>2019-05-01T11:18:14 0200</time>
      </trkpt>
      <trkpt lat="47.24596" lon="4.95261">
        <ele>448.16925048828</ele>
        <time>2019-05-01T11:18:11 0200</time>
      </trkpt>
      <trkpt lat="47.24601" lon="4.95261">
        <ele>448.07846069336</ele>
        <time>2019-05-01T11:18:08 0200</time>
      </trkpt>
      <trkpt lat="47.24605" lon="4.95259">
        <ele>448.10305786133</ele>
        <time>2019-05-01T11:18:05 0200</time>
      </trkpt>
      <trkpt lat="47.24606" lon="4.95259">
        <ele>448.18618774414</ele>
        <time>2019-05-01T11:18:02 0200</time>
      </trkpt>
      <trkpt lat="47.24609" lon="4.95259">
        <ele>448.34893798828</ele>
        <time>2019-05-01T11:17:59 0200</time>
      </trkpt>
      <trkpt lat="47.24611" lon="4.95262">
        <ele>448.46890258789</ele>
        <time>2019-05-01T11:17:56 0200</time>
      </trkpt>
      <trkpt lat="47.24615" lon="4.95262">
        <ele>448.59368896484</ele>
        <time>2019-05-01T11:17:53 0200</time>
      </trkpt>
      <trkpt lat="47.24619" lon="4.95262">
        <ele>448.72671508789</ele>
        <time>2019-05-01T11:17:50 0200</time>
      </trkpt>
      <trkpt lat="47.24621" lon="4.95261">
        <ele>448.92825317383</ele>
        <time>2019-05-01T11:17:47 0200</time>
      </trkpt>
      <trkpt lat="47.24623" lon="4.9526">
        <ele>449.15762329102</ele>
        <time>2019-05-01T11:17:44 0200</time>
      </trkpt>
      <trkpt lat="47.24627" lon="4.9526">
        <ele>449.33850097656</ele>
        <time>2019-05-01T11:17:41 0200</time>
      </trkpt>
      <trkpt lat="47.2463" lon="4.95261">
        <ele>449.43353271484</ele>
        <time>2019-05-01T11:17:39 0200</time>
      </trkpt>
      <trkpt lat="47.24634" lon="4.95262">
        <ele>449.53964233398</ele>
        <time>2019-05-01T11:17:36 0200</time>
      </trkpt>
      <trkpt lat="47.24635" lon="4.95263">
        <ele>449.63034057617</ele>
        <time>2019-05-01T11:17:33 0200</time>
      </trkpt>
      <trkpt lat="47.24638" lon="4.95263">
        <ele>449.82958984375</ele>
        <time>2019-05-01T11:17:30 0200</time>
      </trkpt>
      <trkpt lat="47.24638" lon="4.95263">
        <ele>449.84838867188</ele>
        <time>2019-05-01T11:17:27 0200</time>
      </trkpt>
      <trkpt lat="47.24642" lon="4.95265">
        <ele>449.92376708984</ele>
        <time>2019-05-01T11:17:24 0200</time>
      </trkpt>
      <trkpt lat="47.24643" lon="4.95265">
        <ele>449.96701049805</ele>
        <time>2019-05-01T11:17:21 0200</time>
      </trkpt>
      <trkpt lat="47.24644" lon="4.95266">
        <ele>449.92535400391</ele>
        <time>2019-05-01T11:17:18 0200</time>
      </trkpt>
      <trkpt lat="47.24648" lon="4.95267">
        <ele>449.90139770508</ele>
        <time>2019-05-01T11:17:15 0200</time>
      </trkpt>
      <trkpt lat="47.24651" lon="4.95267">
        <ele>449.82067871094</ele>
        <time>2019-05-01T11:17:12 0200</time>
      </trkpt>
      <trkpt lat="47.24654" lon="4.95266">
        <ele>449.57516479492</ele>
        <time>2019-05-01T11:17:09 0200</time>
      </trkpt>
      <trkpt lat="47.24655" lon="4.95269">
        <ele>449.38229370117</ele>
        <time>2019-05-01T11:17:06 0200</time>
      </trkpt>
      <trkpt lat="47.24659" lon="4.95269">
        <ele>449.29818725586</ele>
        <time>2019-05-01T11:17:03 0200</time>
      </trkpt>
      <trkpt lat="47.24664" lon="4.95266">
        <ele>449.22564697266</ele>
        <time>2019-05-01T11:17:00 0200</time>
      </trkpt>
      <trkpt lat="47.2467" lon="4.95266">
        <ele>449.19125366211</ele>
        <time>2019-05-01T11:16:57 0200</time>
      </trkpt>
      <trkpt lat="47.24671" lon="4.95267">
        <ele>449.19442749023</ele>
        <time>2019-05-01T11:16:54 0200</time>
      </trkpt>
      <trkpt lat="47.24673" lon="4.95268">
        <ele>449.20568847656</ele>
        <time>2019-05-01T11:16:51 0200</time>
      </trkpt>
      <trkpt lat="47.24674" lon="4.95268">
        <ele>449.22225952148</ele>
        <time>2019-05-01T11:16:48 0200</time>
      </trkpt>
      <trkpt lat="47.24675" lon="4.95269">
        <ele>449.23403930664</ele>
        <time>2019-05-01T11:16:45 0200</time>
      </trkpt>
      <trkpt lat="47.24678" lon="4.95267">
        <ele>449.29861450195</ele>
        <time>2019-05-01T11:16:42 0200</time>
      </trkpt>
      <trkpt lat="47.24683" lon="4.95264">
        <ele>449.36505126953</ele>
        <time>2019-05-01T11:16:39 0200</time>
      </trkpt>
      <trkpt lat="47.24683" lon="4.95263">
        <ele>449.38900756836</ele>
        <time>2019-05-01T11:16:36 0200</time>
      </trkpt>
      <trkpt lat="47.24685" lon="4.95262">
        <ele>449.4157409668</ele>
        <time>2019-05-01T11:16:33 0200</time>
      </trkpt>
      <trkpt lat="47.24687" lon="4.95263">
        <ele>449.59448242188</ele>
        <time>2019-05-01T11:16:30 0200</time>
      </trkpt>
      <trkpt lat="47.24689" lon="4.95261">
        <ele>449.82174682617</ele>
        <time>2019-05-01T11:16:27 0200</time>
      </trkpt>
      <trkpt lat="47.24691" lon="4.95262">
        <ele>449.84225463867</ele>
        <time>2019-05-01T11:16:24 0200</time>
      </trkpt>
      <trkpt lat="47.24693" lon="4.95263">
        <ele>449.90780639648</ele>
        <time>2019-05-01T11:16:21 0200</time>
      </trkpt>
      <trkpt lat="47.24693" lon="4.95263">
        <ele>449.97799682617</ele>
        <time>2019-05-01T11:16:18 0200</time>
      </trkpt>
      <trkpt lat="47.24695" lon="4.95266">
        <ele>449.98828125</ele>
        <time>2019-05-01T11:16:15 0200</time>
      </trkpt>
      <trkpt lat="47.24697" lon="4.95268">
        <ele>450.01434326172</ele>
        <time>2019-05-01T11:16:12 0200</time>
      </trkpt>
      <trkpt lat="47.24697" lon="4.95269">
        <ele>450.00354003906</ele>
        <time>2019-05-01T11:16:09 0200</time>
      </trkpt>
      <trkpt lat="47.24698" lon="4.95271">
        <ele>449.97991943359</ele>
        <time>2019-05-01T11:16:06 0200</time>
      </trkpt>
      <trkpt lat="47.24699" lon="4.95272">
        <ele>449.95275878906</ele>
        <time>2019-05-01T11:16:03 0200</time>
      </trkpt>
      <trkpt lat="47.24698" lon="4.95272">
        <ele>449.93716430664</ele>
        <time>2019-05-01T11:16:00 0200</time>
      </trkpt>
      <trkpt lat="47.24697" lon="4.95272">
        <ele>449.92785644531</ele>
        <time>2019-05-01T11:15:57 0200</time>
      </trkpt>
      <trkpt lat="47.24696" lon="4.95271">
        <ele>449.93319702148</ele>
        <time>2019-05-01T11:15:54 0200</time>
      </trkpt>
      <trkpt lat="47.24696" lon="4.95271">
        <ele>449.93505859375</ele>
        <time>2019-05-01T11:15:51 0200</time>
      </trkpt>
      <trkpt lat="47.24696" lon="4.9527">
        <ele>449.93338012695</ele>
        <time>2019-05-01T11:15:48 0200</time>
      </trkpt>
      <trkpt lat="47.24695" lon="4.9527">
        <ele>449.93072509766</ele>
        <time>2019-05-01T11:15:45 0200</time>
      </trkpt>
      <trkpt lat="47.24694" lon="4.95266">
        <ele>449.87109375</ele>
        <time>2019-05-01T11:15:42 0200</time>
      </trkpt>
      <trkpt lat="47.24693" lon="4.95261">
        <ele>449.67468261719</ele>
        <time>2019-05-01T11:15:39 0200</time>
      </trkpt>
      <trkpt lat="47.24693" lon="4.95257">
        <ele>449.51092529297</ele>
        <time>2019-05-01T11:15:36 0200</time>
      </trkpt>
      <trkpt lat="47.24693" lon="4.95255">
        <ele>449.46127319336</ele>
        <time>2019-05-01T11:15:33 0200</time>
      </trkpt>
      <trkpt lat="47.24693" lon="4.95254">
        <ele>449.3362121582</ele>
        <time>2019-05-01T11:15:30 0200</time>
      </trkpt>
      <trkpt lat="47.24694" lon="4.95253">
        <ele>449.33218383789</ele>
        <time>2019-05-01T11:15:27 0200</time>
      </trkpt>
      <trkpt lat="47.24694" lon="4.95253">
        <ele>449.30975341797</ele>
        <time>2019-05-01T11:15:24 0200</time>
      </trkpt>
      <trkpt lat="47.24693" lon="4.95251">
        <ele>449.17758178711</ele>
        <time>2019-05-01T11:15:21 0200</time>
      </trkpt>
      <trkpt lat="47.24694" lon="4.95249">
        <ele>449.04095458984</ele>
        <time>2019-05-01T11:15:18 0200</time>
      </trkpt>
      <trkpt lat="47.24694" lon="4.95243">
        <ele>449.00765991211</ele>
        <time>2019-05-01T11:15:15 0200</time>
      </trkpt>
      <trkpt lat="47.24694" lon="4.95243">
        <ele>449.02362060547</ele>
        <time>2019-05-01T11:15:12 0200</time>
      </trkpt>
      <trkpt lat="47.24693" lon="4.95239">
        <ele>449.00311279297</ele>
        <time>2019-05-01T11:15:09 0200</time>
      </trkpt>
      <trkpt lat="47.24693" lon="4.95237">
        <ele>448.96649169922</ele>
        <time>2019-05-01T11:15:06 0200</time>
      </trkpt>
      <trkpt lat="47.24693" lon="4.95236">
        <ele>448.85968017578</ele>
        <time>2019-05-01T11:15:03 0200</time>
      </trkpt>
      <trkpt lat="47.24692" lon="4.95235">
        <ele>448.68154907227</ele>
        <time>2019-05-01T11:15:00 0200</time>
      </trkpt>
      <trkpt lat="47.24691" lon="4.95232">
        <ele>448.46899414062</ele>
        <time>2019-05-01T11:14:57 0200</time>
      </trkpt>
      <trkpt lat="47.2469" lon="4.95229">
        <ele>448.18753051758</ele>
        <time>2019-05-01T11:14:54 0200</time>
      </trkpt>
      <trkpt lat="47.24688" lon="4.95227">
        <ele>447.83874511719</ele>
        <time>2019-05-01T11:14:51 0200</time>
      </trkpt>
      <trkpt lat="47.24687" lon="4.95223">
        <ele>447.35214233398</ele>
        <time>2019-05-01T11:14:48 0200</time>
      </trkpt>
      <trkpt lat="47.24686" lon="4.95219">
        <ele>446.83200073242</ele>
        <time>2019-05-01T11:14:45 0200</time>
      </trkpt>
      <trkpt lat="47.24686" lon="4.95213">
        <ele>446.37359619141</ele>
        <time>2019-05-01T11:14:42 0200</time>
      </trkpt>
      <trkpt lat="47.24686" lon="4.95213">
        <ele>446.33367919922</ele>
        <time>2019-05-01T11:14:39 0200</time>
      </trkpt>
      <trkpt lat="47.24687" lon="4.9521">
        <ele>446.18209838867</ele>
        <time>2019-05-01T11:14:36 0200</time>
      </trkpt>
      <trkpt lat="47.24689" lon="4.95204">
        <ele>446.03726196289</ele>
        <time>2019-05-01T11:14:33 0200</time>
      </trkpt>
      <trkpt lat="47.2469" lon="4.95201">
        <ele>445.90139770508</ele>
        <time>2019-05-01T11:14:30 0200</time>
      </trkpt>
      <trkpt lat="47.24693" lon="4.95191">
        <ele>445.49011230469</ele>
        <time>2019-05-01T11:14:27 0200</time>
      </trkpt>
      <trkpt lat="47.24696" lon="4.95184">
        <ele>445.21713256836</ele>
        <time>2019-05-01T11:14:24 0200</time>
      </trkpt>
      <trkpt lat="47.24704" lon="4.9518">
        <ele>445.115234375</ele>
        <time>2019-05-01T11:14:21 0200</time>
      </trkpt>
      <trkpt lat="47.24707" lon="4.9518">
        <ele>445.10159301758</ele>
        <time>2019-05-01T11:14:18 0200</time>
      </trkpt>
      <trkpt lat="47.24709" lon="4.9518">
        <ele>445.07196044922</ele>
        <time>2019-05-01T11:14:15 0200</time>
      </trkpt>
      <trkpt lat="47.2471" lon="4.9518">
        <ele>444.67639160156</ele>
        <time>2019-05-01T11:14:12 0200</time>
      </trkpt>
      <trkpt lat="47.24711" lon="4.9518">
        <ele>444.42880249023</ele>
        <time>2019-05-01T11:14:09 0200</time>
      </trkpt>
      <trkpt lat="47.24714" lon="4.95181">
        <ele>443.99569702148</ele>
        <time>2019-05-01T11:14:06 0200</time>
      </trkpt>
      <trkpt lat="47.24714" lon="4.95183">
        <ele>443.77490234375</ele>
        <time>2019-05-01T11:14:03 0200</time>
      </trkpt>
      <trkpt lat="47.24715" lon="4.95183">
        <ele>443.74270629883</ele>
        <time>2019-05-01T11:14:00 0200</time>
      </trkpt>
      <trkpt lat="47.24717" lon="4.95184">
        <ele>443.50421142578</ele>
        <time>2019-05-01T11:13:57 0200</time>
      </trkpt>
      <trkpt lat="47.2472" lon="4.95185">
        <ele>443.18161010742</ele>
        <time>2019-05-01T11:13:54 0200</time>
      </trkpt>
      <trkpt lat="47.24725" lon="4.95186">
        <ele>442.7805480957</ele>
        <time>2019-05-01T11:13:51 0200</time>
      </trkpt>
      <trkpt lat="47.24729" lon="4.95188">
        <ele>442.22817993164</ele>
        <time>2019-05-01T11:13:48 0200</time>
      </trkpt>
      <trkpt lat="47.24731" lon="4.9519">
        <ele>441.81851196289</ele>
        <time>2019-05-01T11:13:45 0200</time>
      </trkpt>
      <trkpt lat="47.24734" lon="4.95191">
        <ele>441.5947265625</ele>
        <time>2019-05-01T11:13:42 0200</time>
      </trkpt>
      <trkpt lat="47.24737" lon="4.9519">
        <ele>441.33291625977</ele>
        <time>2019-05-01T11:13:39 0200</time>
      </trkpt>
      <trkpt lat="47.24741" lon="4.95191">
        <ele>441.04064941406</ele>
        <time>2019-05-01T11:13:36 0200</time>
      </trkpt>
      <trkpt lat="47.24744" lon="4.95193">
        <ele>440.69241333008</ele>
        <time>2019-05-01T11:13:33 0200</time>
      </trkpt>
      <trkpt lat="47.24748" lon="4.95195">
        <ele>440.35238647461</ele>
        <time>2019-05-01T11:13:30 0200</time>
      </trkpt>
      <trkpt lat="47.24753" lon="4.95199">
        <ele>440.01458740234</ele>
        <time>2019-05-01T11:13:27 0200</time>
      </trkpt>
      <trkpt lat="47.24754" lon="4.952">
        <ele>439.84194946289</ele>
        <time>2019-05-01T11:13:24 0200</time>
      </trkpt>
      <trkpt lat="47.24755" lon="4.95201">
        <ele>439.55963134766</ele>
        <time>2019-05-01T11:13:21 0200</time>
      </trkpt>
      <trkpt lat="47.24756" lon="4.95202">
        <ele>439.26892089844</ele>
        <time>2019-05-01T11:13:18 0200</time>
      </trkpt>
      <trkpt lat="47.24758" lon="4.95203">
        <ele>439.0617980957</ele>
        <time>2019-05-01T11:13:15 0200</time>
      </trkpt>
      <trkpt lat="47.2476" lon="4.95204">
        <ele>439.00424194336</ele>
        <time>2019-05-01T11:13:12 0200</time>
      </trkpt>
      <trkpt lat="47.24762" lon="4.95204">
        <ele>439.16900634766</ele>
        <time>2019-05-01T11:13:09 0200</time>
      </trkpt>
      <trkpt lat="47.24764" lon="4.95206">
        <ele>439.31338500977</ele>
        <time>2019-05-01T11:13:06 0200</time>
      </trkpt>
      <trkpt lat="47.24767" lon="4.95207">
        <ele>439.35391235352</ele>
        <time>2019-05-01T11:13:03 0200</time>
      </trkpt>
      <trkpt lat="47.2477" lon="4.9521">
        <ele>439.26388549805</ele>
        <time>2019-05-01T11:13:00 0200</time>
      </trkpt>
      <trkpt lat="47.24772" lon="4.95212">
        <ele>439.19274902344</ele>
        <time>2019-05-01T11:12:57 0200</time>
      </trkpt>
      <trkpt lat="47.24773" lon="4.95216">
        <ele>439.09936523438</ele>
        <time>2019-05-01T11:12:54 0200</time>
      </trkpt>
      <trkpt lat="47.24773" lon="4.95218">
        <ele>439.05438232422</ele>
        <time>2019-05-01T11:12:51 0200</time>
      </trkpt>
      <trkpt lat="47.24776" lon="4.95219">
        <ele>438.98477172852</ele>
        <time>2019-05-01T11:12:48 0200</time>
      </trkpt>
      <trkpt lat="47.24779" lon="4.9522">
        <ele>439.00408935547</ele>
        <time>2019-05-01T11:12:45 0200</time>
      </trkpt>
      <trkpt lat="47.2478" lon="4.95221">
        <ele>439.10244750977</ele>
        <time>2019-05-01T11:12:42 0200</time>
      </trkpt>
      <trkpt lat="47.24781" lon="4.95222">
        <ele>439.16497802734</ele>
        <time>2019-05-01T11:12:39 0200</time>
      </trkpt>
      <trkpt lat="47.24782" lon="4.95224">
        <ele>439.33700561523</ele>
        <time>2019-05-01T11:12:36 0200</time>
      </trkpt>
      <trkpt lat="47.24783" lon="4.95226">
        <ele>439.47491455078</ele>
        <time>2019-05-01T11:12:33 0200</time>
      </trkpt>
      <trkpt lat="47.24786" lon="4.95228">
        <ele>439.49938964844</ele>
        <time>2019-05-01T11:12:30 0200</time>
      </trkpt>
      <trkpt lat="47.24791" lon="4.95229">
        <ele>439.45227050781</ele>
        <time>2019-05-01T11:12:27 0200</time>
      </trkpt>
      <trkpt lat="47.24795" lon="4.95232">
        <ele>439.38638305664</ele>
        <time>2019-05-01T11:12:24 0200</time>
      </trkpt>
      <trkpt lat="47.24798" lon="4.95232">
        <ele>439.30960083008</ele>
        <time>2019-05-01T11:12:21 0200</time>
      </trkpt>
      <trkpt lat="47.24801" lon="4.95232">
        <ele>439.1760559082</ele>
        <time>2019-05-01T11:12:18 0200</time>
      </trkpt>
      <trkpt lat="47.24805" lon="4.95233">
        <ele>438.97619628906</ele>
        <time>2019-05-01T11:12:15 0200</time>
      </trkpt>
      <trkpt lat="47.24807" lon="4.95233">
        <ele>438.81143188477</ele>
        <time>2019-05-01T11:12:12 0200</time>
      </trkpt>
      <trkpt lat="47.24808" lon="4.95232">
        <ele>438.7626953125</ele>
        <time>2019-05-01T11:12:09 0200</time>
      </trkpt>
      <trkpt lat="47.24809" lon="4.95231">
        <ele>438.76898193359</ele>
        <time>2019-05-01T11:12:06 0200</time>
      </trkpt>
      <trkpt lat="47.2481" lon="4.9523">
        <ele>438.96994018555</ele>
        <time>2019-05-01T11:12:03 0200</time>
      </trkpt>
      <trkpt lat="47.24811" lon="4.95227">
        <ele>439.12655639648</ele>
        <time>2019-05-01T11:12:00 0200</time>
      </trkpt>
      <trkpt lat="47.24814" lon="4.95225">
        <ele>439.24810791016</ele>
        <time>2019-05-01T11:11:57 0200</time>
      </trkpt>
      <trkpt lat="47.24815" lon="4.95225">
        <ele>439.27993774414</ele>
        <time>2019-05-01T11:11:54 0200</time>
      </trkpt>
      <trkpt lat="47.24816" lon="4.95224">
        <ele>439.26559448242</ele>
        <time>2019-05-01T11:11:51 0200</time>
      </trkpt>
      <trkpt lat="47.24816" lon="4.95224">
        <ele>439.12069702148</ele>
        <time>2019-05-01T11:11:48 0200</time>
      </trkpt>
      <trkpt lat="47.24817" lon="4.95224">
        <ele>439.08947753906</ele>
        <time>2019-05-01T11:11:45 0200</time>
      </trkpt>
      <trkpt lat="47.24817" lon="4.95223">
        <ele>439.08023071289</ele>
        <time>2019-05-01T11:11:42 0200</time>
      </trkpt>
      <trkpt lat="47.24818" lon="4.95223">
        <ele>439.09320068359</ele>
        <time>2019-05-01T11:11:39 0200</time>
      </trkpt>
      <trkpt lat="47.24818" lon="4.95223">
        <ele>439.10818481445</ele>
        <time>2019-05-01T11:11:36 0200</time>
      </trkpt>
      <trkpt lat="47.24818" lon="4.95222">
        <ele>439.10604858398</ele>
        <time>2019-05-01T11:11:33 0200</time>
      </trkpt>
      <trkpt lat="47.24818" lon="4.95222">
        <ele>439.09063720703</ele>
        <time>2019-05-01T11:11:30 0200</time>
      </trkpt>
      <trkpt lat="47.24819" lon="4.95223">
        <ele>439.13150024414</ele>
        <time>2019-05-01T11:11:27 0200</time>
      </trkpt>
      <trkpt lat="47.24818" lon="4.95221">
        <ele>439.16818237305</ele>
        <time>2019-05-01T11:11:24 0200</time>
      </trkpt>
      <trkpt lat="47.24821" lon="4.95217">
        <ele>439.26327514648</ele>
        <time>2019-05-01T11:11:21 0200</time>
      </trkpt>
      <trkpt lat="47.24821" lon="4.95217">
        <ele>439.36395263672</ele>
        <time>2019-05-01T11:11:18 0200</time>
      </trkpt>
      <trkpt lat="47.24828" lon="4.95215">
        <ele>439.47180175781</ele>
        <time>2019-05-01T11:11:15 0200</time>
      </trkpt>
      <trkpt lat="47.24832" lon="4.95212">
        <ele>439.74761962891</ele>
        <time>2019-05-01T11:11:12 0200</time>
      </trkpt>
      <trkpt lat="47.24837" lon="4.95207">
        <ele>440.15759277344</ele>
        <time>2019-05-01T11:11:09 0200</time>
      </trkpt>
      <trkpt lat="47.24845" lon="4.952">
        <ele>440.43576049805</ele>
        <time>2019-05-01T11:11:06 0200</time>
      </trkpt>
      <trkpt lat="47.24847" lon="4.95198">
        <ele>440.44961547852</ele>
        <time>2019-05-01T11:11:03 0200</time>
      </trkpt>
      <trkpt lat="47.24849" lon="4.95197">
        <ele>440.45956420898</ele>
        <time>2019-05-01T11:11:00 0200</time>
      </trkpt>
      <trkpt lat="47.24851" lon="4.95196">
        <ele>440.41497802734</ele>
        <time>2019-05-01T11:10:57 0200</time>
      </trkpt>
      <trkpt lat="47.24852" lon="4.95196">
        <ele>440.44570922852</ele>
        <time>2019-05-01T11:10:54 0200</time>
      </trkpt>
      <trkpt lat="47.24853" lon="4.95196">
        <ele>440.52807617188</ele>
        <time>2019-05-01T11:10:51 0200</time>
      </trkpt>
      <trkpt lat="47.24855" lon="4.95196">
        <ele>440.703125</ele>
        <time>2019-05-01T11:10:48 0200</time>
      </trkpt>
      <trkpt lat="47.24858" lon="4.95195">
        <ele>440.98419189453</ele>
        <time>2019-05-01T11:10:45 0200</time>
      </trkpt>
      <trkpt lat="47.2486" lon="4.95195">
        <ele>441.75375366211</ele>
        <time>2019-05-01T11:10:42 0200</time>
      </trkpt>
      <trkpt lat="47.24862" lon="4.95196">
        <ele>442.3122253418</ele>
        <time>2019-05-01T11:10:39 0200</time>
      </trkpt>
      <trkpt lat="47.24863" lon="4.95196">
        <ele>442.38208007812</ele>
        <time>2019-05-01T11:10:36 0200</time>
      </trkpt>
      <trkpt lat="47.24863" lon="4.95196">
        <ele>442.78308105469</ele>
        <time>2019-05-01T11:10:33 0200</time>
      </trkpt>
      <trkpt lat="47.24866" lon="4.95196">
        <ele>442.98498535156</ele>
        <time>2019-05-01T11:10:30 0200</time>
      </trkpt>
      <trkpt lat="47.24867" lon="4.95196">
        <ele>443.42556762695</ele>
        <time>2019-05-01T11:10:27 0200</time>
      </trkpt>
      <trkpt lat="47.24869" lon="4.95197">
        <ele>443.69128417969</ele>
        <time>2019-05-01T11:10:24 0200</time>
      </trkpt>
      <trkpt lat="47.24871" lon="4.95199">
        <ele>444.01989746094</ele>
        <time>2019-05-01T11:10:21 0200</time>
      </trkpt>
      <trkpt lat="47.24873" lon="4.95199">
        <ele>444.21984863281</ele>
        <time>2019-05-01T11:10:18 0200</time>
      </trkpt>
      <trkpt lat="47.24874" lon="4.95201">
        <ele>444.35119628906</ele>
        <time>2019-05-01T11:10:15 0200</time>
      </trkpt>
      <trkpt lat="47.24877" lon="4.95201">
        <ele>444.71624755859</ele>
        <time>2019-05-01T11:10:12 0200</time>
      </trkpt>
      <trkpt lat="47.24881" lon="4.952">
        <ele>445.23519897461</ele>
        <time>2019-05-01T11:10:09 0200</time>
      </trkpt>
      <trkpt lat="47.24883" lon="4.95199">
        <ele>445.77673339844</ele>
        <time>2019-05-01T11:10:06 0200</time>
      </trkpt>
      <trkpt lat="47.24885" lon="4.952">
        <ele>446.22674560547</ele>
        <time>2019-05-01T11:10:03 0200</time>
      </trkpt>
      <trkpt lat="47.24889" lon="4.95199">
        <ele>446.66537475586</ele>
        <time>2019-05-01T11:10:00 0200</time>
      </trkpt>
      <trkpt lat="47.24892" lon="4.95198">
        <ele>447.10278320312</ele>
        <time>2019-05-01T11:09:57 0200</time>
      </trkpt>
      <trkpt lat="47.24893" lon="4.95198">
        <ele>447.22222900391</ele>
        <time>2019-05-01T11:09:54 0200</time>
      </trkpt>
      <trkpt lat="47.24898" lon="4.95195">
        <ele>447.56524658203</ele>
        <time>2019-05-01T11:09:51 0200</time>
      </trkpt>
      <trkpt lat="47.24901" lon="4.95192">
        <ele>447.71832275391</ele>
        <time>2019-05-01T11:09:48 0200</time>
      </trkpt>
      <trkpt lat="47.24902" lon="4.95192">
        <ele>447.87103271484</ele>
        <time>2019-05-01T11:09:45 0200</time>
      </trkpt>
      <trkpt lat="47.24903" lon="4.95192">
        <ele>447.90158081055</ele>
        <time>2019-05-01T11:09:42 0200</time>
      </trkpt>
      <trkpt lat="47.24903" lon="4.95191">
        <ele>447.95492553711</ele>
        <time>2019-05-01T11:09:39 0200</time>
      </trkpt>
      <trkpt lat="47.24904" lon="4.9519">
        <ele>448.0227355957</ele>
        <time>2019-05-01T11:09:36 0200</time>
      </trkpt>
      <trkpt lat="47.24905" lon="4.9519">
        <ele>448.14126586914</ele>
        <time>2019-05-01T11:09:33 0200</time>
      </trkpt>
      <trkpt lat="47.24907" lon="4.95188">
        <ele>448.22506713867</ele>
        <time>2019-05-01T11:09:30 0200</time>
      </trkpt>
      <trkpt lat="47.24908" lon="4.95185">
        <ele>448.24234008789</ele>
        <time>2019-05-01T11:09:27 0200</time>
      </trkpt>
      <trkpt lat="47.24909" lon="4.95177">
        <ele>448.1946105957</ele>
        <time>2019-05-01T11:09:24 0200</time>
      </trkpt>
      <trkpt lat="47.24911" lon="4.95175">
        <ele>448.1328125</ele>
        <time>2019-05-01T11:09:21 0200</time>
      </trkpt>
      <trkpt lat="47.24913" lon="4.95172">
        <ele>448.13259887695</ele>
        <time>2019-05-01T11:09:18 0200</time>
      </trkpt>
      <trkpt lat="47.24914" lon="4.95171">
        <ele>448.21002197266</ele>
        <time>2019-05-01T11:09:15 0200</time>
      </trkpt>
      <trkpt lat="47.24914" lon="4.9517">
        <ele>448.30657958984</ele>
        <time>2019-05-01T11:09:12 0200</time>
      </trkpt>
      <trkpt lat="47.24916" lon="4.95169">
        <ele>448.5009765625</ele>
        <time>2019-05-01T11:09:09 0200</time>
      </trkpt>
      <trkpt lat="47.24917" lon="4.95164">
        <ele>448.78063964844</ele>
        <time>2019-05-01T11:09:06 0200</time>
      </trkpt>
      <trkpt lat="47.24917" lon="4.95161">
        <ele>448.93432617188</ele>
        <time>2019-05-01T11:09:03 0200</time>
      </trkpt>
      <trkpt lat="47.24919" lon="4.95159">
        <ele>449.34530639648</ele>
        <time>2019-05-01T11:09:00 0200</time>
      </trkpt>
      <trkpt lat="47.24921" lon="4.95157">
        <ele>449.9016418457</ele>
        <time>2019-05-01T11:08:57 0200</time>
      </trkpt>
      <trkpt lat="47.24923" lon="4.95154">
        <ele>450.48889160156</ele>
        <time>2019-05-01T11:08:54 0200</time>
      </trkpt>
      <trkpt lat="47.24926" lon="4.95147">
        <ele>450.96481323242</ele>
        <time>2019-05-01T11:08:51 0200</time>
      </trkpt>
      <trkpt lat="47.24927" lon="4.95146">
        <ele>451.35827636719</ele>
        <time>2019-05-01T11:08:48 0200</time>
      </trkpt>
      <trkpt lat="47.24927" lon="4.95144">
        <ele>451.81448364258</ele>
        <time>2019-05-01T11:08:45 0200</time>
      </trkpt>
      <trkpt lat="47.24927" lon="4.95141">
        <ele>452.13623046875</ele>
        <time>2019-05-01T11:08:42 0200</time>
      </trkpt>
      <trkpt lat="47.24926" lon="4.9514">
        <ele>452.39208984375</ele>
        <time>2019-05-01T11:08:39 0200</time>
      </trkpt>
      <trkpt lat="47.24926" lon="4.9514">
        <ele>452.62628173828</ele>
        <time>2019-05-01T11:08:36 0200</time>
      </trkpt>
      <trkpt lat="47.24926" lon="4.95136">
        <ele>452.75534057617</ele>
        <time>2019-05-01T11:08:33 0200</time>
      </trkpt>
      <trkpt lat="47.24926" lon="4.95136">
        <ele>452.7907409668</ele>
        <time>2019-05-01T11:08:30 0200</time>
      </trkpt>
      <trkpt lat="47.24926" lon="4.95135">
        <ele>452.79943847656</ele>
        <time>2019-05-01T11:08:27 0200</time>
      </trkpt>
      <trkpt lat="47.24926" lon="4.95135">
        <ele>452.8125</ele>
        <time>2019-05-01T11:08:24 0200</time>
      </trkpt>
      <trkpt lat="47.24926" lon="4.95135">
        <ele>452.81164550781</ele>
        <time>2019-05-01T11:08:21 0200</time>
      </trkpt>
      <trkpt lat="47.24932" lon="4.95128">
        <ele>452.88973999023</ele>
        <time>2019-05-01T11:08:18 0200</time>
      </trkpt>
      <trkpt lat="47.24934" lon="4.9513">
        <ele>452.9948425293</ele>
        <time>2019-05-01T11:08:15 0200</time>
      </trkpt>
      <trkpt lat="47.2494" lon="4.95131">
        <ele>453.40045166016</ele>
        <time>2019-05-01T11:08:12 0200</time>
      </trkpt>
      <trkpt lat="47.24942" lon="4.95132">
        <ele>453.44338989258</ele>
        <time>2019-05-01T11:08:09 0200</time>
      </trkpt>
      <trkpt lat="47.24943" lon="4.95133">
        <ele>453.63446044922</ele>
        <time>2019-05-01T11:08:06 0200</time>
      </trkpt>
      <trkpt lat="47.24945" lon="4.95134">
        <ele>454.24331665039</ele>
        <time>2019-05-01T11:08:03 0200</time>
      </trkpt>
      <trkpt lat="47.24948" lon="4.95135">
        <ele>454.70971679688</ele>
        <time>2019-05-01T11:08:00 0200</time>
      </trkpt>
      <trkpt lat="47.24951" lon="4.95136">
        <ele>454.99954223633</ele>
        <time>2019-05-01T11:07:57 0200</time>
      </trkpt>
      <trkpt lat="47.24954" lon="4.95137">
        <ele>455.07037353516</ele>
        <time>2019-05-01T11:07:54 0200</time>
      </trkpt>
      <trkpt lat="47.24955" lon="4.95138">
        <ele>455.13934326172</ele>
        <time>2019-05-01T11:07:51 0200</time>
      </trkpt>
      <trkpt lat="47.24955" lon="4.9514">
        <ele>455.41818237305</ele>
        <time>2019-05-01T11:07:48 0200</time>
      </trkpt>
      <trkpt lat="47.24957" lon="4.9514">
        <ele>455.48483276367</ele>
        <time>2019-05-01T11:07:45 0200</time>
      </trkpt>
      <trkpt lat="47.24958" lon="4.95144">
        <ele>455.84237670898</ele>
        <time>2019-05-01T11:07:42 0200</time>
      </trkpt>
      <trkpt lat="47.24957" lon="4.95144">
        <ele>455.87786865234</ele>
        <time>2019-05-01T11:07:39 0200</time>
      </trkpt>
      <trkpt lat="47.24957" lon="4.95146">
        <ele>455.90310668945</ele>
        <time>2019-05-01T11:07:36 0200</time>
      </trkpt>
      <trkpt lat="47.24956" lon="4.95146">
        <ele>455.92401123047</ele>
        <time>2019-05-01T11:07:33 0200</time>
      </trkpt>
      <trkpt lat="47.24955" lon="4.95146">
        <ele>455.96029663086</ele>
        <time>2019-05-01T11:07:30 0200</time>
      </trkpt>
      <trkpt lat="47.24955" lon="4.95146">
        <ele>456.01968383789</ele>
        <time>2019-05-01T11:07:27 0200</time>
      </trkpt>
      <trkpt lat="47.24955" lon="4.95146">
        <ele>456.10824584961</ele>
        <time>2019-05-01T11:07:24 0200</time>
      </trkpt>
      <trkpt lat="47.24955" lon="4.95147">
        <ele>456.20419311523</ele>
        <time>2019-05-01T11:07:21 0200</time>
      </trkpt>
      <trkpt lat="47.24955" lon="4.95148">
        <ele>456.29107666016</ele>
        <time>2019-05-01T11:07:18 0200</time>
      </trkpt>
      <trkpt lat="47.24955" lon="4.95147">
        <ele>456.37265014648</ele>
        <time>2019-05-01T11:07:15 0200</time>
      </trkpt>
      <trkpt lat="47.24951" lon="4.95142">
        <ele>456.44815063477</ele>
        <time>2019-05-01T11:07:12 0200</time>
      </trkpt>
      <trkpt lat="47.2495" lon="4.95141">
        <ele>456.51300048828</ele>
        <time>2019-05-01T11:07:09 0200</time>
      </trkpt>
      <trkpt lat="47.2495" lon="4.95141">
        <ele>456.58728027344</ele>
        <time>2019-05-01T11:07:06 0200</time>
      </trkpt>
      <trkpt lat="47.2495" lon="4.95142">
        <ele>456.67269897461</ele>
        <time>2019-05-01T11:07:03 0200</time>
      </trkpt>
      <trkpt lat="47.24949" lon="4.95142">
        <ele>456.75335693359</ele>
        <time>2019-05-01T11:07:00 0200</time>
      </trkpt>
      <trkpt lat="47.24949" lon="4.95142">
        <ele>456.83010864258</ele>
        <time>2019-05-01T11:06:57 0200</time>
      </trkpt>
      <trkpt lat="47.24949" lon="4.95141">
        <ele>456.90216064453</ele>
        <time>2019-05-01T11:06:54 0200</time>
      </trkpt>
      <trkpt lat="47.24949" lon="4.95141">
        <ele>456.96722412109</ele>
        <time>2019-05-01T11:06:51 0200</time>
      </trkpt>
      <trkpt lat="47.24949" lon="4.95141">
        <ele>457.02822875977</ele>
        <time>2019-05-01T11:06:48 0200</time>
      </trkpt>
      <trkpt lat="47.24949" lon="4.95141">
        <ele>457.08456420898</ele>
        <time>2019-05-01T11:06:45 0200</time>
      </trkpt>
      <trkpt lat="47.24948" lon="4.95141">
        <ele>457.13189697266</ele>
        <time>2019-05-01T11:06:42 0200</time>
      </trkpt>
      <trkpt lat="47.24948" lon="4.95141">
        <ele>457.17568969727</ele>
        <time>2019-05-01T11:06:39 0200</time>
      </trkpt>
      <trkpt lat="47.24948" lon="4.95142">
        <ele>457.23526000977</ele>
        <time>2019-05-01T11:06:36 0200</time>
      </trkpt>
      <trkpt lat="47.24947" lon="4.95142">
        <ele>457.29739379883</ele>
        <time>2019-05-01T11:06:33 0200</time>
      </trkpt>
      <trkpt lat="47.24946" lon="4.95143">
        <ele>457.37490844727</ele>
        <time>2019-05-01T11:06:30 0200</time>
      </trkpt>
      <trkpt lat="47.24945" lon="4.95144">
        <ele>457.4714050293</ele>
        <time>2019-05-01T11:06:27 0200</time>
      </trkpt>
      <trkpt lat="47.24945" lon="4.95145">
        <ele>457.56155395508</ele>
        <time>2019-05-01T11:06:24 0200</time>
      </trkpt>
      <trkpt lat="47.24944" lon="4.95147">
        <ele>457.63180541992</ele>
        <time>2019-05-01T11:06:21 0200</time>
      </trkpt>
      <trkpt lat="47.24943" lon="4.95148">
        <ele>457.67324829102</ele>
        <time>2019-05-01T11:06:18 0200</time>
      </trkpt>
      <trkpt lat="47.24942" lon="4.95149">
        <ele>457.66763305664</ele>
        <time>2019-05-01T11:06:15 0200</time>
      </trkpt>
      <trkpt lat="47.24942" lon="4.9515">
        <ele>457.62850952148</ele>
        <time>2019-05-01T11:06:12 0200</time>
      </trkpt>
      <trkpt lat="47.2494" lon="4.95148">
        <ele>457.45077514648</ele>
        <time>2019-05-01T11:06:09 0200</time>
      </trkpt>
      <trkpt lat="47.24938" lon="4.95145">
        <ele>457.30609130859</ele>
        <time>2019-05-01T11:06:06 0200</time>
      </trkpt>
      <trkpt lat="47.24938" lon="4.95145">
        <ele>457.28894042969</ele>
        <time>2019-05-01T11:06:03 0200</time>
      </trkpt>
      <trkpt lat="47.24937" lon="4.95144">
        <ele>457.22924804688</ele>
        <time>2019-05-01T11:06:00 0200</time>
      </trkpt>
      <trkpt lat="47.24936" lon="4.95142">
        <ele>457.17065429688</ele>
        <time>2019-05-01T11:05:57 0200</time>
      </trkpt>
      <trkpt lat="47.24934" lon="4.95138">
        <ele>457.17431640625</ele>
        <time>2019-05-01T11:05:54 0200</time>
      </trkpt>
      <trkpt lat="47.24933" lon="4.95131">
        <ele>457.4866027832</ele>
        <time>2019-05-01T11:05:51 0200</time>
      </trkpt>
      <trkpt lat="47.24933" lon="4.95131">
        <ele>457.71862792969</ele>
        <time>2019-05-01T11:05:48 0200</time>
      </trkpt>
      <trkpt lat="47.24933" lon="4.95126">
        <ele>458.30178833008</ele>
        <time>2019-05-01T11:05:45 0200</time>
      </trkpt>
      <trkpt lat="47.24934" lon="4.95121">
        <ele>459.18609619141</ele>
        <time>2019-05-01T11:05:42 0200</time>
      </trkpt>
      <trkpt lat="47.24933" lon="4.95121">
        <ele>460.240234375</ele>
        <time>2019-05-01T11:05:39 0200</time>
      </trkpt>
      <trkpt lat="47.24935" lon="4.95119">
        <ele>460.70944213867</ele>
        <time>2019-05-01T11:05:36 0200</time>
      </trkpt>
      <trkpt lat="47.24938" lon="4.9511">
        <ele>461.96127319336</ele>
        <time>2019-05-01T11:05:33 0200</time>
      </trkpt>
      <trkpt lat="47.24938" lon="4.9511">
        <ele>462.07983398438</ele>
        <time>2019-05-01T11:05:30 0200</time>
      </trkpt>
      <trkpt lat="47.24939" lon="4.95107">
        <ele>462.67059326172</ele>
        <time>2019-05-01T11:05:27 0200</time>
      </trkpt>
      <trkpt lat="47.24942" lon="4.95095">
        <ele>463.0217590332</ele>
        <time>2019-05-01T11:05:24 0200</time>
      </trkpt>
      <trkpt lat="47.24942" lon="4.95093">
        <ele>463.62368774414</ele>
        <time>2019-05-01T11:05:21 0200</time>
      </trkpt>
      <trkpt lat="47.24942" lon="4.95089">
        <ele>464.28341674805</ele>
        <time>2019-05-01T11:05:17 0200</time>
      </trkpt>
      <trkpt lat="47.24944" lon="4.95086">
        <ele>464.8395690918</ele>
        <time>2019-05-01T11:05:14 0200</time>
      </trkpt>
      <trkpt lat="47.24945" lon="4.95083">
        <ele>465.23623657227</ele>
        <time>2019-05-01T11:05:11 0200</time>
      </trkpt>
      <trkpt lat="47.24948" lon="4.95079">
        <ele>465.47299194336</ele>
        <time>2019-05-01T11:05:08 0200</time>
      </trkpt>
      <trkpt lat="47.2495" lon="4.95073">
        <ele>466.12271118164</ele>
        <time>2019-05-01T11:05:05 0200</time>
      </trkpt>
      <trkpt lat="47.2495" lon="4.9507">
        <ele>466.45883178711</ele>
        <time>2019-05-01T11:05:02 0200</time>
      </trkpt>
      <trkpt lat="47.2495" lon="4.95058">
        <ele>466.8327331543</ele>
        <time>2019-05-01T11:04:59 0200</time>
      </trkpt>
      <trkpt lat="47.2495" lon="4.9505">
        <ele>466.99154663086</ele>
        <time>2019-05-01T11:04:56 0200</time>
      </trkpt>
      <trkpt lat="47.2495" lon="4.95048">
        <ele>467.04531860352</ele>
        <time>2019-05-01T11:04:53 0200</time>
      </trkpt>
      <trkpt lat="47.2495" lon="4.95044">
        <ele>467.02029418945</ele>
        <time>2019-05-01T11:04:50 0200</time>
      </trkpt>
      <trkpt lat="47.24951" lon="4.95039">
        <ele>466.93606567383</ele>
        <time>2019-05-01T11:04:47 0200</time>
      </trkpt>
      <trkpt lat="47.24953" lon="4.95036">
        <ele>466.7971496582</ele>
        <time>2019-05-01T11:04:44 0200</time>
      </trkpt>
      <trkpt lat="47.24953" lon="4.95032">
        <ele>466.70071411133</ele>
        <time>2019-05-01T11:04:41 0200</time>
      </trkpt>
      <trkpt lat="47.24955" lon="4.95026">
        <ele>466.59024047852</ele>
        <time>2019-05-01T11:04:38 0200</time>
      </trkpt>
      <trkpt lat="47.24957" lon="4.95021">
        <ele>466.36502075195</ele>
        <time>2019-05-01T11:04:35 0200</time>
      </trkpt>
      <trkpt lat="47.24957" lon="4.95016">
        <ele>465.96243286133</ele>
        <time>2019-05-01T11:04:32 0200</time>
      </trkpt>
      <trkpt lat="47.24958" lon="4.95007">
        <ele>465.52285766602</ele>
        <time>2019-05-01T11:04:29 0200</time>
      </trkpt>
      <trkpt lat="47.24962" lon="4.94999">
        <ele>465.04281616211</ele>
        <time>2019-05-01T11:04:26 0200</time>
      </trkpt>
      <trkpt lat="47.24965" lon="4.94994">
        <ele>464.68533325195</ele>
        <time>2019-05-01T11:04:23 0200</time>
      </trkpt>
      <trkpt lat="47.24967" lon="4.94991">
        <ele>464.45138549805</ele>
        <time>2019-05-01T11:04:20 0200</time>
      </trkpt>
      <trkpt lat="47.2497" lon="4.94983">
        <ele>464.34487915039</ele>
        <time>2019-05-01T11:04:17 0200</time>
      </trkpt>
      <trkpt lat="47.24971" lon="4.94981">
        <ele>464.28231811523</ele>
        <time>2019-05-01T11:04:14 0200</time>
      </trkpt>
      <trkpt lat="47.24971" lon="4.94979">
        <ele>464.10775756836</ele>
        <time>2019-05-01T11:04:11 0200</time>
      </trkpt>
      <trkpt lat="47.24971" lon="4.94978">
        <ele>463.96469116211</ele>
        <time>2019-05-01T11:04:08 0200</time>
      </trkpt>
      <trkpt lat="47.24972" lon="4.94975">
        <ele>463.85537719727</ele>
        <time>2019-05-01T11:04:05 0200</time>
      </trkpt>
      <trkpt lat="47.24972" lon="4.94974">
        <ele>463.66003417969</ele>
        <time>2019-05-01T11:04:02 0200</time>
      </trkpt>
      <trkpt lat="47.24972" lon="4.94972">
        <ele>463.32022094727</ele>
        <time>2019-05-01T11:03:59 0200</time>
      </trkpt>
      <trkpt lat="47.24973" lon="4.94971">
        <ele>463.27871704102</ele>
        <time>2019-05-01T11:03:56 0200</time>
      </trkpt>
      <trkpt lat="47.2497" lon="4.94968">
        <ele>463.11492919922</ele>
        <time>2019-05-01T11:03:53 0200</time>
      </trkpt>
      <trkpt lat="47.2497" lon="4.94966">
        <ele>462.8857421875</ele>
        <time>2019-05-01T11:03:50 0200</time>
      </trkpt>
      <trkpt lat="47.2497" lon="4.94965">
        <ele>462.79022216797</ele>
        <time>2019-05-01T11:03:47 0200</time>
      </trkpt>
      <trkpt lat="47.2497" lon="4.94961">
        <ele>462.6770324707</ele>
        <time>2019-05-01T11:03:44 0200</time>
      </trkpt>
      <trkpt lat="47.24972" lon="4.94951">
        <ele>462.67721557617</ele>
        <time>2019-05-01T11:03:41 0200</time>
      </trkpt>
      <trkpt lat="47.24971" lon="4.94948">
        <ele>462.6337890625</ele>
        <time>2019-05-01T11:03:38 0200</time>
      </trkpt>
      <trkpt lat="47.24975" lon="4.94942">
        <ele>462.48968505859</ele>
        <time>2019-05-01T11:03:35 0200</time>
      </trkpt>
      <trkpt lat="47.24975" lon="4.94937">
        <ele>462.36437988281</ele>
        <time>2019-05-01T11:03:32 0200</time>
      </trkpt>
      <trkpt lat="47.24975" lon="4.94933">
        <ele>462.18167114258</ele>
        <time>2019-05-01T11:03:29 0200</time>
      </trkpt>
      <trkpt lat="47.24977" lon="4.94927">
        <ele>461.98611450195</ele>
        <time>2019-05-01T11:03:26 0200</time>
      </trkpt>
      <trkpt lat="47.24978" lon="4.94921">
        <ele>461.71411132812</ele>
        <time>2019-05-01T11:03:23 0200</time>
      </trkpt>
      <trkpt lat="47.24979" lon="4.94915">
        <ele>461.32940673828</ele>
        <time>2019-05-01T11:03:20 0200</time>
      </trkpt>
      <trkpt lat="47.2498" lon="4.94916">
        <ele>461.11544799805</ele>
        <time>2019-05-01T11:03:17 0200</time>
      </trkpt>
      <trkpt lat="47.2498" lon="4.94915">
        <ele>461.09365844727</ele>
        <time>2019-05-01T11:03:14 0200</time>
      </trkpt>
      <trkpt lat="47.2498" lon="4.94914">
        <ele>461.05914306641</ele>
        <time>2019-05-01T11:03:11 0200</time>
      </trkpt>
      <trkpt lat="47.24982" lon="4.94912">
        <ele>460.68371582031</ele>
        <time>2019-05-01T11:03:08 0200</time>
      </trkpt>
      <trkpt lat="47.24984" lon="4.94908">
        <ele>460.33358764648</ele>
        <time>2019-05-01T11:03:05 0200</time>
      </trkpt>
      <trkpt lat="47.24985" lon="4.94907">
        <ele>460.08911132812</ele>
        <time>2019-05-01T11:03:02 0200</time>
      </trkpt>
      <trkpt lat="47.24986" lon="4.94904">
        <ele>459.98052978516</ele>
        <time>2019-05-01T11:02:59 0200</time>
      </trkpt>
      <trkpt lat="47.24987" lon="4.94902">
        <ele>459.85687255859</ele>
        <time>2019-05-01T11:02:56 0200</time>
      </trkpt>
      <trkpt lat="47.24988" lon="4.949">
        <ele>459.77713012695</ele>
        <time>2019-05-01T11:02:53 0200</time>
      </trkpt>
      <trkpt lat="47.24987" lon="4.94898">
        <ele>459.78332519531</ele>
        <time>2019-05-01T11:02:50 0200</time>
      </trkpt>
      <trkpt lat="47.24988" lon="4.94893">
        <ele>459.82443237305</ele>
        <time>2019-05-01T11:02:47 0200</time>
      </trkpt>
      <trkpt lat="47.24992" lon="4.94887">
        <ele>459.8098449707</ele>
        <time>2019-05-01T11:02:44 0200</time>
      </trkpt>
      <trkpt lat="47.24994" lon="4.94881">
        <ele>459.74530029297</ele>
        <time>2019-05-01T11:02:41 0200</time>
      </trkpt>
      <trkpt lat="47.24994" lon="4.9488">
        <ele>459.55865478516</ele>
        <time>2019-05-01T11:02:38 0200</time>
      </trkpt>
      <trkpt lat="47.24994" lon="4.94881">
        <ele>459.59765625</ele>
        <time>2019-05-01T11:02:35 0200</time>
      </trkpt>
      <trkpt lat="47.24994" lon="4.9488">
        <ele>459.90887451172</ele>
        <time>2019-05-01T11:02:32 0200</time>
      </trkpt>
      <trkpt lat="47.24992" lon="4.94879">
        <ele>460.49392700195</ele>
        <time>2019-05-01T11:02:29 0200</time>
      </trkpt>
      <trkpt lat="47.24992" lon="4.94878">
        <ele>460.80526733398</ele>
        <time>2019-05-01T11:02:26 0200</time>
      </trkpt>
      <trkpt lat="47.24991" lon="4.94877">
        <ele>460.89660644531</ele>
        <time>2019-05-01T11:02:23 0200</time>
      </trkpt>
      <trkpt lat="47.24991" lon="4.94873">
        <ele>460.9548034668</ele>
        <time>2019-05-01T11:02:20 0200</time>
      </trkpt>
      <trkpt lat="47.24991" lon="4.94872">
        <ele>461.2555847168</ele>
        <time>2019-05-01T11:02:17 0200</time>
      </trkpt>
      <trkpt lat="47.24991" lon="4.94871">
        <ele>461.3030090332</ele>
        <time>2019-05-01T11:02:14 0200</time>
      </trkpt>
      <trkpt lat="47.24992" lon="4.9487">
        <ele>461.33438110352</ele>
        <time>2019-05-01T11:02:11 0200</time>
      </trkpt>
      <trkpt lat="47.24993" lon="4.94863">
        <ele>461.21691894531</ele>
        <time>2019-05-01T11:02:08 0200</time>
      </trkpt>
      <trkpt lat="47.24994" lon="4.94858">
        <ele>461.01409912109</ele>
        <time>2019-05-01T11:02:05 0200</time>
      </trkpt>
      <trkpt lat="47.24994" lon="4.94856">
        <ele>460.7998046875</ele>
        <time>2019-05-01T11:02:02 0200</time>
      </trkpt>
      <trkpt lat="47.24994" lon="4.94852">
        <ele>460.61511230469</ele>
        <time>2019-05-01T11:01:59 0200</time>
      </trkpt>
      <trkpt lat="47.24995" lon="4.94852">
        <ele>460.59130859375</ele>
        <time>2019-05-01T11:01:56 0200</time>
      </trkpt>
      <trkpt lat="47.24996" lon="4.94848">
        <ele>460.60534667969</ele>
        <time>2019-05-01T11:01:53 0200</time>
      </trkpt>
      <trkpt lat="47.24997" lon="4.94843">
        <ele>460.58135986328</ele>
        <time>2019-05-01T11:01:50 0200</time>
      </trkpt>
      <trkpt lat="47.24999" lon="4.9484">
        <ele>460.43200683594</ele>
        <time>2019-05-01T11:01:47 0200</time>
      </trkpt>
      <trkpt lat="47.25" lon="4.94836">
        <ele>460.23867797852</ele>
        <time>2019-05-01T11:01:44 0200</time>
      </trkpt>
      <trkpt lat="47.25" lon="4.94831">
        <ele>460.09909057617</ele>
        <time>2019-05-01T11:01:41 0200</time>
      </trkpt>
      <trkpt lat="47.25002" lon="4.94826">
        <ele>459.888671875</ele>
        <time>2019-05-01T11:01:38 0200</time>
      </trkpt>
      <trkpt lat="47.25002" lon="4.94823">
        <ele>459.65585327148</ele>
        <time>2019-05-01T11:01:35 0200</time>
      </trkpt>
      <trkpt lat="47.25003" lon="4.94821">
        <ele>459.44873046875</ele>
        <time>2019-05-01T11:01:32 0200</time>
      </trkpt>
      <trkpt lat="47.25003" lon="4.94819">
        <ele>459.29370117188</ele>
        <time>2019-05-01T11:01:29 0200</time>
      </trkpt>
      <trkpt lat="47.25003" lon="4.94816">
        <ele>459.12734985352</ele>
        <time>2019-05-01T11:01:26 0200</time>
      </trkpt>
      <trkpt lat="47.25003" lon="4.94815">
        <ele>458.94659423828</ele>
        <time>2019-05-01T11:01:23 0200</time>
      </trkpt>
      <trkpt lat="47.25004" lon="4.9481">
        <ele>458.63327026367</ele>
        <time>2019-05-01T11:01:20 0200</time>
      </trkpt>
      <trkpt lat="47.25006" lon="4.94802">
        <ele>458.32995605469</ele>
        <time>2019-05-01T11:01:17 0200</time>
      </trkpt>
      <trkpt lat="47.25006" lon="4.94799">
        <ele>458.00247192383</ele>
        <time>2019-05-01T11:01:14 0200</time>
      </trkpt>
      <trkpt lat="47.25008" lon="4.94793">
        <ele>457.57229614258</ele>
        <time>2019-05-01T11:01:11 0200</time>
      </trkpt>
      <trkpt lat="47.25008" lon="4.94792">
        <ele>457.20687866211</ele>
        <time>2019-05-01T11:01:08 0200</time>
      </trkpt>
      <trkpt lat="47.25008" lon="4.9479">
        <ele>457.02917480469</ele>
        <time>2019-05-01T11:01:05 0200</time>
      </trkpt>
      <trkpt lat="47.25009" lon="4.94787">
        <ele>456.91125488281</ele>
        <time>2019-05-01T11:01:02 0200</time>
      </trkpt>
      <trkpt lat="47.25009" lon="4.94783">
        <ele>456.85217285156</ele>
        <time>2019-05-01T11:00:59 0200</time>
      </trkpt>
      <trkpt lat="47.2501" lon="4.94779">
        <ele>456.76190185547</ele>
        <time>2019-05-01T11:00:56 0200</time>
      </trkpt>
      <trkpt lat="47.2501" lon="4.94773">
        <ele>456.61050415039</ele>
        <time>2019-05-01T11:00:53 0200</time>
      </trkpt>
      <trkpt lat="47.25011" lon="4.94769">
        <ele>456.40350341797</ele>
        <time>2019-05-01T11:00:50 0200</time>
      </trkpt>
      <trkpt lat="47.25012" lon="4.94764">
        <ele>456.15200805664</ele>
        <time>2019-05-01T11:00:47 0200</time>
      </trkpt>
      <trkpt lat="47.25013" lon="4.94762">
        <ele>455.90286254883</ele>
        <time>2019-05-01T11:00:44 0200</time>
      </trkpt>
      <trkpt lat="47.25014" lon="4.9476">
        <ele>455.53997802734</ele>
        <time>2019-05-01T11:00:41 0200</time>
      </trkpt>
      <trkpt lat="47.25014" lon="4.94756">
        <ele>455.29870605469</ele>
        <time>2019-05-01T11:00:38 0200</time>
      </trkpt>
      <trkpt lat="47.25014" lon="4.94757">
        <ele>455.20556640625</ele>
        <time>2019-05-01T11:00:35 0200</time>
      </trkpt>
      <trkpt lat="47.25015" lon="4.94752">
        <ele>455.19937133789</ele>
        <time>2019-05-01T11:00:32 0200</time>
      </trkpt>
      <trkpt lat="47.25016" lon="4.9475">
        <ele>455.13500976562</ele>
        <time>2019-05-01T11:00:29 0200</time>
      </trkpt>
      <trkpt lat="47.25017" lon="4.94745">
        <ele>455.01327514648</ele>
        <time>2019-05-01T11:00:26 0200</time>
      </trkpt>
      <trkpt lat="47.25018" lon="4.9474">
        <ele>454.736328125</ele>
        <time>2019-05-01T11:00:23 0200</time>
      </trkpt>
      <trkpt lat="47.25019" lon="4.94739">
        <ele>454.50366210938</ele>
        <time>2019-05-01T11:00:20 0200</time>
      </trkpt>
      <trkpt lat="47.2502" lon="4.94737">
        <ele>454.43054199219</ele>
        <time>2019-05-01T11:00:17 0200</time>
      </trkpt>
      <trkpt lat="47.25022" lon="4.94733">
        <ele>454.41720581055</ele>
        <time>2019-05-01T11:00:14 0200</time>
      </trkpt>
      <trkpt lat="47.25024" lon="4.9473">
        <ele>454.49166870117</ele>
        <time>2019-05-01T11:00:11 0200</time>
      </trkpt>
      <trkpt lat="47.25026" lon="4.94723">
        <ele>454.54360961914</ele>
        <time>2019-05-01T11:00:08 0200</time>
      </trkpt>
      <trkpt lat="47.25027" lon="4.94721">
        <ele>454.63934326172</ele>
        <time>2019-05-01T11:00:05 0200</time>
      </trkpt>
      <trkpt lat="47.25028" lon="4.94716">
        <ele>454.74728393555</ele>
        <time>2019-05-01T11:00:02 0200</time>
      </trkpt>
      <trkpt lat="47.25029" lon="4.9471">
        <ele>454.740234375</ele>
        <time>2019-05-01T10:59:59 0200</time>
      </trkpt>
      <trkpt lat="47.25029" lon="4.9471">
        <ele>454.67227172852</ele>
        <time>2019-05-01T10:59:56 0200</time>
      </trkpt>
      <trkpt lat="47.2503" lon="4.94706">
        <ele>454.32495117188</ele>
        <time>2019-05-01T10:59:53 0200</time>
      </trkpt>
      <trkpt lat="47.25032" lon="4.94696">
        <ele>454.07196044922</ele>
        <time>2019-05-01T10:59:50 0200</time>
      </trkpt>
      <trkpt lat="47.25033" lon="4.94694">
        <ele>454.11404418945</ele>
        <time>2019-05-01T10:59:47 0200</time>
      </trkpt>
      <trkpt lat="47.25034" lon="4.94691">
        <ele>454.25973510742</ele>
        <time>2019-05-01T10:59:44 0200</time>
      </trkpt>
      <trkpt lat="47.25035" lon="4.94689">
        <ele>454.43838500977</ele>
        <time>2019-05-01T10:59:41 0200</time>
      </trkpt>
      <trkpt lat="47.25036" lon="4.94686">
        <ele>454.48587036133</ele>
        <time>2019-05-01T10:59:38 0200</time>
      </trkpt>
      <trkpt lat="47.25036" lon="4.94684">
        <ele>454.53890991211</ele>
        <time>2019-05-01T10:59:35 0200</time>
      </trkpt>
      <trkpt lat="47.25037" lon="4.94683">
        <ele>454.58236694336</ele>
        <time>2019-05-01T10:59:32 0200</time>
      </trkpt>
      <trkpt lat="47.25037" lon="4.94682">
        <ele>454.90069580078</ele>
        <time>2019-05-01T10:59:29 0200</time>
      </trkpt>
      <trkpt lat="47.25036" lon="4.94674">
        <ele>455.4377746582</ele>
        <time>2019-05-01T10:59:26 0200</time>
      </trkpt>
      <trkpt lat="47.25035" lon="4.94672">
        <ele>455.48672485352</ele>
        <time>2019-05-01T10:59:23 0200</time>
      </trkpt>
      <trkpt lat="47.25035" lon="4.94671">
        <ele>455.54977416992</ele>
        <time>2019-05-01T10:59:20 0200</time>
      </trkpt>
      <trkpt lat="47.25035" lon="4.9467">
        <ele>455.61352539062</ele>
        <time>2019-05-01T10:59:17 0200</time>
      </trkpt>
      <trkpt lat="47.25035" lon="4.9467">
        <ele>455.83969116211</ele>
        <time>2019-05-01T10:59:14 0200</time>
      </trkpt>
      <trkpt lat="47.25035" lon="4.94669">
        <ele>455.87991333008</ele>
        <time>2019-05-01T10:59:11 0200</time>
      </trkpt>
      <trkpt lat="47.25033" lon="4.94662">
        <ele>455.98849487305</ele>
        <time>2019-05-01T10:59:08 0200</time>
      </trkpt>
      <trkpt lat="47.25033" lon="4.9466">
        <ele>456.01272583008</ele>
        <time>2019-05-01T10:59:05 0200</time>
      </trkpt>
      <trkpt lat="47.25033" lon="4.94659">
        <ele>455.97909545898</ele>
        <time>2019-05-01T10:59:02 0200</time>
      </trkpt>
      <trkpt lat="47.25032" lon="4.9466">
        <ele>455.95831298828</ele>
        <time>2019-05-01T10:58:59 0200</time>
      </trkpt>
      <trkpt lat="47.25031" lon="4.94662">
        <ele>455.93609619141</ele>
        <time>2019-05-01T10:58:56 0200</time>
      </trkpt>
      <trkpt lat="47.25029" lon="4.94662">
        <ele>455.86251831055</ele>
        <time>2019-05-01T10:58:53 0200</time>
      </trkpt>
      <trkpt lat="47.25023" lon="4.94656">
        <ele>455.99710083008</ele>
        <time>2019-05-01T10:58:50 0200</time>
      </trkpt>
      <trkpt lat="47.25021" lon="4.94655">
        <ele>456.60278320312</ele>
        <time>2019-05-01T10:58:47 0200</time>
      </trkpt>
      <trkpt lat="47.25018" lon="4.94652">
        <ele>457.19271850586</ele>
        <time>2019-05-01T10:58:44 0200</time>
      </trkpt>
      <trkpt lat="47.25015" lon="4.94646">
        <ele>457.5676574707</ele>
        <time>2019-05-01T10:58:41 0200</time>
      </trkpt>
      <trkpt lat="47.25014" lon="4.94646">
        <ele>457.64422607422</ele>
        <time>2019-05-01T10:58:38 0200</time>
      </trkpt>
      <trkpt lat="47.25012" lon="4.94646">
        <ele>457.72625732422</ele>
        <time>2019-05-01T10:58:35 0200</time>
      </trkpt>
      <trkpt lat="47.2501" lon="4.94644">
        <ele>458.32891845703</ele>
        <time>2019-05-01T10:58:32 0200</time>
      </trkpt>
      <trkpt lat="47.25009" lon="4.94641">
        <ele>458.7600402832</ele>
        <time>2019-05-01T10:58:29 0200</time>
      </trkpt>
      <trkpt lat="47.25007" lon="4.94637">
        <ele>459.3298034668</ele>
        <time>2019-05-01T10:58:26 0200</time>
      </trkpt>
      <trkpt lat="47.25006" lon="4.94631">
        <ele>459.73403930664</ele>
        <time>2019-05-01T10:58:23 0200</time>
      </trkpt>
      <trkpt lat="47.25006" lon="4.94619">
        <ele>459.77233886719</ele>
        <time>2019-05-01T10:58:20 0200</time>
      </trkpt>
      <trkpt lat="47.25005" lon="4.94614">
        <ele>459.55215454102</ele>
        <time>2019-05-01T10:58:17 0200</time>
      </trkpt>
      <trkpt lat="47.25003" lon="4.94607">
        <ele>459.28744506836</ele>
        <time>2019-05-01T10:58:14 0200</time>
      </trkpt>
      <trkpt lat="47.25001" lon="4.94602">
        <ele>459.00833129883</ele>
        <time>2019-05-01T10:58:11 0200</time>
      </trkpt>
      <trkpt lat="47.25" lon="4.946">
        <ele>458.83547973633</ele>
        <time>2019-05-01T10:58:08 0200</time>
      </trkpt>
      <trkpt lat="47.25" lon="4.94599">
        <ele>458.81311035156</ele>
        <time>2019-05-01T10:58:05 0200</time>
      </trkpt>
      <trkpt lat="47.25" lon="4.94597">
        <ele>458.79135131836</ele>
        <time>2019-05-01T10:58:02 0200</time>
      </trkpt>
      <trkpt lat="47.24998" lon="4.94593">
        <ele>458.95202636719</ele>
        <time>2019-05-01T10:57:59 0200</time>
      </trkpt>
      <trkpt lat="47.24997" lon="4.9459">
        <ele>459.03158569336</ele>
        <time>2019-05-01T10:57:56 0200</time>
      </trkpt>
      <trkpt lat="47.24997" lon="4.94586">
        <ele>459.09533691406</ele>
        <time>2019-05-01T10:57:53 0200</time>
      </trkpt>
      <trkpt lat="47.24993" lon="4.94583">
        <ele>458.97964477539</ele>
        <time>2019-05-01T10:57:50 0200</time>
      </trkpt>
      <trkpt lat="47.24989" lon="4.94579">
        <ele>458.52877807617</ele>
        <time>2019-05-01T10:57:47 0200</time>
      </trkpt>
      <trkpt lat="47.24988" lon="4.94577">
        <ele>458.14389038086</ele>
        <time>2019-05-01T10:57:44 0200</time>
      </trkpt>
      <trkpt lat="47.24987" lon="4.94576">
        <ele>457.92880249023</ele>
        <time>2019-05-01T10:57:41 0200</time>
      </trkpt>
      <trkpt lat="47.24985" lon="4.94573">
        <ele>457.50299072266</ele>
        <time>2019-05-01T10:57:38 0200</time>
      </trkpt>
      <trkpt lat="47.24983" lon="4.94569">
        <ele>456.72308349609</ele>
        <time>2019-05-01T10:57:35 0200</time>
      </trkpt>
      <trkpt lat="47.24981" lon="4.94564">
        <ele>456.06558227539</ele>
        <time>2019-05-01T10:57:32 0200</time>
      </trkpt>
      <trkpt lat="47.2498" lon="4.94561">
        <ele>455.83563232422</ele>
        <time>2019-05-01T10:57:29 0200</time>
      </trkpt>
      <trkpt lat="47.24978" lon="4.9456">
        <ele>455.52883911133</ele>
        <time>2019-05-01T10:57:26 0200</time>
      </trkpt>
      <trkpt lat="47.24977" lon="4.94558">
        <ele>455.36557006836</ele>
        <time>2019-05-01T10:57:23 0200</time>
      </trkpt>
      <trkpt lat="47.24976" lon="4.94555">
        <ele>455.25149536133</ele>
        <time>2019-05-01T10:57:20 0200</time>
      </trkpt>
      <trkpt lat="47.24975" lon="4.94552">
        <ele>455.13830566406</ele>
        <time>2019-05-01T10:57:17 0200</time>
      </trkpt>
      <trkpt lat="47.24974" lon="4.94544">
        <ele>455.16107177734</ele>
        <time>2019-05-01T10:57:14 0200</time>
      </trkpt>
      <trkpt lat="47.24971" lon="4.94543">
        <ele>455.22268676758</ele>
        <time>2019-05-01T10:57:11 0200</time>
      </trkpt>
      <trkpt lat="47.24969" lon="4.9454">
        <ele>455.32052612305</ele>
        <time>2019-05-01T10:57:08 0200</time>
      </trkpt>
      <trkpt lat="47.24966" lon="4.94536">
        <ele>455.46252441406</ele>
        <time>2019-05-01T10:57:05 0200</time>
      </trkpt>
      <trkpt lat="47.24965" lon="4.94534">
        <ele>455.72491455078</ele>
        <time>2019-05-01T10:57:02 0200</time>
      </trkpt>
      <trkpt lat="47.24964" lon="4.94534">
        <ele>456.03375244141</ele>
        <time>2019-05-01T10:56:59 0200</time>
      </trkpt>
      <trkpt lat="47.24963" lon="4.94533">
        <ele>456.10397338867</ele>
        <time>2019-05-01T10:56:56 0200</time>
      </trkpt>
      <trkpt lat="47.24956" lon="4.94527">
        <ele>456.50579833984</ele>
        <time>2019-05-01T10:56:53 0200</time>
      </trkpt>
      <trkpt lat="47.24955" lon="4.94525">
        <ele>456.91146850586</ele>
        <time>2019-05-01T10:56:50 0200</time>
      </trkpt>
      <trkpt lat="47.24952" lon="4.9452">
        <ele>456.97592163086</ele>
        <time>2019-05-01T10:56:47 0200</time>
      </trkpt>
      <trkpt lat="47.24951" lon="4.94515">
        <ele>457.37295532227</ele>
        <time>2019-05-01T10:56:44 0200</time>
      </trkpt>
      <trkpt lat="47.24951" lon="4.94514">
        <ele>457.40716552734</ele>
        <time>2019-05-01T10:56:41 0200</time>
      </trkpt>
      <trkpt lat="47.2495" lon="4.94508">
        <ele>457.62084960938</ele>
        <time>2019-05-01T10:56:38 0200</time>
      </trkpt>
      <trkpt lat="47.24949" lon="4.94504">
        <ele>457.97235107422</ele>
        <time>2019-05-01T10:56:35 0200</time>
      </trkpt>
      <trkpt lat="47.24948" lon="4.945">
        <ele>458.39465332031</ele>
        <time>2019-05-01T10:56:32 0200</time>
      </trkpt>
      <trkpt lat="47.24945" lon="4.94492">
        <ele>458.85986328125</ele>
        <time>2019-05-01T10:56:29 0200</time>
      </trkpt>
      <trkpt lat="47.24944" lon="4.94491">
        <ele>459.05087280273</ele>
        <time>2019-05-01T10:56:26 0200</time>
      </trkpt>
      <trkpt lat="47.24942" lon="4.94485">
        <ele>459.47549438477</ele>
        <time>2019-05-01T10:56:23 0200</time>
      </trkpt>
      <trkpt lat="47.24939" lon="4.94478">
        <ele>459.88876342773</ele>
        <time>2019-05-01T10:56:20 0200</time>
      </trkpt>
      <trkpt lat="47.24937" lon="4.94475">
        <ele>460.20446777344</ele>
        <time>2019-05-01T10:56:17 0200</time>
      </trkpt>
      <trkpt lat="47.24935" lon="4.94474">
        <ele>460.40414428711</ele>
        <time>2019-05-01T10:56:14 0200</time>
      </trkpt>
      <trkpt lat="47.24934" lon="4.94473">
        <ele>460.43420410156</ele>
        <time>2019-05-01T10:56:11 0200</time>
      </trkpt>
      <trkpt lat="47.24932" lon="4.94472">
        <ele>460.43267822266</ele>
        <time>2019-05-01T10:56:08 0200</time>
      </trkpt>
      <trkpt lat="47.2493" lon="4.9447">
        <ele>460.42150878906</ele>
        <time>2019-05-01T10:56:05 0200</time>
      </trkpt>
      <trkpt lat="47.2493" lon="4.94468">
        <ele>460.41918945312</ele>
        <time>2019-05-01T10:56:02 0200</time>
      </trkpt>
      <trkpt lat="47.24929" lon="4.94467">
        <ele>460.45376586914</ele>
        <time>2019-05-01T10:55:59 0200</time>
      </trkpt>
      <trkpt lat="47.24928" lon="4.94465">
        <ele>460.53875732422</ele>
        <time>2019-05-01T10:55:56 0200</time>
      </trkpt>
      <trkpt lat="47.24927" lon="4.94464">
        <ele>460.63317871094</ele>
        <time>2019-05-01T10:55:53 0200</time>
      </trkpt>
      <trkpt lat="47.24927" lon="4.94461">
        <ele>460.70236206055</ele>
        <time>2019-05-01T10:55:50 0200</time>
      </trkpt>
      <trkpt lat="47.24926" lon="4.94458">
        <ele>460.85433959961</ele>
        <time>2019-05-01T10:55:47 0200</time>
      </trkpt>
      <trkpt lat="47.24925" lon="4.94452">
        <ele>461.03912353516</ele>
        <time>2019-05-01T10:55:44 0200</time>
      </trkpt>
      <trkpt lat="47.24925" lon="4.94444">
        <ele>461.21160888672</ele>
        <time>2019-05-01T10:55:41 0200</time>
      </trkpt>
      <trkpt lat="47.24925" lon="4.94442">
        <ele>461.33264160156</ele>
        <time>2019-05-01T10:55:38 0200</time>
      </trkpt>
      <trkpt lat="47.24924" lon="4.94439">
        <ele>461.66711425781</ele>
        <time>2019-05-01T10:55:35 0200</time>
      </trkpt>
      <trkpt lat="47.24924" lon="4.94434">
        <ele>462.04159545898</ele>
        <time>2019-05-01T10:55:32 0200</time>
      </trkpt>
      <trkpt lat="47.24925" lon="4.94433">
        <ele>462.22842407227</ele>
        <time>2019-05-01T10:55:29 0200</time>
      </trkpt>
      <trkpt lat="47.24925" lon="4.94433">
        <ele>462.583984375</ele>
        <time>2019-05-01T10:55:26 0200</time>
      </trkpt>
      <trkpt lat="47.24925" lon="4.94433">
        <ele>463.11395263672</ele>
        <time>2019-05-01T10:55:23 0200</time>
      </trkpt>
      <trkpt lat="47.24924" lon="4.94437">
        <ele>463.48040771484</ele>
        <time>2019-05-01T10:55:20 0200</time>
      </trkpt>
      <trkpt lat="47.24924" lon="4.94437">
        <ele>463.67727661133</ele>
        <time>2019-05-01T10:55:17 0200</time>
      </trkpt>
      <trkpt lat="47.24924" lon="4.94437">
        <ele>463.72326660156</ele>
        <time>2019-05-01T10:55:14 0200</time>
      </trkpt>
      <trkpt lat="47.24925" lon="4.94437">
        <ele>463.77133178711</ele>
        <time>2019-05-01T10:55:11 0200</time>
      </trkpt>
      <trkpt lat="47.24925" lon="4.94437">
        <ele>463.81600952148</ele>
        <time>2019-05-01T10:55:08 0200</time>
      </trkpt>
      <trkpt lat="47.24925" lon="4.94437">
        <ele>463.85708618164</ele>
        <time>2019-05-01T10:55:05 0200</time>
      </trkpt>
      <trkpt lat="47.24925" lon="4.94436">
        <ele>463.89541625977</ele>
        <time>2019-05-01T10:55:02 0200</time>
      </trkpt>
      <trkpt lat="47.24925" lon="4.94436">
        <ele>463.94430541992</ele>
        <time>2019-05-01T10:54:59 0200</time>
      </trkpt>
      <trkpt lat="47.24925" lon="4.94436">
        <ele>464.01022338867</ele>
        <time>2019-05-01T10:54:56 0200</time>
      </trkpt>
      <trkpt lat="47.24926" lon="4.94436">
        <ele>464.0866394043</ele>
        <time>2019-05-01T10:54:53 0200</time>
      </trkpt>
      <trkpt lat="47.24926" lon="4.94436">
        <ele>464.17263793945</ele>
        <time>2019-05-01T10:54:50 0200</time>
      </trkpt>
      <trkpt lat="47.24926" lon="4.94435">
        <ele>464.27102661133</ele>
        <time>2019-05-01T10:54:47 0200</time>
      </trkpt>
      <trkpt lat="47.24927" lon="4.94435">
        <ele>464.36557006836</ele>
        <time>2019-05-01T10:54:44 0200</time>
      </trkpt>
      <trkpt lat="47.24927" lon="4.94435">
        <ele>464.44589233398</ele>
        <time>2019-05-01T10:54:41 0200</time>
      </trkpt>
      <trkpt lat="47.24927" lon="4.94435">
        <ele>464.51467895508</ele>
        <time>2019-05-01T10:54:38 0200</time>
      </trkpt>
      <trkpt lat="47.24927" lon="4.94436">
        <ele>464.58810424805</ele>
        <time>2019-05-01T10:54:35 0200</time>
      </trkpt>
      <trkpt lat="47.24928" lon="4.94436">
        <ele>464.66360473633</ele>
        <time>2019-05-01T10:54:32 0200</time>
      </trkpt>
      <trkpt lat="47.24928" lon="4.94436">
        <ele>464.74508666992</ele>
        <time>2019-05-01T10:54:29 0200</time>
      </trkpt>
      <trkpt lat="47.24928" lon="4.94437">
        <ele>464.82675170898</ele>
        <time>2019-05-01T10:54:26 0200</time>
      </trkpt>
      <trkpt lat="47.24929" lon="4.94438">
        <ele>464.89651489258</ele>
        <time>2019-05-01T10:54:23 0200</time>
      </trkpt>
      <trkpt lat="47.24929" lon="4.94438">
        <ele>464.9621887207</ele>
        <time>2019-05-01T10:54:20 0200</time>
      </trkpt>
      <trkpt lat="47.24929" lon="4.94438">
        <ele>465.02987670898</ele>
        <time>2019-05-01T10:54:17 0200</time>
      </trkpt>
      <trkpt lat="47.2493" lon="4.94438">
        <ele>465.10244750977</ele>
        <time>2019-05-01T10:54:14 0200</time>
      </trkpt>
      <trkpt lat="47.2493" lon="4.94437">
        <ele>465.17672729492</ele>
        <time>2019-05-01T10:54:11 0200</time>
      </trkpt>
      <trkpt lat="47.24929" lon="4.94437">
        <ele>465.24966430664</ele>
        <time>2019-05-01T10:54:08 0200</time>
      </trkpt>
      <trkpt lat="47.24929" lon="4.94437">
        <ele>465.32211303711</ele>
        <time>2019-05-01T10:54:05 0200</time>
      </trkpt>
      <trkpt lat="47.24929" lon="4.94437">
        <ele>465.39389038086</ele>
        <time>2019-05-01T10:54:02 0200</time>
      </trkpt>
      <trkpt lat="47.24929" lon="4.94437">
        <ele>465.46914672852</ele>
        <time>2019-05-01T10:53:59 0200</time>
      </trkpt>
      <trkpt lat="47.24929" lon="4.94437">
        <ele>465.54019165039</ele>
        <time>2019-05-01T10:53:56 0200</time>
      </trkpt>
      <trkpt lat="47.24929" lon="4.94437">
        <ele>465.61019897461</ele>
        <time>2019-05-01T10:53:53 0200</time>
      </trkpt>
      <trkpt lat="47.24929" lon="4.94437">
        <ele>465.68075561523</ele>
        <time>2019-05-01T10:53:50 0200</time>
      </trkpt>
      <trkpt lat="47.24929" lon="4.94438">
        <ele>465.76126098633</ele>
        <time>2019-05-01T10:53:47 0200</time>
      </trkpt>
      <trkpt lat="47.24929" lon="4.94438">
        <ele>465.85018920898</ele>
        <time>2019-05-01T10:53:44 0200</time>
      </trkpt>
      <trkpt lat="47.24929" lon="4.94438">
        <ele>465.93655395508</ele>
        <time>2019-05-01T10:53:41 0200</time>
      </trkpt>
      <trkpt lat="47.24929" lon="4.94438">
        <ele>466.01864624023</ele>
        <time>2019-05-01T10:53:38 0200</time>
      </trkpt>
      <trkpt lat="47.24929" lon="4.94438">
        <ele>466.09579467773</ele>
        <time>2019-05-01T10:53:35 0200</time>
      </trkpt>
      <trkpt lat="47.24928" lon="4.94437">
        <ele>466.17568969727</ele>
        <time>2019-05-01T10:53:32 0200</time>
      </trkpt>
      <trkpt lat="47.24928" lon="4.94437">
        <ele>466.25308227539</ele>
        <time>2019-05-01T10:53:29 0200</time>
      </trkpt>
      <trkpt lat="47.24928" lon="4.94436">
        <ele>466.33822631836</ele>
        <time>2019-05-01T10:53:26 0200</time>
      </trkpt>
      <trkpt lat="47.24928" lon="4.94435">
        <ele>466.43215942383</ele>
        <time>2019-05-01T10:53:23 0200</time>
      </trkpt>
      <trkpt lat="47.24929" lon="4.94431">
        <ele>466.7233581543</ele>
        <time>2019-05-01T10:53:20 0200</time>
      </trkpt>
      <trkpt lat="47.24929" lon="4.94429">
        <ele>466.80227661133</ele>
        <time>2019-05-01T10:53:17 0200</time>
      </trkpt>
      <trkpt lat="47.24928" lon="4.94427">
        <ele>466.88534545898</ele>
        <time>2019-05-01T10:53:14 0200</time>
      </trkpt>
      <trkpt lat="47.24928" lon="4.94423">
        <ele>466.9641418457</ele>
        <time>2019-05-01T10:53:11 0200</time>
      </trkpt>
      <trkpt lat="47.24926" lon="4.94415">
        <ele>467.45175170898</ele>
        <time>2019-05-01T10:53:08 0200</time>
      </trkpt>
      <trkpt lat="47.24926" lon="4.94414">
        <ele>467.51254272461</ele>
        <time>2019-05-01T10:53:05 0200</time>
      </trkpt>
      <trkpt lat="47.24923" lon="4.94414">
        <ele>467.96627807617</ele>
        <time>2019-05-01T10:53:02 0200</time>
      </trkpt>
      <trkpt lat="47.24923" lon="4.9441">
        <ele>468.5510559082</ele>
        <time>2019-05-01T10:52:59 0200</time>
      </trkpt>
      <trkpt lat="47.24923" lon="4.94407">
        <ele>469.17825317383</ele>
        <time>2019-05-01T10:52:56 0200</time>
      </trkpt>
      <trkpt lat="47.24923" lon="4.94404">
        <ele>469.7737121582</ele>
        <time>2019-05-01T10:52:53 0200</time>
      </trkpt>
      <trkpt lat="47.24923" lon="4.94393">
        <ele>470.23745727539</ele>
        <time>2019-05-01T10:52:50 0200</time>
      </trkpt>
      <trkpt lat="47.24921" lon="4.94382">
        <ele>470.50546264648</ele>
        <time>2019-05-01T10:52:47 0200</time>
      </trkpt>
      <trkpt lat="47.2492" lon="4.94378">
        <ele>470.4758605957</ele>
        <time>2019-05-01T10:52:44 0200</time>
      </trkpt>
      <trkpt lat="47.24921" lon="4.94369">
        <ele>470.16098022461</ele>
        <time>2019-05-01T10:52:42 0200</time>
      </trkpt>
      <trkpt lat="47.24922" lon="4.94366">
        <ele>469.57015991211</ele>
        <time>2019-05-01T10:52:39 0200</time>
      </trkpt>
      <trkpt lat="47.24925" lon="4.94359">
        <ele>468.96578979492</ele>
        <time>2019-05-01T10:52:36 0200</time>
      </trkpt>
      <trkpt lat="47.24924" lon="4.94357">
        <ele>468.43869018555</ele>
        <time>2019-05-01T10:52:33 0200</time>
      </trkpt>
      <trkpt lat="47.24924" lon="4.94353">
        <ele>468.3551940918</ele>
        <time>2019-05-01T10:52:30 0200</time>
      </trkpt>
      <trkpt lat="47.24924" lon="4.9435">
        <ele>468.56539916992</ele>
        <time>2019-05-01T10:52:27 0200</time>
      </trkpt>
      <trkpt lat="47.24926" lon="4.94347">
        <ele>468.81771850586</ele>
        <time>2019-05-01T10:52:24 0200</time>
      </trkpt>
      <trkpt lat="47.24927" lon="4.94346">
        <ele>468.92593383789</ele>
        <time>2019-05-01T10:52:21 0200</time>
      </trkpt>
      <trkpt lat="47.24929" lon="4.94346">
        <ele>469.09860229492</ele>
        <time>2019-05-01T10:52:18 0200</time>
      </trkpt>
      <trkpt lat="47.24935" lon="4.94338">
        <ele>469.25051879883</ele>
        <time>2019-05-01T10:52:15 0200</time>
      </trkpt>
      <trkpt lat="47.24936" lon="4.94336">
        <ele>469.4807434082</ele>
        <time>2019-05-01T10:52:12 0200</time>
      </trkpt>
      <trkpt lat="47.24941" lon="4.94329">
        <ele>469.85598754883</ele>
        <time>2019-05-01T10:52:09 0200</time>
      </trkpt>
      <trkpt lat="47.24942" lon="4.94326">
        <ele>470.31716918945</ele>
        <time>2019-05-01T10:52:06 0200</time>
      </trkpt>
      <trkpt lat="47.24942" lon="4.94322">
        <ele>471.05477905273</ele>
        <time>2019-05-01T10:52:03 0200</time>
      </trkpt>
      <trkpt lat="47.24945" lon="4.94313">
        <ele>471.79067993164</ele>
        <time>2019-05-01T10:52:00 0200</time>
      </trkpt>
      <trkpt lat="47.24946" lon="4.94311">
        <ele>472.12362670898</ele>
        <time>2019-05-01T10:51:57 0200</time>
      </trkpt>
      <trkpt lat="47.24947" lon="4.94307">
        <ele>472.87582397461</ele>
        <time>2019-05-01T10:51:54 0200</time>
      </trkpt>
      <trkpt lat="47.24948" lon="4.94303">
        <ele>473.20150756836</ele>
        <time>2019-05-01T10:51:51 0200</time>
      </trkpt>
      <trkpt lat="47.24947" lon="4.943">
        <ele>473.7321472168</ele>
        <time>2019-05-01T10:51:48 0200</time>
      </trkpt>
      <trkpt lat="47.24947" lon="4.94297">
        <ele>473.95077514648</ele>
        <time>2019-05-01T10:51:45 0200</time>
      </trkpt>
      <trkpt lat="47.24947" lon="4.94295">
        <ele>474.20834350586</ele>
        <time>2019-05-01T10:51:42 0200</time>
      </trkpt>
      <trkpt lat="47.24947" lon="4.94295">
        <ele>474.34823608398</ele>
        <time>2019-05-01T10:51:39 0200</time>
      </trkpt>
      <trkpt lat="47.24948" lon="4.9429">
        <ele>474.59634399414</ele>
        <time>2019-05-01T10:51:36 0200</time>
      </trkpt>
      <trkpt lat="47.24951" lon="4.94284">
        <ele>474.98751831055</ele>
        <time>2019-05-01T10:51:33 0200</time>
      </trkpt>
      <trkpt lat="47.24949" lon="4.94279">
        <ele>475.28549194336</ele>
        <time>2019-05-01T10:51:30 0200</time>
      </trkpt>
      <trkpt lat="47.2495" lon="4.94269">
        <ele>475.5696105957</ele>
        <time>2019-05-01T10:51:27 0200</time>
      </trkpt>
      <trkpt lat="47.24952" lon="4.94262">
        <ele>475.59017944336</ele>
        <time>2019-05-01T10:51:24 0200</time>
      </trkpt>
      <trkpt lat="47.24953" lon="4.94259">
        <ele>475.55032348633</ele>
        <time>2019-05-01T10:51:21 0200</time>
      </trkpt>
      <trkpt lat="47.24954" lon="4.94258">
        <ele>475.45681762695</ele>
        <time>2019-05-01T10:51:18 0200</time>
      </trkpt>
      <trkpt lat="47.24956" lon="4.94256">
        <ele>475.40316772461</ele>
        <time>2019-05-01T10:51:15 0200</time>
      </trkpt>
      <trkpt lat="47.24958" lon="4.94252">
        <ele>475.47360229492</ele>
        <time>2019-05-01T10:51:12 0200</time>
      </trkpt>
      <trkpt lat="47.2496" lon="4.94248">
        <ele>475.50485229492</ele>
        <time>2019-05-01T10:51:09 0200</time>
      </trkpt>
      <trkpt lat="47.24961" lon="4.94244">
        <ele>475.32705688477</ele>
        <time>2019-05-01T10:51:06 0200</time>
      </trkpt>
      <trkpt lat="47.24963" lon="4.94239">
        <ele>475.06979370117</ele>
        <time>2019-05-01T10:51:03 0200</time>
      </trkpt>
      <trkpt lat="47.24964" lon="4.94235">
        <ele>474.93154907227</ele>
        <time>2019-05-01T10:51:00 0200</time>
      </trkpt>
      <trkpt lat="47.24966" lon="4.9423">
        <ele>474.79653930664</ele>
        <time>2019-05-01T10:50:57 0200</time>
      </trkpt>
      <trkpt lat="47.24966" lon="4.94228">
        <ele>474.71670532227</ele>
        <time>2019-05-01T10:50:54 0200</time>
      </trkpt>
      <trkpt lat="47.24966" lon="4.94227">
        <ele>474.85562133789</ele>
        <time>2019-05-01T10:50:51 0200</time>
      </trkpt>
      <trkpt lat="47.24966" lon="4.94222">
        <ele>475.03396606445</ele>
        <time>2019-05-01T10:50:48 0200</time>
      </trkpt>
      <trkpt lat="47.24968" lon="4.94214">
        <ele>475.44943237305</ele>
        <time>2019-05-01T10:50:45 0200</time>
      </trkpt>
      <trkpt lat="47.24968" lon="4.94211">
        <ele>475.49423217773</ele>
        <time>2019-05-01T10:50:42 0200</time>
      </trkpt>
      <trkpt lat="47.24967" lon="4.94205">
        <ele>475.59115600586</ele>
        <time>2019-05-01T10:50:39 0200</time>
      </trkpt>
      <trkpt lat="47.24969" lon="4.94199">
        <ele>475.51351928711</ele>
        <time>2019-05-01T10:50:36 0200</time>
      </trkpt>
      <trkpt lat="47.24969" lon="4.94196">
        <ele>475.41677856445</ele>
        <time>2019-05-01T10:50:33 0200</time>
      </trkpt>
      <trkpt lat="47.24972" lon="4.94192">
        <ele>475.23361206055</ele>
        <time>2019-05-01T10:50:30 0200</time>
      </trkpt>
      <trkpt lat="47.24973" lon="4.94187">
        <ele>475.1169128418</ele>
        <time>2019-05-01T10:50:27 0200</time>
      </trkpt>
      <trkpt lat="47.24975" lon="4.9418">
        <ele>474.99032592773</ele>
        <time>2019-05-01T10:50:24 0200</time>
      </trkpt>
      <trkpt lat="47.24975" lon="4.94179">
        <ele>474.96737670898</ele>
        <time>2019-05-01T10:50:21 0200</time>
      </trkpt>
      <trkpt lat="47.24976" lon="4.94178">
        <ele>474.87521362305</ele>
        <time>2019-05-01T10:50:18 0200</time>
      </trkpt>
      <trkpt lat="47.24977" lon="4.94175">
        <ele>474.72372436523</ele>
        <time>2019-05-01T10:50:15 0200</time>
      </trkpt>
      <trkpt lat="47.24976" lon="4.94173">
        <ele>474.69943237305</ele>
        <time>2019-05-01T10:50:12 0200</time>
      </trkpt>
      <trkpt lat="47.24977" lon="4.94174">
        <ele>474.94387817383</ele>
        <time>2019-05-01T10:50:09 0200</time>
      </trkpt>
      <trkpt lat="47.24978" lon="4.94166">
        <ele>475.28848266602</ele>
        <time>2019-05-01T10:50:06 0200</time>
      </trkpt>
      <trkpt lat="47.24978" lon="4.94164">
        <ele>475.73440551758</ele>
        <time>2019-05-01T10:50:03 0200</time>
      </trkpt>
      <trkpt lat="47.24978" lon="4.94158">
        <ele>476.07723999023</ele>
        <time>2019-05-01T10:50:00 0200</time>
      </trkpt>
      <trkpt lat="47.24979" lon="4.94157">
        <ele>476.52792358398</ele>
        <time>2019-05-01T10:49:57 0200</time>
      </trkpt>
      <trkpt lat="47.24978" lon="4.94155">
        <ele>476.88027954102</ele>
        <time>2019-05-01T10:49:54 0200</time>
      </trkpt>
      <trkpt lat="47.24978" lon="4.94148">
        <ele>477.12704467773</ele>
        <time>2019-05-01T10:49:51 0200</time>
      </trkpt>
      <trkpt lat="47.24978" lon="4.94141">
        <ele>477.34616088867</ele>
        <time>2019-05-01T10:49:48 0200</time>
      </trkpt>
      <trkpt lat="47.24978" lon="4.9414">
        <ele>477.4860534668</ele>
        <time>2019-05-01T10:49:45 0200</time>
      </trkpt>
      <trkpt lat="47.24978" lon="4.94138">
        <ele>477.66946411133</ele>
        <time>2019-05-01T10:49:42 0200</time>
      </trkpt>
      <trkpt lat="47.24978" lon="4.94133">
        <ele>477.89785766602</ele>
        <time>2019-05-01T10:49:39 0200</time>
      </trkpt>
      <trkpt lat="47.24977" lon="4.94119">
        <ele>477.87826538086</ele>
        <time>2019-05-01T10:49:36 0200</time>
      </trkpt>
      <trkpt lat="47.24978" lon="4.94113">
        <ele>477.48519897461</ele>
        <time>2019-05-01T10:49:33 0200</time>
      </trkpt>
      <trkpt lat="47.24979" lon="4.94105">
        <ele>477.08651733398</ele>
        <time>2019-05-01T10:49:30 0200</time>
      </trkpt>
      <trkpt lat="47.2498" lon="4.941">
        <ele>476.76651000977</ele>
        <time>2019-05-01T10:49:27 0200</time>
      </trkpt>
      <trkpt lat="47.24982" lon="4.94094">
        <ele>476.56192016602</ele>
        <time>2019-05-01T10:49:24 0200</time>
      </trkpt>
      <trkpt lat="47.24984" lon="4.94086">
        <ele>476.44338989258</ele>
        <time>2019-05-01T10:49:21 0200</time>
      </trkpt>
      <trkpt lat="47.24985" lon="4.94084">
        <ele>476.47299194336</ele>
        <time>2019-05-01T10:49:18 0200</time>
      </trkpt>
      <trkpt lat="47.24985" lon="4.94083">
        <ele>476.56192016602</ele>
        <time>2019-05-01T10:49:15 0200</time>
      </trkpt>
      <trkpt lat="47.24986" lon="4.94082">
        <ele>476.63192749023</ele>
        <time>2019-05-01T10:49:12 0200</time>
      </trkpt>
      <trkpt lat="47.24986" lon="4.9408">
        <ele>476.66110229492</ele>
        <time>2019-05-01T10:49:09 0200</time>
      </trkpt>
      <trkpt lat="47.2499" lon="4.94075">
        <ele>476.9469909668</ele>
        <time>2019-05-01T10:49:06 0200</time>
      </trkpt>
      <trkpt lat="47.24991" lon="4.94072">
        <ele>477.04647827148</ele>
        <time>2019-05-01T10:49:03 0200</time>
      </trkpt>
      <trkpt lat="47.24992" lon="4.94069">
        <ele>477.1706237793</ele>
        <time>2019-05-01T10:49:00 0200</time>
      </trkpt>
      <trkpt lat="47.24992" lon="4.94069">
        <ele>477.44131469727</ele>
        <time>2019-05-01T10:48:57 0200</time>
      </trkpt>
      <trkpt lat="47.24992" lon="4.94064">
        <ele>477.96267700195</ele>
        <time>2019-05-01T10:48:54 0200</time>
      </trkpt>
      <trkpt lat="47.2499" lon="4.94056">
        <ele>478.6662902832</ele>
        <time>2019-05-01T10:48:51 0200</time>
      </trkpt>
      <trkpt lat="47.24989" lon="4.94049">
        <ele>478.73287963867</ele>
        <time>2019-05-01T10:48:48 0200</time>
      </trkpt>
      <trkpt lat="47.24988" lon="4.94046">
        <ele>478.9992980957</ele>
        <time>2019-05-01T10:48:45 0200</time>
      </trkpt>
      <trkpt lat="47.24988" lon="4.94043">
        <ele>479.25332641602</ele>
        <time>2019-05-01T10:48:42 0200</time>
      </trkpt>
      <trkpt lat="47.24989" lon="4.9404">
        <ele>479.45956420898</ele>
        <time>2019-05-01T10:48:39 0200</time>
      </trkpt>
      <trkpt lat="47.24989" lon="4.94036">
        <ele>479.90487670898</ele>
        <time>2019-05-01T10:48:36 0200</time>
      </trkpt>
      <trkpt lat="47.24989" lon="4.94034">
        <ele>480.66091918945</ele>
        <time>2019-05-01T10:48:33 0200</time>
      </trkpt>
      <trkpt lat="47.24989" lon="4.94028">
        <ele>481.23239135742</ele>
        <time>2019-05-01T10:48:30 0200</time>
      </trkpt>
      <trkpt lat="47.24991" lon="4.94023">
        <ele>481.95822143555</ele>
        <time>2019-05-01T10:48:27 0200</time>
      </trkpt>
      <trkpt lat="47.24991" lon="4.94022">
        <ele>482.24966430664</ele>
        <time>2019-05-01T10:48:24 0200</time>
      </trkpt>
      <trkpt lat="47.24991" lon="4.94017">
        <ele>482.99789428711</ele>
        <time>2019-05-01T10:48:21 0200</time>
      </trkpt>
      <trkpt lat="47.24992" lon="4.94016">
        <ele>483.52462768555</ele>
        <time>2019-05-01T10:48:18 0200</time>
      </trkpt>
      <trkpt lat="47.24994" lon="4.94012">
        <ele>484.02749633789</ele>
        <time>2019-05-01T10:48:15 0200</time>
      </trkpt>
      <trkpt lat="47.24999" lon="4.94004">
        <ele>484.32534790039</ele>
        <time>2019-05-01T10:48:12 0200</time>
      </trkpt>
      <trkpt lat="47.25" lon="4.93994">
        <ele>484.90023803711</ele>
        <time>2019-05-01T10:48:09 0200</time>
      </trkpt>
      <trkpt lat="47.25001" lon="4.93986">
        <ele>485.13815307617</ele>
        <time>2019-05-01T10:48:06 0200</time>
      </trkpt>
      <trkpt lat="47.25002" lon="4.93983">
        <ele>485.32650756836</ele>
        <time>2019-05-01T10:48:03 0200</time>
      </trkpt>
      <trkpt lat="47.25002" lon="4.9398">
        <ele>485.41970825195</ele>
        <time>2019-05-01T10:48:00 0200</time>
      </trkpt>
      <trkpt lat="47.25002" lon="4.93979">
        <ele>485.49172973633</ele>
        <time>2019-05-01T10:47:57 0200</time>
      </trkpt>
      <trkpt lat="47.25001" lon="4.93977">
        <ele>485.70718383789</ele>
        <time>2019-05-01T10:47:54 0200</time>
      </trkpt>
      <trkpt lat="47.25002" lon="4.93971">
        <ele>486.04580688477</ele>
        <time>2019-05-01T10:47:51 0200</time>
      </trkpt>
      <trkpt lat="47.25005" lon="4.93963">
        <ele>486.46975708008</ele>
        <time>2019-05-01T10:47:48 0200</time>
      </trkpt>
      <trkpt lat="47.25005" lon="4.93961">
        <ele>487.1623840332</ele>
        <time>2019-05-01T10:47:45 0200</time>
      </trkpt>
      <trkpt lat="47.25004" lon="4.93957">
        <ele>487.81838989258</ele>
        <time>2019-05-01T10:47:42 0200</time>
      </trkpt>
      <trkpt lat="47.25004" lon="4.93957">
        <ele>488.00979614258</ele>
        <time>2019-05-01T10:47:39 0200</time>
      </trkpt>
      <trkpt lat="47.25004" lon="4.93952">
        <ele>488.20034790039</ele>
        <time>2019-05-01T10:47:36 0200</time>
      </trkpt>
      <trkpt lat="47.25003" lon="4.93948">
        <ele>488.43222045898</ele>
        <time>2019-05-01T10:47:33 0200</time>
      </trkpt>
      <trkpt lat="47.25005" lon="4.93943">
        <ele>488.7893371582</ele>
        <time>2019-05-01T10:47:30 0200</time>
      </trkpt>
      <trkpt lat="47.25005" lon="4.93941">
        <ele>488.95028686523</ele>
        <time>2019-05-01T10:47:27 0200</time>
      </trkpt>
      <trkpt lat="47.25006" lon="4.93939">
        <ele>489.30471801758</ele>
        <time>2019-05-01T10:47:24 0200</time>
      </trkpt>
      <trkpt lat="47.25006" lon="4.93937">
        <ele>489.85848999023</ele>
        <time>2019-05-01T10:47:21 0200</time>
      </trkpt>
      <trkpt lat="47.25007" lon="4.93933">
        <ele>490.46713256836</ele>
        <time>2019-05-01T10:47:18 0200</time>
      </trkpt>
      <trkpt lat="47.25009" lon="4.93928">
        <ele>491.05111694336</ele>
        <time>2019-05-01T10:47:15 0200</time>
      </trkpt>
      <trkpt lat="47.25011" lon="4.93921">
        <ele>491.54104614258</ele>
        <time>2019-05-01T10:47:12 0200</time>
      </trkpt>
      <trkpt lat="47.25011" lon="4.93916">
        <ele>491.86380004883</ele>
        <time>2019-05-01T10:47:09 0200</time>
      </trkpt>
      <trkpt lat="47.25009" lon="4.93913">
        <ele>492.05545043945</ele>
        <time>2019-05-01T10:47:06 0200</time>
      </trkpt>
      <trkpt lat="47.25007" lon="4.93908">
        <ele>492.34140014648</ele>
        <time>2019-05-01T10:47:03 0200</time>
      </trkpt>
      <trkpt lat="47.25008" lon="4.939">
        <ele>492.63204956055</ele>
        <time>2019-05-01T10:47:00 0200</time>
      </trkpt>
      <trkpt lat="47.25009" lon="4.93893">
        <ele>492.76156616211</ele>
        <time>2019-05-01T10:46:57 0200</time>
      </trkpt>
      <trkpt lat="47.2501" lon="4.93891">
        <ele>492.92227172852</ele>
        <time>2019-05-01T10:46:54 0200</time>
      </trkpt>
      <trkpt lat="47.25011" lon="4.93893">
        <ele>493.04013061523</ele>
        <time>2019-05-01T10:46:51 0200</time>
      </trkpt>
      <trkpt lat="47.2501" lon="4.93883">
        <ele>492.93521118164</ele>
        <time>2019-05-01T10:46:48 0200</time>
      </trkpt>
      <trkpt lat="47.25012" lon="4.93873">
        <ele>492.62326049805</ele>
        <time>2019-05-01T10:46:45 0200</time>
      </trkpt>
      <trkpt lat="47.25013" lon="4.93869">
        <ele>492.25564575195</ele>
        <time>2019-05-01T10:46:42 0200</time>
      </trkpt>
      <trkpt lat="47.25013" lon="4.93862">
        <ele>491.85598754883</ele>
        <time>2019-05-01T10:46:39 0200</time>
      </trkpt>
      <trkpt lat="47.25013" lon="4.9386">
        <ele>491.59127807617</ele>
        <time>2019-05-01T10:46:36 0200</time>
      </trkpt>
      <trkpt lat="47.25014" lon="4.93855">
        <ele>491.45993041992</ele>
        <time>2019-05-01T10:46:33 0200</time>
      </trkpt>
      <trkpt lat="47.25013" lon="4.93854">
        <ele>491.45523071289</ele>
        <time>2019-05-01T10:46:30 0200</time>
      </trkpt>
      <trkpt lat="47.25013" lon="4.9385">
        <ele>491.54452514648</ele>
        <time>2019-05-01T10:46:27 0200</time>
      </trkpt>
      <trkpt lat="47.25012" lon="4.93851">
        <ele>491.60653686523</ele>
        <time>2019-05-01T10:46:24 0200</time>
      </trkpt>
      <trkpt lat="47.25013" lon="4.93844">
        <ele>491.7487487793</ele>
        <time>2019-05-01T10:46:21 0200</time>
      </trkpt>
      <trkpt lat="47.25013" lon="4.93838">
        <ele>491.88619995117</ele>
        <time>2019-05-01T10:46:18 0200</time>
      </trkpt>
      <trkpt lat="47.25014" lon="4.93829">
        <ele>492.00894165039</ele>
        <time>2019-05-01T10:46:15 0200</time>
      </trkpt>
      <trkpt lat="47.25014" lon="4.93828">
        <ele>492.23318481445</ele>
        <time>2019-05-01T10:46:12 0200</time>
      </trkpt>
      <trkpt lat="47.25014" lon="4.93823">
        <ele>492.51907348633</ele>
        <time>2019-05-01T10:46:09 0200</time>
      </trkpt>
      <trkpt lat="47.25014" lon="4.93822">
        <ele>492.81759643555</ele>
        <time>2019-05-01T10:46:06 0200</time>
      </trkpt>
      <trkpt lat="47.25013" lon="4.93819">
        <ele>493.27517700195</ele>
        <time>2019-05-01T10:46:03 0200</time>
      </trkpt>
      <trkpt lat="47.25013" lon="4.93812">
        <ele>493.81216430664</ele>
        <time>2019-05-01T10:46:00 0200</time>
      </trkpt>
      <trkpt lat="47.25012" lon="4.93808">
        <ele>494.13430786133</ele>
        <time>2019-05-01T10:45:57 0200</time>
      </trkpt>
      <trkpt lat="47.25012" lon="4.93807">
        <ele>494.31008911133</ele>
        <time>2019-05-01T10:45:54 0200</time>
      </trkpt>
      <trkpt lat="47.25012" lon="4.93804">
        <ele>494.63284301758</ele>
        <time>2019-05-01T10:45:51 0200</time>
      </trkpt>
      <trkpt lat="47.25012" lon="4.938">
        <ele>495.05563354492</ele>
        <time>2019-05-01T10:45:48 0200</time>
      </trkpt>
      <trkpt lat="47.25012" lon="4.93799">
        <ele>495.34182739258</ele>
        <time>2019-05-01T10:45:45 0200</time>
      </trkpt>
      <trkpt lat="47.25012" lon="4.93796">
        <ele>495.77822875977</ele>
        <time>2019-05-01T10:45:42 0200</time>
      </trkpt>
      <trkpt lat="47.25013" lon="4.93791">
        <ele>496.07302856445</ele>
        <time>2019-05-01T10:45:39 0200</time>
      </trkpt>
      <trkpt lat="47.25012" lon="4.93788">
        <ele>496.50131225586</ele>
        <time>2019-05-01T10:45:36 0200</time>
      </trkpt>
      <trkpt lat="47.25011" lon="4.93783">
        <ele>496.90512084961</ele>
        <time>2019-05-01T10:45:33 0200</time>
      </trkpt>
      <trkpt lat="47.25013" lon="4.93779">
        <ele>497.32852172852</ele>
        <time>2019-05-01T10:45:30 0200</time>
      </trkpt>
      <trkpt lat="47.25013" lon="4.93773">
        <ele>497.65878295898</ele>
        <time>2019-05-01T10:45:27 0200</time>
      </trkpt>
      <trkpt lat="47.25013" lon="4.93761">
        <ele>497.89846801758</ele>
        <time>2019-05-01T10:45:24 0200</time>
      </trkpt>
      <trkpt lat="47.25013" lon="4.93757">
        <ele>498.02694702148</ele>
        <time>2019-05-01T10:45:21 0200</time>
      </trkpt>
      <trkpt lat="47.25013" lon="4.93755">
        <ele>498.17141723633</ele>
        <time>2019-05-01T10:45:18 0200</time>
      </trkpt>
      <trkpt lat="47.25013" lon="4.93749">
        <ele>498.26846313477</ele>
        <time>2019-05-01T10:45:15 0200</time>
      </trkpt>
      <trkpt lat="47.25013" lon="4.93746">
        <ele>498.3596496582</ele>
        <time>2019-05-01T10:45:12 0200</time>
      </trkpt>
      <trkpt lat="47.25012" lon="4.93742">
        <ele>498.53421020508</ele>
        <time>2019-05-01T10:45:09 0200</time>
      </trkpt>
      <trkpt lat="47.25011" lon="4.93736">
        <ele>498.83828735352</ele>
        <time>2019-05-01T10:45:06 0200</time>
      </trkpt>
      <trkpt lat="47.25011" lon="4.93734">
        <ele>499.15280151367</ele>
        <time>2019-05-01T10:45:03 0200</time>
      </trkpt>
      <trkpt lat="47.2501" lon="4.93723">
        <ele>499.38931274414</ele>
        <time>2019-05-01T10:45:00 0200</time>
      </trkpt>
      <trkpt lat="47.25011" lon="4.93717">
        <ele>499.76309204102</ele>
        <time>2019-05-01T10:44:57 0200</time>
      </trkpt>
      <trkpt lat="47.25011" lon="4.93715">
        <ele>499.92874145508</ele>
        <time>2019-05-01T10:44:54 0200</time>
      </trkpt>
      <trkpt lat="47.2501" lon="4.93714">
        <ele>500.31527709961</ele>
        <time>2019-05-01T10:44:51 0200</time>
      </trkpt>
      <trkpt lat="47.2501" lon="4.93706">
        <ele>500.7399597168</ele>
        <time>2019-05-01T10:44:48 0200</time>
      </trkpt>
      <trkpt lat="47.25011" lon="4.93704">
        <ele>501.13064575195</ele>
        <time>2019-05-01T10:44:45 0200</time>
      </trkpt>
      <trkpt lat="47.2501" lon="4.93701">
        <ele>501.25289916992</ele>
        <time>2019-05-01T10:44:42 0200</time>
      </trkpt>
      <trkpt lat="47.25009" lon="4.93693">
        <ele>501.58193969727</ele>
        <time>2019-05-01T10:44:39 0200</time>
      </trkpt>
      <trkpt lat="47.25009" lon="4.93692">
        <ele>501.82479858398</ele>
        <time>2019-05-01T10:44:36 0200</time>
      </trkpt>
      <trkpt lat="47.25008" lon="4.93689">
        <ele>502.15914916992</ele>
        <time>2019-05-01T10:44:33 0200</time>
      </trkpt>
      <trkpt lat="47.25008" lon="4.93688">
        <ele>502.60940551758</ele>
        <time>2019-05-01T10:44:30 0200</time>
      </trkpt>
      <trkpt lat="47.25008" lon="4.9368">
        <ele>503.42300415039</ele>
        <time>2019-05-01T10:44:27 0200</time>
      </trkpt>
      <trkpt lat="47.25007" lon="4.93664">
        <ele>504.18472290039</ele>
        <time>2019-05-01T10:44:24 0200</time>
      </trkpt>
      <trkpt lat="47.25007" lon="4.9366">
        <ele>504.70327758789</ele>
        <time>2019-05-01T10:44:21 0200</time>
      </trkpt>
      <trkpt lat="47.25006" lon="4.93656">
        <ele>505.19143676758</ele>
        <time>2019-05-01T10:44:18 0200</time>
      </trkpt>
      <trkpt lat="47.25006" lon="4.9365">
        <ele>505.56997680664</ele>
        <time>2019-05-01T10:44:15 0200</time>
      </trkpt>
      <trkpt lat="47.25005" lon="4.93646">
        <ele>505.8459777832</ele>
        <time>2019-05-01T10:44:12 0200</time>
      </trkpt>
      <trkpt lat="47.25005" lon="4.93644">
        <ele>505.97439575195</ele>
        <time>2019-05-01T10:44:09 0200</time>
      </trkpt>
      <trkpt lat="47.25005" lon="4.93643">
        <ele>506.00857543945</ele>
        <time>2019-05-01T10:44:06 0200</time>
      </trkpt>
      <trkpt lat="47.25005" lon="4.93641">
        <ele>506.27304077148</ele>
        <time>2019-05-01T10:44:03 0200</time>
      </trkpt>
      <trkpt lat="47.25005" lon="4.93637">
        <ele>506.62246704102</ele>
        <time>2019-05-01T10:44:00 0200</time>
      </trkpt>
      <trkpt lat="47.25004" lon="4.93632">
        <ele>506.93948364258</ele>
        <time>2019-05-01T10:43:57 0200</time>
      </trkpt>
      <trkpt lat="47.25004" lon="4.93629">
        <ele>507.15841674805</ele>
        <time>2019-05-01T10:43:54 0200</time>
      </trkpt>
      <trkpt lat="47.25005" lon="4.93623">
        <ele>507.45529174805</ele>
        <time>2019-05-01T10:43:51 0200</time>
      </trkpt>
      <trkpt lat="47.25005" lon="4.93621">
        <ele>507.48178100586</ele>
        <time>2019-05-01T10:43:48 0200</time>
      </trkpt>
      <trkpt lat="47.25006" lon="4.93613">
        <ele>507.63540649414</ele>
        <time>2019-05-01T10:43:45 0200</time>
      </trkpt>
      <trkpt lat="47.25007" lon="4.93611">
        <ele>507.64828491211</ele>
        <time>2019-05-01T10:43:42 0200</time>
      </trkpt>
      <trkpt lat="47.25006" lon="4.9361">
        <ele>507.66397094727</ele>
        <time>2019-05-01T10:43:39 0200</time>
      </trkpt>
      <trkpt lat="47.25007" lon="4.93608">
        <ele>507.69418334961</ele>
        <time>2019-05-01T10:43:36 0200</time>
      </trkpt>
      <trkpt lat="47.25007" lon="4.93606">
        <ele>507.73959350586</ele>
        <time>2019-05-01T10:43:33 0200</time>
      </trkpt>
      <trkpt lat="47.25007" lon="4.93603">
        <ele>508.04946899414</ele>
        <time>2019-05-01T10:43:30 0200</time>
      </trkpt>
      <trkpt lat="47.25008" lon="4.936">
        <ele>508.17294311523</ele>
        <time>2019-05-01T10:43:27 0200</time>
      </trkpt>
      <trkpt lat="47.25008" lon="4.93593">
        <ele>508.29086303711</ele>
        <time>2019-05-01T10:43:24 0200</time>
      </trkpt>
      <trkpt lat="47.25011" lon="4.93585">
        <ele>508.71939086914</ele>
        <time>2019-05-01T10:43:21 0200</time>
      </trkpt>
      <trkpt lat="47.25011" lon="4.93583">
        <ele>509.48928833008</ele>
        <time>2019-05-01T10:43:18 0200</time>
      </trkpt>
      <trkpt lat="47.2501" lon="4.93579">
        <ele>510.39999389648</ele>
        <time>2019-05-01T10:43:15 0200</time>
      </trkpt>
      <trkpt lat="47.25011" lon="4.93573">
        <ele>511.02389526367</ele>
        <time>2019-05-01T10:43:12 0200</time>
      </trkpt>
      <trkpt lat="47.2501" lon="4.93569">
        <ele>511.59262084961</ele>
        <time>2019-05-01T10:43:09 0200</time>
      </trkpt>
      <trkpt lat="47.25009" lon="4.93569">
        <ele>511.9123840332</ele>
        <time>2019-05-01T10:43:06 0200</time>
      </trkpt>
      <trkpt lat="47.25009" lon="4.93568">
        <ele>512.24407958984</ele>
        <time>2019-05-01T10:43:03 0200</time>
      </trkpt>
      <trkpt lat="47.25009" lon="4.93567">
        <ele>512.32006835938</ele>
        <time>2019-05-01T10:43:00 0200</time>
      </trkpt>
      <trkpt lat="47.25009" lon="4.93562">
        <ele>512.39709472656</ele>
        <time>2019-05-01T10:42:57 0200</time>
      </trkpt>
      <trkpt lat="47.2501" lon="4.93556">
        <ele>512.71533203125</ele>
        <time>2019-05-01T10:42:54 0200</time>
      </trkpt>
      <trkpt lat="47.2501" lon="4.93555">
        <ele>513.01135253906</ele>
        <time>2019-05-01T10:42:51 0200</time>
      </trkpt>
      <trkpt lat="47.25011" lon="4.93551">
        <ele>513.26635742188</ele>
        <time>2019-05-01T10:42:48 0200</time>
      </trkpt>
      <trkpt lat="47.25011" lon="4.93541">
        <ele>514.07257080078</ele>
        <time>2019-05-01T10:42:45 0200</time>
      </trkpt>
      <trkpt lat="47.25011" lon="4.9354">
        <ele>514.38146972656</ele>
        <time>2019-05-01T10:42:42 0200</time>
      </trkpt>
      <trkpt lat="47.25011" lon="4.93539">
        <ele>514.66290283203</ele>
        <time>2019-05-01T10:42:39 0200</time>
      </trkpt>
      <trkpt lat="47.25011" lon="4.93538">
        <ele>514.73052978516</ele>
        <time>2019-05-01T10:42:36 0200</time>
      </trkpt>
      <trkpt lat="47.25011" lon="4.93536">
        <ele>515.00122070312</ele>
        <time>2019-05-01T10:42:33 0200</time>
      </trkpt>
      <trkpt lat="47.25011" lon="4.93532">
        <ele>515.47265625</ele>
        <time>2019-05-01T10:42:30 0200</time>
      </trkpt>
      <trkpt lat="47.2501" lon="4.93531">
        <ele>515.53961181641</ele>
        <time>2019-05-01T10:42:27 0200</time>
      </trkpt>
      <trkpt lat="47.2501" lon="4.9353">
        <ele>515.82702636719</ele>
        <time>2019-05-01T10:42:24 0200</time>
      </trkpt>
      <trkpt lat="47.2501" lon="4.93525">
        <ele>516.33135986328</ele>
        <time>2019-05-01T10:42:21 0200</time>
      </trkpt>
      <trkpt lat="47.25012" lon="4.9352">
        <ele>516.84686279297</ele>
        <time>2019-05-01T10:42:18 0200</time>
      </trkpt>
      <trkpt lat="47.25015" lon="4.93505">
        <ele>517.13995361328</ele>
        <time>2019-05-01T10:42:15 0200</time>
      </trkpt>
      <trkpt lat="47.25015" lon="4.93501">
        <ele>517.19134521484</ele>
        <time>2019-05-01T10:42:12 0200</time>
      </trkpt>
      <trkpt lat="47.25015" lon="4.93497">
        <ele>517.23504638672</ele>
        <time>2019-05-01T10:42:09 0200</time>
      </trkpt>
      <trkpt lat="47.25016" lon="4.93495">
        <ele>517.404296875</ele>
        <time>2019-05-01T10:42:06 0200</time>
      </trkpt>
      <trkpt lat="47.25016" lon="4.93493">
        <ele>517.45074462891</ele>
        <time>2019-05-01T10:42:03 0200</time>
      </trkpt>
      <trkpt lat="47.25017" lon="4.93492">
        <ele>517.63391113281</ele>
        <time>2019-05-01T10:42:00 0200</time>
      </trkpt>
      <trkpt lat="47.25017" lon="4.9349">
        <ele>517.66583251953</ele>
        <time>2019-05-01T10:41:57 0200</time>
      </trkpt>
      <trkpt lat="47.25017" lon="4.93489">
        <ele>517.78118896484</ele>
        <time>2019-05-01T10:41:54 0200</time>
      </trkpt>
      <trkpt lat="47.25017" lon="4.93489">
        <ele>517.88983154297</ele>
        <time>2019-05-01T10:41:51 0200</time>
      </trkpt>
      <trkpt lat="47.25017" lon="4.93486">
        <ele>517.90490722656</ele>
        <time>2019-05-01T10:41:48 0200</time>
      </trkpt>
      <trkpt lat="47.25016" lon="4.93485">
        <ele>518.11016845703</ele>
        <time>2019-05-01T10:41:45 0200</time>
      </trkpt>
      <trkpt lat="47.25016" lon="4.9348">
        <ele>518.34228515625</ele>
        <time>2019-05-01T10:41:42 0200</time>
      </trkpt>
      <trkpt lat="47.25016" lon="4.93478">
        <ele>518.38275146484</ele>
        <time>2019-05-01T10:41:39 0200</time>
      </trkpt>
      <trkpt lat="47.25016" lon="4.93477">
        <ele>518.54278564453</ele>
        <time>2019-05-01T10:41:36 0200</time>
      </trkpt>
      <trkpt lat="47.25016" lon="4.93477">
        <ele>518.59942626953</ele>
        <time>2019-05-01T10:41:33 0200</time>
      </trkpt>
      <trkpt lat="47.25016" lon="4.93476">
        <ele>518.65222167969</ele>
        <time>2019-05-01T10:41:30 0200</time>
      </trkpt>
      <trkpt lat="47.25018" lon="4.93467">
        <ele>518.82739257812</ele>
        <time>2019-05-01T10:41:27 0200</time>
      </trkpt>
      <trkpt lat="47.25018" lon="4.93465">
        <ele>518.87554931641</ele>
        <time>2019-05-01T10:41:24 0200</time>
      </trkpt>
      <trkpt lat="47.25018" lon="4.93463">
        <ele>518.93005371094</ele>
        <time>2019-05-01T10:41:21 0200</time>
      </trkpt>
      <trkpt lat="47.25018" lon="4.93462">
        <ele>518.98626708984</ele>
        <time>2019-05-01T10:41:18 0200</time>
      </trkpt>
      <trkpt lat="47.25018" lon="4.93461">
        <ele>519.18231201172</ele>
        <time>2019-05-01T10:41:15 0200</time>
      </trkpt>
      <trkpt lat="47.25017" lon="4.9346">
        <ele>519.36560058594</ele>
        <time>2019-05-01T10:41:12 0200</time>
      </trkpt>
      <trkpt lat="47.25017" lon="4.93458">
        <ele>519.39367675781</ele>
        <time>2019-05-01T10:41:09 0200</time>
      </trkpt>
      <trkpt lat="47.25017" lon="4.93456">
        <ele>519.54266357422</ele>
        <time>2019-05-01T10:41:06 0200</time>
      </trkpt>
      <trkpt lat="47.25017" lon="4.93454">
        <ele>519.70886230469</ele>
        <time>2019-05-01T10:41:03 0200</time>
      </trkpt>
      <trkpt lat="47.25017" lon="4.93453">
        <ele>519.74139404297</ele>
        <time>2019-05-01T10:41:00 0200</time>
      </trkpt>
      <trkpt lat="47.25018" lon="4.93443">
        <ele>519.98840332031</ele>
        <time>2019-05-01T10:40:57 0200</time>
      </trkpt>
      <trkpt lat="47.25018" lon="4.93441">
        <ele>520.05853271484</ele>
        <time>2019-05-01T10:40:54 0200</time>
      </trkpt>
      <trkpt lat="47.25019" lon="4.9344">
        <ele>520.08087158203</ele>
        <time>2019-05-01T10:40:51 0200</time>
      </trkpt>
      <trkpt lat="47.25019" lon="4.93439">
        <ele>520.10479736328</ele>
        <time>2019-05-01T10:40:48 0200</time>
      </trkpt>
      <trkpt lat="47.2502" lon="4.93439">
        <ele>520.13629150391</ele>
        <time>2019-05-01T10:40:45 0200</time>
      </trkpt>
      <trkpt lat="47.25021" lon="4.93439">
        <ele>520.27679443359</ele>
        <time>2019-05-01T10:40:42 0200</time>
      </trkpt>
      <trkpt lat="47.25021" lon="4.93438">
        <ele>520.31048583984</ele>
        <time>2019-05-01T10:40:39 0200</time>
      </trkpt>
      <trkpt lat="47.25021" lon="4.93437">
        <ele>520.34606933594</ele>
        <time>2019-05-01T10:40:36 0200</time>
      </trkpt>
      <trkpt lat="47.25021" lon="4.93436">
        <ele>520.36920166016</ele>
        <time>2019-05-01T10:40:33 0200</time>
      </trkpt>
      <trkpt lat="47.25021" lon="4.93434">
        <ele>520.380859375</ele>
        <time>2019-05-01T10:40:30 0200</time>
      </trkpt>
      <trkpt lat="47.2502" lon="4.93434">
        <ele>520.39245605469</ele>
        <time>2019-05-01T10:40:27 0200</time>
      </trkpt>
      <trkpt lat="47.25023" lon="4.93427">
        <ele>520.59619140625</ele>
        <time>2019-05-01T10:40:24 0200</time>
      </trkpt>
      <trkpt lat="47.25025" lon="4.93421">
        <ele>520.77160644531</ele>
        <time>2019-05-01T10:40:20 0200</time>
      </trkpt>
      <trkpt lat="47.25025" lon="4.93418">
        <ele>521.22637939453</ele>
        <time>2019-05-01T10:40:17 0200</time>
      </trkpt>
      <trkpt lat="47.25025" lon="4.93416">
        <ele>521.49584960938</ele>
        <time>2019-05-01T10:40:14 0200</time>
      </trkpt>
      <trkpt lat="47.25025" lon="4.93415">
        <ele>521.55249023438</ele>
        <time>2019-05-01T10:40:11 0200</time>
      </trkpt>
      <trkpt lat="47.25025" lon="4.93413">
        <ele>521.58654785156</ele>
        <time>2019-05-01T10:40:08 0200</time>
      </trkpt>
      <trkpt lat="47.25026" lon="4.93413">
        <ele>521.72576904297</ele>
        <time>2019-05-01T10:40:05 0200</time>
      </trkpt>
      <trkpt lat="47.25028" lon="4.93413">
        <ele>521.74877929688</ele>
        <time>2019-05-01T10:40:02 0200</time>
      </trkpt>
      <trkpt lat="47.25028" lon="4.93412">
        <ele>521.79577636719</ele>
        <time>2019-05-01T10:39:59 0200</time>
      </trkpt>
      <trkpt lat="47.25028" lon="4.93411">
        <ele>522.21008300781</ele>
        <time>2019-05-01T10:39:56 0200</time>
      </trkpt>
      <trkpt lat="47.25028" lon="4.9341">
        <ele>522.27264404297</ele>
        <time>2019-05-01T10:39:53 0200</time>
      </trkpt>
      <trkpt lat="47.25029" lon="4.93409">
        <ele>522.33569335938</ele>
        <time>2019-05-01T10:39:50 0200</time>
      </trkpt>
      <trkpt lat="47.25029" lon="4.93409">
        <ele>522.39025878906</ele>
        <time>2019-05-01T10:39:47 0200</time>
      </trkpt>
      <trkpt lat="47.25029" lon="4.93408">
        <ele>522.43334960938</ele>
        <time>2019-05-01T10:39:44 0200</time>
      </trkpt>
      <trkpt lat="47.25028" lon="4.93407">
        <ele>522.48388671875</ele>
        <time>2019-05-01T10:39:41 0200</time>
      </trkpt>
      <trkpt lat="47.25028" lon="4.93406">
        <ele>522.53649902344</ele>
        <time>2019-05-01T10:39:38 0200</time>
      </trkpt>
      <trkpt lat="47.25028" lon="4.93405">
        <ele>522.58740234375</ele>
        <time>2019-05-01T10:39:35 0200</time>
      </trkpt>
      <trkpt lat="47.25027" lon="4.93402">
        <ele>522.64184570312</ele>
        <time>2019-05-01T10:39:32 0200</time>
      </trkpt>
      <trkpt lat="47.25026" lon="4.93401">
        <ele>522.72723388672</ele>
        <time>2019-05-01T10:39:29 0200</time>
      </trkpt>
      <trkpt lat="47.25026" lon="4.93401">
        <ele>522.82116699219</ele>
        <time>2019-05-01T10:39:26 0200</time>
      </trkpt>
      <trkpt lat="47.25026" lon="4.934">
        <ele>522.91162109375</ele>
        <time>2019-05-01T10:39:23 0200</time>
      </trkpt>
      <trkpt lat="47.25026" lon="4.93398">
        <ele>522.98382568359</ele>
        <time>2019-05-01T10:39:20 0200</time>
      </trkpt>
      <trkpt lat="47.2503" lon="4.93394">
        <ele>523.57769775391</ele>
        <time>2019-05-01T10:39:17 0200</time>
      </trkpt>
      <trkpt lat="47.2503" lon="4.93393">
        <ele>523.63641357422</ele>
        <time>2019-05-01T10:39:14 0200</time>
      </trkpt>
      <trkpt lat="47.2503" lon="4.93393">
        <ele>523.67999267578</ele>
        <time>2019-05-01T10:39:11 0200</time>
      </trkpt>
      <trkpt lat="47.25031" lon="4.93392">
        <ele>523.81219482422</ele>
        <time>2019-05-01T10:39:08 0200</time>
      </trkpt>
      <trkpt lat="47.25032" lon="4.93391">
        <ele>523.83367919922</ele>
        <time>2019-05-01T10:39:05 0200</time>
      </trkpt>
      <trkpt lat="47.2503" lon="4.93392">
        <ele>524.00317382812</ele>
        <time>2019-05-01T10:39:02 0200</time>
      </trkpt>
      <trkpt lat="47.2503" lon="4.9339">
        <ele>524.17193603516</ele>
        <time>2019-05-01T10:38:59 0200</time>
      </trkpt>
      <trkpt lat="47.2503" lon="4.93389">
        <ele>524.22082519531</ele>
        <time>2019-05-01T10:38:56 0200</time>
      </trkpt>
      <trkpt lat="47.25031" lon="4.93388">
        <ele>524.47857666016</ele>
        <time>2019-05-01T10:38:53 0200</time>
      </trkpt>
      <trkpt lat="47.25031" lon="4.93387">
        <ele>524.54614257812</ele>
        <time>2019-05-01T10:38:50 0200</time>
      </trkpt>
      <trkpt lat="47.25031" lon="4.93386">
        <ele>524.60089111328</ele>
        <time>2019-05-01T10:38:47 0200</time>
      </trkpt>
      <trkpt lat="47.25031" lon="4.93384">
        <ele>524.63092041016</ele>
        <time>2019-05-01T10:38:44 0200</time>
      </trkpt>
      <trkpt lat="47.25032" lon="4.93378">
        <ele>524.70306396484</ele>
        <time>2019-05-01T10:38:41 0200</time>
      </trkpt>
      <trkpt lat="47.25034" lon="4.93372">
        <ele>524.78930664062</ele>
        <time>2019-05-01T10:38:38 0200</time>
      </trkpt>
      <trkpt lat="47.25034" lon="4.93371">
        <ele>524.80963134766</ele>
        <time>2019-05-01T10:38:35 0200</time>
      </trkpt>
      <trkpt lat="47.25035" lon="4.9337">
        <ele>524.94488525391</ele>
        <time>2019-05-01T10:38:32 0200</time>
      </trkpt>
      <trkpt lat="47.25035" lon="4.93369">
        <ele>525.08740234375</ele>
        <time>2019-05-01T10:38:29 0200</time>
      </trkpt>
      <trkpt lat="47.25036" lon="4.93365">
        <ele>525.40515136719</ele>
        <time>2019-05-01T10:38:26 0200</time>
      </trkpt>
      <trkpt lat="47.25037" lon="4.9336">
        <ele>525.54534912109</ele>
        <time>2019-05-01T10:38:23 0200</time>
      </trkpt>
      <trkpt lat="47.25038" lon="4.93352">
        <ele>525.65832519531</ele>
        <time>2019-05-01T10:38:20 0200</time>
      </trkpt>
      <trkpt lat="47.25038" lon="4.9335">
        <ele>525.76513671875</ele>
        <time>2019-05-01T10:38:17 0200</time>
      </trkpt>
      <trkpt lat="47.25039" lon="4.93348">
        <ele>525.81396484375</ele>
        <time>2019-05-01T10:38:14 0200</time>
      </trkpt>
      <trkpt lat="47.2504" lon="4.93346">
        <ele>525.87628173828</ele>
        <time>2019-05-01T10:38:11 0200</time>
      </trkpt>
      <trkpt lat="47.25041" lon="4.93344">
        <ele>525.95611572266</ele>
        <time>2019-05-01T10:38:08 0200</time>
      </trkpt>
      <trkpt lat="47.25042" lon="4.93342">
        <ele>526.16174316406</ele>
        <time>2019-05-01T10:38:05 0200</time>
      </trkpt>
      <trkpt lat="47.25042" lon="4.93341">
        <ele>526.24127197266</ele>
        <time>2019-05-01T10:38:02 0200</time>
      </trkpt>
      <trkpt lat="47.25044" lon="4.93339">
        <ele>526.31036376953</ele>
        <time>2019-05-01T10:37:59 0200</time>
      </trkpt>
      <trkpt lat="47.25047" lon="4.93336">
        <ele>526.49346923828</ele>
        <time>2019-05-01T10:37:56 0200</time>
      </trkpt>
      <trkpt lat="47.25048" lon="4.93335">
        <ele>526.60198974609</ele>
        <time>2019-05-01T10:37:53 0200</time>
      </trkpt>
      <trkpt lat="47.2505" lon="4.93331">
        <ele>526.91607666016</ele>
        <time>2019-05-01T10:37:50 0200</time>
      </trkpt>
      <trkpt lat="47.25052" lon="4.93319">
        <ele>527.42901611328</ele>
        <time>2019-05-01T10:37:47 0200</time>
      </trkpt>
      <trkpt lat="47.25054" lon="4.93307">
        <ele>528.04852294922</ele>
        <time>2019-05-01T10:37:44 0200</time>
      </trkpt>
      <trkpt lat="47.25054" lon="4.93306">
        <ele>528.10858154297</ele>
        <time>2019-05-01T10:37:41 0200</time>
      </trkpt>
      <trkpt lat="47.25055" lon="4.93304">
        <ele>528.30157470703</ele>
        <time>2019-05-01T10:37:38 0200</time>
      </trkpt>
      <trkpt lat="47.25055" lon="4.93303">
        <ele>528.53570556641</ele>
        <time>2019-05-01T10:37:35 0200</time>
      </trkpt>
      <trkpt lat="47.25055" lon="4.93301">
        <ele>528.68420410156</ele>
        <time>2019-05-01T10:37:32 0200</time>
      </trkpt>
      <trkpt lat="47.25055" lon="4.933">
        <ele>528.69714355469</ele>
        <time>2019-05-01T10:37:29 0200</time>
      </trkpt>
      <trkpt lat="47.25054" lon="4.93298">
        <ele>528.69177246094</ele>
        <time>2019-05-01T10:37:26 0200</time>
      </trkpt>
      <trkpt lat="47.25056" lon="4.93291">
        <ele>528.64398193359</ele>
        <time>2019-05-01T10:37:23 0200</time>
      </trkpt>
      <trkpt lat="47.25059" lon="4.93284">
        <ele>528.61285400391</ele>
        <time>2019-05-01T10:37:20 0200</time>
      </trkpt>
      <trkpt lat="47.25063" lon="4.93271">
        <ele>528.54241943359</ele>
        <time>2019-05-01T10:37:17 0200</time>
      </trkpt>
      <trkpt lat="47.25064" lon="4.93269">
        <ele>528.50048828125</ele>
        <time>2019-05-01T10:37:14 0200</time>
      </trkpt>
      <trkpt lat="47.25065" lon="4.93268">
        <ele>528.52496337891</ele>
        <time>2019-05-01T10:37:11 0200</time>
      </trkpt>
      <trkpt lat="47.25065" lon="4.93266">
        <ele>528.55993652344</ele>
        <time>2019-05-01T10:37:08 0200</time>
      </trkpt>
      <trkpt lat="47.25065" lon="4.93265">
        <ele>528.58111572266</ele>
        <time>2019-05-01T10:37:05 0200</time>
      </trkpt>
      <trkpt lat="47.25065" lon="4.93262">
        <ele>528.57232666016</ele>
        <time>2019-05-01T10:37:02 0200</time>
      </trkpt>
      <trkpt lat="47.25067" lon="4.93251">
        <ele>528.37121582031</ele>
        <time>2019-05-01T10:36:59 0200</time>
      </trkpt>
      <trkpt lat="47.25069" lon="4.9324">
        <ele>528.06842041016</ele>
        <time>2019-05-01T10:36:56 0200</time>
      </trkpt>
      <trkpt lat="47.2507" lon="4.93236">
        <ele>527.92077636719</ele>
        <time>2019-05-01T10:36:53 0200</time>
      </trkpt>
      <trkpt lat="47.2507" lon="4.93232">
        <ele>527.87951660156</ele>
        <time>2019-05-01T10:36:50 0200</time>
      </trkpt>
      <trkpt lat="47.25071" lon="4.93229">
        <ele>527.84771728516</ele>
        <time>2019-05-01T10:36:47 0200</time>
      </trkpt>
      <trkpt lat="47.25071" lon="4.93225">
        <ele>527.65295410156</ele>
        <time>2019-05-01T10:36:44 0200</time>
      </trkpt>
      <trkpt lat="47.25072" lon="4.93223">
        <ele>527.55755615234</ele>
        <time>2019-05-01T10:36:41 0200</time>
      </trkpt>
      <trkpt lat="47.25073" lon="4.9322">
        <ele>527.53887939453</ele>
        <time>2019-05-01T10:36:38 0200</time>
      </trkpt>
      <trkpt lat="47.25073" lon="4.93218">
        <ele>527.52764892578</ele>
        <time>2019-05-01T10:36:35 0200</time>
      </trkpt>
      <trkpt lat="47.25073" lon="4.93217">
        <ele>527.52941894531</ele>
        <time>2019-05-01T10:36:32 0200</time>
      </trkpt>
      <trkpt lat="47.25074" lon="4.93215">
        <ele>527.50311279297</ele>
        <time>2019-05-01T10:36:29 0200</time>
      </trkpt>
      <trkpt lat="47.25075" lon="4.93212">
        <ele>527.49102783203</ele>
        <time>2019-05-01T10:36:26 0200</time>
      </trkpt>
      <trkpt lat="47.25076" lon="4.93209">
        <ele>527.58489990234</ele>
        <time>2019-05-01T10:36:23 0200</time>
      </trkpt>
      <trkpt lat="47.25076" lon="4.93208">
        <ele>527.68469238281</ele>
        <time>2019-05-01T10:36:20 0200</time>
      </trkpt>
      <trkpt lat="47.25076" lon="4.93207">
        <ele>527.88726806641</ele>
        <time>2019-05-01T10:36:17 0200</time>
      </trkpt>
      <trkpt lat="47.25078" lon="4.93203">
        <ele>528.07946777344</ele>
        <time>2019-05-01T10:36:14 0200</time>
      </trkpt>
      <trkpt lat="47.25078" lon="4.93196">
        <ele>528.17242431641</ele>
        <time>2019-05-01T10:36:11 0200</time>
      </trkpt>
      <trkpt lat="47.25079" lon="4.93193">
        <ele>528.17803955078</ele>
        <time>2019-05-01T10:36:08 0200</time>
      </trkpt>
      <trkpt lat="47.2508" lon="4.93181">
        <ele>528.01782226562</ele>
        <time>2019-05-01T10:36:05 0200</time>
      </trkpt>
      <trkpt lat="47.2508" lon="4.93175">
        <ele>527.98657226562</ele>
        <time>2019-05-01T10:36:02 0200</time>
      </trkpt>
      <trkpt lat="47.25081" lon="4.9317">
        <ele>527.60516357422</ele>
        <time>2019-05-01T10:35:59 0200</time>
      </trkpt>
      <trkpt lat="47.25081" lon="4.93168">
        <ele>527.16271972656</ele>
        <time>2019-05-01T10:35:56 0200</time>
      </trkpt>
      <trkpt lat="47.25082" lon="4.93164">
        <ele>526.73175048828</ele>
        <time>2019-05-01T10:35:53 0200</time>
      </trkpt>
      <trkpt lat="47.25082" lon="4.93163">
        <ele>526.43328857422</ele>
        <time>2019-05-01T10:35:50 0200</time>
      </trkpt>
      <trkpt lat="47.25083" lon="4.93158">
        <ele>526.19555664062</ele>
        <time>2019-05-01T10:35:47 0200</time>
      </trkpt>
      <trkpt lat="47.25085" lon="4.93156">
        <ele>525.95263671875</ele>
        <time>2019-05-01T10:35:44 0200</time>
      </trkpt>
      <trkpt lat="47.25087" lon="4.93148">
        <ele>525.69970703125</ele>
        <time>2019-05-01T10:35:41 0200</time>
      </trkpt>
      <trkpt lat="47.25088" lon="4.93147">
        <ele>525.56304931641</ele>
        <time>2019-05-01T10:35:38 0200</time>
      </trkpt>
      <trkpt lat="47.25089" lon="4.93146">
        <ele>525.49664306641</ele>
        <time>2019-05-01T10:35:35 0200</time>
      </trkpt>
      <trkpt lat="47.2509" lon="4.93143">
        <ele>525.41571044922</ele>
        <time>2019-05-01T10:35:32 0200</time>
      </trkpt>
      <trkpt lat="47.25091" lon="4.9314">
        <ele>525.28210449219</ele>
        <time>2019-05-01T10:35:29 0200</time>
      </trkpt>
      <trkpt lat="47.25091" lon="4.93134">
        <ele>525.19323730469</ele>
        <time>2019-05-01T10:35:26 0200</time>
      </trkpt>
      <trkpt lat="47.25092" lon="4.93128">
        <ele>525.1064453125</ele>
        <time>2019-05-01T10:35:23 0200</time>
      </trkpt>
      <trkpt lat="47.25093" lon="4.93123">
        <ele>524.83624267578</ele>
        <time>2019-05-01T10:35:20 0200</time>
      </trkpt>
      <trkpt lat="47.25093" lon="4.93116">
        <ele>524.47100830078</ele>
        <time>2019-05-01T10:35:17 0200</time>
      </trkpt>
      <trkpt lat="47.25092" lon="4.9311">
        <ele>524.21514892578</ele>
        <time>2019-05-01T10:35:14 0200</time>
      </trkpt>
      <trkpt lat="47.25092" lon="4.93108">
        <ele>523.95983886719</ele>
        <time>2019-05-01T10:35:11 0200</time>
      </trkpt>
      <trkpt lat="47.25091" lon="4.93106">
        <ele>523.73864746094</ele>
        <time>2019-05-01T10:35:08 0200</time>
      </trkpt>
      <trkpt lat="47.25092" lon="4.93105">
        <ele>523.54315185547</ele>
        <time>2019-05-01T10:35:05 0200</time>
      </trkpt>
      <trkpt lat="47.25092" lon="4.93101">
        <ele>523.26135253906</ele>
        <time>2019-05-01T10:35:02 0200</time>
      </trkpt>
      <trkpt lat="47.25092" lon="4.93091">
        <ele>522.89483642578</ele>
        <time>2019-05-01T10:34:59 0200</time>
      </trkpt>
      <trkpt lat="47.25093" lon="4.93083">
        <ele>522.38885498047</ele>
        <time>2019-05-01T10:34:56 0200</time>
      </trkpt>
      <trkpt lat="47.25093" lon="4.93081">
        <ele>521.98858642578</ele>
        <time>2019-05-01T10:34:53 0200</time>
      </trkpt>
      <trkpt lat="47.25092" lon="4.93078">
        <ele>521.74798583984</ele>
        <time>2019-05-01T10:34:50 0200</time>
      </trkpt>
      <trkpt lat="47.25093" lon="4.93075">
        <ele>521.33911132812</ele>
        <time>2019-05-01T10:34:47 0200</time>
      </trkpt>
      <trkpt lat="47.25095" lon="4.93071">
        <ele>521.11102294922</ele>
        <time>2019-05-01T10:34:44 0200</time>
      </trkpt>
      <trkpt lat="47.251" lon="4.93063">
        <ele>521.12725830078</ele>
        <time>2019-05-01T10:34:41 0200</time>
      </trkpt>
      <trkpt lat="47.25101" lon="4.93061">
        <ele>521.34259033203</ele>
        <time>2019-05-01T10:34:38 0200</time>
      </trkpt>
      <trkpt lat="47.25102" lon="4.93057">
        <ele>521.58013916016</ele>
        <time>2019-05-01T10:34:35 0200</time>
      </trkpt>
      <trkpt lat="47.25105" lon="4.93048">
        <ele>521.67028808594</ele>
        <time>2019-05-01T10:34:32 0200</time>
      </trkpt>
      <trkpt lat="47.25105" lon="4.93044">
        <ele>521.72283935547</ele>
        <time>2019-05-01T10:34:29 0200</time>
      </trkpt>
      <trkpt lat="47.25105" lon="4.93041">
        <ele>521.72399902344</ele>
        <time>2019-05-01T10:34:26 0200</time>
      </trkpt>
      <trkpt lat="47.25105" lon="4.93038">
        <ele>521.45629882812</ele>
        <time>2019-05-01T10:34:23 0200</time>
      </trkpt>
      <trkpt lat="47.25105" lon="4.93037">
        <ele>521.42358398438</ele>
        <time>2019-05-01T10:34:20 0200</time>
      </trkpt>
      <trkpt lat="47.25106" lon="4.93032">
        <ele>521.13830566406</ele>
        <time>2019-05-01T10:34:17 0200</time>
      </trkpt>
      <trkpt lat="47.25106" lon="4.93031">
        <ele>520.97875976562</ele>
        <time>2019-05-01T10:34:14 0200</time>
      </trkpt>
      <trkpt lat="47.25106" lon="4.93029">
        <ele>520.73101806641</ele>
        <time>2019-05-01T10:34:11 0200</time>
      </trkpt>
      <trkpt lat="47.25106" lon="4.93026">
        <ele>520.5068359375</ele>
        <time>2019-05-01T10:34:08 0200</time>
      </trkpt>
      <trkpt lat="47.25105" lon="4.93025">
        <ele>520.38134765625</ele>
        <time>2019-05-01T10:34:05 0200</time>
      </trkpt>
      <trkpt lat="47.25104" lon="4.93026">
        <ele>520.47277832031</ele>
        <time>2019-05-01T10:34:02 0200</time>
      </trkpt>
      <trkpt lat="47.25104" lon="4.93017">
        <ele>520.685546875</ele>
        <time>2019-05-01T10:33:59 0200</time>
      </trkpt>
      <trkpt lat="47.25104" lon="4.93009">
        <ele>520.88275146484</ele>
        <time>2019-05-01T10:33:56 0200</time>
      </trkpt>
      <trkpt lat="47.25104" lon="4.93005">
        <ele>520.98614501953</ele>
        <time>2019-05-01T10:33:53 0200</time>
      </trkpt>
      <trkpt lat="47.25103" lon="4.93002">
        <ele>520.95788574219</ele>
        <time>2019-05-01T10:33:50 0200</time>
      </trkpt>
      <trkpt lat="47.25102" lon="4.93">
        <ele>520.85510253906</ele>
        <time>2019-05-01T10:33:47 0200</time>
      </trkpt>
      <trkpt lat="47.25103" lon="4.92998">
        <ele>520.77954101562</ele>
        <time>2019-05-01T10:33:44 0200</time>
      </trkpt>
      <trkpt lat="47.25103" lon="4.92992">
        <ele>520.69293212891</ele>
        <time>2019-05-01T10:33:41 0200</time>
      </trkpt>
      <trkpt lat="47.25104" lon="4.92983">
        <ele>520.58874511719</ele>
        <time>2019-05-01T10:33:38 0200</time>
      </trkpt>
      <trkpt lat="47.25103" lon="4.92977">
        <ele>520.53088378906</ele>
        <time>2019-05-01T10:33:35 0200</time>
      </trkpt>
      <trkpt lat="47.25103" lon="4.92974">
        <ele>520.51556396484</ele>
        <time>2019-05-01T10:33:32 0200</time>
      </trkpt>
      <trkpt lat="47.25104" lon="4.9297">
        <ele>520.45324707031</ele>
        <time>2019-05-01T10:33:29 0200</time>
      </trkpt>
      <trkpt lat="47.25104" lon="4.92968">
        <ele>520.44665527344</ele>
        <time>2019-05-01T10:33:26 0200</time>
      </trkpt>
      <trkpt lat="47.25104" lon="4.92966">
        <ele>520.49877929688</ele>
        <time>2019-05-01T10:33:23 0200</time>
      </trkpt>
      <trkpt lat="47.25104" lon="4.92964">
        <ele>520.50366210938</ele>
        <time>2019-05-01T10:33:20 0200</time>
      </trkpt>
      <trkpt lat="47.25102" lon="4.9296">
        <ele>520.54827880859</ele>
        <time>2019-05-01T10:33:17 0200</time>
      </trkpt>
      <trkpt lat="47.25102" lon="4.92952">
        <ele>520.5986328125</ele>
        <time>2019-05-01T10:33:14 0200</time>
      </trkpt>
      <trkpt lat="47.25102" lon="4.92945">
        <ele>520.60137939453</ele>
        <time>2019-05-01T10:33:11 0200</time>
      </trkpt>
      <trkpt lat="47.25102" lon="4.92944">
        <ele>520.60809326172</ele>
        <time>2019-05-01T10:33:08 0200</time>
      </trkpt>
      <trkpt lat="47.25103" lon="4.92937">
        <ele>520.55084228516</ele>
        <time>2019-05-01T10:33:05 0200</time>
      </trkpt>
      <trkpt lat="47.25103" lon="4.92934">
        <ele>520.55291748047</ele>
        <time>2019-05-01T10:33:02 0200</time>
      </trkpt>
      <trkpt lat="47.25102" lon="4.92932">
        <ele>520.80419921875</ele>
        <time>2019-05-01T10:32:59 0200</time>
      </trkpt>
      <trkpt lat="47.25102" lon="4.92931">
        <ele>521.03350830078</ele>
        <time>2019-05-01T10:32:56 0200</time>
      </trkpt>
      <trkpt lat="47.251" lon="4.92922">
        <ele>521.25457763672</ele>
        <time>2019-05-01T10:32:53 0200</time>
      </trkpt>
      <trkpt lat="47.251" lon="4.92917">
        <ele>521.35784912109</ele>
        <time>2019-05-01T10:32:50 0200</time>
      </trkpt>
      <trkpt lat="47.25098" lon="4.92909">
        <ele>521.48803710938</ele>
        <time>2019-05-01T10:32:47 0200</time>
      </trkpt>
      <trkpt lat="47.25098" lon="4.92905">
        <ele>521.63989257812</ele>
        <time>2019-05-01T10:32:44 0200</time>
      </trkpt>
      <trkpt lat="47.25097" lon="4.92902">
        <ele>521.95385742188</ele>
        <time>2019-05-01T10:32:41 0200</time>
      </trkpt>
      <trkpt lat="47.25096" lon="4.92899">
        <ele>522.24847412109</ele>
        <time>2019-05-01T10:32:38 0200</time>
      </trkpt>
      <trkpt lat="47.25096" lon="4.92891">
        <ele>522.34918212891</ele>
        <time>2019-05-01T10:32:35 0200</time>
      </trkpt>
      <trkpt lat="47.25095" lon="4.92886">
        <ele>522.34344482422</ele>
        <time>2019-05-01T10:32:32 0200</time>
      </trkpt>
      <trkpt lat="47.25094" lon="4.92883">
        <ele>522.34112548828</ele>
        <time>2019-05-01T10:32:29 0200</time>
      </trkpt>
      <trkpt lat="47.25094" lon="4.92879">
        <ele>522.48254394531</ele>
        <time>2019-05-01T10:32:26 0200</time>
      </trkpt>
      <trkpt lat="47.25095" lon="4.92874">
        <ele>522.70288085938</ele>
        <time>2019-05-01T10:32:23 0200</time>
      </trkpt>
      <trkpt lat="47.25099" lon="4.9287">
        <ele>522.90496826172</ele>
        <time>2019-05-01T10:32:20 0200</time>
      </trkpt>
      <trkpt lat="47.25101" lon="4.92869">
        <ele>523.04089355469</ele>
        <time>2019-05-01T10:32:17 0200</time>
      </trkpt>
      <trkpt lat="47.25101" lon="4.92866">
        <ele>523.08734130859</ele>
        <time>2019-05-01T10:32:14 0200</time>
      </trkpt>
      <trkpt lat="47.25104" lon="4.92868">
        <ele>523.12078857422</ele>
        <time>2019-05-01T10:32:11 0200</time>
      </trkpt>
      <trkpt lat="47.25109" lon="4.92869">
        <ele>523.26647949219</ele>
        <time>2019-05-01T10:32:08 0200</time>
      </trkpt>
      <trkpt lat="47.25111" lon="4.9287">
        <ele>523.29217529297</ele>
        <time>2019-05-01T10:32:05 0200</time>
      </trkpt>
      <trkpt lat="47.25111" lon="4.92871">
        <ele>523.29760742188</ele>
        <time>2019-05-01T10:32:02 0200</time>
      </trkpt>
      <trkpt lat="47.25112" lon="4.92874">
        <ele>523.03326416016</ele>
        <time>2019-05-01T10:31:59 0200</time>
      </trkpt>
      <trkpt lat="47.25111" lon="4.92873">
        <ele>522.08526611328</ele>
        <time>2019-05-01T10:31:56 0200</time>
      </trkpt>
      <trkpt lat="47.25111" lon="4.92873">
        <ele>521.60968017578</ele>
        <time>2019-05-01T10:31:53 0200</time>
      </trkpt>
      <trkpt lat="47.25111" lon="4.92872">
        <ele>521.47741699219</ele>
        <time>2019-05-01T10:31:50 0200</time>
      </trkpt>
      <trkpt lat="47.25111" lon="4.92873">
        <ele>521.34429931641</ele>
        <time>2019-05-01T10:31:47 0200</time>
      </trkpt>
      <trkpt lat="47.25111" lon="4.92873">
        <ele>521.2138671875</ele>
        <time>2019-05-01T10:31:44 0200</time>
      </trkpt>
      <trkpt lat="47.25111" lon="4.92873">
        <ele>521.12097167969</ele>
        <time>2019-05-01T10:31:41 0200</time>
      </trkpt>
      <trkpt lat="47.25111" lon="4.92874">
        <ele>521.05700683594</ele>
        <time>2019-05-01T10:31:38 0200</time>
      </trkpt>
      <trkpt lat="47.2511" lon="4.92874">
        <ele>521.009765625</ele>
        <time>2019-05-01T10:31:35 0200</time>
      </trkpt>
      <trkpt lat="47.2511" lon="4.92875">
        <ele>520.97503662109</ele>
        <time>2019-05-01T10:31:32 0200</time>
      </trkpt>
      <trkpt lat="47.2511" lon="4.92875">
        <ele>520.95355224609</ele>
        <time>2019-05-01T10:31:29 0200</time>
      </trkpt>
      <trkpt lat="47.2511" lon="4.92875">
        <ele>520.93811035156</ele>
        <time>2019-05-01T10:31:26 0200</time>
      </trkpt>
      <trkpt lat="47.2511" lon="4.92875">
        <ele>520.91015625</ele>
        <time>2019-05-01T10:31:23 0200</time>
      </trkpt>
      <trkpt lat="47.2511" lon="4.92875">
        <ele>520.873046875</ele>
        <time>2019-05-01T10:31:20 0200</time>
      </trkpt>
      <trkpt lat="47.2511" lon="4.92875">
        <ele>520.85113525391</ele>
        <time>2019-05-01T10:31:17 0200</time>
      </trkpt>
      <trkpt lat="47.25114" lon="4.92876">
        <ele>520.84136962891</ele>
        <time>2019-05-01T10:31:14 0200</time>
      </trkpt>
      <trkpt lat="47.25124" lon="4.9288">
        <ele>520.68841552734</ele>
        <time>2019-05-01T10:31:11 0200</time>
      </trkpt>
      <trkpt lat="47.25126" lon="4.92884">
        <ele>520.35430908203</ele>
        <time>2019-05-01T10:31:08 0200</time>
      </trkpt>
      <trkpt lat="47.25129" lon="4.92885">
        <ele>519.8828125</ele>
        <time>2019-05-01T10:31:05 0200</time>
      </trkpt>
      <trkpt lat="47.2513" lon="4.92886">
        <ele>519.54205322266</ele>
        <time>2019-05-01T10:31:02 0200</time>
      </trkpt>
      <trkpt lat="47.2513" lon="4.92885">
        <ele>519.31365966797</ele>
        <time>2019-05-01T10:30:59 0200</time>
      </trkpt>
      <trkpt lat="47.25133" lon="4.92884">
        <ele>519.05596923828</ele>
        <time>2019-05-01T10:30:56 0200</time>
      </trkpt>
      <trkpt lat="47.25134" lon="4.92884">
        <ele>518.6845703125</ele>
        <time>2019-05-01T10:30:53 0200</time>
      </trkpt>
      <trkpt lat="47.25133" lon="4.92886">
        <ele>518.47430419922</ele>
        <time>2019-05-01T10:30:50 0200</time>
      </trkpt>
      <trkpt lat="47.25136" lon="4.92887">
        <ele>518.46374511719</ele>
        <time>2019-05-01T10:30:47 0200</time>
      </trkpt>
      <trkpt lat="47.25134" lon="4.92887">
        <ele>518.61871337891</ele>
        <time>2019-05-01T10:30:44 0200</time>
      </trkpt>
      <trkpt lat="47.25139" lon="4.92888">
        <ele>518.84930419922</ele>
        <time>2019-05-01T10:30:41 0200</time>
      </trkpt>
      <trkpt lat="47.25142" lon="4.92889">
        <ele>519.12158203125</ele>
        <time>2019-05-01T10:30:38 0200</time>
      </trkpt>
      <trkpt lat="47.25147" lon="4.9289">
        <ele>519.40173339844</ele>
        <time>2019-05-01T10:30:35 0200</time>
      </trkpt>
      <trkpt lat="47.25152" lon="4.92891">
        <ele>519.68438720703</ele>
        <time>2019-05-01T10:30:32 0200</time>
      </trkpt>
      <trkpt lat="47.25154" lon="4.92891">
        <ele>519.95642089844</ele>
        <time>2019-05-01T10:30:29 0200</time>
      </trkpt>
      <trkpt lat="47.25159" lon="4.92892">
        <ele>520.24060058594</ele>
        <time>2019-05-01T10:30:26 0200</time>
      </trkpt>
      <trkpt lat="47.25163" lon="4.92892">
        <ele>520.49194335938</ele>
        <time>2019-05-01T10:30:23 0200</time>
      </trkpt>
      <trkpt lat="47.25167" lon="4.92893">
        <ele>520.64910888672</ele>
        <time>2019-05-01T10:30:20 0200</time>
      </trkpt>
      <trkpt lat="47.2517" lon="4.92895">
        <ele>520.76843261719</ele>
        <time>2019-05-01T10:30:17 0200</time>
      </trkpt>
      <trkpt lat="47.25173" lon="4.92897">
        <ele>520.80969238281</ele>
        <time>2019-05-01T10:30:14 0200</time>
      </trkpt>
      <trkpt lat="47.25174" lon="4.92897">
        <ele>520.83038330078</ele>
        <time>2019-05-01T10:30:11 0200</time>
      </trkpt>
      <trkpt lat="47.25176" lon="4.92898">
        <ele>520.91156005859</ele>
        <time>2019-05-01T10:30:08 0200</time>
      </trkpt>
      <trkpt lat="47.25178" lon="4.92899">
        <ele>521.02392578125</ele>
        <time>2019-05-01T10:30:05 0200</time>
      </trkpt>
      <trkpt lat="47.25182" lon="4.92901">
        <ele>521.15881347656</ele>
        <time>2019-05-01T10:30:02 0200</time>
      </trkpt>
      <trkpt lat="47.25184" lon="4.92901">
        <ele>521.32171630859</ele>
        <time>2019-05-01T10:29:59 0200</time>
      </trkpt>
      <trkpt lat="47.2519" lon="4.92901">
        <ele>521.46728515625</ele>
        <time>2019-05-01T10:29:56 0200</time>
      </trkpt>
      <trkpt lat="47.25193" lon="4.92902">
        <ele>521.58966064453</ele>
        <time>2019-05-01T10:29:53 0200</time>
      </trkpt>
      <trkpt lat="47.25196" lon="4.92903">
        <ele>521.75799560547</ele>
        <time>2019-05-01T10:29:50 0200</time>
      </trkpt>
      <trkpt lat="47.25199" lon="4.92904">
        <ele>521.83514404297</ele>
        <time>2019-05-01T10:29:47 0200</time>
      </trkpt>
      <trkpt lat="47.252" lon="4.92904">
        <ele>521.92706298828</ele>
        <time>2019-05-01T10:29:44 0200</time>
      </trkpt>
      <trkpt lat="47.25203" lon="4.92907">
        <ele>522.01867675781</ele>
        <time>2019-05-01T10:29:41 0200</time>
      </trkpt>
      <trkpt lat="47.25207" lon="4.92909">
        <ele>522.10064697266</ele>
        <time>2019-05-01T10:29:38 0200</time>
      </trkpt>
      <trkpt lat="47.25208" lon="4.92907">
        <ele>522.25048828125</ele>
        <time>2019-05-01T10:29:35 0200</time>
      </trkpt>
      <trkpt lat="47.25212" lon="4.92906">
        <ele>522.51287841797</ele>
        <time>2019-05-01T10:29:32 0200</time>
      </trkpt>
      <trkpt lat="47.25217" lon="4.92909">
        <ele>522.84094238281</ele>
        <time>2019-05-01T10:29:29 0200</time>
      </trkpt>
      <trkpt lat="47.25221" lon="4.9291">
        <ele>523.28033447266</ele>
        <time>2019-05-01T10:29:26 0200</time>
      </trkpt>
      <trkpt lat="47.25229" lon="4.92912">
        <ele>523.86047363281</ele>
        <time>2019-05-01T10:29:23 0200</time>
      </trkpt>
      <trkpt lat="47.2523" lon="4.92911">
        <ele>524.24078369141</ele>
        <time>2019-05-01T10:29:20 0200</time>
      </trkpt>
      <trkpt lat="47.25232" lon="4.92911">
        <ele>524.48748779297</ele>
        <time>2019-05-01T10:29:17 0200</time>
      </trkpt>
      <trkpt lat="47.25237" lon="4.92912">
        <ele>524.57800292969</ele>
        <time>2019-05-01T10:29:14 0200</time>
      </trkpt>
      <trkpt lat="47.25239" lon="4.92913">
        <ele>524.78228759766</ele>
        <time>2019-05-01T10:29:11 0200</time>
      </trkpt>
      <trkpt lat="47.2524" lon="4.92913">
        <ele>524.91510009766</ele>
        <time>2019-05-01T10:29:08 0200</time>
      </trkpt>
      <trkpt lat="47.25241" lon="4.92912">
        <ele>525.10662841797</ele>
        <time>2019-05-01T10:29:05 0200</time>
      </trkpt>
      <trkpt lat="47.25246" lon="4.92913">
        <ele>525.26776123047</ele>
        <time>2019-05-01T10:29:02 0200</time>
      </trkpt>
      <trkpt lat="47.2525" lon="4.92913">
        <ele>525.41723632812</ele>
        <time>2019-05-01T10:28:59 0200</time>
      </trkpt>
      <trkpt lat="47.25251" lon="4.92913">
        <ele>525.73516845703</ele>
        <time>2019-05-01T10:28:56 0200</time>
      </trkpt>
      <trkpt lat="47.25254" lon="4.92913">
        <ele>525.95806884766</ele>
        <time>2019-05-01T10:28:53 0200</time>
      </trkpt>
      <trkpt lat="47.25259" lon="4.92912">
        <ele>526.24517822266</ele>
        <time>2019-05-01T10:28:50 0200</time>
      </trkpt>
      <trkpt lat="47.25263" lon="4.92913">
        <ele>526.59307861328</ele>
        <time>2019-05-01T10:28:47 0200</time>
      </trkpt>
      <trkpt lat="47.25273" lon="4.92916">
        <ele>526.97027587891</ele>
        <time>2019-05-01T10:28:44 0200</time>
      </trkpt>
      <trkpt lat="47.25281" lon="4.92919">
        <ele>527.33428955078</ele>
        <time>2019-05-01T10:28:41 0200</time>
      </trkpt>
      <trkpt lat="47.25281" lon="4.92919">
        <ele>527.37164306641</ele>
        <time>2019-05-01T10:28:38 0200</time>
      </trkpt>
      <trkpt lat="47.25283" lon="4.92919">
        <ele>527.66455078125</ele>
        <time>2019-05-01T10:28:35 0200</time>
      </trkpt>
      <trkpt lat="47.25289" lon="4.9292">
        <ele>528.07922363281</ele>
        <time>2019-05-01T10:28:32 0200</time>
      </trkpt>
      <trkpt lat="47.25293" lon="4.92919">
        <ele>528.56683349609</ele>
        <time>2019-05-01T10:28:29 0200</time>
      </trkpt>
      <trkpt lat="47.25296" lon="4.92918">
        <ele>528.96398925781</ele>
        <time>2019-05-01T10:28:26 0200</time>
      </trkpt>
      <trkpt lat="47.25302" lon="4.92919">
        <ele>529.17932128906</ele>
        <time>2019-05-01T10:28:23 0200</time>
      </trkpt>
      <trkpt lat="47.25305" lon="4.9292">
        <ele>529.40075683594</ele>
        <time>2019-05-01T10:28:20 0200</time>
      </trkpt>
      <trkpt lat="47.25306" lon="4.9292">
        <ele>529.44610595703</ele>
        <time>2019-05-01T10:28:17 0200</time>
      </trkpt>
      <trkpt lat="47.25307" lon="4.9292">
        <ele>529.72833251953</ele>
        <time>2019-05-01T10:28:14 0200</time>
      </trkpt>
      <trkpt lat="47.25309" lon="4.9292">
        <ele>530.0068359375</ele>
        <time>2019-05-01T10:28:11 0200</time>
      </trkpt>
      <trkpt lat="47.2531" lon="4.92921">
        <ele>530.16302490234</ele>
        <time>2019-05-01T10:28:09 0200</time>
      </trkpt>
      <trkpt lat="47.25311" lon="4.92922">
        <ele>530.29315185547</ele>
        <time>2019-05-01T10:28:06 0200</time>
      </trkpt>
      <trkpt lat="47.25311" lon="4.92923">
        <ele>530.31927490234</ele>
        <time>2019-05-01T10:28:03 0200</time>
      </trkpt>
      <trkpt lat="47.25311" lon="4.92924">
        <ele>530.32318115234</ele>
        <time>2019-05-01T10:28:00 0200</time>
      </trkpt>
      <trkpt lat="47.25314" lon="4.92925">
        <ele>530.37725830078</ele>
        <time>2019-05-01T10:27:57 0200</time>
      </trkpt>
      <trkpt lat="47.25318" lon="4.92924">
        <ele>530.40869140625</ele>
        <time>2019-05-01T10:27:54 0200</time>
      </trkpt>
      <trkpt lat="47.25322" lon="4.92925">
        <ele>530.59265136719</ele>
        <time>2019-05-01T10:27:51 0200</time>
      </trkpt>
      <trkpt lat="47.25327" lon="4.92928">
        <ele>531.0478515625</ele>
        <time>2019-05-01T10:27:48 0200</time>
      </trkpt>
      <trkpt lat="47.25326" lon="4.92928">
        <ele>531.56707763672</ele>
        <time>2019-05-01T10:27:45 0200</time>
      </trkpt>
      <trkpt lat="47.25331" lon="4.92928">
        <ele>531.99444580078</ele>
        <time>2019-05-01T10:27:42 0200</time>
      </trkpt>
      <trkpt lat="47.25336" lon="4.92927">
        <ele>532.40740966797</ele>
        <time>2019-05-01T10:27:39 0200</time>
      </trkpt>
      <trkpt lat="47.25338" lon="4.92929">
        <ele>533.15155029297</ele>
        <time>2019-05-01T10:27:36 0200</time>
      </trkpt>
      <trkpt lat="47.25338" lon="4.92929">
        <ele>533.46569824219</ele>
        <time>2019-05-01T10:27:33 0200</time>
      </trkpt>
      <trkpt lat="47.25339" lon="4.92929">
        <ele>533.537109375</ele>
        <time>2019-05-01T10:27:30 0200</time>
      </trkpt>
      <trkpt lat="47.25342" lon="4.92928">
        <ele>533.88824462891</ele>
        <time>2019-05-01T10:27:27 0200</time>
      </trkpt>
      <trkpt lat="47.2535" lon="4.92929">
        <ele>534.29595947266</ele>
        <time>2019-05-01T10:27:24 0200</time>
      </trkpt>
      <trkpt lat="47.25355" lon="4.92927">
        <ele>534.58190917969</ele>
        <time>2019-05-01T10:27:21 0200</time>
      </trkpt>
      <trkpt lat="47.25358" lon="4.92927">
        <ele>534.50415039062</ele>
        <time>2019-05-01T10:27:18 0200</time>
      </trkpt>
      <trkpt lat="47.25364" lon="4.92926">
        <ele>534.31146240234</ele>
        <time>2019-05-01T10:27:15 0200</time>
      </trkpt>
      <trkpt lat="47.25372" lon="4.92929">
        <ele>533.84216308594</ele>
        <time>2019-05-01T10:27:12 0200</time>
      </trkpt>
      <trkpt lat="47.25373" lon="4.92929">
        <ele>533.68774414062</ele>
        <time>2019-05-01T10:27:09 0200</time>
      </trkpt>
      <trkpt lat="47.25374" lon="4.9293">
        <ele>533.623046875</ele>
        <time>2019-05-01T10:27:06 0200</time>
      </trkpt>
      <trkpt lat="47.25376" lon="4.9293">
        <ele>533.61767578125</ele>
        <time>2019-05-01T10:27:03 0200</time>
      </trkpt>
      <trkpt lat="47.25379" lon="4.9293">
        <ele>533.57775878906</ele>
        <time>2019-05-01T10:27:00 0200</time>
      </trkpt>
      <trkpt lat="47.2538" lon="4.92931">
        <ele>533.57379150391</ele>
        <time>2019-05-01T10:26:57 0200</time>
      </trkpt>
      <trkpt lat="47.25381" lon="4.92931">
        <ele>533.59417724609</ele>
        <time>2019-05-01T10:26:54 0200</time>
      </trkpt>
      <trkpt lat="47.25386" lon="4.92934">
        <ele>533.62225341797</ele>
        <time>2019-05-01T10:26:51 0200</time>
      </trkpt>
      <trkpt lat="47.25387" lon="4.92934">
        <ele>533.59918212891</ele>
        <time>2019-05-01T10:26:48 0200</time>
      </trkpt>
      <trkpt lat="47.25388" lon="4.92935">
        <ele>533.560546875</ele>
        <time>2019-05-01T10:26:45 0200</time>
      </trkpt>
      <trkpt lat="47.25389" lon="4.92935">
        <ele>533.53698730469</ele>
        <time>2019-05-01T10:26:42 0200</time>
      </trkpt>
      <trkpt lat="47.25393" lon="4.92936">
        <ele>533.59582519531</ele>
        <time>2019-05-01T10:26:39 0200</time>
      </trkpt>
      <trkpt lat="47.25398" lon="4.92937">
        <ele>533.68499755859</ele>
        <time>2019-05-01T10:26:36 0200</time>
      </trkpt>
      <trkpt lat="47.25402" lon="4.92935">
        <ele>533.87890625</ele>
        <time>2019-05-01T10:26:33 0200</time>
      </trkpt>
      <trkpt lat="47.25403" lon="4.92933">
        <ele>534.01959228516</ele>
        <time>2019-05-01T10:26:30 0200</time>
      </trkpt>
      <trkpt lat="47.25411" lon="4.92936">
        <ele>534.1318359375</ele>
        <time>2019-05-01T10:26:27 0200</time>
      </trkpt>
      <trkpt lat="47.25415" lon="4.92936">
        <ele>534.38482666016</ele>
        <time>2019-05-01T10:26:24 0200</time>
      </trkpt>
      <trkpt lat="47.2542" lon="4.92937">
        <ele>534.66625976562</ele>
        <time>2019-05-01T10:26:21 0200</time>
      </trkpt>
      <trkpt lat="47.25422" lon="4.92936">
        <ele>534.87316894531</ele>
        <time>2019-05-01T10:26:18 0200</time>
      </trkpt>
      <trkpt lat="47.25423" lon="4.92936">
        <ele>535.07330322266</ele>
        <time>2019-05-01T10:26:15 0200</time>
      </trkpt>
      <trkpt lat="47.25424" lon="4.92936">
        <ele>535.18115234375</ele>
        <time>2019-05-01T10:26:12 0200</time>
      </trkpt>
      <trkpt lat="47.25425" lon="4.92934">
        <ele>535.31262207031</ele>
        <time>2019-05-01T10:26:09 0200</time>
      </trkpt>
      <trkpt lat="47.25425" lon="4.92932">
        <ele>535.77239990234</ele>
        <time>2019-05-01T10:26:06 0200</time>
      </trkpt>
      <trkpt lat="47.25425" lon="4.92926">
        <ele>536.14489746094</ele>
        <time>2019-05-01T10:26:03 0200</time>
      </trkpt>
      <trkpt lat="47.25425" lon="4.92922">
        <ele>536.20941162109</ele>
        <time>2019-05-01T10:26:00 0200</time>
      </trkpt>
      <trkpt lat="47.25425" lon="4.92922">
        <ele>536.28076171875</ele>
        <time>2019-05-01T10:25:57 0200</time>
      </trkpt>
      <trkpt lat="47.25425" lon="4.92923">
        <ele>536.35949707031</ele>
        <time>2019-05-01T10:25:54 0200</time>
      </trkpt>
      <trkpt lat="47.25426" lon="4.92937">
        <ele>536.43365478516</ele>
        <time>2019-05-01T10:25:51 0200</time>
      </trkpt>
      <trkpt lat="47.25426" lon="4.92939">
        <ele>536.50445556641</ele>
        <time>2019-05-01T10:25:48 0200</time>
      </trkpt>
      <trkpt lat="47.25426" lon="4.92941">
        <ele>536.578125</ele>
        <time>2019-05-01T10:25:45 0200</time>
      </trkpt>
      <trkpt lat="47.25425" lon="4.92942">
        <ele>536.64715576172</ele>
        <time>2019-05-01T10:25:42 0200</time>
      </trkpt>
      <trkpt lat="47.25425" lon="4.92942">
        <ele>536.70556640625</ele>
        <time>2019-05-01T10:25:39 0200</time>
      </trkpt>
      <trkpt lat="47.25425" lon="4.92942">
        <ele>536.75775146484</ele>
        <time>2019-05-01T10:25:36 0200</time>
      </trkpt>
      <trkpt lat="47.25425" lon="4.92943">
        <ele>536.80786132812</ele>
        <time>2019-05-01T10:25:33 0200</time>
      </trkpt>
      <trkpt lat="47.25425" lon="4.92943">
        <ele>536.86199951172</ele>
        <time>2019-05-01T10:25:30 0200</time>
      </trkpt>
      <trkpt lat="47.25425" lon="4.92944">
        <ele>536.91918945312</ele>
        <time>2019-05-01T10:25:27 0200</time>
      </trkpt>
      <trkpt lat="47.25425" lon="4.92944">
        <ele>536.97583007812</ele>
        <time>2019-05-01T10:25:24 0200</time>
      </trkpt>
      <trkpt lat="47.25425" lon="4.92944">
        <ele>537.03289794922</ele>
        <time>2019-05-01T10:25:21 0200</time>
      </trkpt>
      <trkpt lat="47.25424" lon="4.92944">
        <ele>537.091796875</ele>
        <time>2019-05-01T10:25:18 0200</time>
      </trkpt>
      <trkpt lat="47.25424" lon="4.92945">
        <ele>537.15588378906</ele>
        <time>2019-05-01T10:25:15 0200</time>
      </trkpt>
      <trkpt lat="47.25424" lon="4.92953">
        <ele>537.21856689453</ele>
        <time>2019-05-01T10:25:12 0200</time>
      </trkpt>
      <trkpt lat="47.25423" lon="4.92955">
        <ele>537.26550292969</ele>
        <time>2019-05-01T10:25:09 0200</time>
      </trkpt>
      <trkpt lat="47.25423" lon="4.92957">
        <ele>537.28961181641</ele>
        <time>2019-05-01T10:25:06 0200</time>
      </trkpt>
      <trkpt lat="47.25422" lon="4.92959">
        <ele>537.2763671875</ele>
        <time>2019-05-01T10:25:03 0200</time>
      </trkpt>
      <trkpt lat="47.25421" lon="4.9296">
        <ele>536.81994628906</ele>
        <time>2019-05-01T10:25:00 0200</time>
      </trkpt>
      <trkpt lat="47.25421" lon="4.92961">
        <ele>536.65563964844</ele>
        <time>2019-05-01T10:24:57 0200</time>
      </trkpt>
      <trkpt lat="47.25421" lon="4.92962">
        <ele>536.50750732422</ele>
        <time>2019-05-01T10:24:54 0200</time>
      </trkpt>
      <trkpt lat="47.25421" lon="4.92962">
        <ele>536.32897949219</ele>
        <time>2019-05-01T10:24:51 0200</time>
      </trkpt>
      <trkpt lat="47.25422" lon="4.92961">
        <ele>536.07995605469</ele>
        <time>2019-05-01T10:24:48 0200</time>
      </trkpt>
      <trkpt lat="47.25422" lon="4.9296">
        <ele>535.78155517578</ele>
        <time>2019-05-01T10:24:45 0200</time>
      </trkpt>
      <trkpt lat="47.25422" lon="4.9296">
        <ele>535.48358154297</ele>
        <time>2019-05-01T10:24:42 0200</time>
      </trkpt>
      <trkpt lat="47.25422" lon="4.92959">
        <ele>535.24969482422</ele>
        <time>2019-05-01T10:24:39 0200</time>
      </trkpt>
      <trkpt lat="47.25422" lon="4.92959">
        <ele>535.03973388672</ele>
        <time>2019-05-01T10:24:36 0200</time>
      </trkpt>
      <trkpt lat="47.25423" lon="4.92958">
        <ele>534.80786132812</ele>
        <time>2019-05-01T10:24:33 0200</time>
      </trkpt>
      <trkpt lat="47.25423" lon="4.92958">
        <ele>534.57110595703</ele>
        <time>2019-05-01T10:24:30 0200</time>
      </trkpt>
      <trkpt lat="47.25423" lon="4.92957">
        <ele>534.39605712891</ele>
        <time>2019-05-01T10:24:27 0200</time>
      </trkpt>
      <trkpt lat="47.25423" lon="4.92958">
        <ele>534.27514648438</ele>
        <time>2019-05-01T10:24:24 0200</time>
      </trkpt>
      <trkpt lat="47.25423" lon="4.92958">
        <ele>534.16357421875</ele>
        <time>2019-05-01T10:24:21 0200</time>
      </trkpt>
      <trkpt lat="47.25423" lon="4.92959">
        <ele>534.04632568359</ele>
        <time>2019-05-01T10:24:18 0200</time>
      </trkpt>
      <trkpt lat="47.25424" lon="4.9296">
        <ele>533.55926513672</ele>
        <time>2019-05-01T10:24:15 0200</time>
      </trkpt>
      <trkpt lat="47.25424" lon="4.92966">
        <ele>532.25994873047</ele>
        <time>2019-05-01T10:24:12 0200</time>
      </trkpt>
      <trkpt lat="47.25424" lon="4.92966">
        <ele>531.70721435547</ele>
        <time>2019-05-01T10:24:09 0200</time>
      </trkpt>
      <trkpt lat="47.25424" lon="4.92965">
        <ele>531.58953857422</ele>
        <time>2019-05-01T10:24:06 0200</time>
      </trkpt>
      <trkpt lat="47.25424" lon="4.92965">
        <ele>531.51281738281</ele>
        <time>2019-05-01T10:24:03 0200</time>
      </trkpt>
      <trkpt lat="47.25424" lon="4.92966">
        <ele>531.4541015625</ele>
        <time>2019-05-01T10:24:00 0200</time>
      </trkpt>
      <trkpt lat="47.25425" lon="4.92966">
        <ele>531.39001464844</ele>
        <time>2019-05-01T10:23:57 0200</time>
      </trkpt>
      <trkpt lat="47.25425" lon="4.92967">
        <ele>531.30883789062</ele>
        <time>2019-05-01T10:23:54 0200</time>
      </trkpt>
      <trkpt lat="47.25426" lon="4.92968">
        <ele>531.00732421875</ele>
        <time>2019-05-01T10:23:51 0200</time>
      </trkpt>
      <trkpt lat="47.25426" lon="4.92969">
        <ele>530.78845214844</ele>
        <time>2019-05-01T10:23:48 0200</time>
      </trkpt>
      <trkpt lat="47.25426" lon="4.92969">
        <ele>530.42840576172</ele>
        <time>2019-05-01T10:23:45 0200</time>
      </trkpt>
      <trkpt lat="47.25426" lon="4.92969">
        <ele>530.31011962891</ele>
        <time>2019-05-01T10:23:42 0200</time>
      </trkpt>
      <trkpt lat="47.25426" lon="4.92969">
        <ele>530.31701660156</ele>
        <time>2019-05-01T10:23:39 0200</time>
      </trkpt>
      <trkpt lat="47.25426" lon="4.92973">
        <ele>530.35131835938</ele>
        <time>2019-05-01T10:23:36 0200</time>
      </trkpt>
      <trkpt lat="47.25425" lon="4.92981">
        <ele>529.89770507812</ele>
        <time>2019-05-01T10:23:33 0200</time>
      </trkpt>
      <trkpt lat="47.25425" lon="4.92984">
        <ele>529.30493164062</ele>
        <time>2019-05-01T10:23:30 0200</time>
      </trkpt>
      <trkpt lat="47.25425" lon="4.92988">
        <ele>528.92864990234</ele>
        <time>2019-05-01T10:23:27 0200</time>
      </trkpt>
      <trkpt lat="47.25425" lon="4.92985">
        <ele>528.81573486328</ele>
        <time>2019-05-01T10:23:24 0200</time>
      </trkpt>
      <trkpt lat="47.25425" lon="4.92985">
        <ele>528.83630371094</ele>
        <time>2019-05-01T10:23:21 0200</time>
      </trkpt>
      <trkpt lat="47.25426" lon="4.92984">
        <ele>528.84375</ele>
        <time>2019-05-01T10:23:18 0200</time>
      </trkpt>
      <trkpt lat="47.25426" lon="4.92984">
        <ele>529.00762939453</ele>
        <time>2019-05-01T10:23:15 0200</time>
      </trkpt>
      <trkpt lat="47.25426" lon="4.92985">
        <ele>529.26812744141</ele>
        <time>2019-05-01T10:23:12 0200</time>
      </trkpt>
      <trkpt lat="47.25426" lon="4.92987">
        <ele>530.03588867188</ele>
        <time>2019-05-01T10:23:09 0200</time>
      </trkpt>
      <trkpt lat="47.25427" lon="4.92987">
        <ele>530.11578369141</ele>
        <time>2019-05-01T10:23:06 0200</time>
      </trkpt>
      <trkpt lat="47.25427" lon="4.92987">
        <ele>530.17504882812</ele>
        <time>2019-05-01T10:23:03 0200</time>
      </trkpt>
      <trkpt lat="47.25427" lon="4.92988">
        <ele>530.25457763672</ele>
        <time>2019-05-01T10:23:00 0200</time>
      </trkpt>
      <trkpt lat="47.25427" lon="4.92989">
        <ele>530.34478759766</ele>
        <time>2019-05-01T10:22:57 0200</time>
      </trkpt>
      <trkpt lat="47.25427" lon="4.9299">
        <ele>530.44720458984</ele>
        <time>2019-05-01T10:22:54 0200</time>
      </trkpt>
      <trkpt lat="47.25427" lon="4.9299">
        <ele>530.55944824219</ele>
        <time>2019-05-01T10:22:51 0200</time>
      </trkpt>
      <trkpt lat="47.25427" lon="4.92999">
        <ele>530.92016601562</ele>
        <time>2019-05-01T10:22:48 0200</time>
      </trkpt>
      <trkpt lat="47.25427" lon="4.93">
        <ele>531.2939453125</ele>
        <time>2019-05-01T10:22:45 0200</time>
      </trkpt>
      <trkpt lat="47.25429" lon="4.93001">
        <ele>531.66174316406</ele>
        <time>2019-05-01T10:22:42 0200</time>
      </trkpt>
      <trkpt lat="47.2543" lon="4.93002">
        <ele>532.18731689453</ele>
        <time>2019-05-01T10:22:39 0200</time>
      </trkpt>
      <trkpt lat="47.25432" lon="4.93003">
        <ele>533.02716064453</ele>
        <time>2019-05-01T10:22:36 0200</time>
      </trkpt>
      <trkpt lat="47.25432" lon="4.93003">
        <ele>533.99890136719</ele>
        <time>2019-05-01T10:22:33 0200</time>
      </trkpt>
      <trkpt lat="47.25432" lon="4.93004">
        <ele>534.12231445312</ele>
        <time>2019-05-01T10:22:30 0200</time>
      </trkpt>
      <trkpt lat="47.25432" lon="4.93004">
        <ele>534.20727539062</ele>
        <time>2019-05-01T10:22:27 0200</time>
      </trkpt>
      <trkpt lat="47.25428" lon="4.93015">
        <ele>534.19995117188</ele>
        <time>2019-05-01T10:22:24 0200</time>
      </trkpt>
      <trkpt lat="47.25429" lon="4.93014">
        <ele>533.84484863281</ele>
        <time>2019-05-01T10:22:21 0200</time>
      </trkpt>
      <trkpt lat="47.25429" lon="4.93013">
        <ele>533.64105224609</ele>
        <time>2019-05-01T10:22:18 0200</time>
      </trkpt>
      <trkpt lat="47.25428" lon="4.9301">
        <ele>533.61419677734</ele>
        <time>2019-05-01T10:22:15 0200</time>
      </trkpt>
      <trkpt lat="47.25425" lon="4.92999">
        <ele>533.81536865234</ele>
        <time>2019-05-01T10:22:12 0200</time>
      </trkpt>
      <trkpt lat="47.25426" lon="4.92998">
        <ele>533.83642578125</ele>
        <time>2019-05-01T10:22:09 0200</time>
      </trkpt>
      <trkpt lat="47.25426" lon="4.92998">
        <ele>533.85272216797</ele>
        <time>2019-05-01T10:22:06 0200</time>
      </trkpt>
      <trkpt lat="47.25426" lon="4.92998">
        <ele>533.86669921875</ele>
        <time>2019-05-01T10:22:03 0200</time>
      </trkpt>
      <trkpt lat="47.25426" lon="4.92999">
        <ele>533.88842773438</ele>
        <time>2019-05-01T10:22:00 0200</time>
      </trkpt>
      <trkpt lat="47.25426" lon="4.92999">
        <ele>533.91693115234</ele>
        <time>2019-05-01T10:21:57 0200</time>
      </trkpt>
      <trkpt lat="47.25427" lon="4.92999">
        <ele>533.94616699219</ele>
        <time>2019-05-01T10:21:54 0200</time>
      </trkpt>
      <trkpt lat="47.25427" lon="4.92999">
        <ele>533.97937011719</ele>
        <time>2019-05-01T10:21:51 0200</time>
      </trkpt>
      <trkpt lat="47.25426" lon="4.92998">
        <ele>534.00158691406</ele>
        <time>2019-05-01T10:21:48 0200</time>
      </trkpt>
      <trkpt lat="47.25426" lon="4.92998">
        <ele>534.00012207031</ele>
        <time>2019-05-01T10:21:45 0200</time>
      </trkpt>
      <trkpt lat="47.25426" lon="4.92998">
        <ele>533.99981689453</ele>
        <time>2019-05-01T10:21:42 0200</time>
      </trkpt>
      <trkpt lat="47.25426" lon="4.92999">
        <ele>534.00189208984</ele>
        <time>2019-05-01T10:21:39 0200</time>
      </trkpt>
      <trkpt lat="47.25426" lon="4.93">
        <ele>534.00494384766</ele>
        <time>2019-05-01T10:21:36 0200</time>
      </trkpt>
      <trkpt lat="47.25426" lon="4.93">
        <ele>534.0048828125</ele>
        <time>2019-05-01T10:21:33 0200</time>
      </trkpt>
      <trkpt lat="47.25425" lon="4.93001">
        <ele>533.98883056641</ele>
        <time>2019-05-01T10:21:30 0200</time>
      </trkpt>
      <trkpt lat="47.25425" lon="4.93001">
        <ele>533.97991943359</ele>
        <time>2019-05-01T10:21:27 0200</time>
      </trkpt>
      <trkpt lat="47.25421" lon="4.93008">
        <ele>534.00451660156</ele>
        <time>2019-05-01T10:21:24 0200</time>
      </trkpt>
      <trkpt lat="47.25419" lon="4.93009">
        <ele>534.15130615234</ele>
        <time>2019-05-01T10:21:21 0200</time>
      </trkpt>
      <trkpt lat="47.25419" lon="4.93011">
        <ele>534.37774658203</ele>
        <time>2019-05-01T10:21:18 0200</time>
      </trkpt>
      <trkpt lat="47.2542" lon="4.93012">
        <ele>534.43060302734</ele>
        <time>2019-05-01T10:21:15 0200</time>
      </trkpt>
      <trkpt lat="47.2542" lon="4.93012">
        <ele>534.4765625</ele>
        <time>2019-05-01T10:21:12 0200</time>
      </trkpt>
      <trkpt lat="47.2542" lon="4.93012">
        <ele>534.5205078125</ele>
        <time>2019-05-01T10:21:09 0200</time>
      </trkpt>
      <trkpt lat="47.2542" lon="4.93012">
        <ele>534.53924560547</ele>
        <time>2019-05-01T10:21:06 0200</time>
      </trkpt>
      <trkpt lat="47.2542" lon="4.93012">
        <ele>534.57708740234</ele>
        <time>2019-05-01T10:21:03 0200</time>
      </trkpt>
      <trkpt lat="47.2542" lon="4.93012">
        <ele>534.60858154297</ele>
        <time>2019-05-01T10:21:00 0200</time>
      </trkpt>
      <trkpt lat="47.25421" lon="4.93011">
        <ele>534.63208007812</ele>
        <time>2019-05-01T10:20:57 0200</time>
      </trkpt>
      <trkpt lat="47.25421" lon="4.93011">
        <ele>534.65179443359</ele>
        <time>2019-05-01T10:20:54 0200</time>
      </trkpt>
      <trkpt lat="47.25421" lon="4.93011">
        <ele>534.67352294922</ele>
        <time>2019-05-01T10:20:51 0200</time>
      </trkpt>
      <trkpt lat="47.25421" lon="4.9301">
        <ele>534.693359375</ele>
        <time>2019-05-01T10:20:48 0200</time>
      </trkpt>
      <trkpt lat="47.25422" lon="4.9301">
        <ele>534.71099853516</ele>
        <time>2019-05-01T10:20:45 0200</time>
      </trkpt>
      <trkpt lat="47.25422" lon="4.9301">
        <ele>534.72155761719</ele>
        <time>2019-05-01T10:20:42 0200</time>
      </trkpt>
      <trkpt lat="47.25422" lon="4.9301">
        <ele>534.72454833984</ele>
        <time>2019-05-01T10:20:39 0200</time>
      </trkpt>
      <trkpt lat="47.25422" lon="4.9301">
        <ele>534.72937011719</ele>
        <time>2019-05-01T10:20:36 0200</time>
      </trkpt>
      <trkpt lat="47.25422" lon="4.9301">
        <ele>534.73876953125</ele>
        <time>2019-05-01T10:20:33 0200</time>
      </trkpt>
      <trkpt lat="47.25423" lon="4.9301">
        <ele>534.74688720703</ele>
        <time>2019-05-01T10:20:30 0200</time>
      </trkpt>
      <trkpt lat="47.25423" lon="4.9301">
        <ele>534.76147460938</ele>
        <time>2019-05-01T10:20:27 0200</time>
      </trkpt>
      <trkpt lat="47.25423" lon="4.93009">
        <ele>534.77471923828</ele>
        <time>2019-05-01T10:20:24 0200</time>
      </trkpt>
      <trkpt lat="47.25423" lon="4.93009">
        <ele>534.78631591797</ele>
        <time>2019-05-01T10:20:21 0200</time>
      </trkpt>
      <trkpt lat="47.25424" lon="4.93009">
        <ele>534.80560302734</ele>
        <time>2019-05-01T10:20:18 0200</time>
      </trkpt>
      <trkpt lat="47.25424" lon="4.93008">
        <ele>534.81781005859</ele>
        <time>2019-05-01T10:20:15 0200</time>
      </trkpt>
      <trkpt lat="47.25424" lon="4.93008">
        <ele>534.82781982422</ele>
        <time>2019-05-01T10:20:12 0200</time>
      </trkpt>
      <trkpt lat="47.25424" lon="4.93008">
        <ele>534.83764648438</ele>
        <time>2019-05-01T10:20:09 0200</time>
      </trkpt>
      <trkpt lat="47.25425" lon="4.93008">
        <ele>534.85150146484</ele>
        <time>2019-05-01T10:20:06 0200</time>
      </trkpt>
      <trkpt lat="47.25425" lon="4.93008">
        <ele>534.85784912109</ele>
        <time>2019-05-01T10:20:03 0200</time>
      </trkpt>
      <trkpt lat="47.25425" lon="4.93008">
        <ele>534.84582519531</ele>
        <time>2019-05-01T10:20:00 0200</time>
      </trkpt>
      <trkpt lat="47.25425" lon="4.93007">
        <ele>534.82952880859</ele>
        <time>2019-05-01T10:19:57 0200</time>
      </trkpt>
      <trkpt lat="47.25425" lon="4.93007">
        <ele>534.81652832031</ele>
        <time>2019-05-01T10:19:54 0200</time>
      </trkpt>
      <trkpt lat="47.25425" lon="4.93007">
        <ele>534.81036376953</ele>
        <time>2019-05-01T10:19:51 0200</time>
      </trkpt>
      <trkpt lat="47.25426" lon="4.93006">
        <ele>534.81903076172</ele>
        <time>2019-05-01T10:19:48 0200</time>
      </trkpt>
      <trkpt lat="47.25426" lon="4.93006">
        <ele>534.84185791016</ele>
        <time>2019-05-01T10:19:45 0200</time>
      </trkpt>
      <trkpt lat="47.25426" lon="4.93006">
        <ele>534.86962890625</ele>
        <time>2019-05-01T10:19:42 0200</time>
      </trkpt>
      <trkpt lat="47.25426" lon="4.93007">
        <ele>534.90155029297</ele>
        <time>2019-05-01T10:19:39 0200</time>
      </trkpt>
      <trkpt lat="47.25426" lon="4.93007">
        <ele>534.93304443359</ele>
        <time>2019-05-01T10:19:36 0200</time>
      </trkpt>
      <trkpt lat="47.25426" lon="4.93007">
        <ele>534.96759033203</ele>
        <time>2019-05-01T10:19:33 0200</time>
      </trkpt>
      <trkpt lat="47.25426" lon="4.93007">
        <ele>535.00744628906</ele>
        <time>2019-05-01T10:19:30 0200</time>
      </trkpt>
      <trkpt lat="47.25426" lon="4.93007">
        <ele>535.04498291016</ele>
        <time>2019-05-01T10:19:27 0200</time>
      </trkpt>
      <trkpt lat="47.25426" lon="4.93007">
        <ele>535.07598876953</ele>
        <time>2019-05-01T10:19:24 0200</time>
      </trkpt>
      <trkpt lat="47.25426" lon="4.93008">
        <ele>535.09735107422</ele>
        <time>2019-05-01T10:19:21 0200</time>
      </trkpt>
      <trkpt lat="47.25426" lon="4.93008">
        <ele>535.10845947266</ele>
        <time>2019-05-01T10:19:18 0200</time>
      </trkpt>
      <trkpt lat="47.25426" lon="4.93008">
        <ele>535.10919189453</ele>
        <time>2019-05-01T10:19:15 0200</time>
      </trkpt>
      <trkpt lat="47.25426" lon="4.93009">
        <ele>535.10107421875</ele>
        <time>2019-05-01T10:19:12 0200</time>
      </trkpt>
      <trkpt lat="47.25427" lon="4.93009">
        <ele>535.08728027344</ele>
        <time>2019-05-01T10:19:09 0200</time>
      </trkpt>
      <trkpt lat="47.25427" lon="4.9301">
        <ele>535.07055664062</ele>
        <time>2019-05-01T10:19:06 0200</time>
      </trkpt>
      <trkpt lat="47.25427" lon="4.9301">
        <ele>535.05236816406</ele>
        <time>2019-05-01T10:19:03 0200</time>
      </trkpt>
      <trkpt lat="47.25427" lon="4.93011">
        <ele>535.02642822266</ele>
        <time>2019-05-01T10:19:00 0200</time>
      </trkpt>
      <trkpt lat="47.25427" lon="4.93011">
        <ele>535.00659179688</ele>
        <time>2019-05-01T10:18:57 0200</time>
      </trkpt>
      <trkpt lat="47.25428" lon="4.93011">
        <ele>534.97680664062</ele>
        <time>2019-05-01T10:18:54 0200</time>
      </trkpt>
      <trkpt lat="47.25428" lon="4.93012">
        <ele>534.93511962891</ele>
        <time>2019-05-01T10:18:51 0200</time>
      </trkpt>
      <trkpt lat="47.25427" lon="4.93012">
        <ele>534.86492919922</ele>
        <time>2019-05-01T10:18:48 0200</time>
      </trkpt>
      <trkpt lat="47.25427" lon="4.93012">
        <ele>534.78625488281</ele>
        <time>2019-05-01T10:18:45 0200</time>
      </trkpt>
      <trkpt lat="47.25427" lon="4.93012">
        <ele>534.69653320312</ele>
        <time>2019-05-01T10:18:42 0200</time>
      </trkpt>
      <trkpt lat="47.25427" lon="4.93012">
        <ele>534.59381103516</ele>
        <time>2019-05-01T10:18:39 0200</time>
      </trkpt>
      <trkpt lat="47.25427" lon="4.93011">
        <ele>534.47943115234</ele>
        <time>2019-05-01T10:18:36 0200</time>
      </trkpt>
      <trkpt lat="47.25427" lon="4.93011">
        <ele>534.36334228516</ele>
        <time>2019-05-01T10:18:33 0200</time>
      </trkpt>
      <trkpt lat="47.25426" lon="4.93012">
        <ele>534.24969482422</ele>
        <time>2019-05-01T10:18:30 0200</time>
      </trkpt>
      <trkpt lat="47.25426" lon="4.93012">
        <ele>534.14349365234</ele>
        <time>2019-05-01T10:18:27 0200</time>
      </trkpt>
      <trkpt lat="47.25426" lon="4.93012">
        <ele>534.06451416016</ele>
        <time>2019-05-01T10:18:24 0200</time>
      </trkpt>
      <trkpt lat="47.25425" lon="4.93013">
        <ele>533.99371337891</ele>
        <time>2019-05-01T10:18:21 0200</time>
      </trkpt>
      <trkpt lat="47.25425" lon="4.93013">
        <ele>533.92175292969</ele>
        <time>2019-05-01T10:18:18 0200</time>
      </trkpt>
      <trkpt lat="47.25425" lon="4.93013">
        <ele>533.84844970703</ele>
        <time>2019-05-01T10:18:15 0200</time>
      </trkpt>
      <trkpt lat="47.25424" lon="4.93013">
        <ele>533.79205322266</ele>
        <time>2019-05-01T10:18:12 0200</time>
      </trkpt>
      <trkpt lat="47.25424" lon="4.93013">
        <ele>533.75970458984</ele>
        <time>2019-05-01T10:18:09 0200</time>
      </trkpt>
      <trkpt lat="47.25424" lon="4.93013">
        <ele>533.73968505859</ele>
        <time>2019-05-01T10:18:06 0200</time>
      </trkpt>
      <trkpt lat="47.25424" lon="4.93013">
        <ele>533.72619628906</ele>
        <time>2019-05-01T10:18:03 0200</time>
      </trkpt>
      <trkpt lat="47.25424" lon="4.93013">
        <ele>533.720703125</ele>
        <time>2019-05-01T10:18:00 0200</time>
      </trkpt>
      <trkpt lat="47.25424" lon="4.93014">
        <ele>533.71472167969</ele>
        <time>2019-05-01T10:17:57 0200</time>
      </trkpt>
      <trkpt lat="47.25424" lon="4.93014">
        <ele>533.70617675781</ele>
        <time>2019-05-01T10:17:54 0200</time>
      </trkpt>
      <trkpt lat="47.25424" lon="4.93014">
        <ele>533.69250488281</ele>
        <time>2019-05-01T10:17:51 0200</time>
      </trkpt>
      <trkpt lat="47.25424" lon="4.93014">
        <ele>533.67797851562</ele>
        <time>2019-05-01T10:17:48 0200</time>
      </trkpt>
      <trkpt lat="47.25424" lon="4.93014">
        <ele>533.6669921875</ele>
        <time>2019-05-01T10:17:45 0200</time>
      </trkpt>
      <trkpt lat="47.25424" lon="4.93014">
        <ele>533.65850830078</ele>
        <time>2019-05-01T10:17:42 0200</time>
      </trkpt>
      <trkpt lat="47.25424" lon="4.93014">
        <ele>533.65405273438</ele>
        <time>2019-05-01T10:17:39 0200</time>
      </trkpt>
      <trkpt lat="47.25424" lon="4.93013">
        <ele>533.65313720703</ele>
        <time>2019-05-01T10:17:36 0200</time>
      </trkpt>
      <trkpt lat="47.25424" lon="4.93013">
        <ele>533.65502929688</ele>
        <time>2019-05-01T10:17:33 0200</time>
      </trkpt>
      <trkpt lat="47.25424" lon="4.93013">
        <ele>533.65197753906</ele>
        <time>2019-05-01T10:17:30 0200</time>
      </trkpt>
      <trkpt lat="47.25424" lon="4.93012">
        <ele>533.63214111328</ele>
        <time>2019-05-01T10:17:27 0200</time>
      </trkpt>
      <trkpt lat="47.25424" lon="4.93012">
        <ele>533.62121582031</ele>
        <time>2019-05-01T10:17:24 0200</time>
      </trkpt>
      <trkpt lat="47.25424" lon="4.93012">
        <ele>533.61505126953</ele>
        <time>2019-05-01T10:17:21 0200</time>
      </trkpt>
      <trkpt lat="47.25424" lon="4.93012">
        <ele>533.62933349609</ele>
        <time>2019-05-01T10:17:18 0200</time>
      </trkpt>
      <trkpt lat="47.25424" lon="4.93012">
        <ele>533.6533203125</ele>
        <time>2019-05-01T10:17:15 0200</time>
      </trkpt>
      <trkpt lat="47.25424" lon="4.93012">
        <ele>533.67443847656</ele>
        <time>2019-05-01T10:17:12 0200</time>
      </trkpt>
      <trkpt lat="47.25424" lon="4.93012">
        <ele>533.70098876953</ele>
        <time>2019-05-01T10:17:09 0200</time>
      </trkpt>
      <trkpt lat="47.25424" lon="4.93013">
        <ele>533.74188232422</ele>
        <time>2019-05-01T10:17:06 0200</time>
      </trkpt>
      <trkpt lat="47.25424" lon="4.93013">
        <ele>533.78338623047</ele>
        <time>2019-05-01T10:17:03 0200</time>
      </trkpt>
      <trkpt lat="47.25424" lon="4.93013">
        <ele>533.81439208984</ele>
        <time>2019-05-01T10:17:00 0200</time>
      </trkpt>
      <trkpt lat="47.25425" lon="4.93013">
        <ele>533.85241699219</ele>
        <time>2019-05-01T10:16:57 0200</time>
      </trkpt>
      <trkpt lat="47.25425" lon="4.93013">
        <ele>533.89239501953</ele>
        <time>2019-05-01T10:16:54 0200</time>
      </trkpt>
      <trkpt lat="47.25425" lon="4.93012">
        <ele>533.92266845703</ele>
        <time>2019-05-01T10:16:51 0200</time>
      </trkpt>
      <trkpt lat="47.25426" lon="4.93011">
        <ele>533.95141601562</ele>
        <time>2019-05-01T10:16:48 0200</time>
      </trkpt>
      <trkpt lat="47.25426" lon="4.9301">
        <ele>533.97747802734</ele>
        <time>2019-05-01T10:16:45 0200</time>
      </trkpt>
      <trkpt lat="47.25426" lon="4.9301">
        <ele>534.00543212891</ele>
        <time>2019-05-01T10:16:42 0200</time>
      </trkpt>
      <trkpt lat="47.25426" lon="4.9301">
        <ele>534.02886962891</ele>
        <time>2019-05-01T10:16:39 0200</time>
      </trkpt>
      <trkpt lat="47.25426" lon="4.9301">
        <ele>534.03973388672</ele>
        <time>2019-05-01T10:16:36 0200</time>
      </trkpt>
      <trkpt lat="47.25426" lon="4.9301">
        <ele>534.03930664062</ele>
        <time>2019-05-01T10:16:33 0200</time>
      </trkpt>
      <trkpt lat="47.25426" lon="4.9301">
        <ele>534.03186035156</ele>
        <time>2019-05-01T10:16:30 0200</time>
      </trkpt>
      <trkpt lat="47.25426" lon="4.93011">
        <ele>534.01708984375</ele>
        <time>2019-05-01T10:16:27 0200</time>
      </trkpt>
      <trkpt lat="47.25426" lon="4.93011">
        <ele>534.00122070312</ele>
        <time>2019-05-01T10:16:24 0200</time>
      </trkpt>
      <trkpt lat="47.25425" lon="4.93011">
        <ele>533.98614501953</ele>
        <time>2019-05-01T10:16:21 0200</time>
      </trkpt>
      <trkpt lat="47.25425" lon="4.93011">
        <ele>533.96472167969</ele>
        <time>2019-05-01T10:16:18 0200</time>
      </trkpt>
      <trkpt lat="47.25425" lon="4.93011">
        <ele>533.94372558594</ele>
        <time>2019-05-01T10:16:15 0200</time>
      </trkpt>
      <trkpt lat="47.25424" lon="4.93011">
        <ele>533.92340087891</ele>
        <time>2019-05-01T10:16:12 0200</time>
      </trkpt>
      <trkpt lat="47.25424" lon="4.93012">
        <ele>533.89483642578</ele>
        <time>2019-05-01T10:16:09 0200</time>
      </trkpt>
      <trkpt lat="47.25424" lon="4.93012">
        <ele>533.8603515625</ele>
        <time>2019-05-01T10:16:06 0200</time>
      </trkpt>
      <trkpt lat="47.25423" lon="4.93012">
        <ele>533.82012939453</ele>
        <time>2019-05-01T10:16:03 0200</time>
      </trkpt>
      <trkpt lat="47.25423" lon="4.93012">
        <ele>533.765625</ele>
        <time>2019-05-01T10:16:00 0200</time>
      </trkpt>
      <trkpt lat="47.25423" lon="4.93012">
        <ele>533.71588134766</ele>
        <time>2019-05-01T10:15:57 0200</time>
      </trkpt>
      <trkpt lat="47.25423" lon="4.93012">
        <ele>533.67388916016</ele>
        <time>2019-05-01T10:15:53 0200</time>
      </trkpt>
      <trkpt lat="47.25423" lon="4.93012">
        <ele>533.64019775391</ele>
        <time>2019-05-01T10:15:50 0200</time>
      </trkpt>
      <trkpt lat="47.25423" lon="4.93013">
        <ele>533.61663818359</ele>
        <time>2019-05-01T10:15:47 0200</time>
      </trkpt>
      <trkpt lat="47.25423" lon="4.93013">
        <ele>533.58856201172</ele>
        <time>2019-05-01T10:15:44 0200</time>
      </trkpt>
      <trkpt lat="47.25423" lon="4.93012">
        <ele>533.55853271484</ele>
        <time>2019-05-01T10:15:41 0200</time>
      </trkpt>
      <trkpt lat="47.25423" lon="4.93012">
        <ele>533.52581787109</ele>
        <time>2019-05-01T10:15:38 0200</time>
      </trkpt>
      <trkpt lat="47.25422" lon="4.93012">
        <ele>533.50421142578</ele>
        <time>2019-05-01T10:15:35 0200</time>
      </trkpt>
      <trkpt lat="47.25423" lon="4.93012">
        <ele>533.49279785156</ele>
        <time>2019-05-01T10:15:32 0200</time>
      </trkpt>
      <trkpt lat="47.25423" lon="4.93011">
        <ele>533.49072265625</ele>
        <time>2019-05-01T10:15:29 0200</time>
      </trkpt>
      <trkpt lat="47.25423" lon="4.93011">
        <ele>533.49560546875</ele>
        <time>2019-05-01T10:15:26 0200</time>
      </trkpt>
      <trkpt lat="47.25423" lon="4.93011">
        <ele>533.50274658203</ele>
        <time>2019-05-01T10:15:23 0200</time>
      </trkpt>
      <trkpt lat="47.25423" lon="4.93011">
        <ele>533.51275634766</ele>
        <time>2019-05-01T10:15:20 0200</time>
      </trkpt>
      <trkpt lat="47.25423" lon="4.9301">
        <ele>533.52471923828</ele>
        <time>2019-05-01T10:15:17 0200</time>
      </trkpt>
      <trkpt lat="47.25423" lon="4.9301">
        <ele>533.53283691406</ele>
        <time>2019-05-01T10:15:14 0200</time>
      </trkpt>
      <trkpt lat="47.25423" lon="4.9301">
        <ele>533.53436279297</ele>
        <time>2019-05-01T10:15:11 0200</time>
      </trkpt>
      <trkpt lat="47.25424" lon="4.93009">
        <ele>533.53601074219</ele>
        <time>2019-05-01T10:15:08 0200</time>
      </trkpt>
      <trkpt lat="47.25424" lon="4.93009">
        <ele>533.54431152344</ele>
        <time>2019-05-01T10:15:05 0200</time>
      </trkpt>
      <trkpt lat="47.25424" lon="4.93009">
        <ele>533.55059814453</ele>
        <time>2019-05-01T10:15:02 0200</time>
      </trkpt>
      <trkpt lat="47.25425" lon="4.93009">
        <ele>533.55828857422</ele>
        <time>2019-05-01T10:14:59 0200</time>
      </trkpt>
      <trkpt lat="47.25425" lon="4.93009">
        <ele>533.56567382812</ele>
        <time>2019-05-01T10:14:56 0200</time>
      </trkpt>
      <trkpt lat="47.25425" lon="4.93009">
        <ele>533.5703125</ele>
        <time>2019-05-01T10:14:53 0200</time>
      </trkpt>
      <trkpt lat="47.25425" lon="4.93009">
        <ele>533.57202148438</ele>
        <time>2019-05-01T10:14:50 0200</time>
      </trkpt>
      <trkpt lat="47.25425" lon="4.93009">
        <ele>533.57672119141</ele>
        <time>2019-05-01T10:14:47 0200</time>
      </trkpt>
      <trkpt lat="47.25425" lon="4.93009">
        <ele>533.57647705078</ele>
        <time>2019-05-01T10:14:44 0200</time>
      </trkpt>
      <trkpt lat="47.25425" lon="4.93009">
        <ele>533.57281494141</ele>
        <time>2019-05-01T10:14:41 0200</time>
      </trkpt>
      <trkpt lat="47.25424" lon="4.93009">
        <ele>533.58129882812</ele>
        <time>2019-05-01T10:14:38 0200</time>
      </trkpt>
      <trkpt lat="47.25424" lon="4.9301">
        <ele>533.61413574219</ele>
        <time>2019-05-01T10:14:35 0200</time>
      </trkpt>
      <trkpt lat="47.25424" lon="4.9301">
        <ele>533.64886474609</ele>
        <time>2019-05-01T10:14:32 0200</time>
      </trkpt>
      <trkpt lat="47.25424" lon="4.9301">
        <ele>533.68054199219</ele>
        <time>2019-05-01T10:14:29 0200</time>
      </trkpt>
      <trkpt lat="47.25424" lon="4.9301">
        <ele>533.71069335938</ele>
        <time>2019-05-01T10:14:26 0200</time>
      </trkpt>
      <trkpt lat="47.25424" lon="4.93011">
        <ele>533.74810791016</ele>
        <time>2019-05-01T10:14:23 0200</time>
      </trkpt>
      <trkpt lat="47.25424" lon="4.93011">
        <ele>533.7841796875</ele>
        <time>2019-05-01T10:14:20 0200</time>
      </trkpt>
      <trkpt lat="47.25423" lon="4.93011">
        <ele>533.81567382812</ele>
        <time>2019-05-01T10:14:17 0200</time>
      </trkpt>
      <trkpt lat="47.25424" lon="4.93011">
        <ele>533.8359375</ele>
        <time>2019-05-01T10:14:14 0200</time>
      </trkpt>
      <trkpt lat="47.25424" lon="4.93011">
        <ele>533.84991455078</ele>
        <time>2019-05-01T10:14:11 0200</time>
      </trkpt>
      <trkpt lat="47.25424" lon="4.93011">
        <ele>533.87426757812</ele>
        <time>2019-05-01T10:14:08 0200</time>
      </trkpt>
      <trkpt lat="47.25424" lon="4.93011">
        <ele>533.92138671875</ele>
        <time>2019-05-01T10:14:05 0200</time>
      </trkpt>
      <trkpt lat="47.25424" lon="4.93011">
        <ele>533.9697265625</ele>
        <time>2019-05-01T10:14:02 0200</time>
      </trkpt>
      <trkpt lat="47.25424" lon="4.93012">
        <ele>534.01568603516</ele>
        <time>2019-05-01T10:13:59 0200</time>
      </trkpt>
      <trkpt lat="47.25424" lon="4.93012">
        <ele>534.06433105469</ele>
        <time>2019-05-01T10:13:56 0200</time>
      </trkpt>
      <trkpt lat="47.25424" lon="4.93013">
        <ele>534.10998535156</ele>
        <time>2019-05-01T10:13:53 0200</time>
      </trkpt>
      <trkpt lat="47.25424" lon="4.93013">
        <ele>534.14978027344</ele>
        <time>2019-05-01T10:13:50 0200</time>
      </trkpt>
      <trkpt lat="47.25424" lon="4.93014">
        <ele>534.1875</ele>
        <time>2019-05-01T10:13:47 0200</time>
      </trkpt>
      <trkpt lat="47.25424" lon="4.93014">
        <ele>534.21600341797</ele>
        <time>2019-05-01T10:13:44 0200</time>
      </trkpt>
      <trkpt lat="47.25424" lon="4.93014">
        <ele>534.23510742188</ele>
        <time>2019-05-01T10:13:41 0200</time>
      </trkpt>
      <trkpt lat="47.25424" lon="4.93015">
        <ele>534.54595947266</ele>
        <time>2019-05-01T10:13:38 0200</time>
      </trkpt>
      <trkpt lat="47.25425" lon="4.9302">
        <ele>534.95751953125</ele>
        <time>2019-05-01T10:13:35 0200</time>
      </trkpt>
      <trkpt lat="47.25424" lon="4.93018">
        <ele>535.32025146484</ele>
        <time>2019-05-01T10:13:32 0200</time>
      </trkpt>
      <trkpt lat="47.25424" lon="4.93018">
        <ele>535.38409423828</ele>
        <time>2019-05-01T10:13:29 0200</time>
      </trkpt>
      <trkpt lat="47.25424" lon="4.93018">
        <ele>535.42999267578</ele>
        <time>2019-05-01T10:13:26 0200</time>
      </trkpt>
      <trkpt lat="47.25424" lon="4.93018">
        <ele>535.49816894531</ele>
        <time>2019-05-01T10:13:23 0200</time>
      </trkpt>
      <trkpt lat="47.25424" lon="4.93018">
        <ele>535.58435058594</ele>
        <time>2019-05-01T10:13:20 0200</time>
      </trkpt>
      <trkpt lat="47.25424" lon="4.93018">
        <ele>535.65466308594</ele>
        <time>2019-05-01T10:13:17 0200</time>
      </trkpt>
      <trkpt lat="47.25424" lon="4.93018">
        <ele>535.71697998047</ele>
        <time>2019-05-01T10:13:14 0200</time>
      </trkpt>
      <trkpt lat="47.25424" lon="4.93018">
        <ele>535.79705810547</ele>
        <time>2019-05-01T10:13:11 0200</time>
      </trkpt>
      <trkpt lat="47.25424" lon="4.93018">
        <ele>535.88354492188</ele>
        <time>2019-05-01T10:13:08 0200</time>
      </trkpt>
      <trkpt lat="47.25424" lon="4.93018">
        <ele>535.951171875</ele>
        <time>2019-05-01T10:13:05 0200</time>
      </trkpt>
      <trkpt lat="47.25424" lon="4.93018">
        <ele>535.99884033203</ele>
        <time>2019-05-01T10:13:02 0200</time>
      </trkpt>
      <trkpt lat="47.25424" lon="4.93018">
        <ele>536.05102539062</ele>
        <time>2019-05-01T10:12:59 0200</time>
      </trkpt>
      <trkpt lat="47.25424" lon="4.93018">
        <ele>536.09545898438</ele>
        <time>2019-05-01T10:12:56 0200</time>
      </trkpt>
      <trkpt lat="47.25424" lon="4.93018">
        <ele>536.13110351562</ele>
        <time>2019-05-01T10:12:53 0200</time>
      </trkpt>
      <trkpt lat="47.25423" lon="4.93017">
        <ele>536.15423583984</ele>
        <time>2019-05-01T10:12:50 0200</time>
      </trkpt>
      <trkpt lat="47.25423" lon="4.93017">
        <ele>536.18719482422</ele>
        <time>2019-05-01T10:12:47 0200</time>
      </trkpt>
      <trkpt lat="47.25423" lon="4.93017">
        <ele>536.24237060547</ele>
        <time>2019-05-01T10:12:44 0200</time>
      </trkpt>
      <trkpt lat="47.25423" lon="4.93017">
        <ele>536.30230712891</ele>
        <time>2019-05-01T10:12:41 0200</time>
      </trkpt>
      <trkpt lat="47.25423" lon="4.93017">
        <ele>536.34802246094</ele>
        <time>2019-05-01T10:12:38 0200</time>
      </trkpt>
      <trkpt lat="47.25423" lon="4.93016">
        <ele>536.36303710938</ele>
        <time>2019-05-01T10:12:35 0200</time>
      </trkpt>
      <trkpt lat="47.25424" lon="4.93016">
        <ele>536.36608886719</ele>
        <time>2019-05-01T10:12:32 0200</time>
      </trkpt>
      <trkpt lat="47.25425" lon="4.93015">
        <ele>536.36535644531</ele>
        <time>2019-05-01T10:12:29 0200</time>
      </trkpt>
      <trkpt lat="47.25425" lon="4.93015">
        <ele>536.37292480469</ele>
        <time>2019-05-01T10:12:26 0200</time>
      </trkpt>
      <trkpt lat="47.25426" lon="4.93014">
        <ele>536.41131591797</ele>
        <time>2019-05-01T10:12:23 0200</time>
      </trkpt>
      <trkpt lat="47.25426" lon="4.93014">
        <ele>536.49334716797</ele>
        <time>2019-05-01T10:12:20 0200</time>
      </trkpt>
      <trkpt lat="47.25426" lon="4.93014">
        <ele>536.59185791016</ele>
        <time>2019-05-01T10:12:17 0200</time>
      </trkpt>
      <trkpt lat="47.25426" lon="4.93014">
        <ele>536.68835449219</ele>
        <time>2019-05-01T10:12:14 0200</time>
      </trkpt>
      <trkpt lat="47.25426" lon="4.93014">
        <ele>536.77435302734</ele>
        <time>2019-05-01T10:12:11 0200</time>
      </trkpt>
      <trkpt lat="47.25426" lon="4.93014">
        <ele>536.85095214844</ele>
        <time>2019-05-01T10:12:08 0200</time>
      </trkpt>
      <trkpt lat="47.25426" lon="4.93014">
        <ele>536.91741943359</ele>
        <time>2019-05-01T10:12:05 0200</time>
      </trkpt>
      <trkpt lat="47.25426" lon="4.93014">
        <ele>536.97406005859</ele>
        <time>2019-05-01T10:12:02 0200</time>
      </trkpt>
      <trkpt lat="47.25427" lon="4.93014">
        <ele>537.02117919922</ele>
        <time>2019-05-01T10:11:59 0200</time>
      </trkpt>
      <trkpt lat="47.25427" lon="4.93014">
        <ele>537.06085205078</ele>
        <time>2019-05-01T10:11:56 0200</time>
      </trkpt>
      <trkpt lat="47.25427" lon="4.93014">
        <ele>537.09912109375</ele>
        <time>2019-05-01T10:11:53 0200</time>
      </trkpt>
      <trkpt lat="47.25427" lon="4.93015">
        <ele>537.25842285156</ele>
        <time>2019-05-01T10:11:50 0200</time>
      </trkpt>
      <trkpt lat="47.25427" lon="4.93015">
        <ele>537.49194335938</ele>
        <time>2019-05-01T10:11:47 0200</time>
      </trkpt>
      <trkpt lat="47.25428" lon="4.93018">
        <ele>537.59399414062</ele>
        <time>2019-05-01T10:11:44 0200</time>
      </trkpt>
      <trkpt lat="47.25428" lon="4.93019">
        <ele>537.70367431641</ele>
        <time>2019-05-01T10:11:41 0200</time>
      </trkpt>
      <trkpt lat="47.25428" lon="4.9302">
        <ele>537.80657958984</ele>
        <time>2019-05-01T10:11:38 0200</time>
      </trkpt>
      <trkpt lat="47.25429" lon="4.93021">
        <ele>538.02551269531</ele>
        <time>2019-05-01T10:11:35 0200</time>
      </trkpt>
      <trkpt lat="47.25428" lon="4.93021">
        <ele>538.12261962891</ele>
        <time>2019-05-01T10:11:32 0200</time>
      </trkpt>
      <trkpt lat="47.25428" lon="4.93021">
        <ele>538.14831542969</ele>
        <time>2019-05-01T10:11:29 0200</time>
      </trkpt>
      <trkpt lat="47.25427" lon="4.93021">
        <ele>538.27032470703</ele>
        <time>2019-05-01T10:11:26 0200</time>
      </trkpt>
      <trkpt lat="47.25426" lon="4.93021">
        <ele>538.30078125</ele>
        <time>2019-05-01T10:11:23 0200</time>
      </trkpt>
      <trkpt lat="47.25426" lon="4.93021">
        <ele>538.33416748047</ele>
        <time>2019-05-01T10:11:20 0200</time>
      </trkpt>
      <trkpt lat="47.25427" lon="4.93021">
        <ele>538.36737060547</ele>
        <time>2019-05-01T10:11:17 0200</time>
      </trkpt>
      <trkpt lat="47.25427" lon="4.93021">
        <ele>538.39080810547</ele>
        <time>2019-05-01T10:11:14 0200</time>
      </trkpt>
      <trkpt lat="47.25428" lon="4.93021">
        <ele>538.39404296875</ele>
        <time>2019-05-01T10:11:11 0200</time>
      </trkpt>
      <trkpt lat="47.25428" lon="4.9302">
        <ele>538.38067626953</ele>
        <time>2019-05-01T10:11:08 0200</time>
      </trkpt>
      <trkpt lat="47.25427" lon="4.9302">
        <ele>538.38555908203</ele>
        <time>2019-05-01T10:11:05 0200</time>
      </trkpt>
      <trkpt lat="47.25427" lon="4.93019">
        <ele>538.42199707031</ele>
        <time>2019-05-01T10:11:02 0200</time>
      </trkpt>
      <trkpt lat="47.25427" lon="4.93019">
        <ele>538.47210693359</ele>
        <time>2019-05-01T10:10:59 0200</time>
      </trkpt>
      <trkpt lat="47.25427" lon="4.93018">
        <ele>538.52978515625</ele>
        <time>2019-05-01T10:10:56 0200</time>
      </trkpt>
      <trkpt lat="47.25426" lon="4.93021">
        <ele>539.0888671875</ele>
        <time>2019-05-01T10:10:53 0200</time>
      </trkpt>
      <trkpt lat="47.25426" lon="4.93027">
        <ele>539.52746582031</ele>
        <time>2019-05-01T10:10:50 0200</time>
      </trkpt>
      <trkpt lat="47.25426" lon="4.93031">
        <ele>539.53295898438</ele>
        <time>2019-05-01T10:10:47 0200</time>
      </trkpt>
      <trkpt lat="47.25425" lon="4.93035">
        <ele>539.1982421875</ele>
        <time>2019-05-01T10:10:44 0200</time>
      </trkpt>
      <trkpt lat="47.25425" lon="4.93038">
        <ele>538.77398681641</ele>
        <time>2019-05-01T10:10:41 0200</time>
      </trkpt>
      <trkpt lat="47.25425" lon="4.93042">
        <ele>538.31042480469</ele>
        <time>2019-05-01T10:10:38 0200</time>
      </trkpt>
      <trkpt lat="47.25426" lon="4.93045">
        <ele>537.86444091797</ele>
        <time>2019-05-01T10:10:35 0200</time>
      </trkpt>
      <trkpt lat="47.25425" lon="4.9305">
        <ele>537.39019775391</ele>
        <time>2019-05-01T10:10:32 0200</time>
      </trkpt>
      <trkpt lat="47.25425" lon="4.93052">
        <ele>536.85797119141</ele>
        <time>2019-05-01T10:10:29 0200</time>
      </trkpt>
      <trkpt lat="47.25426" lon="4.93055">
        <ele>536.39916992188</ele>
        <time>2019-05-01T10:10:26 0200</time>
      </trkpt>
      <trkpt lat="47.25426" lon="4.93059">
        <ele>536.04644775391</ele>
        <time>2019-05-01T10:10:23 0200</time>
      </trkpt>
      <trkpt lat="47.25427" lon="4.93063">
        <ele>535.70745849609</ele>
        <time>2019-05-01T10:10:20 0200</time>
      </trkpt>
      <trkpt lat="47.25427" lon="4.93067">
        <ele>535.34619140625</ele>
        <time>2019-05-01T10:10:17 0200</time>
      </trkpt>
      <trkpt lat="47.25427" lon="4.93072">
        <ele>535.01428222656</ele>
        <time>2019-05-01T10:10:14 0200</time>
      </trkpt>
      <trkpt lat="47.25426" lon="4.93075">
        <ele>534.66772460938</ele>
        <time>2019-05-01T10:10:11 0200</time>
      </trkpt>
      <trkpt lat="47.25426" lon="4.93079">
        <ele>534.48614501953</ele>
        <time>2019-05-01T10:10:08 0200</time>
      </trkpt>
      <trkpt lat="47.25424" lon="4.93084">
        <ele>534.08911132812</ele>
        <time>2019-05-01T10:10:05 0200</time>
      </trkpt>
      <trkpt lat="47.25423" lon="4.93087">
        <ele>533.78643798828</ele>
        <time>2019-05-01T10:10:02 0200</time>
      </trkpt>
      <trkpt lat="47.25423" lon="4.9309">
        <ele>533.51818847656</ele>
        <time>2019-05-01T10:09:59 0200</time>
      </trkpt>
      <trkpt lat="47.25422" lon="4.93092">
        <ele>533.21838378906</ele>
        <time>2019-05-01T10:09:56 0200</time>
      </trkpt>
      <trkpt lat="47.25419" lon="4.93095">
        <ele>533.06567382812</ele>
        <time>2019-05-01T10:09:53 0200</time>
      </trkpt>
      <trkpt lat="47.25418" lon="4.93096">
        <ele>533.08758544922</ele>
        <time>2019-05-01T10:09:50 0200</time>
      </trkpt>
      <trkpt lat="47.25416" lon="4.93098">
        <ele>533.19030761719</ele>
        <time>2019-05-01T10:09:47 0200</time>
      </trkpt>
      <trkpt lat="47.25412" lon="4.93103">
        <ele>533.33538818359</ele>
        <time>2019-05-01T10:09:44 0200</time>
      </trkpt>
      <trkpt lat="47.25408" lon="4.93106">
        <ele>533.599609375</ele>
        <time>2019-05-01T10:09:41 0200</time>
      </trkpt>
      <trkpt lat="47.25406" lon="4.93107">
        <ele>534.02331542969</ele>
        <time>2019-05-01T10:09:38 0200</time>
      </trkpt>
      <trkpt lat="47.25404" lon="4.93109">
        <ele>534.40533447266</ele>
        <time>2019-05-01T10:09:35 0200</time>
      </trkpt>
      <trkpt lat="47.25402" lon="4.93112">
        <ele>534.72772216797</ele>
        <time>2019-05-01T10:09:32 0200</time>
      </trkpt>
      <trkpt lat="47.25401" lon="4.93116">
        <ele>534.9658203125</ele>
        <time>2019-05-01T10:09:29 0200</time>
      </trkpt>
      <trkpt lat="47.25399" lon="4.9312">
        <ele>535.11773681641</ele>
        <time>2019-05-01T10:09:26 0200</time>
      </trkpt>
      <trkpt lat="47.25397" lon="4.93124">
        <ele>535.23687744141</ele>
        <time>2019-05-01T10:09:23 0200</time>
      </trkpt>
      <trkpt lat="47.25395" lon="4.93128">
        <ele>535.26025390625</ele>
        <time>2019-05-01T10:09:20 0200</time>
      </trkpt>
      <trkpt lat="47.25393" lon="4.93132">
        <ele>535.21575927734</ele>
        <time>2019-05-01T10:09:17 0200</time>
      </trkpt>
      <trkpt lat="47.25391" lon="4.93136">
        <ele>535.17376708984</ele>
        <time>2019-05-01T10:09:14 0200</time>
      </trkpt>
      <trkpt lat="47.2539" lon="4.93136">
        <ele>535.07446289062</ele>
        <time>2019-05-01T10:09:11 0200</time>
      </trkpt>
      <trkpt lat="47.2539" lon="4.9314">
        <ele>535.03216552734</ele>
        <time>2019-05-01T10:09:08 0200</time>
      </trkpt>
      <trkpt lat="47.25389" lon="4.93144">
        <ele>534.82073974609</ele>
        <time>2019-05-01T10:09:05 0200</time>
      </trkpt>
      <trkpt lat="47.25389" lon="4.93148">
        <ele>534.6044921875</ele>
        <time>2019-05-01T10:09:02 0200</time>
      </trkpt>
      <trkpt lat="47.2539" lon="4.93151">
        <ele>534.30255126953</ele>
        <time>2019-05-01T10:08:59 0200</time>
      </trkpt>
      <trkpt lat="47.25393" lon="4.93156">
        <ele>534.05554199219</ele>
        <time>2019-05-01T10:08:56 0200</time>
      </trkpt>
      <trkpt lat="47.25394" lon="4.93161">
        <ele>533.72576904297</ele>
        <time>2019-05-01T10:08:53 0200</time>
      </trkpt>
      <trkpt lat="47.25395" lon="4.93164">
        <ele>533.30432128906</ele>
        <time>2019-05-01T10:08:50 0200</time>
      </trkpt>
      <trkpt lat="47.25395" lon="4.93164">
        <ele>533.11480712891</ele>
        <time>2019-05-01T10:08:47 0200</time>
      </trkpt>
      <trkpt lat="47.25395" lon="4.93166">
        <ele>532.94219970703</ele>
        <time>2019-05-01T10:08:44 0200</time>
      </trkpt>
      <trkpt lat="47.25396" lon="4.9317">
        <ele>532.74334716797</ele>
        <time>2019-05-01T10:08:41 0200</time>
      </trkpt>
      <trkpt lat="47.25397" lon="4.93172">
        <ele>532.52392578125</ele>
        <time>2019-05-01T10:08:38 0200</time>
      </trkpt>
      <trkpt lat="47.25398" lon="4.93173">
        <ele>532.44348144531</ele>
        <time>2019-05-01T10:08:35 0200</time>
      </trkpt>
      <trkpt lat="47.25399" lon="4.93176">
        <ele>532.35192871094</ele>
        <time>2019-05-01T10:08:32 0200</time>
      </trkpt>
      <trkpt lat="47.254" lon="4.93179">
        <ele>532.18609619141</ele>
        <time>2019-05-01T10:08:29 0200</time>
      </trkpt>
      <trkpt lat="47.254" lon="4.93181">
        <ele>532.14990234375</ele>
        <time>2019-05-01T10:08:26 0200</time>
      </trkpt>
      <trkpt lat="47.25402" lon="4.93183">
        <ele>532.07104492188</ele>
        <time>2019-05-01T10:08:23 0200</time>
      </trkpt>
      <trkpt lat="47.25403" lon="4.93187">
        <ele>531.94519042969</ele>
        <time>2019-05-01T10:08:20 0200</time>
      </trkpt>
      <trkpt lat="47.25406" lon="4.93191">
        <ele>531.66339111328</ele>
        <time>2019-05-01T10:08:17 0200</time>
      </trkpt>
      <trkpt lat="47.25408" lon="4.93198">
        <ele>531.32928466797</ele>
        <time>2019-05-01T10:08:14 0200</time>
      </trkpt>
      <trkpt lat="47.25408" lon="4.93201">
        <ele>531.06823730469</ele>
        <time>2019-05-01T10:08:11 0200</time>
      </trkpt>
      <trkpt lat="47.25407" lon="4.93203">
        <ele>530.82525634766</ele>
        <time>2019-05-01T10:08:08 0200</time>
      </trkpt>
      <trkpt lat="47.25409" lon="4.93209">
        <ele>530.7236328125</ele>
        <time>2019-05-01T10:08:05 0200</time>
      </trkpt>
      <trkpt lat="47.25411" lon="4.93212">
        <ele>530.53698730469</ele>
        <time>2019-05-01T10:08:02 0200</time>
      </trkpt>
      <trkpt lat="47.25413" lon="4.93216">
        <ele>530.34075927734</ele>
        <time>2019-05-01T10:07:59 0200</time>
      </trkpt>
      <trkpt lat="47.25415" lon="4.93221">
        <ele>530.064453125</ele>
        <time>2019-05-01T10:07:56 0200</time>
      </trkpt>
      <trkpt lat="47.25416" lon="4.93223">
        <ele>529.75848388672</ele>
        <time>2019-05-01T10:07:53 0200</time>
      </trkpt>
      <trkpt lat="47.25416" lon="4.93229">
        <ele>529.36541748047</ele>
        <time>2019-05-01T10:07:50 0200</time>
      </trkpt>
      <trkpt lat="47.25415" lon="4.93237">
        <ele>528.88067626953</ele>
        <time>2019-05-01T10:07:47 0200</time>
      </trkpt>
      <trkpt lat="47.25412" lon="4.93241">
        <ele>528.35443115234</ele>
        <time>2019-05-01T10:07:44 0200</time>
      </trkpt>
      <trkpt lat="47.25413" lon="4.93243">
        <ele>528.32690429688</ele>
        <time>2019-05-01T10:07:41 0200</time>
      </trkpt>
      <trkpt lat="47.25416" lon="4.93246">
        <ele>528.12091064453</ele>
        <time>2019-05-01T10:07:38 0200</time>
      </trkpt>
      <trkpt lat="47.25417" lon="4.93249">
        <ele>528.02703857422</ele>
        <time>2019-05-01T10:07:35 0200</time>
      </trkpt>
      <trkpt lat="47.2542" lon="4.93252">
        <ele>527.87133789062</ele>
        <time>2019-05-01T10:07:32 0200</time>
      </trkpt>
      <trkpt lat="47.25421" lon="4.93254">
        <ele>527.56481933594</ele>
        <time>2019-05-01T10:07:29 0200</time>
      </trkpt>
      <trkpt lat="47.25423" lon="4.93258">
        <ele>527.51910400391</ele>
        <time>2019-05-01T10:07:26 0200</time>
      </trkpt>
      <trkpt lat="47.25423" lon="4.93261">
        <ele>527.16400146484</ele>
        <time>2019-05-01T10:07:23 0200</time>
      </trkpt>
      <trkpt lat="47.25423" lon="4.93263">
        <ele>527.10485839844</ele>
        <time>2019-05-01T10:07:20 0200</time>
      </trkpt>
      <trkpt lat="47.25423" lon="4.93266">
        <ele>526.66223144531</ele>
        <time>2019-05-01T10:07:17 0200</time>
      </trkpt>
      <trkpt lat="47.25424" lon="4.9327">
        <ele>526.11859130859</ele>
        <time>2019-05-01T10:07:14 0200</time>
      </trkpt>
      <trkpt lat="47.25425" lon="4.93274">
        <ele>525.77124023438</ele>
        <time>2019-05-01T10:07:11 0200</time>
      </trkpt>
      <trkpt lat="47.25425" lon="4.93277">
        <ele>525.17687988281</ele>
        <time>2019-05-01T10:07:08 0200</time>
      </trkpt>
      <trkpt lat="47.25426" lon="4.93282">
        <ele>524.47186279297</ele>
        <time>2019-05-01T10:07:05 0200</time>
      </trkpt>
      <trkpt lat="47.25427" lon="4.93287">
        <ele>523.66717529297</ele>
        <time>2019-05-01T10:07:02 0200</time>
      </trkpt>
      <trkpt lat="47.25427" lon="4.93291">
        <ele>522.82629394531</ele>
        <time>2019-05-01T10:06:59 0200</time>
      </trkpt>
      <trkpt lat="47.25429" lon="4.93294">
        <ele>522.130859375</ele>
        <time>2019-05-01T10:06:56 0200</time>
      </trkpt>
      <trkpt lat="47.25432" lon="4.93299">
        <ele>521.63043212891</ele>
        <time>2019-05-01T10:06:53 0200</time>
      </trkpt>
      <trkpt lat="47.25434" lon="4.93302">
        <ele>521.11688232422</ele>
        <time>2019-05-01T10:06:50 0200</time>
      </trkpt>
      <trkpt lat="47.25436" lon="4.93306">
        <ele>520.55438232422</ele>
        <time>2019-05-01T10:06:47 0200</time>
      </trkpt>
      <trkpt lat="47.25435" lon="4.93308">
        <ele>519.97686767578</ele>
        <time>2019-05-01T10:06:44 0200</time>
      </trkpt>
      <trkpt lat="47.25436" lon="4.93311">
        <ele>519.63409423828</ele>
        <time>2019-05-01T10:06:41 0200</time>
      </trkpt>
      <trkpt lat="47.25436" lon="4.93315">
        <ele>519.37738037109</ele>
        <time>2019-05-01T10:06:38 0200</time>
      </trkpt>
      <trkpt lat="47.25435" lon="4.93319">
        <ele>519.30102539062</ele>
        <time>2019-05-01T10:06:35 0200</time>
      </trkpt>
      <trkpt lat="47.25434" lon="4.9332">
        <ele>519.3837890625</ele>
        <time>2019-05-01T10:06:32 0200</time>
      </trkpt>
      <trkpt lat="47.25434" lon="4.93322">
        <ele>519.64001464844</ele>
        <time>2019-05-01T10:06:29 0200</time>
      </trkpt>
      <trkpt lat="47.25433" lon="4.93326">
        <ele>519.98962402344</ele>
        <time>2019-05-01T10:06:26 0200</time>
      </trkpt>
      <trkpt lat="47.25434" lon="4.93328">
        <ele>520.32165527344</ele>
        <time>2019-05-01T10:06:23 0200</time>
      </trkpt>
      <trkpt lat="47.25435" lon="4.93333">
        <ele>520.54962158203</ele>
        <time>2019-05-01T10:06:20 0200</time>
      </trkpt>
      <trkpt lat="47.25434" lon="4.93342">
        <ele>520.72302246094</ele>
        <time>2019-05-01T10:06:17 0200</time>
      </trkpt>
      <trkpt lat="47.25435" lon="4.93347">
        <ele>520.81781005859</ele>
        <time>2019-05-01T10:06:14 0200</time>
      </trkpt>
      <trkpt lat="47.25437" lon="4.93351">
        <ele>520.83575439453</ele>
        <time>2019-05-01T10:06:11 0200</time>
      </trkpt>
      <trkpt lat="47.25437" lon="4.93354">
        <ele>520.81072998047</ele>
        <time>2019-05-01T10:06:08 0200</time>
      </trkpt>
      <trkpt lat="47.25438" lon="4.93357">
        <ele>520.82946777344</ele>
        <time>2019-05-01T10:06:05 0200</time>
      </trkpt>
      <trkpt lat="47.25438" lon="4.9336">
        <ele>520.87646484375</ele>
        <time>2019-05-01T10:06:02 0200</time>
      </trkpt>
      <trkpt lat="47.25438" lon="4.93365">
        <ele>520.98004150391</ele>
        <time>2019-05-01T10:05:59 0200</time>
      </trkpt>
      <trkpt lat="47.25438" lon="4.93367">
        <ele>521.03131103516</ele>
        <time>2019-05-01T10:05:56 0200</time>
      </trkpt>
      <trkpt lat="47.25438" lon="4.9337">
        <ele>521.05859375</ele>
        <time>2019-05-01T10:05:53 0200</time>
      </trkpt>
      <trkpt lat="47.25438" lon="4.93374">
        <ele>520.95568847656</ele>
        <time>2019-05-01T10:05:50 0200</time>
      </trkpt>
      <trkpt lat="47.25438" lon="4.9338">
        <ele>520.73712158203</ele>
        <time>2019-05-01T10:05:47 0200</time>
      </trkpt>
      <trkpt lat="47.25438" lon="4.93383">
        <ele>520.57727050781</ele>
        <time>2019-05-01T10:05:44 0200</time>
      </trkpt>
      <trkpt lat="47.25436" lon="4.93384">
        <ele>520.53796386719</ele>
        <time>2019-05-01T10:05:41 0200</time>
      </trkpt>
      <trkpt lat="47.25436" lon="4.93386">
        <ele>520.55523681641</ele>
        <time>2019-05-01T10:05:38 0200</time>
      </trkpt>
      <trkpt lat="47.25435" lon="4.93389">
        <ele>520.51092529297</ele>
        <time>2019-05-01T10:05:35 0200</time>
      </trkpt>
      <trkpt lat="47.25435" lon="4.9339">
        <ele>520.58264160156</ele>
        <time>2019-05-01T10:05:32 0200</time>
      </trkpt>
      <trkpt lat="47.25436" lon="4.93394">
        <ele>520.64013671875</ele>
        <time>2019-05-01T10:05:29 0200</time>
      </trkpt>
      <trkpt lat="47.25439" lon="4.93401">
        <ele>520.62347412109</ele>
        <time>2019-05-01T10:05:26 0200</time>
      </trkpt>
      <trkpt lat="47.2544" lon="4.93407">
        <ele>520.50122070312</ele>
        <time>2019-05-01T10:05:23 0200</time>
      </trkpt>
      <trkpt lat="47.2544" lon="4.9341">
        <ele>520.24865722656</ele>
        <time>2019-05-01T10:05:20 0200</time>
      </trkpt>
      <trkpt lat="47.25441" lon="4.93414">
        <ele>519.87908935547</ele>
        <time>2019-05-01T10:05:17 0200</time>
      </trkpt>
      <trkpt lat="47.25441" lon="4.93418">
        <ele>519.42071533203</ele>
        <time>2019-05-01T10:05:14 0200</time>
      </trkpt>
      <trkpt lat="47.25441" lon="4.93422">
        <ele>518.84088134766</ele>
        <time>2019-05-01T10:05:11 0200</time>
      </trkpt>
      <trkpt lat="47.25442" lon="4.93426">
        <ele>518.31048583984</ele>
        <time>2019-05-01T10:05:08 0200</time>
      </trkpt>
      <trkpt lat="47.25441" lon="4.9343">
        <ele>517.84130859375</ele>
        <time>2019-05-01T10:05:05 0200</time>
      </trkpt>
      <trkpt lat="47.25441" lon="4.93433">
        <ele>517.45471191406</ele>
        <time>2019-05-01T10:05:02 0200</time>
      </trkpt>
      <trkpt lat="47.25442" lon="4.9344">
        <ele>517.00567626953</ele>
        <time>2019-05-01T10:04:59 0200</time>
      </trkpt>
      <trkpt lat="47.25441" lon="4.93442">
        <ele>516.8115234375</ele>
        <time>2019-05-01T10:04:56 0200</time>
      </trkpt>
      <trkpt lat="47.25442" lon="4.93446">
        <ele>516.30279541016</ele>
        <time>2019-05-01T10:04:53 0200</time>
      </trkpt>
      <trkpt lat="47.25441" lon="4.93449">
        <ele>515.80627441406</ele>
        <time>2019-05-01T10:04:50 0200</time>
      </trkpt>
      <trkpt lat="47.25442" lon="4.93451">
        <ele>515.38079833984</ele>
        <time>2019-05-01T10:04:47 0200</time>
      </trkpt>
      <trkpt lat="47.25442" lon="4.93453">
        <ele>515.06677246094</ele>
        <time>2019-05-01T10:04:44 0200</time>
      </trkpt>
      <trkpt lat="47.25443" lon="4.93458">
        <ele>514.85974121094</ele>
        <time>2019-05-01T10:04:41 0200</time>
      </trkpt>
      <trkpt lat="47.25444" lon="4.93463">
        <ele>514.89068603516</ele>
        <time>2019-05-01T10:04:38 0200</time>
      </trkpt>
      <trkpt lat="47.25443" lon="4.93467">
        <ele>514.90539550781</ele>
        <time>2019-05-01T10:04:35 0200</time>
      </trkpt>
      <trkpt lat="47.25443" lon="4.93471">
        <ele>514.94592285156</ele>
        <time>2019-05-01T10:04:32 0200</time>
      </trkpt>
      <trkpt lat="47.25441" lon="4.93477">
        <ele>515.00067138672</ele>
        <time>2019-05-01T10:04:29 0200</time>
      </trkpt>
      <trkpt lat="47.2544" lon="4.93482">
        <ele>514.95135498047</ele>
        <time>2019-05-01T10:04:26 0200</time>
      </trkpt>
      <trkpt lat="47.2544" lon="4.93486">
        <ele>514.81243896484</ele>
        <time>2019-05-01T10:04:23 0200</time>
      </trkpt>
      <trkpt lat="47.25439" lon="4.93487">
        <ele>514.61657714844</ele>
        <time>2019-05-01T10:04:20 0200</time>
      </trkpt>
      <trkpt lat="47.25439" lon="4.93491">
        <ele>514.62231445312</ele>
        <time>2019-05-01T10:04:17 0200</time>
      </trkpt>
      <trkpt lat="47.2544" lon="4.93494">
        <ele>514.67926025391</ele>
        <time>2019-05-01T10:04:14 0200</time>
      </trkpt>
      <trkpt lat="47.25441" lon="4.935">
        <ele>514.72521972656</ele>
        <time>2019-05-01T10:04:11 0200</time>
      </trkpt>
      <trkpt lat="47.25442" lon="4.93505">
        <ele>514.78552246094</ele>
        <time>2019-05-01T10:04:08 0200</time>
      </trkpt>
      <trkpt lat="47.25445" lon="4.93512">
        <ele>514.83575439453</ele>
        <time>2019-05-01T10:04:05 0200</time>
      </trkpt>
      <trkpt lat="47.25445" lon="4.93516">
        <ele>514.85461425781</ele>
        <time>2019-05-01T10:04:02 0200</time>
      </trkpt>
      <trkpt lat="47.25445" lon="4.93519">
        <ele>514.876953125</ele>
        <time>2019-05-01T10:03:59 0200</time>
      </trkpt>
      <trkpt lat="47.25446" lon="4.93524">
        <ele>514.84350585938</ele>
        <time>2019-05-01T10:03:56 0200</time>
      </trkpt>
      <trkpt lat="47.25447" lon="4.93527">
        <ele>514.84631347656</ele>
        <time>2019-05-01T10:03:53 0200</time>
      </trkpt>
      <trkpt lat="47.25446" lon="4.9353">
        <ele>514.91729736328</ele>
        <time>2019-05-01T10:03:50 0200</time>
      </trkpt>
      <trkpt lat="47.25444" lon="4.93534">
        <ele>514.87780761719</ele>
        <time>2019-05-01T10:03:47 0200</time>
      </trkpt>
      <trkpt lat="47.25443" lon="4.93537">
        <ele>514.77587890625</ele>
        <time>2019-05-01T10:03:44 0200</time>
      </trkpt>
      <trkpt lat="47.25443" lon="4.9354">
        <ele>514.74774169922</ele>
        <time>2019-05-01T10:03:41 0200</time>
      </trkpt>
      <trkpt lat="47.25444" lon="4.93544">
        <ele>514.75366210938</ele>
        <time>2019-05-01T10:03:38 0200</time>
      </trkpt>
      <trkpt lat="47.25444" lon="4.93547">
        <ele>514.75579833984</ele>
        <time>2019-05-01T10:03:35 0200</time>
      </trkpt>
      <trkpt lat="47.25445" lon="4.93551">
        <ele>514.75128173828</ele>
        <time>2019-05-01T10:03:32 0200</time>
      </trkpt>
      <trkpt lat="47.25447" lon="4.93554">
        <ele>514.76849365234</ele>
        <time>2019-05-01T10:03:29 0200</time>
      </trkpt>
      <trkpt lat="47.25448" lon="4.93559">
        <ele>514.79138183594</ele>
        <time>2019-05-01T10:03:27 0200</time>
      </trkpt>
      <trkpt lat="47.25449" lon="4.93564">
        <ele>514.77252197266</ele>
        <time>2019-05-01T10:03:24 0200</time>
      </trkpt>
      <trkpt lat="47.25449" lon="4.93571">
        <ele>514.62786865234</ele>
        <time>2019-05-01T10:03:21 0200</time>
      </trkpt>
      <trkpt lat="47.25449" lon="4.93575">
        <ele>514.36029052734</ele>
        <time>2019-05-01T10:03:18 0200</time>
      </trkpt>
      <trkpt lat="47.25448" lon="4.9358">
        <ele>514.07067871094</ele>
        <time>2019-05-01T10:03:15 0200</time>
      </trkpt>
      <trkpt lat="47.25447" lon="4.93583">
        <ele>513.80804443359</ele>
        <time>2019-05-01T10:03:12 0200</time>
      </trkpt>
      <trkpt lat="47.25446" lon="4.93587">
        <ele>513.56842041016</ele>
        <time>2019-05-01T10:03:09 0200</time>
      </trkpt>
      <trkpt lat="47.25446" lon="4.9359">
        <ele>513.54772949219</ele>
        <time>2019-05-01T10:03:06 0200</time>
      </trkpt>
      <trkpt lat="47.25446" lon="4.93594">
        <ele>513.42559814453</ele>
        <time>2019-05-01T10:03:03 0200</time>
      </trkpt>
      <trkpt lat="47.25447" lon="4.93599">
        <ele>513.19543457031</ele>
        <time>2019-05-01T10:03:00 0200</time>
      </trkpt>
      <trkpt lat="47.25446" lon="4.93603">
        <ele>512.85821533203</ele>
        <time>2019-05-01T10:02:57 0200</time>
      </trkpt>
      <trkpt lat="47.25447" lon="4.93607">
        <ele>512.44549560547</ele>
        <time>2019-05-01T10:02:54 0200</time>
      </trkpt>
      <trkpt lat="47.25448" lon="4.93612">
        <ele>512.0263671875</ele>
        <time>2019-05-01T10:02:51 0200</time>
      </trkpt>
      <trkpt lat="47.25448" lon="4.93614">
        <ele>511.6985168457</ele>
        <time>2019-05-01T10:02:48 0200</time>
      </trkpt>
      <trkpt lat="47.25449" lon="4.93616">
        <ele>511.48788452148</ele>
        <time>2019-05-01T10:02:45 0200</time>
      </trkpt>
      <trkpt lat="47.25449" lon="4.93619">
        <ele>511.37197875977</ele>
        <time>2019-05-01T10:02:42 0200</time>
      </trkpt>
      <trkpt lat="47.25451" lon="4.93622">
        <ele>511.26516723633</ele>
        <time>2019-05-01T10:02:39 0200</time>
      </trkpt>
      <trkpt lat="47.25451" lon="4.93627">
        <ele>511.12557983398</ele>
        <time>2019-05-01T10:02:36 0200</time>
      </trkpt>
      <trkpt lat="47.2545" lon="4.93631">
        <ele>510.8166809082</ele>
        <time>2019-05-01T10:02:33 0200</time>
      </trkpt>
      <trkpt lat="47.25451" lon="4.93635">
        <ele>510.53768920898</ele>
        <time>2019-05-01T10:02:30 0200</time>
      </trkpt>
      <trkpt lat="47.25451" lon="4.93639">
        <ele>509.98422241211</ele>
        <time>2019-05-01T10:02:27 0200</time>
      </trkpt>
      <trkpt lat="47.25451" lon="4.93643">
        <ele>509.3512878418</ele>
        <time>2019-05-01T10:02:24 0200</time>
      </trkpt>
      <trkpt lat="47.25452" lon="4.9365">
        <ele>508.76651000977</ele>
        <time>2019-05-01T10:02:21 0200</time>
      </trkpt>
      <trkpt lat="47.25453" lon="4.93654">
        <ele>508.04092407227</ele>
        <time>2019-05-01T10:02:18 0200</time>
      </trkpt>
      <trkpt lat="47.25453" lon="4.93657">
        <ele>507.30838012695</ele>
        <time>2019-05-01T10:02:15 0200</time>
      </trkpt>
      <trkpt lat="47.25453" lon="4.93659">
        <ele>506.92568969727</ele>
        <time>2019-05-01T10:02:12 0200</time>
      </trkpt>
      <trkpt lat="47.25453" lon="4.93662">
        <ele>506.51321411133</ele>
        <time>2019-05-01T10:02:09 0200</time>
      </trkpt>
      <trkpt lat="47.25452" lon="4.93664">
        <ele>506.29409790039</ele>
        <time>2019-05-01T10:02:06 0200</time>
      </trkpt>
      <trkpt lat="47.2545" lon="4.93668">
        <ele>506.25131225586</ele>
        <time>2019-05-01T10:02:03 0200</time>
      </trkpt>
      <trkpt lat="47.25449" lon="4.93673">
        <ele>506.12033081055</ele>
        <time>2019-05-01T10:02:00 0200</time>
      </trkpt>
      <trkpt lat="47.25447" lon="4.93679">
        <ele>506.03903198242</ele>
        <time>2019-05-01T10:01:57 0200</time>
      </trkpt>
      <trkpt lat="47.25448" lon="4.93682">
        <ele>506.10971069336</ele>
        <time>2019-05-01T10:01:54 0200</time>
      </trkpt>
      <trkpt lat="47.25446" lon="4.93688">
        <ele>506.0934753418</ele>
        <time>2019-05-01T10:01:51 0200</time>
      </trkpt>
      <trkpt lat="47.25447" lon="4.93694">
        <ele>505.86514282227</ele>
        <time>2019-05-01T10:01:48 0200</time>
      </trkpt>
      <trkpt lat="47.25447" lon="4.93698">
        <ele>505.67111206055</ele>
        <time>2019-05-01T10:01:45 0200</time>
      </trkpt>
      <trkpt lat="47.25448" lon="4.93702">
        <ele>505.54293823242</ele>
        <time>2019-05-01T10:01:42 0200</time>
      </trkpt>
      <trkpt lat="47.25448" lon="4.93706">
        <ele>505.45309448242</ele>
        <time>2019-05-01T10:01:39 0200</time>
      </trkpt>
      <trkpt lat="47.25448" lon="4.93709">
        <ele>505.35873413086</ele>
        <time>2019-05-01T10:01:36 0200</time>
      </trkpt>
      <trkpt lat="47.25448" lon="4.93712">
        <ele>505.31845092773</ele>
        <time>2019-05-01T10:01:33 0200</time>
      </trkpt>
      <trkpt lat="47.25447" lon="4.93712">
        <ele>505.39559936523</ele>
        <time>2019-05-01T10:01:30 0200</time>
      </trkpt>
      <trkpt lat="47.25446" lon="4.93715">
        <ele>505.63931274414</ele>
        <time>2019-05-01T10:01:27 0200</time>
      </trkpt>
      <trkpt lat="47.25445" lon="4.93719">
        <ele>505.93228149414</ele>
        <time>2019-05-01T10:01:24 0200</time>
      </trkpt>
      <trkpt lat="47.25443" lon="4.93722">
        <ele>506.16647338867</ele>
        <time>2019-05-01T10:01:21 0200</time>
      </trkpt>
      <trkpt lat="47.25441" lon="4.93724">
        <ele>506.30117797852</ele>
        <time>2019-05-01T10:01:18 0200</time>
      </trkpt>
      <trkpt lat="47.2544" lon="4.9373">
        <ele>506.47805786133</ele>
        <time>2019-05-01T10:01:15 0200</time>
      </trkpt>
      <trkpt lat="47.25442" lon="4.93734">
        <ele>506.65432739258</ele>
        <time>2019-05-01T10:01:12 0200</time>
      </trkpt>
      <trkpt lat="47.25442" lon="4.93734">
        <ele>506.86721801758</ele>
        <time>2019-05-01T10:01:09 0200</time>
      </trkpt>
      <trkpt lat="47.25444" lon="4.93732">
        <ele>507.08926391602</ele>
        <time>2019-05-01T10:01:06 0200</time>
      </trkpt>
      <trkpt lat="47.25445" lon="4.93739">
        <ele>507.16500854492</ele>
        <time>2019-05-01T10:01:03 0200</time>
      </trkpt>
      <trkpt lat="47.25448" lon="4.93746">
        <ele>506.80386352539</ele>
        <time>2019-05-01T10:01:00 0200</time>
      </trkpt>
      <trkpt lat="47.2545" lon="4.9375">
        <ele>506.62551879883</ele>
        <time>2019-05-01T10:00:57 0200</time>
      </trkpt>
      <trkpt lat="47.25448" lon="4.93752">
        <ele>506.14614868164</ele>
        <time>2019-05-01T10:00:54 0200</time>
      </trkpt>
      <trkpt lat="47.25448" lon="4.93753">
        <ele>505.94564819336</ele>
        <time>2019-05-01T10:00:51 0200</time>
      </trkpt>
      <trkpt lat="47.25449" lon="4.93756">
        <ele>505.89291381836</ele>
        <time>2019-05-01T10:00:48 0200</time>
      </trkpt>
      <trkpt lat="47.25449" lon="4.93758">
        <ele>505.88674926758</ele>
        <time>2019-05-01T10:00:45 0200</time>
      </trkpt>
      <trkpt lat="47.25451" lon="4.93761">
        <ele>506.02700805664</ele>
        <time>2019-05-01T10:00:42 0200</time>
      </trkpt>
      <trkpt lat="47.25451" lon="4.93764">
        <ele>506.19705200195</ele>
        <time>2019-05-01T10:00:39 0200</time>
      </trkpt>
      <trkpt lat="47.25452" lon="4.93769">
        <ele>506.37045288086</ele>
        <time>2019-05-01T10:00:36 0200</time>
      </trkpt>
      <trkpt lat="47.25453" lon="4.93772">
        <ele>506.47744750977</ele>
        <time>2019-05-01T10:00:33 0200</time>
      </trkpt>
      <trkpt lat="47.25453" lon="4.93779">
        <ele>506.56045532227</ele>
        <time>2019-05-01T10:00:30 0200</time>
      </trkpt>
      <trkpt lat="47.25453" lon="4.93783">
        <ele>506.42526245117</ele>
        <time>2019-05-01T10:00:27 0200</time>
      </trkpt>
      <trkpt lat="47.25452" lon="4.93786">
        <ele>506.1340637207</ele>
        <time>2019-05-01T10:00:24 0200</time>
      </trkpt>
      <trkpt lat="47.25452" lon="4.93793">
        <ele>505.72714233398</ele>
        <time>2019-05-01T10:00:21 0200</time>
      </trkpt>
      <trkpt lat="47.2545" lon="4.93798">
        <ele>505.10287475586</ele>
        <time>2019-05-01T10:00:18 0200</time>
      </trkpt>
      <trkpt lat="47.25449" lon="4.93802">
        <ele>504.38833618164</ele>
        <time>2019-05-01T10:00:15 0200</time>
      </trkpt>
      <trkpt lat="47.25448" lon="4.93809">
        <ele>503.65982055664</ele>
        <time>2019-05-01T10:00:12 0200</time>
      </trkpt>
      <trkpt lat="47.25449" lon="4.9381">
        <ele>503.15560913086</ele>
        <time>2019-05-01T10:00:09 0200</time>
      </trkpt>
      <trkpt lat="47.25449" lon="4.93815">
        <ele>502.52590942383</ele>
        <time>2019-05-01T10:00:06 0200</time>
      </trkpt>
      <trkpt lat="47.25448" lon="4.9382">
        <ele>501.85195922852</ele>
        <time>2019-05-01T10:00:03 0200</time>
      </trkpt>
      <trkpt lat="47.25446" lon="4.93823">
        <ele>501.20022583008</ele>
        <time>2019-05-01T10:00:00 0200</time>
      </trkpt>
      <trkpt lat="47.25446" lon="4.93826">
        <ele>500.65969848633</ele>
        <time>2019-05-01T09:59:57 0200</time>
      </trkpt>
      <trkpt lat="47.25444" lon="4.93831">
        <ele>500.29763793945</ele>
        <time>2019-05-01T09:59:54 0200</time>
      </trkpt>
      <trkpt lat="47.25444" lon="4.93834">
        <ele>500.06356811523</ele>
        <time>2019-05-01T09:59:51 0200</time>
      </trkpt>
      <trkpt lat="47.25442" lon="4.93835">
        <ele>499.97122192383</ele>
        <time>2019-05-01T09:59:48 0200</time>
      </trkpt>
      <trkpt lat="47.25441" lon="4.93837">
        <ele>500.00747680664</ele>
        <time>2019-05-01T09:59:45 0200</time>
      </trkpt>
      <trkpt lat="47.25439" lon="4.93842">
        <ele>500.29391479492</ele>
        <time>2019-05-01T09:59:42 0200</time>
      </trkpt>
      <trkpt lat="47.2544" lon="4.93844">
        <ele>500.7424621582</ele>
        <time>2019-05-01T09:59:39 0200</time>
      </trkpt>
      <trkpt lat="47.25439" lon="4.93849">
        <ele>501.14468383789</ele>
        <time>2019-05-01T09:59:36 0200</time>
      </trkpt>
      <trkpt lat="47.25437" lon="4.93853">
        <ele>501.39431762695</ele>
        <time>2019-05-01T09:59:33 0200</time>
      </trkpt>
      <trkpt lat="47.25436" lon="4.93857">
        <ele>501.52407836914</ele>
        <time>2019-05-01T09:59:30 0200</time>
      </trkpt>
      <trkpt lat="47.25437" lon="4.93858">
        <ele>501.75875854492</ele>
        <time>2019-05-01T09:59:27 0200</time>
      </trkpt>
      <trkpt lat="47.25437" lon="4.93862">
        <ele>502.10238647461</ele>
        <time>2019-05-01T09:59:24 0200</time>
      </trkpt>
      <trkpt lat="47.25437" lon="4.93864">
        <ele>502.44290161133</ele>
        <time>2019-05-01T09:59:21 0200</time>
      </trkpt>
      <trkpt lat="47.25436" lon="4.93869">
        <ele>502.6965637207</ele>
        <time>2019-05-01T09:59:18 0200</time>
      </trkpt>
      <trkpt lat="47.25434" lon="4.93876">
        <ele>502.8249206543</ele>
        <time>2019-05-01T09:59:15 0200</time>
      </trkpt>
      <trkpt lat="47.25432" lon="4.93886">
        <ele>502.73135375977</ele>
        <time>2019-05-01T09:59:12 0200</time>
      </trkpt>
      <trkpt lat="47.25431" lon="4.93891">
        <ele>502.60263061523</ele>
        <time>2019-05-01T09:59:09 0200</time>
      </trkpt>
      <trkpt lat="47.2543" lon="4.93892">
        <ele>502.5173034668</ele>
        <time>2019-05-01T09:59:06 0200</time>
      </trkpt>
      <trkpt lat="47.25429" lon="4.93896">
        <ele>502.5221862793</ele>
        <time>2019-05-01T09:59:03 0200</time>
      </trkpt>
      <trkpt lat="47.25428" lon="4.939">
        <ele>502.63772583008</ele>
        <time>2019-05-01T09:59:00 0200</time>
      </trkpt>
      <trkpt lat="47.25426" lon="4.93906">
        <ele>502.67404174805</ele>
        <time>2019-05-01T09:58:57 0200</time>
      </trkpt>
      <trkpt lat="47.25425" lon="4.93908">
        <ele>502.4342956543</ele>
        <time>2019-05-01T09:58:54 0200</time>
      </trkpt>
      <trkpt lat="47.25423" lon="4.93912">
        <ele>502.05770874023</ele>
        <time>2019-05-01T09:58:51 0200</time>
      </trkpt>
      <trkpt lat="47.25424" lon="4.93913">
        <ele>501.66500854492</ele>
        <time>2019-05-01T09:58:48 0200</time>
      </trkpt>
      <trkpt lat="47.25425" lon="4.93914">
        <ele>501.35452270508</ele>
        <time>2019-05-01T09:58:45 0200</time>
      </trkpt>
      <trkpt lat="47.25426" lon="4.93918">
        <ele>500.91928100586</ele>
        <time>2019-05-01T09:58:42 0200</time>
      </trkpt>
      <trkpt lat="47.25424" lon="4.93923">
        <ele>500.15036010742</ele>
        <time>2019-05-01T09:58:39 0200</time>
      </trkpt>
      <trkpt lat="47.25423" lon="4.93924">
        <ele>499.59719848633</ele>
        <time>2019-05-01T09:58:36 0200</time>
      </trkpt>
      <trkpt lat="47.25421" lon="4.93927">
        <ele>498.86196899414</ele>
        <time>2019-05-01T09:58:33 0200</time>
      </trkpt>
      <trkpt lat="47.25421" lon="4.93928">
        <ele>498.33096313477</ele>
        <time>2019-05-01T09:58:30 0200</time>
      </trkpt>
      <trkpt lat="47.25421" lon="4.93927">
        <ele>498.26388549805</ele>
        <time>2019-05-01T09:58:27 0200</time>
      </trkpt>
      <trkpt lat="47.25421" lon="4.93927">
        <ele>498.22909545898</ele>
        <time>2019-05-01T09:58:24 0200</time>
      </trkpt>
      <trkpt lat="47.25421" lon="4.93927">
        <ele>498.24087524414</ele>
        <time>2019-05-01T09:58:21 0200</time>
      </trkpt>
      <trkpt lat="47.25421" lon="4.9393">
        <ele>498.60531616211</ele>
        <time>2019-05-01T09:58:18 0200</time>
      </trkpt>
      <trkpt lat="47.2542" lon="4.93935">
        <ele>498.80819702148</ele>
        <time>2019-05-01T09:58:15 0200</time>
      </trkpt>
      <trkpt lat="47.2542" lon="4.93939">
        <ele>498.73910522461</ele>
        <time>2019-05-01T09:58:12 0200</time>
      </trkpt>
      <trkpt lat="47.2542" lon="4.93944">
        <ele>498.47866821289</ele>
        <time>2019-05-01T09:58:09 0200</time>
      </trkpt>
      <trkpt lat="47.2542" lon="4.93947">
        <ele>498.27670288086</ele>
        <time>2019-05-01T09:58:06 0200</time>
      </trkpt>
      <trkpt lat="47.2542" lon="4.9395">
        <ele>498.21115112305</ele>
        <time>2019-05-01T09:58:03 0200</time>
      </trkpt>
      <trkpt lat="47.25422" lon="4.93952">
        <ele>498.25094604492</ele>
        <time>2019-05-01T09:58:00 0200</time>
      </trkpt>
      <trkpt lat="47.25422" lon="4.93956">
        <ele>498.35269165039</ele>
        <time>2019-05-01T09:57:57 0200</time>
      </trkpt>
      <trkpt lat="47.25421" lon="4.93959">
        <ele>498.48013305664</ele>
        <time>2019-05-01T09:57:54 0200</time>
      </trkpt>
      <trkpt lat="47.25421" lon="4.93964">
        <ele>498.55709838867</ele>
        <time>2019-05-01T09:57:51 0200</time>
      </trkpt>
      <trkpt lat="47.25421" lon="4.93968">
        <ele>498.60067749023</ele>
        <time>2019-05-01T09:57:48 0200</time>
      </trkpt>
      <trkpt lat="47.25422" lon="4.93974">
        <ele>498.71047973633</ele>
        <time>2019-05-01T09:57:45 0200</time>
      </trkpt>
      <trkpt lat="47.25421" lon="4.93978">
        <ele>498.6940612793</ele>
        <time>2019-05-01T09:57:42 0200</time>
      </trkpt>
      <trkpt lat="47.25422" lon="4.93983">
        <ele>498.51541137695</ele>
        <time>2019-05-01T09:57:39 0200</time>
      </trkpt>
      <trkpt lat="47.25421" lon="4.93989">
        <ele>498.25131225586</ele>
        <time>2019-05-01T09:57:36 0200</time>
      </trkpt>
      <trkpt lat="47.2542" lon="4.93993">
        <ele>497.95327758789</ele>
        <time>2019-05-01T09:57:33 0200</time>
      </trkpt>
      <trkpt lat="47.25419" lon="4.93998">
        <ele>497.63027954102</ele>
        <time>2019-05-01T09:57:30 0200</time>
      </trkpt>
      <trkpt lat="47.25418" lon="4.94002">
        <ele>497.26010131836</ele>
        <time>2019-05-01T09:57:27 0200</time>
      </trkpt>
      <trkpt lat="47.25417" lon="4.94005">
        <ele>496.8219909668</ele>
        <time>2019-05-01T09:57:24 0200</time>
      </trkpt>
      <trkpt lat="47.25416" lon="4.94008">
        <ele>496.33535766602</ele>
        <time>2019-05-01T09:57:21 0200</time>
      </trkpt>
      <trkpt lat="47.25416" lon="4.94011">
        <ele>495.80648803711</ele>
        <time>2019-05-01T09:57:18 0200</time>
      </trkpt>
      <trkpt lat="47.25416" lon="4.94013">
        <ele>495.40591430664</ele>
        <time>2019-05-01T09:57:15 0200</time>
      </trkpt>
      <trkpt lat="47.25415" lon="4.94016">
        <ele>494.81625366211</ele>
        <time>2019-05-01T09:57:12 0200</time>
      </trkpt>
      <trkpt lat="47.25414" lon="4.94019">
        <ele>494.26895141602</ele>
        <time>2019-05-01T09:57:09 0200</time>
      </trkpt>
      <trkpt lat="47.25412" lon="4.94022">
        <ele>493.79013061523</ele>
        <time>2019-05-01T09:57:06 0200</time>
      </trkpt>
      <trkpt lat="47.25411" lon="4.94024">
        <ele>493.38284301758</ele>
        <time>2019-05-01T09:57:03 0200</time>
      </trkpt>
      <trkpt lat="47.2541" lon="4.94028">
        <ele>493.03005981445</ele>
        <time>2019-05-01T09:57:00 0200</time>
      </trkpt>
      <trkpt lat="47.25409" lon="4.94032">
        <ele>492.67306518555</ele>
        <time>2019-05-01T09:56:57 0200</time>
      </trkpt>
      <trkpt lat="47.25408" lon="4.94036">
        <ele>492.30484008789</ele>
        <time>2019-05-01T09:56:54 0200</time>
      </trkpt>
      <trkpt lat="47.25407" lon="4.94038">
        <ele>492.03463745117</ele>
        <time>2019-05-01T09:56:51 0200</time>
      </trkpt>
      <trkpt lat="47.25407" lon="4.94042">
        <ele>491.6335144043</ele>
        <time>2019-05-01T09:56:48 0200</time>
      </trkpt>
      <trkpt lat="47.25406" lon="4.94044">
        <ele>491.22573852539</ele>
        <time>2019-05-01T09:56:45 0200</time>
      </trkpt>
      <trkpt lat="47.25405" lon="4.94046">
        <ele>490.86349487305</ele>
        <time>2019-05-01T09:56:42 0200</time>
      </trkpt>
      <trkpt lat="47.25403" lon="4.94049">
        <ele>490.54666137695</ele>
        <time>2019-05-01T09:56:39 0200</time>
      </trkpt>
      <trkpt lat="47.25403" lon="4.94052">
        <ele>490.34683227539</ele>
        <time>2019-05-01T09:56:36 0200</time>
      </trkpt>
      <trkpt lat="47.25402" lon="4.94056">
        <ele>490.07327270508</ele>
        <time>2019-05-01T09:56:33 0200</time>
      </trkpt>
      <trkpt lat="47.25401" lon="4.94057">
        <ele>489.85012817383</ele>
        <time>2019-05-01T09:56:30 0200</time>
      </trkpt>
      <trkpt lat="47.25401" lon="4.94059">
        <ele>489.76693725586</ele>
        <time>2019-05-01T09:56:27 0200</time>
      </trkpt>
      <trkpt lat="47.25401" lon="4.9406">
        <ele>489.68905639648</ele>
        <time>2019-05-01T09:56:24 0200</time>
      </trkpt>
      <trkpt lat="47.254" lon="4.94061">
        <ele>489.54043579102</ele>
        <time>2019-05-01T09:56:21 0200</time>
      </trkpt>
      <trkpt lat="47.25399" lon="4.94061">
        <ele>489.44186401367</ele>
        <time>2019-05-01T09:56:18 0200</time>
      </trkpt>
      <trkpt lat="47.25399" lon="4.94062">
        <ele>489.40335083008</ele>
        <time>2019-05-01T09:56:15 0200</time>
      </trkpt>
      <trkpt lat="47.25399" lon="4.94062">
        <ele>489.40438842773</ele>
        <time>2019-05-01T09:56:12 0200</time>
      </trkpt>
      <trkpt lat="47.25399" lon="4.94062">
        <ele>489.41073608398</ele>
        <time>2019-05-01T09:56:09 0200</time>
      </trkpt>
      <trkpt lat="47.25399" lon="4.94062">
        <ele>489.4176940918</ele>
        <time>2019-05-01T09:56:06 0200</time>
      </trkpt>
      <trkpt lat="47.25399" lon="4.94063">
        <ele>489.42678833008</ele>
        <time>2019-05-01T09:56:03 0200</time>
      </trkpt>
      <trkpt lat="47.25399" lon="4.94063">
        <ele>489.44155883789</ele>
        <time>2019-05-01T09:56:00 0200</time>
      </trkpt>
      <trkpt lat="47.25399" lon="4.94064">
        <ele>489.4914855957</ele>
        <time>2019-05-01T09:55:57 0200</time>
      </trkpt>
      <trkpt lat="47.25399" lon="4.94064">
        <ele>489.52969360352</ele>
        <time>2019-05-01T09:55:54 0200</time>
      </trkpt>
      <trkpt lat="47.25399" lon="4.94064">
        <ele>489.54257202148</ele>
        <time>2019-05-01T09:55:51 0200</time>
      </trkpt>
      <trkpt lat="47.254" lon="4.94068">
        <ele>489.55294799805</ele>
        <time>2019-05-01T09:55:48 0200</time>
      </trkpt>
      <trkpt lat="47.254" lon="4.9407">
        <ele>489.56582641602</ele>
        <time>2019-05-01T09:55:45 0200</time>
      </trkpt>
      <trkpt lat="47.254" lon="4.9407">
        <ele>489.58316040039</ele>
        <time>2019-05-01T09:55:42 0200</time>
      </trkpt>
      <trkpt lat="47.254" lon="4.9407">
        <ele>489.58181762695</ele>
        <time>2019-05-01T09:55:39 0200</time>
      </trkpt>
      <trkpt lat="47.25401" lon="4.94068">
        <ele>489.5895690918</ele>
        <time>2019-05-01T09:55:36 0200</time>
      </trkpt>
      <trkpt lat="47.25402" lon="4.94072">
        <ele>489.59268188477</ele>
        <time>2019-05-01T09:55:33 0200</time>
      </trkpt>
      <trkpt lat="47.25402" lon="4.94073">
        <ele>489.56314086914</ele>
        <time>2019-05-01T09:55:30 0200</time>
      </trkpt>
      <trkpt lat="47.25402" lon="4.94073">
        <ele>489.51345825195</ele>
        <time>2019-05-01T09:55:27 0200</time>
      </trkpt>
      <trkpt lat="47.25403" lon="4.94079">
        <ele>488.83389282227</ele>
        <time>2019-05-01T09:55:24 0200</time>
      </trkpt>
      <trkpt lat="47.25403" lon="4.94083">
        <ele>488.14627075195</ele>
        <time>2019-05-01T09:55:21 0200</time>
      </trkpt>
      <trkpt lat="47.25402" lon="4.94086">
        <ele>487.45889282227</ele>
        <time>2019-05-01T09:55:18 0200</time>
      </trkpt>
      <trkpt lat="47.25401" lon="4.94089">
        <ele>486.87100219727</ele>
        <time>2019-05-01T09:55:15 0200</time>
      </trkpt>
      <trkpt lat="47.25399" lon="4.94091">
        <ele>486.41006469727</ele>
        <time>2019-05-01T09:55:12 0200</time>
      </trkpt>
      <trkpt lat="47.25397" lon="4.94095">
        <ele>485.94454956055</ele>
        <time>2019-05-01T09:55:09 0200</time>
      </trkpt>
      <trkpt lat="47.25396" lon="4.94098">
        <ele>485.52963256836</ele>
        <time>2019-05-01T09:55:06 0200</time>
      </trkpt>
      <trkpt lat="47.25395" lon="4.94101">
        <ele>485.19131469727</ele>
        <time>2019-05-01T09:55:03 0200</time>
      </trkpt>
      <trkpt lat="47.25393" lon="4.94105">
        <ele>484.98135375977</ele>
        <time>2019-05-01T09:55:00 0200</time>
      </trkpt>
      <trkpt lat="47.25392" lon="4.94107">
        <ele>484.91006469727</ele>
        <time>2019-05-01T09:54:57 0200</time>
      </trkpt>
      <trkpt lat="47.2539" lon="4.94111">
        <ele>484.95523071289</ele>
        <time>2019-05-01T09:54:54 0200</time>
      </trkpt>
      <trkpt lat="47.2539" lon="4.94115">
        <ele>485.02102661133</ele>
        <time>2019-05-01T09:54:51 0200</time>
      </trkpt>
      <trkpt lat="47.25389" lon="4.94118">
        <ele>485.08975219727</ele>
        <time>2019-05-01T09:54:48 0200</time>
      </trkpt>
      <trkpt lat="47.25388" lon="4.94122">
        <ele>485.12222290039</ele>
        <time>2019-05-01T09:54:45 0200</time>
      </trkpt>
      <trkpt lat="47.25389" lon="4.94126">
        <ele>485.14859008789</ele>
        <time>2019-05-01T09:54:42 0200</time>
      </trkpt>
      <trkpt lat="47.25388" lon="4.9413">
        <ele>485.10995483398</ele>
        <time>2019-05-01T09:54:39 0200</time>
      </trkpt>
      <trkpt lat="47.25387" lon="4.94133">
        <ele>485.04336547852</ele>
        <time>2019-05-01T09:54:36 0200</time>
      </trkpt>
      <trkpt lat="47.25385" lon="4.94137">
        <ele>484.99917602539</ele>
        <time>2019-05-01T09:54:33 0200</time>
      </trkpt>
      <trkpt lat="47.25385" lon="4.9414">
        <ele>484.92855834961</ele>
        <time>2019-05-01T09:54:30 0200</time>
      </trkpt>
      <trkpt lat="47.25385" lon="4.94144">
        <ele>484.85342407227</ele>
        <time>2019-05-01T09:54:27 0200</time>
      </trkpt>
      <trkpt lat="47.25385" lon="4.94148">
        <ele>484.77377319336</ele>
        <time>2019-05-01T09:54:24 0200</time>
      </trkpt>
      <trkpt lat="47.25384" lon="4.9415">
        <ele>484.71371459961</ele>
        <time>2019-05-01T09:54:21 0200</time>
      </trkpt>
      <trkpt lat="47.25385" lon="4.94151">
        <ele>484.7131652832</ele>
        <time>2019-05-01T09:54:18 0200</time>
      </trkpt>
      <trkpt lat="47.25384" lon="4.94153">
        <ele>484.76809692383</ele>
        <time>2019-05-01T09:54:15 0200</time>
      </trkpt>
      <trkpt lat="47.25383" lon="4.94157">
        <ele>484.88430786133</ele>
        <time>2019-05-01T09:54:12 0200</time>
      </trkpt>
      <trkpt lat="47.25384" lon="4.9416">
        <ele>485.07986450195</ele>
        <time>2019-05-01T09:54:09 0200</time>
      </trkpt>
      <trkpt lat="47.25381" lon="4.94164">
        <ele>485.37405395508</ele>
        <time>2019-05-01T09:54:06 0200</time>
      </trkpt>
      <trkpt lat="47.25381" lon="4.94167">
        <ele>485.65353393555</ele>
        <time>2019-05-01T09:54:03 0200</time>
      </trkpt>
      <trkpt lat="47.25381" lon="4.9417">
        <ele>486.10122680664</ele>
        <time>2019-05-01T09:54:00 0200</time>
      </trkpt>
      <trkpt lat="47.25381" lon="4.94171">
        <ele>486.29989624023</ele>
        <time>2019-05-01T09:53:57 0200</time>
      </trkpt>
      <trkpt lat="47.25382" lon="4.94174">
        <ele>486.69692993164</ele>
        <time>2019-05-01T09:53:54 0200</time>
      </trkpt>
      <trkpt lat="47.25383" lon="4.94177">
        <ele>486.9382019043</ele>
        <time>2019-05-01T09:53:51 0200</time>
      </trkpt>
      <trkpt lat="47.25383" lon="4.94184">
        <ele>487.06912231445</ele>
        <time>2019-05-01T09:53:48 0200</time>
      </trkpt>
      <trkpt lat="47.25384" lon="4.9419">
        <ele>487.01174926758</ele>
        <time>2019-05-01T09:53:45 0200</time>
      </trkpt>
      <trkpt lat="47.25384" lon="4.94195">
        <ele>486.76748657227</ele>
        <time>2019-05-01T09:53:42 0200</time>
      </trkpt>
      <trkpt lat="47.25385" lon="4.94201">
        <ele>486.37802124023</ele>
        <time>2019-05-01T09:53:39 0200</time>
      </trkpt>
      <trkpt lat="47.25384" lon="4.94204">
        <ele>485.89096069336</ele>
        <time>2019-05-01T09:53:36 0200</time>
      </trkpt>
      <trkpt lat="47.25384" lon="4.94207">
        <ele>485.29531860352</ele>
        <time>2019-05-01T09:53:33 0200</time>
      </trkpt>
      <trkpt lat="47.25383" lon="4.94209">
        <ele>484.71322631836</ele>
        <time>2019-05-01T09:53:30 0200</time>
      </trkpt>
      <trkpt lat="47.25383" lon="4.9421">
        <ele>484.10861206055</ele>
        <time>2019-05-01T09:53:27 0200</time>
      </trkpt>
      <trkpt lat="47.25382" lon="4.94212">
        <ele>483.53207397461</ele>
        <time>2019-05-01T09:53:24 0200</time>
      </trkpt>
      <trkpt lat="47.25382" lon="4.94217">
        <ele>483.03811645508</ele>
        <time>2019-05-01T09:53:21 0200</time>
      </trkpt>
      <trkpt lat="47.25382" lon="4.9422">
        <ele>482.52297973633</ele>
        <time>2019-05-01T09:53:18 0200</time>
      </trkpt>
      <trkpt lat="47.25381" lon="4.94226">
        <ele>482.04776000977</ele>
        <time>2019-05-01T09:53:15 0200</time>
      </trkpt>
      <trkpt lat="47.25382" lon="4.94229">
        <ele>481.54739379883</ele>
        <time>2019-05-01T09:53:12 0200</time>
      </trkpt>
      <trkpt lat="47.25381" lon="4.94231">
        <ele>481.00875854492</ele>
        <time>2019-05-01T09:53:09 0200</time>
      </trkpt>
      <trkpt lat="47.2538" lon="4.94234">
        <ele>480.53469848633</ele>
        <time>2019-05-01T09:53:06 0200</time>
      </trkpt>
      <trkpt lat="47.25379" lon="4.94238">
        <ele>480.03378295898</ele>
        <time>2019-05-01T09:53:03 0200</time>
      </trkpt>
      <trkpt lat="47.25379" lon="4.94242">
        <ele>479.44485473633</ele>
        <time>2019-05-01T09:53:00 0200</time>
      </trkpt>
      <trkpt lat="47.25378" lon="4.94245">
        <ele>478.74008178711</ele>
        <time>2019-05-01T09:52:57 0200</time>
      </trkpt>
      <trkpt lat="47.25379" lon="4.94248">
        <ele>478.0920715332</ele>
        <time>2019-05-01T09:52:54 0200</time>
      </trkpt>
      <trkpt lat="47.2538" lon="4.94251">
        <ele>477.50381469727</ele>
        <time>2019-05-01T09:52:51 0200</time>
      </trkpt>
      <trkpt lat="47.2538" lon="4.94254">
        <ele>477.02700805664</ele>
        <time>2019-05-01T09:52:48 0200</time>
      </trkpt>
      <trkpt lat="47.2538" lon="4.94258">
        <ele>476.61264038086</ele>
        <time>2019-05-01T09:52:45 0200</time>
      </trkpt>
      <trkpt lat="47.25379" lon="4.9426">
        <ele>476.26626586914</ele>
        <time>2019-05-01T09:52:42 0200</time>
      </trkpt>
      <trkpt lat="47.25378" lon="4.94263">
        <ele>475.84909057617</ele>
        <time>2019-05-01T09:52:39 0200</time>
      </trkpt>
      <trkpt lat="47.25377" lon="4.94267">
        <ele>475.24514770508</ele>
        <time>2019-05-01T09:52:36 0200</time>
      </trkpt>
      <trkpt lat="47.25374" lon="4.94276">
        <ele>474.77737426758</ele>
        <time>2019-05-01T09:52:33 0200</time>
      </trkpt>
      <trkpt lat="47.25373" lon="4.94279">
        <ele>474.29013061523</ele>
        <time>2019-05-01T09:52:30 0200</time>
      </trkpt>
      <trkpt lat="47.25373" lon="4.94281">
        <ele>473.87466430664</ele>
        <time>2019-05-01T09:52:27 0200</time>
      </trkpt>
      <trkpt lat="47.25372" lon="4.94283">
        <ele>473.61026000977</ele>
        <time>2019-05-01T09:52:24 0200</time>
      </trkpt>
      <trkpt lat="47.25371" lon="4.94285">
        <ele>473.3703918457</ele>
        <time>2019-05-01T09:52:21 0200</time>
      </trkpt>
      <trkpt lat="47.25371" lon="4.94289">
        <ele>473.05471801758</ele>
        <time>2019-05-01T09:52:18 0200</time>
      </trkpt>
      <trkpt lat="47.2537" lon="4.94292">
        <ele>472.61367797852</ele>
        <time>2019-05-01T09:52:15 0200</time>
      </trkpt>
      <trkpt lat="47.25369" lon="4.94297">
        <ele>472.27523803711</ele>
        <time>2019-05-01T09:52:12 0200</time>
      </trkpt>
      <trkpt lat="47.25368" lon="4.94302">
        <ele>471.90322875977</ele>
        <time>2019-05-01T09:52:09 0200</time>
      </trkpt>
      <trkpt lat="47.25369" lon="4.94304">
        <ele>471.53164672852</ele>
        <time>2019-05-01T09:52:06 0200</time>
      </trkpt>
      <trkpt lat="47.25369" lon="4.94308">
        <ele>471.10757446289</ele>
        <time>2019-05-01T09:52:03 0200</time>
      </trkpt>
      <trkpt lat="47.25369" lon="4.94313">
        <ele>470.51956176758</ele>
        <time>2019-05-01T09:52:00 0200</time>
      </trkpt>
      <trkpt lat="47.25369" lon="4.94317">
        <ele>469.84182739258</ele>
        <time>2019-05-01T09:51:57 0200</time>
      </trkpt>
      <trkpt lat="47.25369" lon="4.9432">
        <ele>469.20230102539</ele>
        <time>2019-05-01T09:51:54 0200</time>
      </trkpt>
      <trkpt lat="47.25367" lon="4.94322">
        <ele>468.94003295898</ele>
        <time>2019-05-01T09:51:51 0200</time>
      </trkpt>
      <trkpt lat="47.25367" lon="4.94326">
        <ele>469.0339050293</ele>
        <time>2019-05-01T09:51:48 0200</time>
      </trkpt>
      <trkpt lat="47.25368" lon="4.9433">
        <ele>469.20907592773</ele>
        <time>2019-05-01T09:51:45 0200</time>
      </trkpt>
      <trkpt lat="47.25369" lon="4.94333">
        <ele>469.32241821289</ele>
        <time>2019-05-01T09:51:42 0200</time>
      </trkpt>
      <trkpt lat="47.25369" lon="4.94337">
        <ele>469.41073608398</ele>
        <time>2019-05-01T09:51:39 0200</time>
      </trkpt>
      <trkpt lat="47.25371" lon="4.94342">
        <ele>469.37362670898</ele>
        <time>2019-05-01T09:51:36 0200</time>
      </trkpt>
      <trkpt lat="47.2537" lon="4.94346">
        <ele>469.19393920898</ele>
        <time>2019-05-01T09:51:33 0200</time>
      </trkpt>
      <trkpt lat="47.25368" lon="4.9435">
        <ele>468.99600219727</ele>
        <time>2019-05-01T09:51:30 0200</time>
      </trkpt>
      <trkpt lat="47.25368" lon="4.94355">
        <ele>468.78091430664</ele>
        <time>2019-05-01T09:51:27 0200</time>
      </trkpt>
      <trkpt lat="47.25368" lon="4.94362">
        <ele>468.34329223633</ele>
        <time>2019-05-01T09:51:24 0200</time>
      </trkpt>
      <trkpt lat="47.25367" lon="4.94363">
        <ele>468.22805786133</ele>
        <time>2019-05-01T09:51:21 0200</time>
      </trkpt>
      <trkpt lat="47.25367" lon="4.94365">
        <ele>468.06790161133</ele>
        <time>2019-05-01T09:51:18 0200</time>
      </trkpt>
      <trkpt lat="47.25364" lon="4.94367">
        <ele>467.93161010742</ele>
        <time>2019-05-01T09:51:15 0200</time>
      </trkpt>
      <trkpt lat="47.25362" lon="4.94369">
        <ele>467.95120239258</ele>
        <time>2019-05-01T09:51:12 0200</time>
      </trkpt>
      <trkpt lat="47.25361" lon="4.94371">
        <ele>468.06246948242</ele>
        <time>2019-05-01T09:51:09 0200</time>
      </trkpt>
      <trkpt lat="47.25361" lon="4.94376">
        <ele>468.31118774414</ele>
        <time>2019-05-01T09:51:06 0200</time>
      </trkpt>
      <trkpt lat="47.2536" lon="4.94379">
        <ele>468.4153137207</ele>
        <time>2019-05-01T09:51:02 0200</time>
      </trkpt>
      <trkpt lat="47.2536" lon="4.94385">
        <ele>468.3327331543</ele>
        <time>2019-05-01T09:50:59 0200</time>
      </trkpt>
      <trkpt lat="47.2536" lon="4.94389">
        <ele>468.10446166992</ele>
        <time>2019-05-01T09:50:56 0200</time>
      </trkpt>
      <trkpt lat="47.2536" lon="4.94392">
        <ele>467.78610229492</ele>
        <time>2019-05-01T09:50:53 0200</time>
      </trkpt>
      <trkpt lat="47.2536" lon="4.94397">
        <ele>467.44180297852</ele>
        <time>2019-05-01T09:50:50 0200</time>
      </trkpt>
      <trkpt lat="47.2536" lon="4.944">
        <ele>467.18881225586</ele>
        <time>2019-05-01T09:50:47 0200</time>
      </trkpt>
      <trkpt lat="47.25361" lon="4.94403">
        <ele>466.81619262695</ele>
        <time>2019-05-01T09:50:44 0200</time>
      </trkpt>
      <trkpt lat="47.25361" lon="4.94407">
        <ele>466.32315063477</ele>
        <time>2019-05-01T09:50:41 0200</time>
      </trkpt>
      <trkpt lat="47.25361" lon="4.94411">
        <ele>465.74221801758</ele>
        <time>2019-05-01T09:50:38 0200</time>
      </trkpt>
      <trkpt lat="47.2536" lon="4.94414">
        <ele>465.1637878418</ele>
        <time>2019-05-01T09:50:35 0200</time>
      </trkpt>
      <trkpt lat="47.25358" lon="4.94418">
        <ele>464.67306518555</ele>
        <time>2019-05-01T09:50:32 0200</time>
      </trkpt>
      <trkpt lat="47.25356" lon="4.9442">
        <ele>464.18026733398</ele>
        <time>2019-05-01T09:50:29 0200</time>
      </trkpt>
      <trkpt lat="47.25355" lon="4.94423">
        <ele>463.76879882812</ele>
        <time>2019-05-01T09:50:26 0200</time>
      </trkpt>
      <trkpt lat="47.25354" lon="4.94425">
        <ele>463.57275390625</ele>
        <time>2019-05-01T09:50:23 0200</time>
      </trkpt>
      <trkpt lat="47.25354" lon="4.94426">
        <ele>463.55966186523</ele>
        <time>2019-05-01T09:50:20 0200</time>
      </trkpt>
      <trkpt lat="47.25353" lon="4.9443">
        <ele>463.69915771484</ele>
        <time>2019-05-01T09:50:17 0200</time>
      </trkpt>
      <trkpt lat="47.25352" lon="4.94434">
        <ele>463.8659362793</ele>
        <time>2019-05-01T09:50:14 0200</time>
      </trkpt>
      <trkpt lat="47.25352" lon="4.94437">
        <ele>463.99124145508</ele>
        <time>2019-05-01T09:50:11 0200</time>
      </trkpt>
      <trkpt lat="47.25352" lon="4.94442">
        <ele>464.02005004883</ele>
        <time>2019-05-01T09:50:08 0200</time>
      </trkpt>
      <trkpt lat="47.25352" lon="4.94445">
        <ele>463.85806274414</ele>
        <time>2019-05-01T09:50:05 0200</time>
      </trkpt>
      <trkpt lat="47.25352" lon="4.94449">
        <ele>463.59887695312</ele>
        <time>2019-05-01T09:50:02 0200</time>
      </trkpt>
      <trkpt lat="47.25353" lon="4.94452">
        <ele>463.30426025391</ele>
        <time>2019-05-01T09:49:59 0200</time>
      </trkpt>
      <trkpt lat="47.25353" lon="4.94458">
        <ele>463.00231933594</ele>
        <time>2019-05-01T09:49:56 0200</time>
      </trkpt>
      <trkpt lat="47.25352" lon="4.94462">
        <ele>462.64910888672</ele>
        <time>2019-05-01T09:49:53 0200</time>
      </trkpt>
      <trkpt lat="47.25352" lon="4.94466">
        <ele>462.16146850586</ele>
        <time>2019-05-01T09:49:50 0200</time>
      </trkpt>
      <trkpt lat="47.25351" lon="4.94468">
        <ele>461.82672119141</ele>
        <time>2019-05-01T09:49:47 0200</time>
      </trkpt>
      <trkpt lat="47.25351" lon="4.94474">
        <ele>461.50479125977</ele>
        <time>2019-05-01T09:49:44 0200</time>
      </trkpt>
      <trkpt lat="47.2535" lon="4.94479">
        <ele>461.31558227539</ele>
        <time>2019-05-01T09:49:41 0200</time>
      </trkpt>
      <trkpt lat="47.25348" lon="4.94483">
        <ele>461.14294433594</ele>
        <time>2019-05-01T09:49:38 0200</time>
      </trkpt>
      <trkpt lat="47.25348" lon="4.94486">
        <ele>460.88314819336</ele>
        <time>2019-05-01T09:49:35 0200</time>
      </trkpt>
      <trkpt lat="47.25348" lon="4.94491">
        <ele>460.51470947266</ele>
        <time>2019-05-01T09:49:32 0200</time>
      </trkpt>
      <trkpt lat="47.25347" lon="4.94494">
        <ele>460.11108398438</ele>
        <time>2019-05-01T09:49:29 0200</time>
      </trkpt>
      <trkpt lat="47.25345" lon="4.94498">
        <ele>459.8825378418</ele>
        <time>2019-05-01T09:49:26 0200</time>
      </trkpt>
      <trkpt lat="47.25344" lon="4.945">
        <ele>459.76611328125</ele>
        <time>2019-05-01T09:49:23 0200</time>
      </trkpt>
      <trkpt lat="47.25342" lon="4.94503">
        <ele>459.81958007812</ele>
        <time>2019-05-01T09:49:20 0200</time>
      </trkpt>
      <trkpt lat="47.2534" lon="4.94507">
        <ele>459.98431396484</ele>
        <time>2019-05-01T09:49:17 0200</time>
      </trkpt>
      <trkpt lat="47.2534" lon="4.94511">
        <ele>460.1865234375</ele>
        <time>2019-05-01T09:49:14 0200</time>
      </trkpt>
      <trkpt lat="47.25338" lon="4.94516">
        <ele>460.33062744141</ele>
        <time>2019-05-01T09:49:11 0200</time>
      </trkpt>
      <trkpt lat="47.25339" lon="4.9452">
        <ele>460.47610473633</ele>
        <time>2019-05-01T09:49:08 0200</time>
      </trkpt>
      <trkpt lat="47.25339" lon="4.9452">
        <ele>460.75085449219</ele>
        <time>2019-05-01T09:49:05 0200</time>
      </trkpt>
      <trkpt lat="47.25339" lon="4.94523">
        <ele>461.11239624023</ele>
        <time>2019-05-01T09:49:02 0200</time>
      </trkpt>
      <trkpt lat="47.25339" lon="4.94526">
        <ele>461.466796875</ele>
        <time>2019-05-01T09:48:59 0200</time>
      </trkpt>
      <trkpt lat="47.25338" lon="4.94529">
        <ele>461.88568115234</ele>
        <time>2019-05-01T09:48:56 0200</time>
      </trkpt>
      <trkpt lat="47.25339" lon="4.94534">
        <ele>462.31100463867</ele>
        <time>2019-05-01T09:48:53 0200</time>
      </trkpt>
      <trkpt lat="47.2534" lon="4.94539">
        <ele>462.69146728516</ele>
        <time>2019-05-01T09:48:50 0200</time>
      </trkpt>
      <trkpt lat="47.2534" lon="4.94543">
        <ele>462.92419433594</ele>
        <time>2019-05-01T09:48:47 0200</time>
      </trkpt>
      <trkpt lat="47.25339" lon="4.94546">
        <ele>463.18435668945</ele>
        <time>2019-05-01T09:48:44 0200</time>
      </trkpt>
      <trkpt lat="47.25338" lon="4.9455">
        <ele>463.4140625</ele>
        <time>2019-05-01T09:48:41 0200</time>
      </trkpt>
      <trkpt lat="47.25337" lon="4.94553">
        <ele>463.59100341797</ele>
        <time>2019-05-01T09:48:38 0200</time>
      </trkpt>
      <trkpt lat="47.25335" lon="4.94557">
        <ele>463.55572509766</ele>
        <time>2019-05-01T09:48:35 0200</time>
      </trkpt>
      <trkpt lat="47.25333" lon="4.94561">
        <ele>463.32427978516</ele>
        <time>2019-05-01T09:48:32 0200</time>
      </trkpt>
      <trkpt lat="47.25332" lon="4.94565">
        <ele>463.31942749023</ele>
        <time>2019-05-01T09:48:29 0200</time>
      </trkpt>
      <trkpt lat="47.25333" lon="4.94569">
        <ele>463.53121948242</ele>
        <time>2019-05-01T09:48:26 0200</time>
      </trkpt>
      <trkpt lat="47.25333" lon="4.94573">
        <ele>463.82241821289</ele>
        <time>2019-05-01T09:48:23 0200</time>
      </trkpt>
      <trkpt lat="47.25334" lon="4.94578">
        <ele>464.07083129883</ele>
        <time>2019-05-01T09:48:20 0200</time>
      </trkpt>
      <trkpt lat="47.25332" lon="4.94582">
        <ele>464.28268432617</ele>
        <time>2019-05-01T09:48:17 0200</time>
      </trkpt>
      <trkpt lat="47.25331" lon="4.94587">
        <ele>464.4909362793</ele>
        <time>2019-05-01T09:48:14 0200</time>
      </trkpt>
      <trkpt lat="47.25329" lon="4.94591">
        <ele>464.71725463867</ele>
        <time>2019-05-01T09:48:11 0200</time>
      </trkpt>
      <trkpt lat="47.25329" lon="4.94595">
        <ele>464.9225769043</ele>
        <time>2019-05-01T09:48:08 0200</time>
      </trkpt>
      <trkpt lat="47.25327" lon="4.94596">
        <ele>465.27053833008</ele>
        <time>2019-05-01T09:48:05 0200</time>
      </trkpt>
      <trkpt lat="47.25325" lon="4.94598">
        <ele>465.80764770508</ele>
        <time>2019-05-01T09:48:02 0200</time>
      </trkpt>
      <trkpt lat="47.25324" lon="4.946">
        <ele>466.50955200195</ele>
        <time>2019-05-01T09:47:59 0200</time>
      </trkpt>
      <trkpt lat="47.25323" lon="4.94603">
        <ele>467.36795043945</ele>
        <time>2019-05-01T09:47:56 0200</time>
      </trkpt>
      <trkpt lat="47.25324" lon="4.94609">
        <ele>468.24813842773</ele>
        <time>2019-05-01T09:47:53 0200</time>
      </trkpt>
      <trkpt lat="47.25324" lon="4.94614">
        <ele>469.02151489258</ele>
        <time>2019-05-01T09:47:50 0200</time>
      </trkpt>
      <trkpt lat="47.25323" lon="4.94619">
        <ele>469.55068969727</ele>
        <time>2019-05-01T09:47:47 0200</time>
      </trkpt>
      <trkpt lat="47.25319" lon="4.94623">
        <ele>469.9514465332</ele>
        <time>2019-05-01T09:47:44 0200</time>
      </trkpt>
      <trkpt lat="47.25318" lon="4.94625">
        <ele>470.2448425293</ele>
        <time>2019-05-01T09:47:41 0200</time>
      </trkpt>
      <trkpt lat="47.25315" lon="4.94628">
        <ele>470.47537231445</ele>
        <time>2019-05-01T09:47:38 0200</time>
      </trkpt>
      <trkpt lat="47.25311" lon="4.94625">
        <ele>470.53176879883</ele>
        <time>2019-05-01T09:47:35 0200</time>
      </trkpt>
      <trkpt lat="47.2531" lon="4.94619">
        <ele>470.19882202148</ele>
        <time>2019-05-01T09:47:32 0200</time>
      </trkpt>
      <trkpt lat="47.25311" lon="4.94618">
        <ele>469.89004516602</ele>
        <time>2019-05-01T09:47:29 0200</time>
      </trkpt>
      <trkpt lat="47.25309" lon="4.94616">
        <ele>469.57217407227</ele>
        <time>2019-05-01T09:47:26 0200</time>
      </trkpt>
      <trkpt lat="47.25308" lon="4.94617">
        <ele>469.28457641602</ele>
        <time>2019-05-01T09:47:23 0200</time>
      </trkpt>
      <trkpt lat="47.25306" lon="4.94618">
        <ele>469.00051879883</ele>
        <time>2019-05-01T09:47:20 0200</time>
      </trkpt>
      <trkpt lat="47.25304" lon="4.94621">
        <ele>468.75790405273</ele>
        <time>2019-05-01T09:47:17 0200</time>
      </trkpt>
      <trkpt lat="47.25303" lon="4.94623">
        <ele>468.52389526367</ele>
        <time>2019-05-01T09:47:14 0200</time>
      </trkpt>
      <trkpt lat="47.25303" lon="4.94626">
        <ele>468.26119995117</ele>
        <time>2019-05-01T09:47:11 0200</time>
      </trkpt>
      <trkpt lat="47.25302" lon="4.94629">
        <ele>467.83444213867</ele>
        <time>2019-05-01T09:47:08 0200</time>
      </trkpt>
      <trkpt lat="47.25302" lon="4.94632">
        <ele>467.35928344727</ele>
        <time>2019-05-01T09:47:05 0200</time>
      </trkpt>
      <trkpt lat="47.25301" lon="4.94635">
        <ele>466.89602661133</ele>
        <time>2019-05-01T09:47:02 0200</time>
      </trkpt>
      <trkpt lat="47.253" lon="4.94638">
        <ele>466.47653198242</ele>
        <time>2019-05-01T09:46:59 0200</time>
      </trkpt>
      <trkpt lat="47.253" lon="4.9464">
        <ele>466.09866333008</ele>
        <time>2019-05-01T09:46:56 0200</time>
      </trkpt>
      <trkpt lat="47.25299" lon="4.94645">
        <ele>465.78018188477</ele>
        <time>2019-05-01T09:46:53 0200</time>
      </trkpt>
      <trkpt lat="47.25298" lon="4.9465">
        <ele>465.57577514648</ele>
        <time>2019-05-01T09:46:50 0200</time>
      </trkpt>
      <trkpt lat="47.25296" lon="4.94654">
        <ele>465.40127563477</ele>
        <time>2019-05-01T09:46:47 0200</time>
      </trkpt>
      <trkpt lat="47.25295" lon="4.94657">
        <ele>465.17446899414</ele>
        <time>2019-05-01T09:46:44 0200</time>
      </trkpt>
      <trkpt lat="47.25294" lon="4.94659">
        <ele>464.95950317383</ele>
        <time>2019-05-01T09:46:41 0200</time>
      </trkpt>
      <trkpt lat="47.25293" lon="4.94662">
        <ele>464.75033569336</ele>
        <time>2019-05-01T09:46:38 0200</time>
      </trkpt>
      <trkpt lat="47.25292" lon="4.94664">
        <ele>464.59799194336</ele>
        <time>2019-05-01T09:46:35 0200</time>
      </trkpt>
      <trkpt lat="47.25291" lon="4.94665">
        <ele>464.35238647461</ele>
        <time>2019-05-01T09:46:32 0200</time>
      </trkpt>
      <trkpt lat="47.25289" lon="4.94669">
        <ele>464.18240356445</ele>
        <time>2019-05-01T09:46:29 0200</time>
      </trkpt>
      <trkpt lat="47.25286" lon="4.94672">
        <ele>463.93026733398</ele>
        <time>2019-05-01T09:46:26 0200</time>
      </trkpt>
      <trkpt lat="47.25284" lon="4.94675">
        <ele>463.67691040039</ele>
        <time>2019-05-01T09:46:23 0200</time>
      </trkpt>
      <trkpt lat="47.25283" lon="4.94677">
        <ele>463.38897705078</ele>
        <time>2019-05-01T09:46:20 0200</time>
      </trkpt>
      <trkpt lat="47.25281" lon="4.94679">
        <ele>463.14044189453</ele>
        <time>2019-05-01T09:46:17 0200</time>
      </trkpt>
      <trkpt lat="47.25279" lon="4.94683">
        <ele>462.9153137207</ele>
        <time>2019-05-01T09:46:14 0200</time>
      </trkpt>
      <trkpt lat="47.25277" lon="4.94685">
        <ele>462.69305419922</ele>
        <time>2019-05-01T09:46:11 0200</time>
      </trkpt>
      <trkpt lat="47.25274" lon="4.9469">
        <ele>462.48400878906</ele>
        <time>2019-05-01T09:46:08 0200</time>
      </trkpt>
      <trkpt lat="47.25272" lon="4.94692">
        <ele>462.26303100586</ele>
        <time>2019-05-01T09:46:05 0200</time>
      </trkpt>
      <trkpt lat="47.2527" lon="4.94694">
        <ele>462.01538085938</ele>
        <time>2019-05-01T09:46:02 0200</time>
      </trkpt>
      <trkpt lat="47.25268" lon="4.94699">
        <ele>461.765625</ele>
        <time>2019-05-01T09:45:59 0200</time>
      </trkpt>
      <trkpt lat="47.25266" lon="4.94702">
        <ele>461.50927734375</ele>
        <time>2019-05-01T09:45:56 0200</time>
      </trkpt>
      <trkpt lat="47.25262" lon="4.94707">
        <ele>461.22448730469</ele>
        <time>2019-05-01T09:45:53 0200</time>
      </trkpt>
      <trkpt lat="47.2526" lon="4.94712">
        <ele>460.89099121094</ele>
        <time>2019-05-01T09:45:50 0200</time>
      </trkpt>
      <trkpt lat="47.25259" lon="4.94713">
        <ele>460.49670410156</ele>
        <time>2019-05-01T09:45:47 0200</time>
      </trkpt>
      <trkpt lat="47.25258" lon="4.94716">
        <ele>460.04461669922</ele>
        <time>2019-05-01T09:45:44 0200</time>
      </trkpt>
      <trkpt lat="47.25257" lon="4.94718">
        <ele>459.52365112305</ele>
        <time>2019-05-01T09:45:41 0200</time>
      </trkpt>
      <trkpt lat="47.25255" lon="4.94722">
        <ele>458.94110107422</ele>
        <time>2019-05-01T09:45:38 0200</time>
      </trkpt>
      <trkpt lat="47.25254" lon="4.94727">
        <ele>458.30465698242</ele>
        <time>2019-05-01T09:45:35 0200</time>
      </trkpt>
      <trkpt lat="47.25253" lon="4.9473">
        <ele>457.67260742188</ele>
        <time>2019-05-01T09:45:32 0200</time>
      </trkpt>
      <trkpt lat="47.25253" lon="4.94734">
        <ele>457.08853149414</ele>
        <time>2019-05-01T09:45:29 0200</time>
      </trkpt>
      <trkpt lat="47.25251" lon="4.94737">
        <ele>456.708984375</ele>
        <time>2019-05-01T09:45:26 0200</time>
      </trkpt>
      <trkpt lat="47.2525" lon="4.94739">
        <ele>456.35760498047</ele>
        <time>2019-05-01T09:45:23 0200</time>
      </trkpt>
      <trkpt lat="47.25249" lon="4.94741">
        <ele>456.1882019043</ele>
        <time>2019-05-01T09:45:20 0200</time>
      </trkpt>
      <trkpt lat="47.25248" lon="4.94744">
        <ele>455.76773071289</ele>
        <time>2019-05-01T09:45:17 0200</time>
      </trkpt>
      <trkpt lat="47.25246" lon="4.94749">
        <ele>455.37887573242</ele>
        <time>2019-05-01T09:45:14 0200</time>
      </trkpt>
      <trkpt lat="47.25245" lon="4.94753">
        <ele>455.03970336914</ele>
        <time>2019-05-01T09:45:11 0200</time>
      </trkpt>
      <trkpt lat="47.25244" lon="4.94755">
        <ele>454.75137329102</ele>
        <time>2019-05-01T09:45:08 0200</time>
      </trkpt>
      <trkpt lat="47.25244" lon="4.94756">
        <ele>454.49606323242</ele>
        <time>2019-05-01T09:45:05 0200</time>
      </trkpt>
      <trkpt lat="47.25243" lon="4.94758">
        <ele>454.26071166992</ele>
        <time>2019-05-01T09:45:02 0200</time>
      </trkpt>
      <trkpt lat="47.25241" lon="4.9476">
        <ele>454.05615234375</ele>
        <time>2019-05-01T09:44:59 0200</time>
      </trkpt>
      <trkpt lat="47.2524" lon="4.94762">
        <ele>453.84393310547</ele>
        <time>2019-05-01T09:44:56 0200</time>
      </trkpt>
      <trkpt lat="47.25238" lon="4.94764">
        <ele>453.63739013672</ele>
        <time>2019-05-01T09:44:53 0200</time>
      </trkpt>
      <trkpt lat="47.25236" lon="4.94767">
        <ele>453.45126342773</ele>
        <time>2019-05-01T09:44:50 0200</time>
      </trkpt>
      <trkpt lat="47.25234" lon="4.9477">
        <ele>453.26068115234</ele>
        <time>2019-05-01T09:44:47 0200</time>
      </trkpt>
      <trkpt lat="47.25233" lon="4.94772">
        <ele>453.07443237305</ele>
        <time>2019-05-01T09:44:44 0200</time>
      </trkpt>
      <trkpt lat="47.25232" lon="4.94775">
        <ele>452.9345703125</ele>
        <time>2019-05-01T09:44:41 0200</time>
      </trkpt>
      <trkpt lat="47.2523" lon="4.94779">
        <ele>452.71798706055</ele>
        <time>2019-05-01T09:44:38 0200</time>
      </trkpt>
      <trkpt lat="47.25227" lon="4.94783">
        <ele>452.45291137695</ele>
        <time>2019-05-01T09:44:35 0200</time>
      </trkpt>
      <trkpt lat="47.25225" lon="4.94789">
        <ele>452.13223266602</ele>
        <time>2019-05-01T09:44:32 0200</time>
      </trkpt>
      <trkpt lat="47.25223" lon="4.94791">
        <ele>451.79904174805</ele>
        <time>2019-05-01T09:44:29 0200</time>
      </trkpt>
      <trkpt lat="47.25221" lon="4.94793">
        <ele>451.49859619141</ele>
        <time>2019-05-01T09:44:26 0200</time>
      </trkpt>
      <trkpt lat="47.2522" lon="4.94794">
        <ele>451.22033691406</ele>
        <time>2019-05-01T09:44:23 0200</time>
      </trkpt>
      <trkpt lat="47.25218" lon="4.94795">
        <ele>450.97204589844</ele>
        <time>2019-05-01T09:44:20 0200</time>
      </trkpt>
      <trkpt lat="47.25216" lon="4.94796">
        <ele>450.82037353516</ele>
        <time>2019-05-01T09:44:17 0200</time>
      </trkpt>
      <trkpt lat="47.25216" lon="4.94799">
        <ele>450.58087158203</ele>
        <time>2019-05-01T09:44:14 0200</time>
      </trkpt>
      <trkpt lat="47.25214" lon="4.94801">
        <ele>450.31011962891</ele>
        <time>2019-05-01T09:44:11 0200</time>
      </trkpt>
      <trkpt lat="47.25213" lon="4.94803">
        <ele>450.06042480469</ele>
        <time>2019-05-01T09:44:08 0200</time>
      </trkpt>
      <trkpt lat="47.25211" lon="4.94806">
        <ele>449.83224487305</ele>
        <time>2019-05-01T09:44:05 0200</time>
      </trkpt>
      <trkpt lat="47.25209" lon="4.94808">
        <ele>449.64770507812</ele>
        <time>2019-05-01T09:44:02 0200</time>
      </trkpt>
      <trkpt lat="47.25206" lon="4.94809">
        <ele>449.5475769043</ele>
        <time>2019-05-01T09:43:59 0200</time>
      </trkpt>
      <trkpt lat="47.25204" lon="4.94812">
        <ele>449.41571044922</ele>
        <time>2019-05-01T09:43:56 0200</time>
      </trkpt>
      <trkpt lat="47.25203" lon="4.94813">
        <ele>449.30392456055</ele>
        <time>2019-05-01T09:43:53 0200</time>
      </trkpt>
      <trkpt lat="47.25202" lon="4.94814">
        <ele>449.24108886719</ele>
        <time>2019-05-01T09:43:50 0200</time>
      </trkpt>
      <trkpt lat="47.25202" lon="4.94814">
        <ele>449.23687744141</ele>
        <time>2019-05-01T09:43:47 0200</time>
      </trkpt>
      <trkpt lat="47.252" lon="4.94815">
        <ele>449.21331787109</ele>
        <time>2019-05-01T09:43:44 0200</time>
      </trkpt>
      <trkpt lat="47.25197" lon="4.94816">
        <ele>449.22576904297</ele>
        <time>2019-05-01T09:43:41 0200</time>
      </trkpt>
      <trkpt lat="47.25195" lon="4.94818">
        <ele>449.24130249023</ele>
        <time>2019-05-01T09:43:38 0200</time>
      </trkpt>
      <trkpt lat="47.25192" lon="4.94821">
        <ele>449.2326965332</ele>
        <time>2019-05-01T09:43:35 0200</time>
      </trkpt>
      <trkpt lat="47.2519" lon="4.94822">
        <ele>449.17752075195</ele>
        <time>2019-05-01T09:43:32 0200</time>
      </trkpt>
      <trkpt lat="47.25188" lon="4.94823">
        <ele>449.12640380859</ele>
        <time>2019-05-01T09:43:29 0200</time>
      </trkpt>
      <trkpt lat="47.25187" lon="4.94824">
        <ele>449.04806518555</ele>
        <time>2019-05-01T09:43:26 0200</time>
      </trkpt>
      <trkpt lat="47.25185" lon="4.94828">
        <ele>448.94100952148</ele>
        <time>2019-05-01T09:43:23 0200</time>
      </trkpt>
      <trkpt lat="47.25184" lon="4.94829">
        <ele>448.75659179688</ele>
        <time>2019-05-01T09:43:20 0200</time>
      </trkpt>
      <trkpt lat="47.25182" lon="4.94832">
        <ele>448.52005004883</ele>
        <time>2019-05-01T09:43:17 0200</time>
      </trkpt>
      <trkpt lat="47.2518" lon="4.94834">
        <ele>448.22802734375</ele>
        <time>2019-05-01T09:43:14 0200</time>
      </trkpt>
      <trkpt lat="47.25179" lon="4.94836">
        <ele>448.03164672852</ele>
        <time>2019-05-01T09:43:11 0200</time>
      </trkpt>
      <trkpt lat="47.25179" lon="4.94837">
        <ele>447.79791259766</ele>
        <time>2019-05-01T09:43:08 0200</time>
      </trkpt>
      <trkpt lat="47.25178" lon="4.94839">
        <ele>447.64532470703</ele>
        <time>2019-05-01T09:43:05 0200</time>
      </trkpt>
      <trkpt lat="47.25177" lon="4.94843">
        <ele>447.43090820312</ele>
        <time>2019-05-01T09:43:02 0200</time>
      </trkpt>
      <trkpt lat="47.25177" lon="4.94847">
        <ele>447.20281982422</ele>
        <time>2019-05-01T09:42:59 0200</time>
      </trkpt>
      <trkpt lat="47.25175" lon="4.94851">
        <ele>446.94201660156</ele>
        <time>2019-05-01T09:42:56 0200</time>
      </trkpt>
      <trkpt lat="47.25173" lon="4.94853">
        <ele>446.65023803711</ele>
        <time>2019-05-01T09:42:53 0200</time>
      </trkpt>
      <trkpt lat="47.25171" lon="4.94855">
        <ele>446.35833740234</ele>
        <time>2019-05-01T09:42:50 0200</time>
      </trkpt>
      <trkpt lat="47.2517" lon="4.94857">
        <ele>446.06362915039</ele>
        <time>2019-05-01T09:42:47 0200</time>
      </trkpt>
      <trkpt lat="47.25168" lon="4.9486">
        <ele>445.75759887695</ele>
        <time>2019-05-01T09:42:44 0200</time>
      </trkpt>
      <trkpt lat="47.25166" lon="4.94864">
        <ele>445.4143371582</ele>
        <time>2019-05-01T09:42:41 0200</time>
      </trkpt>
      <trkpt lat="47.25164" lon="4.94868">
        <ele>445.02688598633</ele>
        <time>2019-05-01T09:42:38 0200</time>
      </trkpt>
      <trkpt lat="47.25164" lon="4.94872">
        <ele>444.56396484375</ele>
        <time>2019-05-01T09:42:35 0200</time>
      </trkpt>
      <trkpt lat="47.25162" lon="4.94876">
        <ele>444.07113647461</ele>
        <time>2019-05-01T09:42:32 0200</time>
      </trkpt>
      <trkpt lat="47.25161" lon="4.9488">
        <ele>443.59295654297</ele>
        <time>2019-05-01T09:42:29 0200</time>
      </trkpt>
      <trkpt lat="47.25161" lon="4.94884">
        <ele>443.11651611328</ele>
        <time>2019-05-01T09:42:26 0200</time>
      </trkpt>
      <trkpt lat="47.25161" lon="4.94886">
        <ele>442.65139770508</ele>
        <time>2019-05-01T09:42:23 0200</time>
      </trkpt>
      <trkpt lat="47.2516" lon="4.94889">
        <ele>442.33352661133</ele>
        <time>2019-05-01T09:42:20 0200</time>
      </trkpt>
      <trkpt lat="47.25159" lon="4.94892">
        <ele>441.89151000977</ele>
        <time>2019-05-01T09:42:17 0200</time>
      </trkpt>
      <trkpt lat="47.25158" lon="4.94895">
        <ele>441.45776367188</ele>
        <time>2019-05-01T09:42:14 0200</time>
      </trkpt>
      <trkpt lat="47.25157" lon="4.94898">
        <ele>441.02334594727</ele>
        <time>2019-05-01T09:42:11 0200</time>
      </trkpt>
      <trkpt lat="47.25157" lon="4.94901">
        <ele>440.58050537109</ele>
        <time>2019-05-01T09:42:08 0200</time>
      </trkpt>
      <trkpt lat="47.25156" lon="4.94903">
        <ele>440.13098144531</ele>
        <time>2019-05-01T09:42:05 0200</time>
      </trkpt>
      <trkpt lat="47.25155" lon="4.94908">
        <ele>439.64956665039</ele>
        <time>2019-05-01T09:42:02 0200</time>
      </trkpt>
      <trkpt lat="47.25154" lon="4.94911">
        <ele>439.13107299805</ele>
        <time>2019-05-01T09:41:59 0200</time>
      </trkpt>
      <trkpt lat="47.25152" lon="4.94913">
        <ele>438.61199951172</ele>
        <time>2019-05-01T09:41:56 0200</time>
      </trkpt>
      <trkpt lat="47.25151" lon="4.94914">
        <ele>438.24908447266</ele>
        <time>2019-05-01T09:41:53 0200</time>
      </trkpt>
      <trkpt lat="47.2515" lon="4.94916">
        <ele>437.86654663086</ele>
        <time>2019-05-01T09:41:50 0200</time>
      </trkpt>
      <trkpt lat="47.25148" lon="4.94918">
        <ele>437.46215820312</ele>
        <time>2019-05-01T09:41:47 0200</time>
      </trkpt>
      <trkpt lat="47.25147" lon="4.9492">
        <ele>436.85784912109</ele>
        <time>2019-05-01T09:41:44 0200</time>
      </trkpt>
      <trkpt lat="47.25145" lon="4.94921">
        <ele>436.21130371094</ele>
        <time>2019-05-01T09:41:41 0200</time>
      </trkpt>
      <trkpt lat="47.25145" lon="4.94921">
        <ele>435.47625732422</ele>
        <time>2019-05-01T09:41:38 0200</time>
      </trkpt>
      <trkpt lat="47.25146" lon="4.9492">
        <ele>435.16806030273</ele>
        <time>2019-05-01T09:41:35 0200</time>
      </trkpt>
      <trkpt lat="47.25145" lon="4.94918">
        <ele>434.85830688477</ele>
        <time>2019-05-01T09:41:32 0200</time>
      </trkpt>
      <trkpt lat="47.25144" lon="4.94919">
        <ele>434.07165527344</ele>
        <time>2019-05-01T09:41:29 0200</time>
      </trkpt>
      <trkpt lat="47.25144" lon="4.94919">
        <ele>433.98934936523</ele>
        <time>2019-05-01T09:41:26 0200</time>
      </trkpt>
      <trkpt lat="47.25144" lon="4.94919">
        <ele>433.9055480957</ele>
        <time>2019-05-01T09:41:23 0200</time>
      </trkpt>
      <trkpt lat="47.25144" lon="4.94919">
        <ele>433.82119750977</ele>
        <time>2019-05-01T09:41:20 0200</time>
      </trkpt>
      <trkpt lat="47.25144" lon="4.9492">
        <ele>433.7385559082</ele>
        <time>2019-05-01T09:41:17 0200</time>
      </trkpt>
      <trkpt lat="47.25144" lon="4.9492">
        <ele>433.65982055664</ele>
        <time>2019-05-01T09:41:14 0200</time>
      </trkpt>
      <trkpt lat="47.25144" lon="4.9492">
        <ele>433.58068847656</ele>
        <time>2019-05-01T09:41:11 0200</time>
      </trkpt>
      <trkpt lat="47.25144" lon="4.9492">
        <ele>433.50210571289</ele>
        <time>2019-05-01T09:41:08 0200</time>
      </trkpt>
      <trkpt lat="47.25144" lon="4.9492">
        <ele>433.42370605469</ele>
        <time>2019-05-01T09:41:05 0200</time>
      </trkpt>
      <trkpt lat="47.25144" lon="4.9492">
        <ele>433.34732055664</ele>
        <time>2019-05-01T09:41:02 0200</time>
      </trkpt>
      <trkpt lat="47.25144" lon="4.9492">
        <ele>433.27111816406</ele>
        <time>2019-05-01T09:40:59 0200</time>
      </trkpt>
      <trkpt lat="47.25143" lon="4.9492">
        <ele>433.19427490234</ele>
        <time>2019-05-01T09:40:56 0200</time>
      </trkpt>
      <trkpt lat="47.25143" lon="4.9492">
        <ele>433.11682128906</ele>
        <time>2019-05-01T09:40:53 0200</time>
      </trkpt>
      <trkpt lat="47.25143" lon="4.94921">
        <ele>433.04049682617</ele>
        <time>2019-05-01T09:40:50 0200</time>
      </trkpt>
      <trkpt lat="47.25143" lon="4.94921">
        <ele>432.73513793945</ele>
        <time>2019-05-01T09:40:47 0200</time>
      </trkpt>
      <trkpt lat="47.25143" lon="4.94921">
        <ele>432.6520690918</ele>
        <time>2019-05-01T09:40:44 0200</time>
      </trkpt>
      <trkpt lat="47.25143" lon="4.94921">
        <ele>432.57205200195</ele>
        <time>2019-05-01T09:40:41 0200</time>
      </trkpt>
      <trkpt lat="47.25143" lon="4.94921">
        <ele>432.4977722168</ele>
        <time>2019-05-01T09:40:38 0200</time>
      </trkpt>
      <trkpt lat="47.25142" lon="4.94921">
        <ele>432.42022705078</ele>
        <time>2019-05-01T09:40:35 0200</time>
      </trkpt>
      <trkpt lat="47.25142" lon="4.94921">
        <ele>432.33746337891</ele>
        <time>2019-05-01T09:40:32 0200</time>
      </trkpt>
      <trkpt lat="47.25142" lon="4.94921">
        <ele>432.24740600586</ele>
        <time>2019-05-01T09:40:29 0200</time>
      </trkpt>
      <trkpt lat="47.25142" lon="4.94921">
        <ele>432.15621948242</ele>
        <time>2019-05-01T09:40:26 0200</time>
      </trkpt>
      <trkpt lat="47.25142" lon="4.94921">
        <ele>432.06402587891</ele>
        <time>2019-05-01T09:40:23 0200</time>
      </trkpt>
      <trkpt lat="47.25142" lon="4.94921">
        <ele>431.97039794922</ele>
        <time>2019-05-01T09:40:20 0200</time>
      </trkpt>
      <trkpt lat="47.25142" lon="4.94921">
        <ele>431.86993408203</ele>
        <time>2019-05-01T09:40:17 0200</time>
      </trkpt>
      <trkpt lat="47.25142" lon="4.94921">
        <ele>431.76794433594</ele>
        <time>2019-05-01T09:40:14 0200</time>
      </trkpt>
      <trkpt lat="47.25142" lon="4.94921">
        <ele>431.66558837891</ele>
        <time>2019-05-01T09:40:11 0200</time>
      </trkpt>
      <trkpt lat="47.25142" lon="4.94921">
        <ele>431.56100463867</ele>
        <time>2019-05-01T09:40:08 0200</time>
      </trkpt>
      <trkpt lat="47.25142" lon="4.94921">
        <ele>431.45529174805</ele>
        <time>2019-05-01T09:40:05 0200</time>
      </trkpt>
      <trkpt lat="47.25142" lon="4.94921">
        <ele>431.3493347168</ele>
        <time>2019-05-01T09:40:02 0200</time>
      </trkpt>
      <trkpt lat="47.25142" lon="4.94921">
        <ele>431.24407958984</ele>
        <time>2019-05-01T09:39:59 0200</time>
      </trkpt>
      <trkpt lat="47.25142" lon="4.94921">
        <ele>431.13961791992</ele>
        <time>2019-05-01T09:39:56 0200</time>
      </trkpt>
      <trkpt lat="47.25142" lon="4.94921">
        <ele>431.0315246582</ele>
        <time>2019-05-01T09:39:53 0200</time>
      </trkpt>
      <trkpt lat="47.25142" lon="4.94921">
        <ele>430.92077636719</ele>
        <time>2019-05-01T09:39:50 0200</time>
      </trkpt>
      <trkpt lat="47.25141" lon="4.94921">
        <ele>430.8102722168</ele>
        <time>2019-05-01T09:39:47 0200</time>
      </trkpt>
      <trkpt lat="47.25141" lon="4.94921">
        <ele>430.70083618164</ele>
        <time>2019-05-01T09:39:44 0200</time>
      </trkpt>
      <trkpt lat="47.25141" lon="4.94921">
        <ele>430.59197998047</ele>
        <time>2019-05-01T09:39:41 0200</time>
      </trkpt>
      <trkpt lat="47.25141" lon="4.94921">
        <ele>430.48452758789</ele>
        <time>2019-05-01T09:39:38 0200</time>
      </trkpt>
      <trkpt lat="47.25141" lon="4.94922">
        <ele>430.380859375</ele>
        <time>2019-05-01T09:39:35 0200</time>
      </trkpt>
      <trkpt lat="47.25141" lon="4.94922">
        <ele>430.28085327148</ele>
        <time>2019-05-01T09:39:32 0200</time>
      </trkpt>
      <trkpt lat="47.25141" lon="4.94922">
        <ele>430.1813659668</ele>
        <time>2019-05-01T09:39:29 0200</time>
      </trkpt>
      <trkpt lat="47.25141" lon="4.94922">
        <ele>430.08432006836</ele>
        <time>2019-05-01T09:39:26 0200</time>
      </trkpt>
      <trkpt lat="47.2514" lon="4.94922">
        <ele>429.98880004883</ele>
        <time>2019-05-01T09:39:23 0200</time>
      </trkpt>
      <trkpt lat="47.2514" lon="4.94922">
        <ele>429.89364624023</ele>
        <time>2019-05-01T09:39:20 0200</time>
      </trkpt>
      <trkpt lat="47.2514" lon="4.94922">
        <ele>429.79742431641</ele>
        <time>2019-05-01T09:39:17 0200</time>
      </trkpt>
      <trkpt lat="47.2514" lon="4.94922">
        <ele>429.69970703125</ele>
        <time>2019-05-01T09:39:14 0200</time>
      </trkpt>
      <trkpt lat="47.2514" lon="4.94922">
        <ele>429.60131835938</ele>
        <time>2019-05-01T09:39:11 0200</time>
      </trkpt>
      <trkpt lat="47.2514" lon="4.94922">
        <ele>429.50219726562</ele>
        <time>2019-05-01T09:39:08 0200</time>
      </trkpt>
      <trkpt lat="47.2514" lon="4.94922">
        <ele>429.40338134766</ele>
        <time>2019-05-01T09:39:05 0200</time>
      </trkpt>
      <trkpt lat="47.2514" lon="4.94922">
        <ele>429.30563354492</ele>
        <time>2019-05-01T09:39:02 0200</time>
      </trkpt>
      <trkpt lat="47.2514" lon="4.94922">
        <ele>429.20971679688</ele>
        <time>2019-05-01T09:38:59 0200</time>
      </trkpt>
      <trkpt lat="47.2514" lon="4.94922">
        <ele>429.11376953125</ele>
        <time>2019-05-01T09:38:56 0200</time>
      </trkpt>
      <trkpt lat="47.2514" lon="4.94922">
        <ele>429.02133178711</ele>
        <time>2019-05-01T09:38:53 0200</time>
      </trkpt>
      <trkpt lat="47.2514" lon="4.94922">
        <ele>428.93124389648</ele>
        <time>2019-05-01T09:38:50 0200</time>
      </trkpt>
      <trkpt lat="47.2514" lon="4.94922">
        <ele>428.84136962891</ele>
        <time>2019-05-01T09:38:47 0200</time>
      </trkpt>
      <trkpt lat="47.2514" lon="4.94922">
        <ele>428.75149536133</ele>
        <time>2019-05-01T09:38:44 0200</time>
      </trkpt>
      <trkpt lat="47.25139" lon="4.94922">
        <ele>428.66256713867</ele>
        <time>2019-05-01T09:38:41 0200</time>
      </trkpt>
      <trkpt lat="47.25139" lon="4.94922">
        <ele>428.57562255859</ele>
        <time>2019-05-01T09:38:38 0200</time>
      </trkpt>
      <trkpt lat="47.25139" lon="4.94922">
        <ele>428.49130249023</ele>
        <time>2019-05-01T09:38:36 0200</time>
      </trkpt>
      <trkpt lat="47.25139" lon="4.94922">
        <ele>428.41027832031</ele>
        <time>2019-05-01T09:38:33 0200</time>
      </trkpt>
      <trkpt lat="47.25139" lon="4.94922">
        <ele>428.33279418945</ele>
        <time>2019-05-01T09:38:30 0200</time>
      </trkpt>
      <trkpt lat="47.25139" lon="4.94923">
        <ele>428.25775146484</ele>
        <time>2019-05-01T09:38:27 0200</time>
      </trkpt>
      <trkpt lat="47.25139" lon="4.94923">
        <ele>428.18460083008</ele>
        <time>2019-05-01T09:38:24 0200</time>
      </trkpt>
      <trkpt lat="47.25139" lon="4.94923">
        <ele>428.11474609375</ele>
        <time>2019-05-01T09:38:21 0200</time>
      </trkpt>
      <trkpt lat="47.25139" lon="4.94923">
        <ele>428.04821777344</ele>
        <time>2019-05-01T09:38:18 0200</time>
      </trkpt>
      <trkpt lat="47.25138" lon="4.94923">
        <ele>427.98696899414</ele>
        <time>2019-05-01T09:38:15 0200</time>
      </trkpt>
      <trkpt lat="47.25138" lon="4.94923">
        <ele>427.9306640625</ele>
        <time>2019-05-01T09:38:12 0200</time>
      </trkpt>
      <trkpt lat="47.25138" lon="4.94923">
        <ele>427.8776550293</ele>
        <time>2019-05-01T09:38:09 0200</time>
      </trkpt>
      <trkpt lat="47.25137" lon="4.94923">
        <ele>427.65576171875</ele>
        <time>2019-05-01T09:38:06 0200</time>
      </trkpt>
      <trkpt lat="47.25137" lon="4.94923">
        <ele>427.10968017578</ele>
        <time>2019-05-01T09:38:03 0200</time>
      </trkpt>
      <trkpt lat="47.25135" lon="4.94923">
        <ele>426.57632446289</ele>
        <time>2019-05-01T09:38:00 0200</time>
      </trkpt>
      <trkpt lat="47.25133" lon="4.94923">
        <ele>426.22598266602</ele>
        <time>2019-05-01T09:37:57 0200</time>
      </trkpt>
      <trkpt lat="47.25131" lon="4.94922">
        <ele>425.92132568359</ele>
        <time>2019-05-01T09:37:54 0200</time>
      </trkpt>
      <trkpt lat="47.25131" lon="4.94922">
        <ele>425.52716064453</ele>
        <time>2019-05-01T09:37:51 0200</time>
      </trkpt>
      <trkpt lat="47.2513" lon="4.94922">
        <ele>425.25708007812</ele>
        <time>2019-05-01T09:37:48 0200</time>
      </trkpt>
      <trkpt lat="47.2513" lon="4.94924">
        <ele>424.98574829102</ele>
        <time>2019-05-01T09:37:45 0200</time>
      </trkpt>
      <trkpt lat="47.25129" lon="4.94925">
        <ele>424.84112548828</ele>
        <time>2019-05-01T09:37:42 0200</time>
      </trkpt>
      <trkpt lat="47.25129" lon="4.94925">
        <ele>424.61129760742</ele>
        <time>2019-05-01T09:37:39 0200</time>
      </trkpt>
      <trkpt lat="47.25129" lon="4.94925">
        <ele>424.41491699219</ele>
        <time>2019-05-01T09:37:36 0200</time>
      </trkpt>
      <trkpt lat="47.25128" lon="4.94928">
        <ele>424.22006225586</ele>
        <time>2019-05-01T09:37:33 0200</time>
      </trkpt>
      <trkpt lat="47.25127" lon="4.94928">
        <ele>424.10873413086</ele>
        <time>2019-05-01T09:37:30 0200</time>
      </trkpt>
      <trkpt lat="47.25127" lon="4.94929">
        <ele>424.08212280273</ele>
        <time>2019-05-01T09:37:27 0200</time>
      </trkpt>
      <trkpt lat="47.25127" lon="4.94929">
        <ele>423.86740112305</ele>
        <time>2019-05-01T09:37:24 0200</time>
      </trkpt>
      <trkpt lat="47.25126" lon="4.94929">
        <ele>423.70816040039</ele>
        <time>2019-05-01T09:37:21 0200</time>
      </trkpt>
      <trkpt lat="47.25126" lon="4.94929">
        <ele>423.58819580078</ele>
        <time>2019-05-01T09:37:18 0200</time>
      </trkpt>
      <trkpt lat="47.25126" lon="4.94929">
        <ele>423.34561157227</ele>
        <time>2019-05-01T09:37:15 0200</time>
      </trkpt>
      <trkpt lat="47.25126" lon="4.94929">
        <ele>423.30694580078</ele>
        <time>2019-05-01T09:37:12 0200</time>
      </trkpt>
      <trkpt lat="47.25126" lon="4.9493">
        <ele>423.26477050781</ele>
        <time>2019-05-01T09:37:09 0200</time>
      </trkpt>
      <trkpt lat="47.25126" lon="4.94931">
        <ele>422.97296142578</ele>
        <time>2019-05-01T09:37:06 0200</time>
      </trkpt>
      <trkpt lat="47.25127" lon="4.94931">
        <ele>422.54083251953</ele>
        <time>2019-05-01T09:37:03 0200</time>
      </trkpt>
      <trkpt lat="47.25127" lon="4.94932">
        <ele>422.36441040039</ele>
        <time>2019-05-01T09:37:00 0200</time>
      </trkpt>
      <trkpt lat="47.25127" lon="4.94931">
        <ele>421.91244506836</ele>
        <time>2019-05-01T09:36:57 0200</time>
      </trkpt>
      <trkpt lat="47.25126" lon="4.94932">
        <ele>421.5964050293</ele>
        <time>2019-05-01T09:36:54 0200</time>
      </trkpt>
      <trkpt lat="47.25125" lon="4.94931">
        <ele>421.27325439453</ele>
        <time>2019-05-01T09:36:51 0200</time>
      </trkpt>
      <trkpt lat="47.25125" lon="4.94932">
        <ele>420.79983520508</ele>
        <time>2019-05-01T09:36:48 0200</time>
      </trkpt>
      <trkpt lat="47.25125" lon="4.94932">
        <ele>420.60198974609</ele>
        <time>2019-05-01T09:36:45 0200</time>
      </trkpt>
      <trkpt lat="47.25125" lon="4.94932">
        <ele>420.2799987793</ele>
        <time>2019-05-01T09:36:42 0200</time>
      </trkpt>
      <trkpt lat="47.25126" lon="4.94932">
        <ele>420.11749267578</ele>
        <time>2019-05-01T09:36:39 0200</time>
      </trkpt>
      <trkpt lat="47.25127" lon="4.94933">
        <ele>419.85046386719</ele>
        <time>2019-05-01T09:36:36 0200</time>
      </trkpt>
      <trkpt lat="47.25127" lon="4.94934">
        <ele>419.49520874023</ele>
        <time>2019-05-01T09:36:33 0200</time>
      </trkpt>
      <trkpt lat="47.25127" lon="4.94938">
        <ele>419.21301269531</ele>
        <time>2019-05-01T09:36:30 0200</time>
      </trkpt>
      <trkpt lat="47.25127" lon="4.94938">
        <ele>418.75607299805</ele>
        <time>2019-05-01T09:36:27 0200</time>
      </trkpt>
      <trkpt lat="47.25127" lon="4.9494">
        <ele>418.3141784668</ele>
        <time>2019-05-01T09:36:24 0200</time>
      </trkpt>
      <trkpt lat="47.25128" lon="4.94941">
        <ele>417.92456054688</ele>
        <time>2019-05-01T09:36:21 0200</time>
      </trkpt>
      <trkpt lat="47.25128" lon="4.94942">
        <ele>417.67984008789</ele>
        <time>2019-05-01T09:36:18 0200</time>
      </trkpt>
      <trkpt lat="47.25127" lon="4.94943">
        <ele>417.43884277344</ele>
        <time>2019-05-01T09:36:15 0200</time>
      </trkpt>
      <trkpt lat="47.25127" lon="4.94943">
        <ele>417.11349487305</ele>
        <time>2019-05-01T09:36:12 0200</time>
      </trkpt>
      <trkpt lat="47.25127" lon="4.94946">
        <ele>416.82263183594</ele>
        <time>2019-05-01T09:36:09 0200</time>
      </trkpt>
      <trkpt lat="47.25128" lon="4.94948">
        <ele>416.62677001953</ele>
        <time>2019-05-01T09:36:06 0200</time>
      </trkpt>
      <trkpt lat="47.25128" lon="4.9495">
        <ele>416.35043334961</ele>
        <time>2019-05-01T09:36:03 0200</time>
      </trkpt>
      <trkpt lat="47.25128" lon="4.94953">
        <ele>416.16632080078</ele>
        <time>2019-05-01T09:36:00 0200</time>
      </trkpt>
      <trkpt lat="47.25127" lon="4.94956">
        <ele>415.94613647461</ele>
        <time>2019-05-01T09:35:57 0200</time>
      </trkpt>
      <trkpt lat="47.25126" lon="4.94957">
        <ele>415.82363891602</ele>
        <time>2019-05-01T09:35:54 0200</time>
      </trkpt>
      <trkpt lat="47.25125" lon="4.94959">
        <ele>415.6731262207</ele>
        <time>2019-05-01T09:35:51 0200</time>
      </trkpt>
      <trkpt lat="47.25125" lon="4.94959">
        <ele>415.61596679688</ele>
        <time>2019-05-01T09:35:48 0200</time>
      </trkpt>
      <trkpt lat="47.25125" lon="4.9496">
        <ele>415.50152587891</ele>
        <time>2019-05-01T09:35:45 0200</time>
      </trkpt>
      <trkpt lat="47.25124" lon="4.94963">
        <ele>415.4245300293</ele>
        <time>2019-05-01T09:35:42 0200</time>
      </trkpt>
      <trkpt lat="47.25124" lon="4.94965">
        <ele>415.31155395508</ele>
        <time>2019-05-01T09:35:39 0200</time>
      </trkpt>
      <trkpt lat="47.25123" lon="4.94969">
        <ele>415.30184936523</ele>
        <time>2019-05-01T09:35:36 0200</time>
      </trkpt>
      <trkpt lat="47.25123" lon="4.94971">
        <ele>415.19177246094</ele>
        <time>2019-05-01T09:35:33 0200</time>
      </trkpt>
      <trkpt lat="47.25124" lon="4.94972">
        <ele>415.02947998047</ele>
        <time>2019-05-01T09:35:30 0200</time>
      </trkpt>
      <trkpt lat="47.25124" lon="4.94974">
        <ele>414.84875488281</ele>
        <time>2019-05-01T09:35:27 0200</time>
      </trkpt>
      <trkpt lat="47.25124" lon="4.94976">
        <ele>414.67715454102</ele>
        <time>2019-05-01T09:35:24 0200</time>
      </trkpt>
      <trkpt lat="47.25123" lon="4.94978">
        <ele>414.4814453125</ele>
        <time>2019-05-01T09:35:21 0200</time>
      </trkpt>
      <trkpt lat="47.25123" lon="4.94979">
        <ele>414.3327331543</ele>
        <time>2019-05-01T09:35:18 0200</time>
      </trkpt>
      <trkpt lat="47.25124" lon="4.94979">
        <ele>414.31265258789</ele>
        <time>2019-05-01T09:35:15 0200</time>
      </trkpt>
      <trkpt lat="47.25124" lon="4.94979">
        <ele>414.29360961914</ele>
        <time>2019-05-01T09:35:12 0200</time>
      </trkpt>
      <trkpt lat="47.25124" lon="4.94979">
        <ele>414.27874755859</ele>
        <time>2019-05-01T09:35:09 0200</time>
      </trkpt>
      <trkpt lat="47.25124" lon="4.94979">
        <ele>414.26620483398</ele>
        <time>2019-05-01T09:35:06 0200</time>
      </trkpt>
      <trkpt lat="47.25124" lon="4.94979">
        <ele>414.25665283203</ele>
        <time>2019-05-01T09:35:03 0200</time>
      </trkpt>
      <trkpt lat="47.25123" lon="4.94979">
        <ele>414.24584960938</ele>
        <time>2019-05-01T09:35:00 0200</time>
      </trkpt>
      <trkpt lat="47.25122" lon="4.9498">
        <ele>414.17346191406</ele>
        <time>2019-05-01T09:34:57 0200</time>
      </trkpt>
      <trkpt lat="47.25121" lon="4.94984">
        <ele>413.93109130859</ele>
        <time>2019-05-01T09:34:54 0200</time>
      </trkpt>
      <trkpt lat="47.25119" lon="4.94988">
        <ele>413.72634887695</ele>
        <time>2019-05-01T09:34:51 0200</time>
      </trkpt>
      <trkpt lat="47.25117" lon="4.94992">
        <ele>413.40325927734</ele>
        <time>2019-05-01T09:34:48 0200</time>
      </trkpt>
      <trkpt lat="47.25117" lon="4.94993">
        <ele>413.0749206543</ele>
        <time>2019-05-01T09:34:45 0200</time>
      </trkpt>
      <trkpt lat="47.25116" lon="4.94995">
        <ele>412.84161376953</ele>
        <time>2019-05-01T09:34:42 0200</time>
      </trkpt>
      <trkpt lat="47.25116" lon="4.94997">
        <ele>412.51702880859</ele>
        <time>2019-05-01T09:34:39 0200</time>
      </trkpt>
      <trkpt lat="47.25117" lon="4.94998">
        <ele>412.31491088867</ele>
        <time>2019-05-01T09:34:36 0200</time>
      </trkpt>
      <trkpt lat="47.25117" lon="4.95001">
        <ele>412.06057739258</ele>
        <time>2019-05-01T09:34:33 0200</time>
      </trkpt>
      <trkpt lat="47.25117" lon="4.95002">
        <ele>411.82366943359</ele>
        <time>2019-05-01T09:34:30 0200</time>
      </trkpt>
      <trkpt lat="47.25116" lon="4.95004">
        <ele>411.59622192383</ele>
        <time>2019-05-01T09:34:27 0200</time>
      </trkpt>
      <trkpt lat="47.25115" lon="4.95006">
        <ele>411.39855957031</ele>
        <time>2019-05-01T09:34:24 0200</time>
      </trkpt>
      <trkpt lat="47.25116" lon="4.95009">
        <ele>411.27191162109</ele>
        <time>2019-05-01T09:34:21 0200</time>
      </trkpt>
      <trkpt lat="47.25116" lon="4.9501">
        <ele>411.13977050781</ele>
        <time>2019-05-01T09:34:18 0200</time>
      </trkpt>
      <trkpt lat="47.25117" lon="4.95013">
        <ele>410.95745849609</ele>
        <time>2019-05-01T09:34:15 0200</time>
      </trkpt>
      <trkpt lat="47.25118" lon="4.95014">
        <ele>410.77853393555</ele>
        <time>2019-05-01T09:34:12 0200</time>
      </trkpt>
      <trkpt lat="47.25119" lon="4.95017">
        <ele>410.60369873047</ele>
        <time>2019-05-01T09:34:09 0200</time>
      </trkpt>
      <trkpt lat="47.25118" lon="4.95018">
        <ele>410.47872924805</ele>
        <time>2019-05-01T09:34:06 0200</time>
      </trkpt>
      <trkpt lat="47.25117" lon="4.9502">
        <ele>410.33322143555</ele>
        <time>2019-05-01T09:34:03 0200</time>
      </trkpt>
      <trkpt lat="47.25115" lon="4.95023">
        <ele>410.23294067383</ele>
        <time>2019-05-01T09:34:00 0200</time>
      </trkpt>
      <trkpt lat="47.25113" lon="4.95027">
        <ele>410.17272949219</ele>
        <time>2019-05-01T09:33:57 0200</time>
      </trkpt>
      <trkpt lat="47.25113" lon="4.95029">
        <ele>410.11242675781</ele>
        <time>2019-05-01T09:33:54 0200</time>
      </trkpt>
      <trkpt lat="47.25113" lon="4.95032">
        <ele>410.04623413086</ele>
        <time>2019-05-01T09:33:51 0200</time>
      </trkpt>
      <trkpt lat="47.25112" lon="4.95034">
        <ele>409.95001220703</ele>
        <time>2019-05-01T09:33:48 0200</time>
      </trkpt>
      <trkpt lat="47.25112" lon="4.95036">
        <ele>409.91033935547</ele>
        <time>2019-05-01T09:33:45 0200</time>
      </trkpt>
      <trkpt lat="47.25111" lon="4.95038">
        <ele>409.97003173828</ele>
        <time>2019-05-01T09:33:42 0200</time>
      </trkpt>
      <trkpt lat="47.25109" lon="4.95039">
        <ele>410.09292602539</ele>
        <time>2019-05-01T09:33:39 0200</time>
      </trkpt>
      <trkpt lat="47.25108" lon="4.95041">
        <ele>410.25714111328</ele>
        <time>2019-05-01T09:33:36 0200</time>
      </trkpt>
      <trkpt lat="47.25108" lon="4.95041">
        <ele>410.28149414062</ele>
        <time>2019-05-01T09:33:33 0200</time>
      </trkpt>
      <trkpt lat="47.25108" lon="4.95038">
        <ele>410.38958740234</ele>
        <time>2019-05-01T09:33:30 0200</time>
      </trkpt>
      <trkpt lat="47.25108" lon="4.95038">
        <ele>410.42077636719</ele>
        <time>2019-05-01T09:33:27 0200</time>
      </trkpt>
      <trkpt lat="47.25108" lon="4.95037">
        <ele>410.46032714844</ele>
        <time>2019-05-01T09:33:24 0200</time>
      </trkpt>
      <trkpt lat="47.25108" lon="4.95037">
        <ele>410.50372314453</ele>
        <time>2019-05-01T09:33:21 0200</time>
      </trkpt>
      <trkpt lat="47.25108" lon="4.95037">
        <ele>410.54299926758</ele>
        <time>2019-05-01T09:33:18 0200</time>
      </trkpt>
      <trkpt lat="47.25107" lon="4.95038">
        <ele>410.73910522461</ele>
        <time>2019-05-01T09:33:15 0200</time>
      </trkpt>
      <trkpt lat="47.25107" lon="4.95037">
        <ele>410.83740234375</ele>
        <time>2019-05-01T09:33:12 0200</time>
      </trkpt>
      <trkpt lat="47.25107" lon="4.95037">
        <ele>410.85162353516</ele>
        <time>2019-05-01T09:33:09 0200</time>
      </trkpt>
      <trkpt lat="47.25107" lon="4.95037">
        <ele>410.85983276367</ele>
        <time>2019-05-01T09:33:06 0200</time>
      </trkpt>
      <trkpt lat="47.25107" lon="4.95037">
        <ele>410.86660766602</ele>
        <time>2019-05-01T09:33:03 0200</time>
      </trkpt>
      <trkpt lat="47.25107" lon="4.95037">
        <ele>410.87124633789</ele>
        <time>2019-05-01T09:33:00 0200</time>
      </trkpt>
      <trkpt lat="47.25107" lon="4.95037">
        <ele>410.87390136719</ele>
        <time>2019-05-01T09:32:57 0200</time>
      </trkpt>
      <trkpt lat="47.25107" lon="4.95037">
        <ele>410.87521362305</ele>
        <time>2019-05-01T09:32:54 0200</time>
      </trkpt>
      <trkpt lat="47.25107" lon="4.95037">
        <ele>410.87548828125</ele>
        <time>2019-05-01T09:32:51 0200</time>
      </trkpt>
      <trkpt lat="47.25107" lon="4.95037">
        <ele>410.87435913086</ele>
        <time>2019-05-01T09:32:48 0200</time>
      </trkpt>
      <trkpt lat="47.25107" lon="4.95037">
        <ele>410.87329101562</ele>
        <time>2019-05-01T09:32:45 0200</time>
      </trkpt>
      <trkpt lat="47.25107" lon="4.95037">
        <ele>410.8740234375</ele>
        <time>2019-05-01T09:32:42 0200</time>
      </trkpt>
      <trkpt lat="47.25107" lon="4.95037">
        <ele>410.87612915039</ele>
        <time>2019-05-01T09:32:39 0200</time>
      </trkpt>
      <trkpt lat="47.25107" lon="4.95037">
        <ele>410.87530517578</ele>
        <time>2019-05-01T09:32:36 0200</time>
      </trkpt>
      <trkpt lat="47.25107" lon="4.95037">
        <ele>410.87115478516</ele>
        <time>2019-05-01T09:32:33 0200</time>
      </trkpt>
      <trkpt lat="47.25107" lon="4.95037">
        <ele>410.86190795898</ele>
        <time>2019-05-01T09:32:30 0200</time>
      </trkpt>
      <trkpt lat="47.25107" lon="4.95038">
        <ele>410.84753417969</ele>
        <time>2019-05-01T09:32:27 0200</time>
      </trkpt>
      <trkpt lat="47.25108" lon="4.95038">
        <ele>410.82818603516</ele>
        <time>2019-05-01T09:32:24 0200</time>
      </trkpt>
      <trkpt lat="47.25108" lon="4.95041">
        <ele>410.80368041992</ele>
        <time>2019-05-01T09:32:21 0200</time>
      </trkpt>
      <trkpt lat="47.2511" lon="4.95044">
        <ele>410.77172851562</ele>
        <time>2019-05-01T09:32:18 0200</time>
      </trkpt>
      <trkpt lat="47.2511" lon="4.95044">
        <ele>410.73089599609</ele>
        <time>2019-05-01T09:32:15 0200</time>
      </trkpt>
      <trkpt lat="47.2511" lon="4.95044">
        <ele>410.6858215332</ele>
        <time>2019-05-01T09:32:12 0200</time>
      </trkpt>
      <trkpt lat="47.2511" lon="4.95045">
        <ele>410.63687133789</ele>
        <time>2019-05-01T09:32:09 0200</time>
      </trkpt>
      <trkpt lat="47.25109" lon="4.95045">
        <ele>410.58474731445</ele>
        <time>2019-05-01T09:32:06 0200</time>
      </trkpt>
      <trkpt lat="47.25109" lon="4.95045">
        <ele>410.53161621094</ele>
        <time>2019-05-01T09:32:03 0200</time>
      </trkpt>
      <trkpt lat="47.25109" lon="4.95046">
        <ele>410.47811889648</ele>
        <time>2019-05-01T09:32:00 0200</time>
      </trkpt>
      <trkpt lat="47.2511" lon="4.95044">
        <ele>410.41796875</ele>
        <time>2019-05-01T09:31:57 0200</time>
      </trkpt>
      <trkpt lat="47.2511" lon="4.95043">
        <ele>410.35665893555</ele>
        <time>2019-05-01T09:31:54 0200</time>
      </trkpt>
      <trkpt lat="47.2511" lon="4.95043">
        <ele>410.29275512695</ele>
        <time>2019-05-01T09:31:51 0200</time>
      </trkpt>
      <trkpt lat="47.25111" lon="4.95043">
        <ele>410.22802734375</ele>
        <time>2019-05-01T09:31:48 0200</time>
      </trkpt>
      <trkpt lat="47.25111" lon="4.95043">
        <ele>410.16534423828</ele>
        <time>2019-05-01T09:31:45 0200</time>
      </trkpt>
      <trkpt lat="47.25111" lon="4.95043">
        <ele>410.10595703125</ele>
        <time>2019-05-01T09:31:42 0200</time>
      </trkpt>
      <trkpt lat="47.25111" lon="4.95043">
        <ele>410.04736328125</ele>
        <time>2019-05-01T09:31:39 0200</time>
      </trkpt>
      <trkpt lat="47.25111" lon="4.95043">
        <ele>409.98608398438</ele>
        <time>2019-05-01T09:31:36 0200</time>
      </trkpt>
      <trkpt lat="47.25111" lon="4.95043">
        <ele>409.92428588867</ele>
        <time>2019-05-01T09:31:33 0200</time>
      </trkpt>
      <trkpt lat="47.25111" lon="4.95042">
        <ele>409.86059570312</ele>
        <time>2019-05-01T09:31:30 0200</time>
      </trkpt>
      <trkpt lat="47.25112" lon="4.95038">
        <ele>409.79827880859</ele>
        <time>2019-05-01T09:31:27 0200</time>
      </trkpt>
      <trkpt lat="47.25112" lon="4.95037">
        <ele>409.73388671875</ele>
        <time>2019-05-01T09:31:24 0200</time>
      </trkpt>
      <trkpt lat="47.25112" lon="4.95037">
        <ele>409.66668701172</ele>
        <time>2019-05-01T09:31:21 0200</time>
      </trkpt>
      <trkpt lat="47.25112" lon="4.95037">
        <ele>409.59860229492</ele>
        <time>2019-05-01T09:31:18 0200</time>
      </trkpt>
      <trkpt lat="47.25112" lon="4.95037">
        <ele>409.52963256836</ele>
        <time>2019-05-01T09:31:15 0200</time>
      </trkpt>
      <trkpt lat="47.25112" lon="4.95037">
        <ele>409.46099853516</ele>
        <time>2019-05-01T09:31:12 0200</time>
      </trkpt>
      <trkpt lat="47.25112" lon="4.95037">
        <ele>409.39614868164</ele>
        <time>2019-05-01T09:31:09 0200</time>
      </trkpt>
      <trkpt lat="47.25112" lon="4.95037">
        <ele>409.33868408203</ele>
        <time>2019-05-01T09:31:06 0200</time>
      </trkpt>
      <trkpt lat="47.25113" lon="4.95037">
        <ele>409.28900146484</ele>
        <time>2019-05-01T09:31:03 0200</time>
      </trkpt>
      <trkpt lat="47.25113" lon="4.95037">
        <ele>409.2414855957</ele>
        <time>2019-05-01T09:31:00 0200</time>
      </trkpt>
      <trkpt lat="47.25113" lon="4.95037">
        <ele>409.19451904297</ele>
        <time>2019-05-01T09:30:57 0200</time>
      </trkpt>
      <trkpt lat="47.25113" lon="4.95037">
        <ele>409.14813232422</ele>
        <time>2019-05-01T09:30:54 0200</time>
      </trkpt>
      <trkpt lat="47.25113" lon="4.95037">
        <ele>409.1008605957</ele>
        <time>2019-05-01T09:30:51 0200</time>
      </trkpt>
      <trkpt lat="47.25113" lon="4.95037">
        <ele>409.05114746094</ele>
        <time>2019-05-01T09:30:48 0200</time>
      </trkpt>
      <trkpt lat="47.25113" lon="4.95038">
        <ele>408.99508666992</ele>
        <time>2019-05-01T09:30:45 0200</time>
      </trkpt>
      <trkpt lat="47.25113" lon="4.95038">
        <ele>408.92599487305</ele>
        <time>2019-05-01T09:30:42 0200</time>
      </trkpt>
      <trkpt lat="47.25113" lon="4.95038">
        <ele>408.84954833984</ele>
        <time>2019-05-01T09:30:39 0200</time>
      </trkpt>
      <trkpt lat="47.25113" lon="4.95038">
        <ele>408.77301025391</ele>
        <time>2019-05-01T09:30:36 0200</time>
      </trkpt>
      <trkpt lat="47.25113" lon="4.95038">
        <ele>408.70172119141</ele>
        <time>2019-05-01T09:30:33 0200</time>
      </trkpt>
      <trkpt lat="47.25113" lon="4.95038">
        <ele>408.64007568359</ele>
        <time>2019-05-01T09:30:30 0200</time>
      </trkpt>
      <trkpt lat="47.25114" lon="4.95039">
        <ele>408.58172607422</ele>
        <time>2019-05-01T09:30:27 0200</time>
      </trkpt>
      <trkpt lat="47.25114" lon="4.95039">
        <ele>408.52444458008</ele>
        <time>2019-05-01T09:30:24 0200</time>
      </trkpt>
      <trkpt lat="47.25114" lon="4.95039">
        <ele>408.45712280273</ele>
        <time>2019-05-01T09:30:21 0200</time>
      </trkpt>
      <trkpt lat="47.25114" lon="4.95039">
        <ele>408.38272094727</ele>
        <time>2019-05-01T09:30:18 0200</time>
      </trkpt>
      <trkpt lat="47.25114" lon="4.95039">
        <ele>408.30938720703</ele>
        <time>2019-05-01T09:30:15 0200</time>
      </trkpt>
      <trkpt lat="47.25114" lon="4.95039">
        <ele>408.23785400391</ele>
        <time>2019-05-01T09:30:12 0200</time>
      </trkpt>
      <trkpt lat="47.25114" lon="4.95039">
        <ele>408.16998291016</ele>
        <time>2019-05-01T09:30:09 0200</time>
      </trkpt>
      <trkpt lat="47.25114" lon="4.95039">
        <ele>408.10949707031</ele>
        <time>2019-05-01T09:30:06 0200</time>
      </trkpt>
      <trkpt lat="47.25114" lon="4.95039">
        <ele>408.0602722168</ele>
        <time>2019-05-01T09:30:03 0200</time>
      </trkpt>
      <trkpt lat="47.25114" lon="4.95039">
        <ele>408.01837158203</ele>
        <time>2019-05-01T09:30:00 0200</time>
      </trkpt>
      <trkpt lat="47.25114" lon="4.95039">
        <ele>407.97720336914</ele>
        <time>2019-05-01T09:29:57 0200</time>
      </trkpt>
      <trkpt lat="47.25114" lon="4.95038">
        <ele>407.9352722168</ele>
        <time>2019-05-01T09:29:54 0200</time>
      </trkpt>
      <trkpt lat="47.25114" lon="4.95038">
        <ele>407.89361572266</ele>
        <time>2019-05-01T09:29:51 0200</time>
      </trkpt>
      <trkpt lat="47.25114" lon="4.95038">
        <ele>407.84823608398</ele>
        <time>2019-05-01T09:29:48 0200</time>
      </trkpt>
      <trkpt lat="47.25114" lon="4.95038">
        <ele>407.79895019531</ele>
        <time>2019-05-01T09:29:45 0200</time>
      </trkpt>
      <trkpt lat="47.25114" lon="4.95038">
        <ele>407.74591064453</ele>
        <time>2019-05-01T09:29:42 0200</time>
      </trkpt>
      <trkpt lat="47.25114" lon="4.95038">
        <ele>407.6921081543</ele>
        <time>2019-05-01T09:29:39 0200</time>
      </trkpt>
      <trkpt lat="47.25114" lon="4.95038">
        <ele>407.63882446289</ele>
        <time>2019-05-01T09:29:36 0200</time>
      </trkpt>
      <trkpt lat="47.25114" lon="4.95038">
        <ele>407.58392333984</ele>
        <time>2019-05-01T09:29:33 0200</time>
      </trkpt>
      <trkpt lat="47.25115" lon="4.95038">
        <ele>407.52777099609</ele>
        <time>2019-05-01T09:29:30 0200</time>
      </trkpt>
      <trkpt lat="47.25115" lon="4.95038">
        <ele>407.47009277344</ele>
        <time>2019-05-01T09:29:27 0200</time>
      </trkpt>
      <trkpt lat="47.25115" lon="4.95038">
        <ele>407.41091918945</ele>
        <time>2019-05-01T09:29:24 0200</time>
      </trkpt>
      <trkpt lat="47.25114" lon="4.95038">
        <ele>407.35076904297</ele>
        <time>2019-05-01T09:29:21 0200</time>
      </trkpt>
      <trkpt lat="47.25114" lon="4.95038">
        <ele>407.29077148438</ele>
        <time>2019-05-01T09:29:18 0200</time>
      </trkpt>
      <trkpt lat="47.25114" lon="4.95038">
        <ele>407.23190307617</ele>
        <time>2019-05-01T09:29:15 0200</time>
      </trkpt>
      <trkpt lat="47.25114" lon="4.95038">
        <ele>407.17318725586</ele>
        <time>2019-05-01T09:29:12 0200</time>
      </trkpt>
      <trkpt lat="47.25114" lon="4.95038">
        <ele>407.1125793457</ele>
        <time>2019-05-01T09:29:09 0200</time>
      </trkpt>
      <trkpt lat="47.25114" lon="4.95038">
        <ele>407.04943847656</ele>
        <time>2019-05-01T09:29:06 0200</time>
      </trkpt>
      <trkpt lat="47.25114" lon="4.95038">
        <ele>406.98513793945</ele>
        <time>2019-05-01T09:29:03 0200</time>
      </trkpt>
      <trkpt lat="47.25114" lon="4.95038">
        <ele>406.92074584961</ele>
        <time>2019-05-01T09:29:00 0200</time>
      </trkpt>
      <trkpt lat="47.25115" lon="4.95038">
        <ele>406.85763549805</ele>
        <time>2019-05-01T09:28:57 0200</time>
      </trkpt>
      <trkpt lat="47.25115" lon="4.95039">
        <ele>406.80346679688</ele>
        <time>2019-05-01T09:28:54 0200</time>
      </trkpt>
      <trkpt lat="47.25115" lon="4.95039">
        <ele>406.7571105957</ele>
        <time>2019-05-01T09:28:51 0200</time>
      </trkpt>
      <trkpt lat="47.25115" lon="4.9504">
        <ele>406.72106933594</ele>
        <time>2019-05-01T09:28:48 0200</time>
      </trkpt>
      <trkpt lat="47.25115" lon="4.9504">
        <ele>406.69342041016</ele>
        <time>2019-05-01T09:28:45 0200</time>
      </trkpt>
      <trkpt lat="47.25116" lon="4.95043">
        <ele>406.58486938477</ele>
        <time>2019-05-01T09:28:42 0200</time>
      </trkpt>
      <trkpt lat="47.25117" lon="4.95042">
        <ele>406.55996704102</ele>
        <time>2019-05-01T09:28:39 0200</time>
      </trkpt>
      <trkpt lat="47.25117" lon="4.95043">
        <ele>406.54232788086</ele>
        <time>2019-05-01T09:28:36 0200</time>
      </trkpt>
      <trkpt lat="47.25117" lon="4.95044">
        <ele>406.52923583984</ele>
        <time>2019-05-01T09:28:33 0200</time>
      </trkpt>
      <trkpt lat="47.25117" lon="4.95045">
        <ele>406.51733398438</ele>
        <time>2019-05-01T09:28:30 0200</time>
      </trkpt>
      <trkpt lat="47.25117" lon="4.95045">
        <ele>406.50793457031</ele>
        <time>2019-05-01T09:28:27 0200</time>
      </trkpt>
      <trkpt lat="47.25117" lon="4.95045">
        <ele>406.50140380859</ele>
        <time>2019-05-01T09:28:24 0200</time>
      </trkpt>
      <trkpt lat="47.25117" lon="4.95045">
        <ele>406.49737548828</ele>
        <time>2019-05-01T09:28:21 0200</time>
      </trkpt>
      <trkpt lat="47.25117" lon="4.95046">
        <ele>406.49548339844</ele>
        <time>2019-05-01T09:28:18 0200</time>
      </trkpt>
      <trkpt lat="47.25118" lon="4.95046">
        <ele>406.49621582031</ele>
        <time>2019-05-01T09:28:15 0200</time>
      </trkpt>
      <trkpt lat="47.25118" lon="4.95046">
        <ele>406.49905395508</ele>
        <time>2019-05-01T09:28:12 0200</time>
      </trkpt>
      <trkpt lat="47.25118" lon="4.95046">
        <ele>406.50262451172</ele>
        <time>2019-05-01T09:28:09 0200</time>
      </trkpt>
      <trkpt lat="47.25118" lon="4.95046">
        <ele>406.50674438477</ele>
        <time>2019-05-01T09:28:06 0200</time>
      </trkpt>
      <trkpt lat="47.25118" lon="4.95046">
        <ele>406.51071166992</ele>
        <time>2019-05-01T09:28:03 0200</time>
      </trkpt>
      <trkpt lat="47.25118" lon="4.95047">
        <ele>406.51431274414</ele>
        <time>2019-05-01T09:28:00 0200</time>
      </trkpt>
      <trkpt lat="47.25118" lon="4.95047">
        <ele>406.51889038086</ele>
        <time>2019-05-01T09:27:57 0200</time>
      </trkpt>
      <trkpt lat="47.25119" lon="4.95047">
        <ele>406.52368164062</ele>
        <time>2019-05-01T09:27:54 0200</time>
      </trkpt>
      <trkpt lat="47.25119" lon="4.95047">
        <ele>406.52911376953</ele>
        <time>2019-05-01T09:27:51 0200</time>
      </trkpt>
      <trkpt lat="47.25119" lon="4.95048">
        <ele>406.53768920898</ele>
        <time>2019-05-01T09:27:48 0200</time>
      </trkpt>
      <trkpt lat="47.25119" lon="4.95048">
        <ele>406.546875</ele>
        <time>2019-05-01T09:27:45 0200</time>
      </trkpt>
      <trkpt lat="47.25119" lon="4.95048">
        <ele>406.55395507812</ele>
        <time>2019-05-01T09:27:42 0200</time>
      </trkpt>
      <trkpt lat="47.25119" lon="4.95048">
        <ele>406.55484008789</ele>
        <time>2019-05-01T09:27:39 0200</time>
      </trkpt>
      <trkpt lat="47.25119" lon="4.95048">
        <ele>406.54745483398</ele>
        <time>2019-05-01T09:27:36 0200</time>
      </trkpt>
      <trkpt lat="47.25119" lon="4.95048">
        <ele>406.53442382812</ele>
        <time>2019-05-01T09:27:33 0200</time>
      </trkpt>
      <trkpt lat="47.25119" lon="4.95049">
        <ele>406.51776123047</ele>
        <time>2019-05-01T09:27:30 0200</time>
      </trkpt>
      <trkpt lat="47.25119" lon="4.95049">
        <ele>406.49810791016</ele>
        <time>2019-05-01T09:27:27 0200</time>
      </trkpt>
      <trkpt lat="47.25119" lon="4.9505">
        <ele>406.47320556641</ele>
        <time>2019-05-01T09:27:24 0200</time>
      </trkpt>
      <trkpt lat="47.25119" lon="4.9505">
        <ele>406.44244384766</ele>
        <time>2019-05-01T09:27:21 0200</time>
      </trkpt>
      <trkpt lat="47.25119" lon="4.95051">
        <ele>406.40563964844</ele>
        <time>2019-05-01T09:27:18 0200</time>
      </trkpt>
      <trkpt lat="47.25118" lon="4.95051">
        <ele>406.36318969727</ele>
        <time>2019-05-01T09:27:15 0200</time>
      </trkpt>
      <trkpt lat="47.25119" lon="4.95052">
        <ele>406.05517578125</ele>
        <time>2019-05-01T09:27:12 0200</time>
      </trkpt>
      <trkpt lat="47.25119" lon="4.95053">
        <ele>405.9001159668</ele>
        <time>2019-05-01T09:27:09 0200</time>
      </trkpt>
      <trkpt lat="47.25118" lon="4.95055">
        <ele>405.54486083984</ele>
        <time>2019-05-01T09:27:06 0200</time>
      </trkpt>
      <trkpt lat="47.25117" lon="4.95059">
        <ele>405.29089355469</ele>
        <time>2019-05-01T09:27:03 0200</time>
      </trkpt>
      <trkpt lat="47.25117" lon="4.9506">
        <ele>405.21328735352</ele>
        <time>2019-05-01T09:27:00 0200</time>
      </trkpt>
      <trkpt lat="47.25117" lon="4.9506">
        <ele>405.20166015625</ele>
        <time>2019-05-01T09:26:57 0200</time>
      </trkpt>
      <trkpt lat="47.25117" lon="4.9506">
        <ele>405.19650268555</ele>
        <time>2019-05-01T09:26:54 0200</time>
      </trkpt>
      <trkpt lat="47.25117" lon="4.9506">
        <ele>405.19586181641</ele>
        <time>2019-05-01T09:26:51 0200</time>
      </trkpt>
      <trkpt lat="47.25117" lon="4.9506">
        <ele>405.20083618164</ele>
        <time>2019-05-01T09:26:48 0200</time>
      </trkpt>
      <trkpt lat="47.25117" lon="4.9506">
        <ele>405.1975402832</ele>
        <time>2019-05-01T09:26:45 0200</time>
      </trkpt>
      <trkpt lat="47.25117" lon="4.95063">
        <ele>405.14395141602</ele>
        <time>2019-05-01T09:26:42 0200</time>
      </trkpt>
      <trkpt lat="47.25116" lon="4.95067">
        <ele>405.00802612305</ele>
        <time>2019-05-01T09:26:39 0200</time>
      </trkpt>
      <trkpt lat="47.25115" lon="4.95068">
        <ele>404.83938598633</ele>
        <time>2019-05-01T09:26:36 0200</time>
      </trkpt>
      <trkpt lat="47.25114" lon="4.95072">
        <ele>404.6796875</ele>
        <time>2019-05-01T09:26:33 0200</time>
      </trkpt>
      <trkpt lat="47.25113" lon="4.95074">
        <ele>404.541015625</ele>
        <time>2019-05-01T09:26:30 0200</time>
      </trkpt>
      <trkpt lat="47.25112" lon="4.95076">
        <ele>404.40646362305</ele>
        <time>2019-05-01T09:26:27 0200</time>
      </trkpt>
      <trkpt lat="47.25111" lon="4.95078">
        <ele>404.28887939453</ele>
        <time>2019-05-01T09:26:24 0200</time>
      </trkpt>
      <trkpt lat="47.2511" lon="4.9508">
        <ele>404.20004272461</ele>
        <time>2019-05-01T09:26:21 0200</time>
      </trkpt>
      <trkpt lat="47.25108" lon="4.95083">
        <ele>404.04116821289</ele>
        <time>2019-05-01T09:26:18 0200</time>
      </trkpt>
      <trkpt lat="47.25105" lon="4.95087">
        <ele>403.82235717773</ele>
        <time>2019-05-01T09:26:15 0200</time>
      </trkpt>
      <trkpt lat="47.25104" lon="4.9509">
        <ele>403.57202148438</ele>
        <time>2019-05-01T09:26:12 0200</time>
      </trkpt>
      <trkpt lat="47.25101" lon="4.95093">
        <ele>403.30258178711</ele>
        <time>2019-05-01T09:26:09 0200</time>
      </trkpt>
      <trkpt lat="47.25099" lon="4.95097">
        <ele>403.025390625</ele>
        <time>2019-05-01T09:26:05 0200</time>
      </trkpt>
      <trkpt lat="47.25096" lon="4.951">
        <ele>402.76165771484</ele>
        <time>2019-05-01T09:26:02 0200</time>
      </trkpt>
      <trkpt lat="47.25093" lon="4.95102">
        <ele>402.5221862793</ele>
        <time>2019-05-01T09:25:59 0200</time>
      </trkpt>
      <trkpt lat="47.2509" lon="4.95105">
        <ele>402.31341552734</ele>
        <time>2019-05-01T09:25:56 0200</time>
      </trkpt>
      <trkpt lat="47.25088" lon="4.95107">
        <ele>402.11538696289</ele>
        <time>2019-05-01T09:25:53 0200</time>
      </trkpt>
      <trkpt lat="47.25086" lon="4.95109">
        <ele>401.91262817383</ele>
        <time>2019-05-01T09:25:50 0200</time>
      </trkpt>
      <trkpt lat="47.25084" lon="4.95113">
        <ele>401.73266601562</ele>
        <time>2019-05-01T09:25:47 0200</time>
      </trkpt>
      <trkpt lat="47.25082" lon="4.95115">
        <ele>401.55242919922</ele>
        <time>2019-05-01T09:25:44 0200</time>
      </trkpt>
      <trkpt lat="47.25081" lon="4.95117">
        <ele>401.44281005859</ele>
        <time>2019-05-01T09:25:41 0200</time>
      </trkpt>
      <trkpt lat="47.25079" lon="4.95119">
        <ele>401.27169799805</ele>
        <time>2019-05-01T09:25:38 0200</time>
      </trkpt>
      <trkpt lat="47.25076" lon="4.95123">
        <ele>401.14419555664</ele>
        <time>2019-05-01T09:25:35 0200</time>
      </trkpt>
      <trkpt lat="47.25074" lon="4.95125">
        <ele>400.9924621582</ele>
        <time>2019-05-01T09:25:32 0200</time>
      </trkpt>
      <trkpt lat="47.25073" lon="4.95127">
        <ele>400.92114257812</ele>
        <time>2019-05-01T09:25:29 0200</time>
      </trkpt>
      <trkpt lat="47.25071" lon="4.9513">
        <ele>400.84732055664</ele>
        <time>2019-05-01T09:25:26 0200</time>
      </trkpt>
      <trkpt lat="47.2507" lon="4.95132">
        <ele>400.77261352539</ele>
        <time>2019-05-01T09:25:23 0200</time>
      </trkpt>
      <trkpt lat="47.2507" lon="4.95132">
        <ele>400.72189331055</ele>
        <time>2019-05-01T09:25:20 0200</time>
      </trkpt>
      <trkpt lat="47.25069" lon="4.95135">
        <ele>400.7060546875</ele>
        <time>2019-05-01T09:25:17 0200</time>
      </trkpt>
      <trkpt lat="47.25068" lon="4.95137">
        <ele>400.64929199219</ele>
        <time>2019-05-01T09:25:14 0200</time>
      </trkpt>
      <trkpt lat="47.25068" lon="4.95139">
        <ele>400.5549621582</ele>
        <time>2019-05-01T09:25:11 0200</time>
      </trkpt>
      <trkpt lat="47.25066" lon="4.95144">
        <ele>400.42169189453</ele>
        <time>2019-05-01T09:25:08 0200</time>
      </trkpt>
      <trkpt lat="47.25065" lon="4.95147">
        <ele>400.25866699219</ele>
        <time>2019-05-01T09:25:05 0200</time>
      </trkpt>
      <trkpt lat="47.25064" lon="4.9515">
        <ele>400.08410644531</ele>
        <time>2019-05-01T09:25:02 0200</time>
      </trkpt>
      <trkpt lat="47.25061" lon="4.95155">
        <ele>399.88659667969</ele>
        <time>2019-05-01T09:24:59 0200</time>
      </trkpt>
      <trkpt lat="47.25059" lon="4.95158">
        <ele>399.66241455078</ele>
        <time>2019-05-01T09:24:56 0200</time>
      </trkpt>
      <trkpt lat="47.25058" lon="4.95161">
        <ele>399.43432617188</ele>
        <time>2019-05-01T09:24:53 0200</time>
      </trkpt>
      <trkpt lat="47.25057" lon="4.95166">
        <ele>399.23419189453</ele>
        <time>2019-05-01T09:24:50 0200</time>
      </trkpt>
      <trkpt lat="47.25056" lon="4.9517">
        <ele>399.05056762695</ele>
        <time>2019-05-01T09:24:47 0200</time>
      </trkpt>
      <trkpt lat="47.25054" lon="4.95173">
        <ele>398.90625</ele>
        <time>2019-05-01T09:24:44 0200</time>
      </trkpt>
      <trkpt lat="47.25054" lon="4.95176">
        <ele>398.77459716797</ele>
        <time>2019-05-01T09:24:41 0200</time>
      </trkpt>
      <trkpt lat="47.25053" lon="4.95177">
        <ele>398.70901489258</ele>
        <time>2019-05-01T09:24:38 0200</time>
      </trkpt>
      <trkpt lat="47.25052" lon="4.9518">
        <ele>398.65707397461</ele>
        <time>2019-05-01T09:24:35 0200</time>
      </trkpt>
      <trkpt lat="47.25051" lon="4.95182">
        <ele>398.63095092773</ele>
        <time>2019-05-01T09:24:32 0200</time>
      </trkpt>
      <trkpt lat="47.25049" lon="4.95186">
        <ele>398.59704589844</ele>
        <time>2019-05-01T09:24:29 0200</time>
      </trkpt>
      <trkpt lat="47.25048" lon="4.95188">
        <ele>398.55349731445</ele>
        <time>2019-05-01T09:24:26 0200</time>
      </trkpt>
      <trkpt lat="47.25048" lon="4.95191">
        <ele>398.5334777832</ele>
        <time>2019-05-01T09:24:23 0200</time>
      </trkpt>
      <trkpt lat="47.25047" lon="4.95194">
        <ele>398.53396606445</ele>
        <time>2019-05-01T09:24:20 0200</time>
      </trkpt>
      <trkpt lat="47.25046" lon="4.95198">
        <ele>398.53469848633</ele>
        <time>2019-05-01T09:24:17 0200</time>
      </trkpt>
      <trkpt lat="47.25045" lon="4.95202">
        <ele>398.51300048828</ele>
        <time>2019-05-01T09:24:14 0200</time>
      </trkpt>
      <trkpt lat="47.25043" lon="4.95205">
        <ele>398.51037597656</ele>
        <time>2019-05-01T09:24:11 0200</time>
      </trkpt>
      <trkpt lat="47.25042" lon="4.95208">
        <ele>398.52261352539</ele>
        <time>2019-05-01T09:24:08 0200</time>
      </trkpt>
      <trkpt lat="47.2504" lon="4.95212">
        <ele>398.50546264648</ele>
        <time>2019-05-01T09:24:05 0200</time>
      </trkpt>
      <trkpt lat="47.25037" lon="4.95217">
        <ele>398.48870849609</ele>
        <time>2019-05-01T09:24:02 0200</time>
      </trkpt>
      <trkpt lat="47.25035" lon="4.95221">
        <ele>398.41290283203</ele>
        <time>2019-05-01T09:23:59 0200</time>
      </trkpt>
      <trkpt lat="47.25034" lon="4.95223">
        <ele>398.34100341797</ele>
        <time>2019-05-01T09:23:56 0200</time>
      </trkpt>
      <trkpt lat="47.25033" lon="4.95224">
        <ele>398.26821899414</ele>
        <time>2019-05-01T09:23:53 0200</time>
      </trkpt>
      <trkpt lat="47.25032" lon="4.95227">
        <ele>398.1985168457</ele>
        <time>2019-05-01T09:23:50 0200</time>
      </trkpt>
      <trkpt lat="47.25031" lon="4.95229">
        <ele>398.16186523438</ele>
        <time>2019-05-01T09:23:47 0200</time>
      </trkpt>
      <trkpt lat="47.2503" lon="4.95232">
        <ele>398.22525024414</ele>
        <time>2019-05-01T09:23:44 0200</time>
      </trkpt>
      <trkpt lat="47.25028" lon="4.95234">
        <ele>398.40365600586</ele>
        <time>2019-05-01T09:23:41 0200</time>
      </trkpt>
      <trkpt lat="47.25027" lon="4.95237">
        <ele>398.66610717773</ele>
        <time>2019-05-01T09:23:38 0200</time>
      </trkpt>
      <trkpt lat="47.25024" lon="4.95239">
        <ele>398.95477294922</ele>
        <time>2019-05-01T09:23:35 0200</time>
      </trkpt>
      <trkpt lat="47.25023" lon="4.95242">
        <ele>399.28497314453</ele>
        <time>2019-05-01T09:23:32 0200</time>
      </trkpt>
      <trkpt lat="47.25022" lon="4.95246">
        <ele>399.62228393555</ele>
        <time>2019-05-01T09:23:29 0200</time>
      </trkpt>
      <trkpt lat="47.2502" lon="4.95252">
        <ele>399.96151733398</ele>
        <time>2019-05-01T09:23:26 0200</time>
      </trkpt>
      <trkpt lat="47.25018" lon="4.95259">
        <ele>400.26635742188</ele>
        <time>2019-05-01T09:23:23 0200</time>
      </trkpt>
      <trkpt lat="47.25018" lon="4.95263">
        <ele>400.48431396484</ele>
        <time>2019-05-01T09:23:20 0200</time>
      </trkpt>
      <trkpt lat="47.25017" lon="4.95266">
        <ele>400.63525390625</ele>
        <time>2019-05-01T09:23:17 0200</time>
      </trkpt>
      <trkpt lat="47.25017" lon="4.95269">
        <ele>400.77630615234</ele>
        <time>2019-05-01T09:23:14 0200</time>
      </trkpt>
      <trkpt lat="47.25016" lon="4.95272">
        <ele>400.87799072266</ele>
        <time>2019-05-01T09:23:11 0200</time>
      </trkpt>
      <trkpt lat="47.25016" lon="4.95275">
        <ele>400.93273925781</ele>
        <time>2019-05-01T09:23:08 0200</time>
      </trkpt>
      <trkpt lat="47.25015" lon="4.95278">
        <ele>400.93511962891</ele>
        <time>2019-05-01T09:23:05 0200</time>
      </trkpt>
      <trkpt lat="47.25012" lon="4.9528">
        <ele>400.9150390625</ele>
        <time>2019-05-01T09:23:02 0200</time>
      </trkpt>
      <trkpt lat="47.2501" lon="4.95282">
        <ele>400.82574462891</ele>
        <time>2019-05-01T09:22:59 0200</time>
      </trkpt>
      <trkpt lat="47.25008" lon="4.95285">
        <ele>400.67709350586</ele>
        <time>2019-05-01T09:22:56 0200</time>
      </trkpt>
      <trkpt lat="47.25006" lon="4.95287">
        <ele>400.4108581543</ele>
        <time>2019-05-01T09:22:53 0200</time>
      </trkpt>
      <trkpt lat="47.25005" lon="4.95288">
        <ele>400.16088867188</ele>
        <time>2019-05-01T09:22:50 0200</time>
      </trkpt>
      <trkpt lat="47.25003" lon="4.9529">
        <ele>399.68148803711</ele>
        <time>2019-05-01T09:22:47 0200</time>
      </trkpt>
      <trkpt lat="47.25001" lon="4.95294">
        <ele>399.11138916016</ele>
        <time>2019-05-01T09:22:44 0200</time>
      </trkpt>
      <trkpt lat="47.24999" lon="4.95299">
        <ele>398.46633911133</ele>
        <time>2019-05-01T09:22:41 0200</time>
      </trkpt>
      <trkpt lat="47.24996" lon="4.95305">
        <ele>397.74865722656</ele>
        <time>2019-05-01T09:22:38 0200</time>
      </trkpt>
      <trkpt lat="47.24995" lon="4.95306">
        <ele>397.21270751953</ele>
        <time>2019-05-01T09:22:35 0200</time>
      </trkpt>
      <trkpt lat="47.24992" lon="4.9531">
        <ele>396.40023803711</ele>
        <time>2019-05-01T09:22:32 0200</time>
      </trkpt>
      <trkpt lat="47.24991" lon="4.95314">
        <ele>396.05157470703</ele>
        <time>2019-05-01T09:22:29 0200</time>
      </trkpt>
      <trkpt lat="47.24989" lon="4.95322">
        <ele>395.11248779297</ele>
        <time>2019-05-01T09:22:26 0200</time>
      </trkpt>
      <trkpt lat="47.24989" lon="4.95327">
        <ele>394.11120605469</ele>
        <time>2019-05-01T09:22:23 0200</time>
      </trkpt>
      <trkpt lat="47.2499" lon="4.95332">
        <ele>393.3503112793</ele>
        <time>2019-05-01T09:22:20 0200</time>
      </trkpt>
      <trkpt lat="47.24989" lon="4.95334">
        <ele>392.1887512207</ele>
        <time>2019-05-01T09:22:17 0200</time>
      </trkpt>
      <trkpt lat="47.24987" lon="4.95335">
        <ele>390.97619628906</ele>
        <time>2019-05-01T09:22:14 0200</time>
      </trkpt>
      <trkpt lat="47.24986" lon="4.95335">
        <ele>389.70278930664</ele>
        <time>2019-05-01T09:22:11 0200</time>
      </trkpt>
      <trkpt lat="47.24987" lon="4.95334">
        <ele>388.73959350586</ele>
        <time>2019-05-01T09:22:08 0200</time>
      </trkpt>
      <trkpt lat="47.24987" lon="4.95334">
        <ele>388.59176635742</ele>
        <time>2019-05-01T09:22:05 0200</time>
      </trkpt>
      <trkpt lat="47.24988" lon="4.95334">
        <ele>388.43359375</ele>
        <time>2019-05-01T09:22:02 0200</time>
      </trkpt>
      <trkpt lat="47.24988" lon="4.95334">
        <ele>388.26885986328</ele>
        <time>2019-05-01T09:21:59 0200</time>
      </trkpt>
      <trkpt lat="47.24988" lon="4.95334">
        <ele>388.1012878418</ele>
        <time>2019-05-01T09:21:56 0200</time>
      </trkpt>
      <trkpt lat="47.24988" lon="4.95333">
        <ele>387.93338012695</ele>
        <time>2019-05-01T09:21:53 0200</time>
      </trkpt>
      <trkpt lat="47.24988" lon="4.95333">
        <ele>387.76419067383</ele>
        <time>2019-05-01T09:21:50 0200</time>
      </trkpt>
      <trkpt lat="47.24988" lon="4.95333">
        <ele>387.59252929688</ele>
        <time>2019-05-01T09:21:47 0200</time>
      </trkpt>
      <trkpt lat="47.24988" lon="4.95333">
        <ele>387.41979980469</ele>
        <time>2019-05-01T09:21:44 0200</time>
      </trkpt>
      <trkpt lat="47.24989" lon="4.95333">
        <ele>387.24716186523</ele>
        <time>2019-05-01T09:21:41 0200</time>
      </trkpt>
      <trkpt lat="47.24989" lon="4.95333">
        <ele>387.07766723633</ele>
        <time>2019-05-01T09:21:38 0200</time>
      </trkpt>
      <trkpt lat="47.24989" lon="4.95333">
        <ele>386.91287231445</ele>
        <time>2019-05-01T09:21:35 0200</time>
      </trkpt>
      <trkpt lat="47.24989" lon="4.95333">
        <ele>386.75598144531</ele>
        <time>2019-05-01T09:21:32 0200</time>
      </trkpt>
      <trkpt lat="47.24989" lon="4.95333">
        <ele>386.61511230469</ele>
        <time>2019-05-01T09:21:29 0200</time>
      </trkpt>
      <trkpt lat="47.24989" lon="4.95334">
        <ele>386.49136352539</ele>
        <time>2019-05-01T09:21:26 0200</time>
      </trkpt>
      <trkpt lat="47.24989" lon="4.95334">
        <ele>386.3782043457</ele>
        <time>2019-05-01T09:21:23 0200</time>
      </trkpt>
      <trkpt lat="47.24988" lon="4.95334">
        <ele>386.28289794922</ele>
        <time>2019-05-01T09:21:20 0200</time>
      </trkpt>
      <trkpt lat="47.24987" lon="4.95335">
        <ele>385.94201660156</ele>
        <time>2019-05-01T09:21:17 0200</time>
      </trkpt>
      <trkpt lat="47.24987" lon="4.95335">
        <ele>385.86102294922</ele>
        <time>2019-05-01T09:21:14 0200</time>
      </trkpt>
      <trkpt lat="47.24987" lon="4.95335">
        <ele>385.78137207031</ele>
        <time>2019-05-01T09:21:11 0200</time>
      </trkpt>
      <trkpt lat="47.24987" lon="4.95335">
        <ele>385.70690917969</ele>
        <time>2019-05-01T09:21:08 0200</time>
      </trkpt>
      <trkpt lat="47.24987" lon="4.95335">
        <ele>385.64431762695</ele>
        <time>2019-05-01T09:21:05 0200</time>
      </trkpt>
      <trkpt lat="47.24987" lon="4.95335">
        <ele>385.59902954102</ele>
        <time>2019-05-01T09:21:02 0200</time>
      </trkpt>
      <trkpt lat="47.24988" lon="4.95335">
        <ele>385.56927490234</ele>
        <time>2019-05-01T09:20:59 0200</time>
      </trkpt>
      <trkpt lat="47.24988" lon="4.95336">
        <ele>385.54946899414</ele>
        <time>2019-05-01T09:20:56 0200</time>
      </trkpt>
      <trkpt lat="47.24988" lon="4.95336">
        <ele>385.53567504883</ele>
        <time>2019-05-01T09:20:53 0200</time>
      </trkpt>
      <trkpt lat="47.24988" lon="4.95337">
        <ele>385.52291870117</ele>
        <time>2019-05-01T09:20:50 0200</time>
      </trkpt>
      <trkpt lat="47.24988" lon="4.95338">
        <ele>385.50534057617</ele>
        <time>2019-05-01T09:20:47 0200</time>
      </trkpt>
      <trkpt lat="47.24988" lon="4.95338">
        <ele>385.4951171875</ele>
        <time>2019-05-01T09:20:44 0200</time>
      </trkpt>
      <trkpt lat="47.24984" lon="4.95341">
        <ele>385.39065551758</ele>
        <time>2019-05-01T09:20:41 0200</time>
      </trkpt>
      <trkpt lat="47.24982" lon="4.95343">
        <ele>385.25296020508</ele>
        <time>2019-05-01T09:20:38 0200</time>
      </trkpt>
      <trkpt lat="47.24979" lon="4.95347">
        <ele>385.10446166992</ele>
        <time>2019-05-01T09:20:35 0200</time>
      </trkpt>
      <trkpt lat="47.24978" lon="4.95349">
        <ele>384.88635253906</ele>
        <time>2019-05-01T09:20:32 0200</time>
      </trkpt>
      <trkpt lat="47.24978" lon="4.95351">
        <ele>384.69552612305</ele>
        <time>2019-05-01T09:20:29 0200</time>
      </trkpt>
      <trkpt lat="47.24976" lon="4.95355">
        <ele>384.51800537109</ele>
        <time>2019-05-01T09:20:26 0200</time>
      </trkpt>
      <trkpt lat="47.24975" lon="4.95359">
        <ele>384.33905029297</ele>
        <time>2019-05-01T09:20:23 0200</time>
      </trkpt>
      <trkpt lat="47.24974" lon="4.95361">
        <ele>384.13442993164</ele>
        <time>2019-05-01T09:20:20 0200</time>
      </trkpt>
      <trkpt lat="47.24973" lon="4.95363">
        <ele>383.92987060547</ele>
        <time>2019-05-01T09:20:17 0200</time>
      </trkpt>
      <trkpt lat="47.24971" lon="4.95366">
        <ele>383.72717285156</ele>
        <time>2019-05-01T09:20:14 0200</time>
      </trkpt>
      <trkpt lat="47.24969" lon="4.95367">
        <ele>383.5778503418</ele>
        <time>2019-05-01T09:20:11 0200</time>
      </trkpt>
      <trkpt lat="47.24964" lon="4.95372">
        <ele>383.41134643555</ele>
        <time>2019-05-01T09:20:08 0200</time>
      </trkpt>
      <trkpt lat="47.24961" lon="4.95376">
        <ele>383.30679321289</ele>
        <time>2019-05-01T09:20:05 0200</time>
      </trkpt>
      <trkpt lat="47.24959" lon="4.95379">
        <ele>383.25299072266</ele>
        <time>2019-05-01T09:20:02 0200</time>
      </trkpt>
      <trkpt lat="47.24957" lon="4.95381">
        <ele>383.21594238281</ele>
        <time>2019-05-01T09:19:59 0200</time>
      </trkpt>
      <trkpt lat="47.24956" lon="4.95383">
        <ele>383.23318481445</ele>
        <time>2019-05-01T09:19:56 0200</time>
      </trkpt>
      <trkpt lat="47.24954" lon="4.95384">
        <ele>383.28652954102</ele>
        <time>2019-05-01T09:19:53 0200</time>
      </trkpt>
      <trkpt lat="47.2495" lon="4.95387">
        <ele>383.33401489258</ele>
        <time>2019-05-01T09:19:50 0200</time>
      </trkpt>
      <trkpt lat="47.24949" lon="4.9539">
        <ele>383.3630065918</ele>
        <time>2019-05-01T09:19:47 0200</time>
      </trkpt>
      <trkpt lat="47.24947" lon="4.95394">
        <ele>383.37414550781</ele>
        <time>2019-05-01T09:19:44 0200</time>
      </trkpt>
      <trkpt lat="47.24946" lon="4.95397">
        <ele>383.37490844727</ele>
        <time>2019-05-01T09:19:41 0200</time>
      </trkpt>
      <trkpt lat="47.24944" lon="4.95399">
        <ele>383.39855957031</ele>
        <time>2019-05-01T09:19:38 0200</time>
      </trkpt>
      <trkpt lat="47.24941" lon="4.95402">
        <ele>383.42718505859</ele>
        <time>2019-05-01T09:19:35 0200</time>
      </trkpt>
      <trkpt lat="47.24938" lon="4.95409">
        <ele>383.40216064453</ele>
        <time>2019-05-01T09:19:32 0200</time>
      </trkpt>
      <trkpt lat="47.24937" lon="4.95413">
        <ele>383.3039855957</ele>
        <time>2019-05-01T09:19:29 0200</time>
      </trkpt>
      <trkpt lat="47.24934" lon="4.95416">
        <ele>383.17706298828</ele>
        <time>2019-05-01T09:19:26 0200</time>
      </trkpt>
      <trkpt lat="47.24933" lon="4.95418">
        <ele>383.04116821289</ele>
        <time>2019-05-01T09:19:23 0200</time>
      </trkpt>
      <trkpt lat="47.24931" lon="4.95422">
        <ele>382.94360351562</ele>
        <time>2019-05-01T09:19:20 0200</time>
      </trkpt>
      <trkpt lat="47.24931" lon="4.95425">
        <ele>382.88958740234</ele>
        <time>2019-05-01T09:19:17 0200</time>
      </trkpt>
      <trkpt lat="47.24929" lon="4.95428">
        <ele>382.84658813477</ele>
        <time>2019-05-01T09:19:14 0200</time>
      </trkpt>
      <trkpt lat="47.24928" lon="4.95432">
        <ele>382.81018066406</ele>
        <time>2019-05-01T09:19:11 0200</time>
      </trkpt>
      <trkpt lat="47.24927" lon="4.95436">
        <ele>382.78475952148</ele>
        <time>2019-05-01T09:19:08 0200</time>
      </trkpt>
      <trkpt lat="47.24926" lon="4.95439">
        <ele>382.77996826172</ele>
        <time>2019-05-01T09:19:05 0200</time>
      </trkpt>
      <trkpt lat="47.24925" lon="4.95444">
        <ele>382.80920410156</ele>
        <time>2019-05-01T09:19:02 0200</time>
      </trkpt>
      <trkpt lat="47.24923" lon="4.95448">
        <ele>382.7780456543</ele>
        <time>2019-05-01T09:18:59 0200</time>
      </trkpt>
      <trkpt lat="47.24922" lon="4.95452">
        <ele>382.71606445312</ele>
        <time>2019-05-01T09:18:56 0200</time>
      </trkpt>
      <trkpt lat="47.24921" lon="4.95455">
        <ele>382.65560913086</ele>
        <time>2019-05-01T09:18:53 0200</time>
      </trkpt>
      <trkpt lat="47.24921" lon="4.95459">
        <ele>382.61468505859</ele>
        <time>2019-05-01T09:18:50 0200</time>
      </trkpt>
      <trkpt lat="47.24919" lon="4.95464">
        <ele>382.50299072266</ele>
        <time>2019-05-01T09:18:47 0200</time>
      </trkpt>
      <trkpt lat="47.24917" lon="4.95468">
        <ele>382.29028320312</ele>
        <time>2019-05-01T09:18:44 0200</time>
      </trkpt>
      <trkpt lat="47.24915" lon="4.95472">
        <ele>382.03939819336</ele>
        <time>2019-05-01T09:18:41 0200</time>
      </trkpt>
      <trkpt lat="47.24913" lon="4.95477">
        <ele>381.75347900391</ele>
        <time>2019-05-01T09:18:38 0200</time>
      </trkpt>
      <trkpt lat="47.24912" lon="4.9548">
        <ele>381.46105957031</ele>
        <time>2019-05-01T09:18:35 0200</time>
      </trkpt>
      <trkpt lat="47.24912" lon="4.95483">
        <ele>381.24307250977</ele>
        <time>2019-05-01T09:18:32 0200</time>
      </trkpt>
      <trkpt lat="47.24911" lon="4.95487">
        <ele>380.88891601562</ele>
        <time>2019-05-01T09:18:29 0200</time>
      </trkpt>
      <trkpt lat="47.2491" lon="4.9549">
        <ele>380.49810791016</ele>
        <time>2019-05-01T09:18:26 0200</time>
      </trkpt>
      <trkpt lat="47.24909" lon="4.95493">
        <ele>380.08450317383</ele>
        <time>2019-05-01T09:18:23 0200</time>
      </trkpt>
      <trkpt lat="47.24909" lon="4.95495">
        <ele>379.66879272461</ele>
        <time>2019-05-01T09:18:20 0200</time>
      </trkpt>
      <trkpt lat="47.24907" lon="4.95499">
        <ele>379.23910522461</ele>
        <time>2019-05-01T09:18:17 0200</time>
      </trkpt>
      <trkpt lat="47.24906" lon="4.955">
        <ele>378.78607177734</ele>
        <time>2019-05-01T09:18:14 0200</time>
      </trkpt>
      <trkpt lat="47.24905" lon="4.95505">
        <ele>378.47686767578</ele>
        <time>2019-05-01T09:18:11 0200</time>
      </trkpt>
      <trkpt lat="47.24903" lon="4.9551">
        <ele>378.06246948242</ele>
        <time>2019-05-01T09:18:08 0200</time>
      </trkpt>
      <trkpt lat="47.24901" lon="4.95514">
        <ele>377.62756347656</ele>
        <time>2019-05-01T09:18:05 0200</time>
      </trkpt>
      <trkpt lat="47.24899" lon="4.95518">
        <ele>377.13873291016</ele>
        <time>2019-05-01T09:18:02 0200</time>
      </trkpt>
      <trkpt lat="47.24898" lon="4.95523">
        <ele>376.67526245117</ele>
        <time>2019-05-01T09:17:59 0200</time>
      </trkpt>
      <trkpt lat="47.24896" lon="4.95527">
        <ele>376.34802246094</ele>
        <time>2019-05-01T09:17:56 0200</time>
      </trkpt>
      <trkpt lat="47.24894" lon="4.95529">
        <ele>375.86761474609</ele>
        <time>2019-05-01T09:17:53 0200</time>
      </trkpt>
      <trkpt lat="47.24892" lon="4.95533">
        <ele>375.39639282227</ele>
        <time>2019-05-01T09:17:50 0200</time>
      </trkpt>
      <trkpt lat="47.24891" lon="4.95535">
        <ele>374.955078125</ele>
        <time>2019-05-01T09:17:47 0200</time>
      </trkpt>
      <trkpt lat="47.2489" lon="4.95539">
        <ele>374.52709960938</ele>
        <time>2019-05-01T09:17:44 0200</time>
      </trkpt>
      <trkpt lat="47.2489" lon="4.95541">
        <ele>374.11932373047</ele>
        <time>2019-05-01T09:17:41 0200</time>
      </trkpt>
      <trkpt lat="47.24887" lon="4.95545">
        <ele>373.77056884766</ele>
        <time>2019-05-01T09:17:38 0200</time>
      </trkpt>
      <trkpt lat="47.24886" lon="4.95548">
        <ele>373.41687011719</ele>
        <time>2019-05-01T09:17:35 0200</time>
      </trkpt>
      <trkpt lat="47.24883" lon="4.95553">
        <ele>373.04077148438</ele>
        <time>2019-05-01T09:17:32 0200</time>
      </trkpt>
      <trkpt lat="47.2488" lon="4.95557">
        <ele>372.6569519043</ele>
        <time>2019-05-01T09:17:29 0200</time>
      </trkpt>
      <trkpt lat="47.24877" lon="4.95562">
        <ele>372.25946044922</ele>
        <time>2019-05-01T09:17:26 0200</time>
      </trkpt>
      <trkpt lat="47.24875" lon="4.95566">
        <ele>371.90267944336</ele>
        <time>2019-05-01T09:17:23 0200</time>
      </trkpt>
      <trkpt lat="47.24872" lon="4.95569">
        <ele>371.58706665039</ele>
        <time>2019-05-01T09:17:20 0200</time>
      </trkpt>
      <trkpt lat="47.2487" lon="4.95572">
        <ele>371.25698852539</ele>
        <time>2019-05-01T09:17:17 0200</time>
      </trkpt>
      <trkpt lat="47.24868" lon="4.95575">
        <ele>370.91564941406</ele>
        <time>2019-05-01T09:17:14 0200</time>
      </trkpt>
      <trkpt lat="47.24866" lon="4.95578">
        <ele>370.54638671875</ele>
        <time>2019-05-01T09:17:11 0200</time>
      </trkpt>
      <trkpt lat="47.24865" lon="4.95581">
        <ele>370.16162109375</ele>
        <time>2019-05-01T09:17:08 0200</time>
      </trkpt>
      <trkpt lat="47.24862" lon="4.95584">
        <ele>369.77780151367</ele>
        <time>2019-05-01T09:17:05 0200</time>
      </trkpt>
      <trkpt lat="47.24858" lon="4.95587">
        <ele>369.39813232422</ele>
        <time>2019-05-01T09:17:02 0200</time>
      </trkpt>
      <trkpt lat="47.24854" lon="4.9559">
        <ele>369.01379394531</ele>
        <time>2019-05-01T09:16:59 0200</time>
      </trkpt>
      <trkpt lat="47.2485" lon="4.95592">
        <ele>368.65423583984</ele>
        <time>2019-05-01T09:16:56 0200</time>
      </trkpt>
      <trkpt lat="47.24846" lon="4.95594">
        <ele>368.33206176758</ele>
        <time>2019-05-01T09:16:53 0200</time>
      </trkpt>
      <trkpt lat="47.24842" lon="4.95596">
        <ele>368.02850341797</ele>
        <time>2019-05-01T09:16:50 0200</time>
      </trkpt>
      <trkpt lat="47.24839" lon="4.95597">
        <ele>367.74813842773</ele>
        <time>2019-05-01T09:16:47 0200</time>
      </trkpt>
      <trkpt lat="47.24835" lon="4.95599">
        <ele>367.47579956055</ele>
        <time>2019-05-01T09:16:44 0200</time>
      </trkpt>
      <trkpt lat="47.24832" lon="4.95601">
        <ele>367.21826171875</ele>
        <time>2019-05-01T09:16:41 0200</time>
      </trkpt>
      <trkpt lat="47.24831" lon="4.95602">
        <ele>367.03048706055</ele>
        <time>2019-05-01T09:16:38 0200</time>
      </trkpt>
      <trkpt lat="47.24829" lon="4.95604">
        <ele>366.92233276367</ele>
        <time>2019-05-01T09:16:35 0200</time>
      </trkpt>
      <trkpt lat="47.24827" lon="4.95605">
        <ele>366.79797363281</ele>
        <time>2019-05-01T09:16:32 0200</time>
      </trkpt>
      <trkpt lat="47.24827" lon="4.95607">
        <ele>366.66094970703</ele>
        <time>2019-05-01T09:16:29 0200</time>
      </trkpt>
      <trkpt lat="47.24825" lon="4.95611">
        <ele>366.43661499023</ele>
        <time>2019-05-01T09:16:26 0200</time>
      </trkpt>
      <trkpt lat="47.24824" lon="4.95612">
        <ele>366.34698486328</ele>
        <time>2019-05-01T09:16:23 0200</time>
      </trkpt>
      <trkpt lat="47.24822" lon="4.95616">
        <ele>366.17538452148</ele>
        <time>2019-05-01T09:16:20 0200</time>
      </trkpt>
      <trkpt lat="47.2482" lon="4.95618">
        <ele>366.07849121094</ele>
        <time>2019-05-01T09:16:17 0200</time>
      </trkpt>
      <trkpt lat="47.24818" lon="4.95621">
        <ele>366.03329467773</ele>
        <time>2019-05-01T09:16:14 0200</time>
      </trkpt>
      <trkpt lat="47.24817" lon="4.95623">
        <ele>366.06924438477</ele>
        <time>2019-05-01T09:16:11 0200</time>
      </trkpt>
      <trkpt lat="47.24815" lon="4.95627">
        <ele>366.11389160156</ele>
        <time>2019-05-01T09:16:08 0200</time>
      </trkpt>
      <trkpt lat="47.24814" lon="4.95629">
        <ele>366.14440917969</ele>
        <time>2019-05-01T09:16:05 0200</time>
      </trkpt>
      <trkpt lat="47.24814" lon="4.95631">
        <ele>366.18609619141</ele>
        <time>2019-05-01T09:16:02 0200</time>
      </trkpt>
      <trkpt lat="47.24813" lon="4.95633">
        <ele>366.21234130859</ele>
        <time>2019-05-01T09:15:59 0200</time>
      </trkpt>
      <trkpt lat="47.24811" lon="4.95636">
        <ele>366.21145629883</ele>
        <time>2019-05-01T09:15:56 0200</time>
      </trkpt>
      <trkpt lat="47.2481" lon="4.95638">
        <ele>366.17736816406</ele>
        <time>2019-05-01T09:15:53 0200</time>
      </trkpt>
      <trkpt lat="47.24809" lon="4.95643">
        <ele>366.06567382812</ele>
        <time>2019-05-01T09:15:50 0200</time>
      </trkpt>
      <trkpt lat="47.24809" lon="4.95646">
        <ele>365.90393066406</ele>
        <time>2019-05-01T09:15:47 0200</time>
      </trkpt>
      <trkpt lat="47.24808" lon="4.9565">
        <ele>365.7190246582</ele>
        <time>2019-05-01T09:15:44 0200</time>
      </trkpt>
      <trkpt lat="47.24807" lon="4.95652">
        <ele>365.52310180664</ele>
        <time>2019-05-01T09:15:41 0200</time>
      </trkpt>
      <trkpt lat="47.24806" lon="4.95656">
        <ele>365.33935546875</ele>
        <time>2019-05-01T09:15:38 0200</time>
      </trkpt>
      <trkpt lat="47.24803" lon="4.95659">
        <ele>365.14947509766</ele>
        <time>2019-05-01T09:15:35 0200</time>
      </trkpt>
      <trkpt lat="47.24801" lon="4.95662">
        <ele>364.96380615234</ele>
        <time>2019-05-01T09:15:32 0200</time>
      </trkpt>
      <trkpt lat="47.24799" lon="4.95665">
        <ele>364.80242919922</ele>
        <time>2019-05-01T09:15:29 0200</time>
      </trkpt>
      <trkpt lat="47.24797" lon="4.95668">
        <ele>364.63531494141</ele>
        <time>2019-05-01T09:15:26 0200</time>
      </trkpt>
      <trkpt lat="47.24796" lon="4.95671">
        <ele>364.47427368164</ele>
        <time>2019-05-01T09:15:23 0200</time>
      </trkpt>
      <trkpt lat="47.24794" lon="4.95674">
        <ele>364.32540893555</ele>
        <time>2019-05-01T09:15:20 0200</time>
      </trkpt>
      <trkpt lat="47.24791" lon="4.95678">
        <ele>364.21343994141</ele>
        <time>2019-05-01T09:15:17 0200</time>
      </trkpt>
      <trkpt lat="47.24789" lon="4.95681">
        <ele>364.12338256836</ele>
        <time>2019-05-01T09:15:14 0200</time>
      </trkpt>
      <trkpt lat="47.24786" lon="4.95685">
        <ele>364.0751953125</ele>
        <time>2019-05-01T09:15:11 0200</time>
      </trkpt>
      <trkpt lat="47.24784" lon="4.95688">
        <ele>364.07666015625</ele>
        <time>2019-05-01T09:15:08 0200</time>
      </trkpt>
      <trkpt lat="47.24782" lon="4.95692">
        <ele>364.07952880859</ele>
        <time>2019-05-01T09:15:05 0200</time>
      </trkpt>
      <trkpt lat="47.24779" lon="4.95698">
        <ele>364.11538696289</ele>
        <time>2019-05-01T09:15:02 0200</time>
      </trkpt>
      <trkpt lat="47.24776" lon="4.95703">
        <ele>364.20062255859</ele>
        <time>2019-05-01T09:14:59 0200</time>
      </trkpt>
      <trkpt lat="47.24776" lon="4.95704">
        <ele>364.30502319336</ele>
        <time>2019-05-01T09:14:56 0200</time>
      </trkpt>
      <trkpt lat="47.24774" lon="4.95709">
        <ele>364.41790771484</ele>
        <time>2019-05-01T09:14:53 0200</time>
      </trkpt>
      <trkpt lat="47.24772" lon="4.95712">
        <ele>364.50170898438</ele>
        <time>2019-05-01T09:14:50 0200</time>
      </trkpt>
      <trkpt lat="47.2477" lon="4.95715">
        <ele>364.55014038086</ele>
        <time>2019-05-01T09:14:47 0200</time>
      </trkpt>
      <trkpt lat="47.24768" lon="4.95718">
        <ele>364.60235595703</ele>
        <time>2019-05-01T09:14:44 0200</time>
      </trkpt>
      <trkpt lat="47.24766" lon="4.95722">
        <ele>364.66067504883</ele>
        <time>2019-05-01T09:14:41 0200</time>
      </trkpt>
      <trkpt lat="47.24765" lon="4.95725">
        <ele>364.74975585938</ele>
        <time>2019-05-01T09:14:38 0200</time>
      </trkpt>
      <trkpt lat="47.24764" lon="4.95728">
        <ele>364.80722045898</ele>
        <time>2019-05-01T09:14:35 0200</time>
      </trkpt>
      <trkpt lat="47.24763" lon="4.95732">
        <ele>364.85034179688</ele>
        <time>2019-05-01T09:14:32 0200</time>
      </trkpt>
      <trkpt lat="47.24762" lon="4.95735">
        <ele>364.8757019043</ele>
        <time>2019-05-01T09:14:29 0200</time>
      </trkpt>
      <trkpt lat="47.2476" lon="4.9574">
        <ele>364.8860168457</ele>
        <time>2019-05-01T09:14:26 0200</time>
      </trkpt>
      <trkpt lat="47.24756" lon="4.95746">
        <ele>364.84320068359</ele>
        <time>2019-05-01T09:14:23 0200</time>
      </trkpt>
      <trkpt lat="47.24753" lon="4.95752">
        <ele>364.67776489258</ele>
        <time>2019-05-01T09:14:20 0200</time>
      </trkpt>
      <trkpt lat="47.24752" lon="4.95755">
        <ele>364.51635742188</ele>
        <time>2019-05-01T09:14:17 0200</time>
      </trkpt>
      <trkpt lat="47.24751" lon="4.95757">
        <ele>364.42733764648</ele>
        <time>2019-05-01T09:14:14 0200</time>
      </trkpt>
      <trkpt lat="47.2475" lon="4.9576">
        <ele>364.34579467773</ele>
        <time>2019-05-01T09:14:11 0200</time>
      </trkpt>
      <trkpt lat="47.24748" lon="4.95763">
        <ele>364.31317138672</ele>
        <time>2019-05-01T09:14:08 0200</time>
      </trkpt>
      <trkpt lat="47.24746" lon="4.95768">
        <ele>364.30883789062</ele>
        <time>2019-05-01T09:14:05 0200</time>
      </trkpt>
      <trkpt lat="47.24746" lon="4.95768">
        <ele>364.30770874023</ele>
        <time>2019-05-01T09:14:02 0200</time>
      </trkpt>
      <trkpt lat="47.24744" lon="4.95771">
        <ele>364.27822875977</ele>
        <time>2019-05-01T09:13:59 0200</time>
      </trkpt>
      <trkpt lat="47.24742" lon="4.95775">
        <ele>364.23477172852</ele>
        <time>2019-05-01T09:13:56 0200</time>
      </trkpt>
      <trkpt lat="47.24741" lon="4.95778">
        <ele>364.31420898438</ele>
        <time>2019-05-01T09:13:53 0200</time>
      </trkpt>
      <trkpt lat="47.24739" lon="4.95782">
        <ele>364.45260620117</ele>
        <time>2019-05-01T09:13:50 0200</time>
      </trkpt>
      <trkpt lat="47.24735" lon="4.95786">
        <ele>364.63394165039</ele>
        <time>2019-05-01T09:13:47 0200</time>
      </trkpt>
      <trkpt lat="47.24732" lon="4.95791">
        <ele>364.86929321289</ele>
        <time>2019-05-01T09:13:44 0200</time>
      </trkpt>
      <trkpt lat="47.24729" lon="4.95794">
        <ele>365.12576293945</ele>
        <time>2019-05-01T09:13:41 0200</time>
      </trkpt>
      <trkpt lat="47.24728" lon="4.95799">
        <ele>365.40551757812</ele>
        <time>2019-05-01T09:13:38 0200</time>
      </trkpt>
      <trkpt lat="47.24726" lon="4.95803">
        <ele>365.6784362793</ele>
        <time>2019-05-01T09:13:35 0200</time>
      </trkpt>
      <trkpt lat="47.24724" lon="4.95809">
        <ele>365.87860107422</ele>
        <time>2019-05-01T09:13:32 0200</time>
      </trkpt>
      <trkpt lat="47.24722" lon="4.95814">
        <ele>365.96276855469</ele>
        <time>2019-05-01T09:13:30 0200</time>
      </trkpt>
      <trkpt lat="47.24721" lon="4.95817">
        <ele>366.05639648438</ele>
        <time>2019-05-01T09:13:27 0200</time>
      </trkpt>
      <trkpt lat="47.24719" lon="4.95822">
        <ele>366.14605712891</ele>
        <time>2019-05-01T09:13:24 0200</time>
      </trkpt>
      <trkpt lat="47.24717" lon="4.95826">
        <ele>366.16802978516</ele>
        <time>2019-05-01T09:13:21 0200</time>
      </trkpt>
      <trkpt lat="47.24715" lon="4.9583">
        <ele>366.13012695312</ele>
        <time>2019-05-01T09:13:18 0200</time>
      </trkpt>
      <trkpt lat="47.24712" lon="4.95839">
        <ele>365.99765014648</ele>
        <time>2019-05-01T09:13:15 0200</time>
      </trkpt>
      <trkpt lat="47.24711" lon="4.95843">
        <ele>365.73275756836</ele>
        <time>2019-05-01T09:13:12 0200</time>
      </trkpt>
      <trkpt lat="47.24709" lon="4.95846">
        <ele>365.4440612793</ele>
        <time>2019-05-01T09:13:09 0200</time>
      </trkpt>
      <trkpt lat="47.24708" lon="4.95851">
        <ele>365.15734863281</ele>
        <time>2019-05-01T09:13:06 0200</time>
      </trkpt>
      <trkpt lat="47.24706" lon="4.95854">
        <ele>364.83374023438</ele>
        <time>2019-05-01T09:13:03 0200</time>
      </trkpt>
      <trkpt lat="47.24706" lon="4.95857">
        <ele>364.61737060547</ele>
        <time>2019-05-01T09:13:00 0200</time>
      </trkpt>
      <trkpt lat="47.24706" lon="4.9586">
        <ele>364.28237915039</ele>
        <time>2019-05-01T09:12:57 0200</time>
      </trkpt>
      <trkpt lat="47.24705" lon="4.95862">
        <ele>363.8903503418</ele>
        <time>2019-05-01T09:12:54 0200</time>
      </trkpt>
      <trkpt lat="47.24702" lon="4.95865">
        <ele>363.45223999023</ele>
        <time>2019-05-01T09:12:51 0200</time>
      </trkpt>
      <trkpt lat="47.247" lon="4.95867">
        <ele>363.01702880859</ele>
        <time>2019-05-01T09:12:48 0200</time>
      </trkpt>
      <trkpt lat="47.24698" lon="4.9587">
        <ele>362.58334350586</ele>
        <time>2019-05-01T09:12:45 0200</time>
      </trkpt>
      <trkpt lat="47.24696" lon="4.95873">
        <ele>362.13662719727</ele>
        <time>2019-05-01T09:12:42 0200</time>
      </trkpt>
      <trkpt lat="47.24694" lon="4.95877">
        <ele>361.68283081055</ele>
        <time>2019-05-01T09:12:39 0200</time>
      </trkpt>
      <trkpt lat="47.24693" lon="4.95879">
        <ele>361.37985229492</ele>
        <time>2019-05-01T09:12:36 0200</time>
      </trkpt>
      <trkpt lat="47.2469" lon="4.95882">
        <ele>360.98623657227</ele>
        <time>2019-05-01T09:12:33 0200</time>
      </trkpt>
      <trkpt lat="47.2469" lon="4.95885">
        <ele>360.67514038086</ele>
        <time>2019-05-01T09:12:30 0200</time>
      </trkpt>
      <trkpt lat="47.24688" lon="4.95885">
        <ele>360.45745849609</ele>
        <time>2019-05-01T09:12:27 0200</time>
      </trkpt>
      <trkpt lat="47.24685" lon="4.95887">
        <ele>360.279296875</ele>
        <time>2019-05-01T09:12:24 0200</time>
      </trkpt>
      <trkpt lat="47.24682" lon="4.9589">
        <ele>360.12103271484</ele>
        <time>2019-05-01T09:12:21 0200</time>
      </trkpt>
      <trkpt lat="47.24679" lon="4.95894">
        <ele>359.93026733398</ele>
        <time>2019-05-01T09:12:18 0200</time>
      </trkpt>
      <trkpt lat="47.24676" lon="4.959">
        <ele>359.89294433594</ele>
        <time>2019-05-01T09:12:15 0200</time>
      </trkpt>
      <trkpt lat="47.24674" lon="4.95903">
        <ele>359.88723754883</ele>
        <time>2019-05-01T09:12:12 0200</time>
      </trkpt>
      <trkpt lat="47.24671" lon="4.95906">
        <ele>360.02285766602</ele>
        <time>2019-05-01T09:12:09 0200</time>
      </trkpt>
      <trkpt lat="47.24669" lon="4.9591">
        <ele>360.22360229492</ele>
        <time>2019-05-01T09:12:06 0200</time>
      </trkpt>
      <trkpt lat="47.24668" lon="4.95914">
        <ele>360.36434936523</ele>
        <time>2019-05-01T09:12:03 0200</time>
      </trkpt>
      <trkpt lat="47.24668" lon="4.95917">
        <ele>360.28790283203</ele>
        <time>2019-05-01T09:12:00 0200</time>
      </trkpt>
      <trkpt lat="47.24667" lon="4.95922">
        <ele>360.02328491211</ele>
        <time>2019-05-01T09:11:57 0200</time>
      </trkpt>
      <trkpt lat="47.24664" lon="4.95928">
        <ele>359.81677246094</ele>
        <time>2019-05-01T09:11:54 0200</time>
      </trkpt>
      <trkpt lat="47.24662" lon="4.95933">
        <ele>359.62799072266</ele>
        <time>2019-05-01T09:11:51 0200</time>
      </trkpt>
      <trkpt lat="47.24659" lon="4.95937">
        <ele>359.27557373047</ele>
        <time>2019-05-01T09:11:48 0200</time>
      </trkpt>
      <trkpt lat="47.2466" lon="4.9594">
        <ele>358.91439819336</ele>
        <time>2019-05-01T09:11:45 0200</time>
      </trkpt>
      <trkpt lat="47.2466" lon="4.95942">
        <ele>358.44055175781</ele>
        <time>2019-05-01T09:11:42 0200</time>
      </trkpt>
      <trkpt lat="47.2466" lon="4.95944">
        <ele>357.99682617188</ele>
        <time>2019-05-01T09:11:39 0200</time>
      </trkpt>
      <trkpt lat="47.24659" lon="4.95953">
        <ele>357.75799560547</ele>
        <time>2019-05-01T09:11:36 0200</time>
      </trkpt>
      <trkpt lat="47.24659" lon="4.95959">
        <ele>357.49456787109</ele>
        <time>2019-05-01T09:11:33 0200</time>
      </trkpt>
      <trkpt lat="47.24658" lon="4.95964">
        <ele>357.09805297852</ele>
        <time>2019-05-01T09:11:30 0200</time>
      </trkpt>
      <trkpt lat="47.24659" lon="4.95969">
        <ele>356.63681030273</ele>
        <time>2019-05-01T09:11:27 0200</time>
      </trkpt>
      <trkpt lat="47.24659" lon="4.95973">
        <ele>356.13189697266</ele>
        <time>2019-05-01T09:11:24 0200</time>
      </trkpt>
      <trkpt lat="47.24659" lon="4.95976">
        <ele>355.55413818359</ele>
        <time>2019-05-01T09:11:21 0200</time>
      </trkpt>
      <trkpt lat="47.24658" lon="4.95977">
        <ele>355.05038452148</ele>
        <time>2019-05-01T09:11:18 0200</time>
      </trkpt>
      <trkpt lat="47.24658" lon="4.95981">
        <ele>354.50939941406</ele>
        <time>2019-05-01T09:11:15 0200</time>
      </trkpt>
      <trkpt lat="47.24657" lon="4.95983">
        <ele>353.93151855469</ele>
        <time>2019-05-01T09:11:12 0200</time>
      </trkpt>
      <trkpt lat="47.24659" lon="4.95984">
        <ele>353.42578125</ele>
        <time>2019-05-01T09:11:09 0200</time>
      </trkpt>
      <trkpt lat="47.24659" lon="4.95988">
        <ele>352.99160766602</ele>
        <time>2019-05-01T09:11:06 0200</time>
      </trkpt>
      <trkpt lat="47.24658" lon="4.95992">
        <ele>352.75820922852</ele>
        <time>2019-05-01T09:11:03 0200</time>
      </trkpt>
      <trkpt lat="47.24658" lon="4.95994">
        <ele>352.59329223633</ele>
        <time>2019-05-01T09:11:00 0200</time>
      </trkpt>
      <trkpt lat="47.24658" lon="4.95998">
        <ele>352.59756469727</ele>
        <time>2019-05-01T09:10:57 0200</time>
      </trkpt>
      <trkpt lat="47.24657" lon="4.96002">
        <ele>352.63146972656</ele>
        <time>2019-05-01T09:10:54 0200</time>
      </trkpt>
      <trkpt lat="47.24656" lon="4.96008">
        <ele>352.67236328125</ele>
        <time>2019-05-01T09:10:51 0200</time>
      </trkpt>
      <trkpt lat="47.24654" lon="4.96011">
        <ele>352.65972900391</ele>
        <time>2019-05-01T09:10:48 0200</time>
      </trkpt>
      <trkpt lat="47.24651" lon="4.96014">
        <ele>352.50820922852</ele>
        <time>2019-05-01T09:10:45 0200</time>
      </trkpt>
      <trkpt lat="47.24649" lon="4.96022">
        <ele>352.28207397461</ele>
        <time>2019-05-01T09:10:42 0200</time>
      </trkpt>
      <trkpt lat="47.2465" lon="4.96027">
        <ele>351.94351196289</ele>
        <time>2019-05-01T09:10:39 0200</time>
      </trkpt>
      <trkpt lat="47.24648" lon="4.96032">
        <ele>351.72515869141</ele>
        <time>2019-05-01T09:10:36 0200</time>
      </trkpt>
      <trkpt lat="47.24647" lon="4.96037">
        <ele>351.77963256836</ele>
        <time>2019-05-01T09:10:33 0200</time>
      </trkpt>
      <trkpt lat="47.24645" lon="4.96041">
        <ele>351.984375</ele>
        <time>2019-05-01T09:10:30 0200</time>
      </trkpt>
      <trkpt lat="47.24642" lon="4.96045">
        <ele>352.31695556641</ele>
        <time>2019-05-01T09:10:27 0200</time>
      </trkpt>
      <trkpt lat="47.2464" lon="4.96051">
        <ele>352.67990112305</ele>
        <time>2019-05-01T09:10:24 0200</time>
      </trkpt>
      <trkpt lat="47.24638" lon="4.96055">
        <ele>352.99603271484</ele>
        <time>2019-05-01T09:10:21 0200</time>
      </trkpt>
      <trkpt lat="47.24638" lon="4.96061">
        <ele>353.40139770508</ele>
        <time>2019-05-01T09:10:18 0200</time>
      </trkpt>
      <trkpt lat="47.24639" lon="4.96063">
        <ele>353.98046875</ele>
        <time>2019-05-01T09:10:15 0200</time>
      </trkpt>
      <trkpt lat="47.2464" lon="4.96066">
        <ele>354.77053833008</ele>
        <time>2019-05-01T09:10:12 0200</time>
      </trkpt>
      <trkpt lat="47.24639" lon="4.96074">
        <ele>355.54190063477</ele>
        <time>2019-05-01T09:10:09 0200</time>
      </trkpt>
      <trkpt lat="47.24637" lon="4.96076">
        <ele>356.13720703125</ele>
        <time>2019-05-01T09:10:06 0200</time>
      </trkpt>
      <trkpt lat="47.24636" lon="4.96081">
        <ele>356.63583374023</ele>
        <time>2019-05-01T09:10:03 0200</time>
      </trkpt>
      <trkpt lat="47.24636" lon="4.96087">
        <ele>357.0234375</ele>
        <time>2019-05-01T09:10:00 0200</time>
      </trkpt>
      <trkpt lat="47.24635" lon="4.96088">
        <ele>357.30612182617</ele>
        <time>2019-05-01T09:09:57 0200</time>
      </trkpt>
      <trkpt lat="47.24635" lon="4.96091">
        <ele>357.78280639648</ele>
        <time>2019-05-01T09:09:54 0200</time>
      </trkpt>
      <trkpt lat="47.24635" lon="4.96095">
        <ele>358.1448059082</ele>
        <time>2019-05-01T09:09:51 0200</time>
      </trkpt>
      <trkpt lat="47.24635" lon="4.96097">
        <ele>358.65078735352</ele>
        <time>2019-05-01T09:09:48 0200</time>
      </trkpt>
      <trkpt lat="47.24636" lon="4.96102">
        <ele>359.39053344727</ele>
        <time>2019-05-01T09:09:45 0200</time>
      </trkpt>
      <trkpt lat="47.24635" lon="4.96105">
        <ele>360.14923095703</ele>
        <time>2019-05-01T09:09:42 0200</time>
      </trkpt>
      <trkpt lat="47.24633" lon="4.96111">
        <ele>360.7350769043</ele>
        <time>2019-05-01T09:09:39 0200</time>
      </trkpt>
      <trkpt lat="47.24633" lon="4.96112">
        <ele>361.17166137695</ele>
        <time>2019-05-01T09:09:36 0200</time>
      </trkpt>
      <trkpt lat="47.24631" lon="4.96121">
        <ele>361.50064086914</ele>
        <time>2019-05-01T09:09:33 0200</time>
      </trkpt>
      <trkpt lat="47.2463" lon="4.96125">
        <ele>361.73147583008</ele>
        <time>2019-05-01T09:09:30 0200</time>
      </trkpt>
      <trkpt lat="47.2463" lon="4.96129">
        <ele>361.89147949219</ele>
        <time>2019-05-01T09:09:27 0200</time>
      </trkpt>
      <trkpt lat="47.24627" lon="4.96133">
        <ele>362.11343383789</ele>
        <time>2019-05-01T09:09:24 0200</time>
      </trkpt>
      <trkpt lat="47.24626" lon="4.96136">
        <ele>362.34176635742</ele>
        <time>2019-05-01T09:09:21 0200</time>
      </trkpt>
      <trkpt lat="47.24624" lon="4.96139">
        <ele>362.52438354492</ele>
        <time>2019-05-01T09:09:18 0200</time>
      </trkpt>
      <trkpt lat="47.24624" lon="4.96142">
        <ele>362.66226196289</ele>
        <time>2019-05-01T09:09:15 0200</time>
      </trkpt>
      <trkpt lat="47.24623" lon="4.96148">
        <ele>362.76052856445</ele>
        <time>2019-05-01T09:09:12 0200</time>
      </trkpt>
      <trkpt lat="47.2462" lon="4.96153">
        <ele>362.73223876953</ele>
        <time>2019-05-01T09:09:09 0200</time>
      </trkpt>
      <trkpt lat="47.24619" lon="4.96161">
        <ele>362.57284545898</ele>
        <time>2019-05-01T09:09:06 0200</time>
      </trkpt>
      <trkpt lat="47.24618" lon="4.96166">
        <ele>362.20190429688</ele>
        <time>2019-05-01T09:09:03 0200</time>
      </trkpt>
      <trkpt lat="47.24617" lon="4.96171">
        <ele>361.87759399414</ele>
        <time>2019-05-01T09:09:00 0200</time>
      </trkpt>
      <trkpt lat="47.24618" lon="4.96176">
        <ele>361.60647583008</ele>
        <time>2019-05-01T09:08:57 0200</time>
      </trkpt>
      <trkpt lat="47.24619" lon="4.96179">
        <ele>361.29656982422</ele>
        <time>2019-05-01T09:08:54 0200</time>
      </trkpt>
      <trkpt lat="47.24621" lon="4.96186">
        <ele>360.84216308594</ele>
        <time>2019-05-01T09:08:51 0200</time>
      </trkpt>
      <trkpt lat="47.24621" lon="4.96191">
        <ele>360.34475708008</ele>
        <time>2019-05-01T09:08:48 0200</time>
      </trkpt>
      <trkpt lat="47.2462" lon="4.96195">
        <ele>359.80206298828</ele>
        <time>2019-05-01T09:08:45 0200</time>
      </trkpt>
      <trkpt lat="47.24619" lon="4.962">
        <ele>359.30804443359</ele>
        <time>2019-05-01T09:08:42 0200</time>
      </trkpt>
      <trkpt lat="47.24618" lon="4.96203">
        <ele>358.84912109375</ele>
        <time>2019-05-01T09:08:39 0200</time>
      </trkpt>
      <trkpt lat="47.24616" lon="4.96207">
        <ele>358.49447631836</ele>
        <time>2019-05-01T09:08:36 0200</time>
      </trkpt>
      <trkpt lat="47.24615" lon="4.9621">
        <ele>358.24307250977</ele>
        <time>2019-05-01T09:08:33 0200</time>
      </trkpt>
      <trkpt lat="47.24615" lon="4.96213">
        <ele>358.04473876953</ele>
        <time>2019-05-01T09:08:30 0200</time>
      </trkpt>
      <trkpt lat="47.24613" lon="4.96218">
        <ele>357.78729248047</ele>
        <time>2019-05-01T09:08:27 0200</time>
      </trkpt>
      <trkpt lat="47.2461" lon="4.96222">
        <ele>357.50054931641</ele>
        <time>2019-05-01T09:08:24 0200</time>
      </trkpt>
      <trkpt lat="47.24607" lon="4.96234">
        <ele>357.05871582031</ele>
        <time>2019-05-01T09:08:21 0200</time>
      </trkpt>
      <trkpt lat="47.24606" lon="4.96237">
        <ele>356.41061401367</ele>
        <time>2019-05-01T09:08:18 0200</time>
      </trkpt>
      <trkpt lat="47.24606" lon="4.96239">
        <ele>355.89300537109</ele>
        <time>2019-05-01T09:08:15 0200</time>
      </trkpt>
      <trkpt lat="47.24604" lon="4.96243">
        <ele>355.37759399414</ele>
        <time>2019-05-01T09:08:12 0200</time>
      </trkpt>
      <trkpt lat="47.24605" lon="4.96247">
        <ele>354.75366210938</ele>
        <time>2019-05-01T09:08:09 0200</time>
      </trkpt>
      <trkpt lat="47.24603" lon="4.9625">
        <ele>353.94137573242</ele>
        <time>2019-05-01T09:08:06 0200</time>
      </trkpt>
      <trkpt lat="47.246" lon="4.96254">
        <ele>353.18954467773</ele>
        <time>2019-05-01T09:08:03 0200</time>
      </trkpt>
      <trkpt lat="47.24598" lon="4.96258">
        <ele>352.4416809082</ele>
        <time>2019-05-01T09:08:00 0200</time>
      </trkpt>
      <trkpt lat="47.24597" lon="4.9626">
        <ele>351.65451049805</ele>
        <time>2019-05-01T09:07:57 0200</time>
      </trkpt>
      <trkpt lat="47.24597" lon="4.96266">
        <ele>350.94619750977</ele>
        <time>2019-05-01T09:07:54 0200</time>
      </trkpt>
      <trkpt lat="47.24597" lon="4.96272">
        <ele>350.29974365234</ele>
        <time>2019-05-01T09:07:51 0200</time>
      </trkpt>
      <trkpt lat="47.24597" lon="4.96276">
        <ele>349.79229736328</ele>
        <time>2019-05-01T09:07:48 0200</time>
      </trkpt>
      <trkpt lat="47.24597" lon="4.96282">
        <ele>349.33880615234</ele>
        <time>2019-05-01T09:07:45 0200</time>
      </trkpt>
      <trkpt lat="47.24595" lon="4.96284">
        <ele>348.96170043945</ele>
        <time>2019-05-01T09:07:42 0200</time>
      </trkpt>
      <trkpt lat="47.24593" lon="4.96285">
        <ele>348.64016723633</ele>
        <time>2019-05-01T09:07:39 0200</time>
      </trkpt>
      <trkpt lat="47.24592" lon="4.96289">
        <ele>348.37979125977</ele>
        <time>2019-05-01T09:07:36 0200</time>
      </trkpt>
      <trkpt lat="47.2459" lon="4.96293">
        <ele>348.18753051758</ele>
        <time>2019-05-01T09:07:33 0200</time>
      </trkpt>
      <trkpt lat="47.24588" lon="4.96298">
        <ele>347.87002563477</ele>
        <time>2019-05-01T09:07:30 0200</time>
      </trkpt>
      <trkpt lat="47.24588" lon="4.96303">
        <ele>347.47091674805</ele>
        <time>2019-05-01T09:07:27 0200</time>
      </trkpt>
      <trkpt lat="47.24586" lon="4.96308">
        <ele>347.05737304688</ele>
        <time>2019-05-01T09:07:24 0200</time>
      </trkpt>
      <trkpt lat="47.24585" lon="4.96313">
        <ele>346.55859375</ele>
        <time>2019-05-01T09:07:21 0200</time>
      </trkpt>
      <trkpt lat="47.24584" lon="4.96316">
        <ele>345.93466186523</ele>
        <time>2019-05-01T09:07:18 0200</time>
      </trkpt>
      <trkpt lat="47.24584" lon="4.96319">
        <ele>345.38369750977</ele>
        <time>2019-05-01T09:07:15 0200</time>
      </trkpt>
      <trkpt lat="47.24584" lon="4.96324">
        <ele>344.83724975586</ele>
        <time>2019-05-01T09:07:12 0200</time>
      </trkpt>
      <trkpt lat="47.24584" lon="4.96329">
        <ele>344.33337402344</ele>
        <time>2019-05-01T09:07:09 0200</time>
      </trkpt>
      <trkpt lat="47.24584" lon="4.96333">
        <ele>343.89138793945</ele>
        <time>2019-05-01T09:07:06 0200</time>
      </trkpt>
      <trkpt lat="47.24585" lon="4.96338">
        <ele>343.31317138672</ele>
        <time>2019-05-01T09:07:03 0200</time>
      </trkpt>
      <trkpt lat="47.24584" lon="4.96348">
        <ele>342.59771728516</ele>
        <time>2019-05-01T09:07:00 0200</time>
      </trkpt>
      <trkpt lat="47.24585" lon="4.96351">
        <ele>341.66296386719</ele>
        <time>2019-05-01T09:06:57 0200</time>
      </trkpt>
      <trkpt lat="47.24585" lon="4.96354">
        <ele>340.70394897461</ele>
        <time>2019-05-01T09:06:54 0200</time>
      </trkpt>
      <trkpt lat="47.24587" lon="4.96359">
        <ele>339.82684326172</ele>
        <time>2019-05-01T09:06:51 0200</time>
      </trkpt>
      <trkpt lat="47.24587" lon="4.96361">
        <ele>339.09979248047</ele>
        <time>2019-05-01T09:06:48 0200</time>
      </trkpt>
      <trkpt lat="47.24588" lon="4.96359">
        <ele>338.86950683594</ele>
        <time>2019-05-01T09:06:45 0200</time>
      </trkpt>
      <trkpt lat="47.24588" lon="4.96357">
        <ele>338.58697509766</ele>
        <time>2019-05-01T09:06:42 0200</time>
      </trkpt>
      <trkpt lat="47.24585" lon="4.96363">
        <ele>338.47967529297</ele>
        <time>2019-05-01T09:06:39 0200</time>
      </trkpt>
      <trkpt lat="47.24584" lon="4.96368">
        <ele>338.39605712891</ele>
        <time>2019-05-01T09:06:36 0200</time>
      </trkpt>
      <trkpt lat="47.24585" lon="4.96369">
        <ele>338.42935180664</ele>
        <time>2019-05-01T09:06:33 0200</time>
      </trkpt>
      <trkpt lat="47.24587" lon="4.96373">
        <ele>338.60162353516</ele>
        <time>2019-05-01T09:06:30 0200</time>
      </trkpt>
      <trkpt lat="47.24588" lon="4.96376">
        <ele>338.81591796875</ele>
        <time>2019-05-01T09:06:27 0200</time>
      </trkpt>
      <trkpt lat="47.24588" lon="4.96382">
        <ele>338.99465942383</ele>
        <time>2019-05-01T09:06:24 0200</time>
      </trkpt>
      <trkpt lat="47.24588" lon="4.96391">
        <ele>338.96276855469</ele>
        <time>2019-05-01T09:06:21 0200</time>
      </trkpt>
      <trkpt lat="47.24587" lon="4.96393">
        <ele>338.81207275391</ele>
        <time>2019-05-01T09:06:18 0200</time>
      </trkpt>
      <trkpt lat="47.24587" lon="4.96397">
        <ele>338.61560058594</ele>
        <time>2019-05-01T09:06:15 0200</time>
      </trkpt>
      <trkpt lat="47.24586" lon="4.96401">
        <ele>338.37762451172</ele>
        <time>2019-05-01T09:06:12 0200</time>
      </trkpt>
      <trkpt lat="47.24587" lon="4.96402">
        <ele>338.05307006836</ele>
        <time>2019-05-01T09:06:09 0200</time>
      </trkpt>
      <trkpt lat="47.24586" lon="4.96407">
        <ele>337.68405151367</ele>
        <time>2019-05-01T09:06:06 0200</time>
      </trkpt>
      <trkpt lat="47.24586" lon="4.96409">
        <ele>337.36676025391</ele>
        <time>2019-05-01T09:06:03 0200</time>
      </trkpt>
      <trkpt lat="47.24583" lon="4.96414">
        <ele>337.06286621094</ele>
        <time>2019-05-01T09:06:00 0200</time>
      </trkpt>
      <trkpt lat="47.24582" lon="4.96419">
        <ele>336.72906494141</ele>
        <time>2019-05-01T09:05:57 0200</time>
      </trkpt>
      <trkpt lat="47.2458" lon="4.96427">
        <ele>336.17776489258</ele>
        <time>2019-05-01T09:05:54 0200</time>
      </trkpt>
      <trkpt lat="47.2458" lon="4.96432">
        <ele>335.55810546875</ele>
        <time>2019-05-01T09:05:51 0200</time>
      </trkpt>
      <trkpt lat="47.2458" lon="4.96432">
        <ele>335.12783813477</ele>
        <time>2019-05-01T09:05:48 0200</time>
      </trkpt>
      <trkpt lat="47.24579" lon="4.96437">
        <ele>334.88034057617</ele>
        <time>2019-05-01T09:05:45 0200</time>
      </trkpt>
      <trkpt lat="47.24578" lon="4.9644">
        <ele>334.78945922852</ele>
        <time>2019-05-01T09:05:42 0200</time>
      </trkpt>
      <trkpt lat="47.24577" lon="4.96445">
        <ele>334.72134399414</ele>
        <time>2019-05-01T09:05:39 0200</time>
      </trkpt>
      <trkpt lat="47.24576" lon="4.96449">
        <ele>334.69671630859</ele>
        <time>2019-05-01T09:05:36 0200</time>
      </trkpt>
      <trkpt lat="47.24577" lon="4.96453">
        <ele>334.68914794922</ele>
        <time>2019-05-01T09:05:33 0200</time>
      </trkpt>
      <trkpt lat="47.24577" lon="4.96458">
        <ele>334.67407226562</ele>
        <time>2019-05-01T09:05:30 0200</time>
      </trkpt>
      <trkpt lat="47.24576" lon="4.96459">
        <ele>334.74542236328</ele>
        <time>2019-05-01T09:05:27 0200</time>
      </trkpt>
      <trkpt lat="47.24574" lon="4.96461">
        <ele>334.98641967773</ele>
        <time>2019-05-01T09:05:24 0200</time>
      </trkpt>
      <trkpt lat="47.24575" lon="4.96465">
        <ele>335.27362060547</ele>
        <time>2019-05-01T09:05:21 0200</time>
      </trkpt>
      <trkpt lat="47.24575" lon="4.9647">
        <ele>335.51898193359</ele>
        <time>2019-05-01T09:05:18 0200</time>
      </trkpt>
      <trkpt lat="47.24574" lon="4.96475">
        <ele>335.69696044922</ele>
        <time>2019-05-01T09:05:15 0200</time>
      </trkpt>
      <trkpt lat="47.24574" lon="4.96478">
        <ele>335.91384887695</ele>
        <time>2019-05-01T09:05:12 0200</time>
      </trkpt>
      <trkpt lat="47.24573" lon="4.96483">
        <ele>336.10684204102</ele>
        <time>2019-05-01T09:05:09 0200</time>
      </trkpt>
      <trkpt lat="47.24573" lon="4.96489">
        <ele>336.17306518555</ele>
        <time>2019-05-01T09:05:06 0200</time>
      </trkpt>
      <trkpt lat="47.24573" lon="4.96493">
        <ele>336.17520141602</ele>
        <time>2019-05-01T09:05:03 0200</time>
      </trkpt>
      <trkpt lat="47.24572" lon="4.96495">
        <ele>336.21228027344</ele>
        <time>2019-05-01T09:05:00 0200</time>
      </trkpt>
      <trkpt lat="47.24572" lon="4.96498">
        <ele>336.26736450195</ele>
        <time>2019-05-01T09:04:57 0200</time>
      </trkpt>
      <trkpt lat="47.2457" lon="4.96502">
        <ele>336.26992797852</ele>
        <time>2019-05-01T09:04:54 0200</time>
      </trkpt>
      <trkpt lat="47.2457" lon="4.96506">
        <ele>336.16653442383</ele>
        <time>2019-05-01T09:04:51 0200</time>
      </trkpt>
      <trkpt lat="47.2457" lon="4.96509">
        <ele>336.06024169922</ele>
        <time>2019-05-01T09:04:48 0200</time>
      </trkpt>
      <trkpt lat="47.24568" lon="4.96512">
        <ele>335.99893188477</ele>
        <time>2019-05-01T09:04:45 0200</time>
      </trkpt>
      <trkpt lat="47.24567" lon="4.96516">
        <ele>335.9287109375</ele>
        <time>2019-05-01T09:04:42 0200</time>
      </trkpt>
      <trkpt lat="47.24565" lon="4.96519">
        <ele>335.86184692383</ele>
        <time>2019-05-01T09:04:39 0200</time>
      </trkpt>
      <trkpt lat="47.24565" lon="4.96522">
        <ele>335.81454467773</ele>
        <time>2019-05-01T09:04:36 0200</time>
      </trkpt>
      <trkpt lat="47.24565" lon="4.96525">
        <ele>335.78961181641</ele>
        <time>2019-05-01T09:04:33 0200</time>
      </trkpt>
      <trkpt lat="47.24565" lon="4.9653">
        <ele>335.74884033203</ele>
        <time>2019-05-01T09:04:30 0200</time>
      </trkpt>
      <trkpt lat="47.24564" lon="4.96532">
        <ele>335.68798828125</ele>
        <time>2019-05-01T09:04:27 0200</time>
      </trkpt>
      <trkpt lat="47.24563" lon="4.96537">
        <ele>335.63064575195</ele>
        <time>2019-05-01T09:04:24 0200</time>
      </trkpt>
      <trkpt lat="47.24563" lon="4.96539">
        <ele>335.61456298828</ele>
        <time>2019-05-01T09:04:21 0200</time>
      </trkpt>
      <trkpt lat="47.24564" lon="4.96539">
        <ele>335.64547729492</ele>
        <time>2019-05-01T09:04:18 0200</time>
      </trkpt>
      <trkpt lat="47.24564" lon="4.96542">
        <ele>335.71282958984</ele>
        <time>2019-05-01T09:04:15 0200</time>
      </trkpt>
      <trkpt lat="47.24565" lon="4.96544">
        <ele>335.80352783203</ele>
        <time>2019-05-01T09:04:12 0200</time>
      </trkpt>
      <trkpt lat="47.24566" lon="4.96545">
        <ele>335.89086914062</ele>
        <time>2019-05-01T09:04:09 0200</time>
      </trkpt>
    </trkseg>
  </trk>
</gpx>